<?xml version="1.0" encoding="UTF-8" standalone="no" ?>
<gpx xmlns="http://www.topografix.com/GPX/1/1" xmlns:xsi="http://www.w3.org/2001/XMLSchema-instance" xsi:schemaLocation="http://www.topografix.com/GPX/1/1 http://www.topografix.com/GPX/1/1/gpx.xsd" version="1.1" creator="VisuGPX - https://www.visugpx.com">
  <metadata>
    <name>Vers le refuge Wallon, dans la neige</name>
    <desc><![CDATA[Pas mal de neige mais ça caillait. On voulait aller au lac d'Aratilles mais on se pelait trop, alors on est passés dans la vallée de droite qui était ensoleillée et c'est allé beaucoup mieux]]></desc>
  </metadata>
  <trk>
    <name><![CDATA[2021-02-23 15:41:23]]></name>
    <trkseg>
      <trkpt lat="42.85169" lon="-0.13659">
        <ele>1314.26</ele>
        <time>2021-02-23T07:08:35Z</time>
      </trkpt>
      <trkpt lat="42.85169" lon="-0.13661">
        <ele>1316.66</ele>
        <time>2021-02-23T07:08:50Z</time>
      </trkpt>
      <trkpt lat="42.85171" lon="-0.13657">
        <ele>1314.26</ele>
        <time>2021-02-23T07:08:59Z</time>
      </trkpt>
      <trkpt lat="42.85172" lon="-0.13657">
        <ele>1319.07</ele>
        <time>2021-02-23T07:09:01Z</time>
      </trkpt>
      <trkpt lat="42.85172" lon="-0.13655">
        <ele>1323.39</ele>
        <time>2021-02-23T07:09:02Z</time>
      </trkpt>
      <trkpt lat="42.85172" lon="-0.13654">
        <ele>1323.39</ele>
        <time>2021-02-23T07:09:03Z</time>
      </trkpt>
      <trkpt lat="42.85171" lon="-0.13654">
        <ele>1328.2</ele>
        <time>2021-02-23T07:09:04Z</time>
      </trkpt>
      <trkpt lat="42.85169" lon="-0.13652">
        <ele>1341.66</ele>
        <time>2021-02-23T07:09:06Z</time>
      </trkpt>
      <trkpt lat="42.85169" lon="-0.13653">
        <ele>1341.66</ele>
        <time>2021-02-23T07:09:08Z</time>
      </trkpt>
      <trkpt lat="42.85169" lon="-0.13656">
        <ele>1353.19</ele>
        <time>2021-02-23T07:09:11Z</time>
      </trkpt>
      <trkpt lat="42.85169" lon="-0.13656">
        <ele>1353.19</ele>
        <time>2021-02-23T07:09:12Z</time>
      </trkpt>
      <trkpt lat="42.8517" lon="-0.13657">
        <ele>1360.4</ele>
        <time>2021-02-23T07:09:15Z</time>
      </trkpt>
      <trkpt lat="42.8517" lon="-0.13658">
        <ele>1360.4</ele>
        <time>2021-02-23T07:09:16Z</time>
      </trkpt>
      <trkpt lat="42.8517" lon="-0.13659">
        <ele>1363.77</ele>
        <time>2021-02-23T07:09:17Z</time>
      </trkpt>
      <trkpt lat="42.85171" lon="-0.13659">
        <ele>1372.9</ele>
        <time>2021-02-23T07:09:19Z</time>
      </trkpt>
      <trkpt lat="42.85171" lon="-0.13658">
        <ele>1372.9</ele>
        <time>2021-02-23T07:09:21Z</time>
      </trkpt>
      <trkpt lat="42.85172" lon="-0.13659">
        <ele>1378.67</ele>
        <time>2021-02-23T07:09:24Z</time>
      </trkpt>
      <trkpt lat="42.85173" lon="-0.13661">
        <ele>1386.84</ele>
        <time>2021-02-23T07:09:26Z</time>
      </trkpt>
      <trkpt lat="42.85173" lon="-0.13664">
        <ele>1392.13</ele>
        <time>2021-02-23T07:09:28Z</time>
      </trkpt>
      <trkpt lat="42.85172" lon="-0.13666">
        <ele>1396.93</ele>
        <time>2021-02-23T07:09:30Z</time>
      </trkpt>
      <trkpt lat="42.85172" lon="-0.13668">
        <ele>1396.93</ele>
        <time>2021-02-23T07:09:32Z</time>
      </trkpt>
      <trkpt lat="42.85172" lon="-0.1367">
        <ele>1404.62</ele>
        <time>2021-02-23T07:09:35Z</time>
      </trkpt>
      <trkpt lat="42.85172" lon="-0.13671">
        <ele>1404.62</ele>
        <time>2021-02-23T07:09:36Z</time>
      </trkpt>
      <trkpt lat="42.85171" lon="-0.13673">
        <ele>1409.43</ele>
        <time>2021-02-23T07:09:38Z</time>
      </trkpt>
      <trkpt lat="42.85171" lon="-0.13676">
        <ele>1413.28</ele>
        <time>2021-02-23T07:09:40Z</time>
      </trkpt>
      <trkpt lat="42.8517" lon="-0.1368">
        <ele>1418.56</ele>
        <time>2021-02-23T07:09:43Z</time>
      </trkpt>
      <trkpt lat="42.8517" lon="-0.13683">
        <ele>1421.93</ele>
        <time>2021-02-23T07:09:45Z</time>
      </trkpt>
      <trkpt lat="42.8517" lon="-0.13686">
        <ele>1424.81</ele>
        <time>2021-02-23T07:09:47Z</time>
      </trkpt>
      <trkpt lat="42.85169" lon="-0.1369">
        <ele>1429.14</ele>
        <time>2021-02-23T07:09:50Z</time>
      </trkpt>
      <trkpt lat="42.85168" lon="-0.13691">
        <ele>1434.91</ele>
        <time>2021-02-23T07:09:53Z</time>
      </trkpt>
      <trkpt lat="42.85168" lon="-0.13691">
        <ele>1434.91</ele>
        <time>2021-02-23T07:09:54Z</time>
      </trkpt>
      <trkpt lat="42.85167" lon="-0.13693">
        <ele>1438.27</ele>
        <time>2021-02-23T07:09:57Z</time>
      </trkpt>
      <trkpt lat="42.85168" lon="-0.137">
        <ele>1442.11</ele>
        <time>2021-02-23T07:10:01Z</time>
      </trkpt>
      <trkpt lat="42.85165" lon="-0.13705">
        <ele>1445.48</ele>
        <time>2021-02-23T07:10:05Z</time>
      </trkpt>
      <trkpt lat="42.85163" lon="-0.13713">
        <ele>1448.84</ele>
        <time>2021-02-23T07:10:10Z</time>
      </trkpt>
      <trkpt lat="42.8516" lon="-0.1372">
        <ele>1452.21</ele>
        <time>2021-02-23T07:10:15Z</time>
      </trkpt>
      <trkpt lat="42.85158" lon="-0.13722">
        <ele>1453.65</ele>
        <time>2021-02-23T07:10:17Z</time>
      </trkpt>
      <trkpt lat="42.85156" lon="-0.13726">
        <ele>1455.57</ele>
        <time>2021-02-23T07:10:20Z</time>
      </trkpt>
      <trkpt lat="42.85153" lon="-0.13736">
        <ele>1458.46</ele>
        <time>2021-02-23T07:10:27Z</time>
      </trkpt>
      <trkpt lat="42.85152" lon="-0.13742">
        <ele>1459.9</ele>
        <time>2021-02-23T07:10:31Z</time>
      </trkpt>
      <trkpt lat="42.85146" lon="-0.13757">
        <ele>1463.26</ele>
        <time>2021-02-23T07:10:43Z</time>
      </trkpt>
      <trkpt lat="42.85144" lon="-0.13776">
        <ele>1466.15</ele>
        <time>2021-02-23T07:10:55Z</time>
      </trkpt>
      <trkpt lat="42.8514" lon="-0.13794">
        <ele>1469.51</ele>
        <time>2021-02-23T07:11:06Z</time>
      </trkpt>
      <trkpt lat="42.8514" lon="-0.13796">
        <ele>1321.95</ele>
        <time>2021-02-23T07:11:08Z</time>
      </trkpt>
      <trkpt lat="42.85139" lon="-0.13798">
        <ele>1469.99</ele>
        <time>2021-02-23T07:11:09Z</time>
      </trkpt>
      <trkpt lat="42.85139" lon="-0.138">
        <ele>1469.99</ele>
        <time>2021-02-23T07:11:11Z</time>
      </trkpt>
      <trkpt lat="42.8514" lon="-0.13823">
        <ele>1471.92</ele>
        <time>2021-02-23T07:11:26Z</time>
      </trkpt>
      <trkpt lat="42.8513" lon="-0.1384">
        <ele>1473.36</ele>
        <time>2021-02-23T07:11:38Z</time>
      </trkpt>
      <trkpt lat="42.85128" lon="-0.13844">
        <ele>1473.84</ele>
        <time>2021-02-23T07:11:40Z</time>
      </trkpt>
      <trkpt lat="42.85113" lon="-0.1386">
        <ele>1475.28</ele>
        <time>2021-02-23T07:11:56Z</time>
      </trkpt>
      <trkpt lat="42.85113" lon="-0.1386">
        <ele>1475.28</ele>
        <time>2021-02-23T07:11:57Z</time>
      </trkpt>
      <trkpt lat="42.85108" lon="-0.13865">
        <ele>1476.72</ele>
        <time>2021-02-23T07:12:03Z</time>
      </trkpt>
      <trkpt lat="42.85106" lon="-0.13876">
        <ele>1478.16</ele>
        <time>2021-02-23T07:12:14Z</time>
      </trkpt>
      <trkpt lat="42.85099" lon="-0.13889">
        <ele>1480.09</ele>
        <time>2021-02-23T07:12:26Z</time>
      </trkpt>
      <trkpt lat="42.85096" lon="-0.13903">
        <ele>1481.05</ele>
        <time>2021-02-23T07:12:36Z</time>
      </trkpt>
      <trkpt lat="42.85097" lon="-0.13905">
        <ele>1481.05</ele>
        <time>2021-02-23T07:12:37Z</time>
      </trkpt>
      <trkpt lat="42.851" lon="-0.13921">
        <ele>1481.05</ele>
        <time>2021-02-23T07:12:47Z</time>
      </trkpt>
      <trkpt lat="42.85106" lon="-0.13934">
        <ele>1481.53</ele>
        <time>2021-02-23T07:12:57Z</time>
      </trkpt>
      <trkpt lat="42.85116" lon="-0.13939">
        <ele>1482.49</ele>
        <time>2021-02-23T07:13:07Z</time>
      </trkpt>
      <trkpt lat="42.85125" lon="-0.13937">
        <ele>1482.49</ele>
        <time>2021-02-23T07:13:14Z</time>
      </trkpt>
      <trkpt lat="42.85132" lon="-0.13933">
        <ele>1483.93</ele>
        <time>2021-02-23T07:13:26Z</time>
      </trkpt>
      <trkpt lat="42.85142" lon="-0.13937">
        <ele>1485.37</ele>
        <time>2021-02-23T07:13:36Z</time>
      </trkpt>
      <trkpt lat="42.85143" lon="-0.13938">
        <ele>1485.85</ele>
        <time>2021-02-23T07:13:37Z</time>
      </trkpt>
      <trkpt lat="42.85131" lon="-0.13948">
        <ele>1487.3</ele>
        <time>2021-02-23T07:13:50Z</time>
      </trkpt>
      <trkpt lat="42.85121" lon="-0.13956">
        <ele>1489.22</ele>
        <time>2021-02-23T07:14:02Z</time>
      </trkpt>
      <trkpt lat="42.85114" lon="-0.13962">
        <ele>1491.62</ele>
        <time>2021-02-23T07:14:13Z</time>
      </trkpt>
      <trkpt lat="42.85113" lon="-0.13967">
        <ele>1492.1</ele>
        <time>2021-02-23T07:14:24Z</time>
      </trkpt>
      <trkpt lat="42.85113" lon="-0.13969">
        <ele>1492.1</ele>
        <time>2021-02-23T07:14:39Z</time>
      </trkpt>
      <trkpt lat="42.85113" lon="-0.13972">
        <ele>1492.58</ele>
        <time>2021-02-23T07:14:55Z</time>
      </trkpt>
      <trkpt lat="42.8511" lon="-0.13981">
        <ele>1494.51</ele>
        <time>2021-02-23T07:15:06Z</time>
      </trkpt>
      <trkpt lat="42.85113" lon="-0.13985">
        <ele>1495.47</ele>
        <time>2021-02-23T07:15:13Z</time>
      </trkpt>
      <trkpt lat="42.85127" lon="-0.13979">
        <ele>1495.95</ele>
        <time>2021-02-23T07:15:28Z</time>
      </trkpt>
      <trkpt lat="42.8514" lon="-0.13986">
        <ele>1497.39</ele>
        <time>2021-02-23T07:15:42Z</time>
      </trkpt>
      <trkpt lat="42.8514" lon="-0.13993">
        <ele>1498.83</ele>
        <time>2021-02-23T07:15:47Z</time>
      </trkpt>
      <trkpt lat="42.85136" lon="-0.14014">
        <ele>1500.27</ele>
        <time>2021-02-23T07:16:02Z</time>
      </trkpt>
      <trkpt lat="42.85131" lon="-0.1403">
        <ele>1501.72</ele>
        <time>2021-02-23T07:16:14Z</time>
      </trkpt>
      <trkpt lat="42.85129" lon="-0.14042">
        <ele>1502.68</ele>
        <time>2021-02-23T07:16:24Z</time>
      </trkpt>
      <trkpt lat="42.85128" lon="-0.14058">
        <ele>1503.64</ele>
        <time>2021-02-23T07:16:35Z</time>
      </trkpt>
      <trkpt lat="42.85128" lon="-0.14075">
        <ele>1505.08</ele>
        <time>2021-02-23T07:16:48Z</time>
      </trkpt>
      <trkpt lat="42.85128" lon="-0.14092">
        <ele>1506.52</ele>
        <time>2021-02-23T07:17:00Z</time>
      </trkpt>
      <trkpt lat="42.85129" lon="-0.14093">
        <ele>1506.52</ele>
        <time>2021-02-23T07:17:01Z</time>
      </trkpt>
      <trkpt lat="42.8513" lon="-0.14097">
        <ele>1507</ele>
        <time>2021-02-23T07:17:04Z</time>
      </trkpt>
      <trkpt lat="42.8513" lon="-0.141">
        <ele>1507</ele>
        <time>2021-02-23T07:17:06Z</time>
      </trkpt>
      <trkpt lat="42.85135" lon="-0.14119">
        <ele>1508.93</ele>
        <time>2021-02-23T07:17:20Z</time>
      </trkpt>
      <trkpt lat="42.8514" lon="-0.14135">
        <ele>1510.85</ele>
        <time>2021-02-23T07:17:33Z</time>
      </trkpt>
      <trkpt lat="42.85145" lon="-0.14145">
        <ele>1511.81</ele>
        <time>2021-02-23T07:17:43Z</time>
      </trkpt>
      <trkpt lat="42.85157" lon="-0.14151">
        <ele>1513.73</ele>
        <time>2021-02-23T07:17:56Z</time>
      </trkpt>
      <trkpt lat="42.85168" lon="-0.14154">
        <ele>1515.66</ele>
        <time>2021-02-23T07:18:07Z</time>
      </trkpt>
      <trkpt lat="42.85178" lon="-0.14164">
        <ele>1517.1</ele>
        <time>2021-02-23T07:18:17Z</time>
      </trkpt>
      <trkpt lat="42.85182" lon="-0.14173">
        <ele>1517.58</ele>
        <time>2021-02-23T07:18:25Z</time>
      </trkpt>
      <trkpt lat="42.85183" lon="-0.14177">
        <ele>1518.06</ele>
        <time>2021-02-23T07:18:28Z</time>
      </trkpt>
      <trkpt lat="42.85189" lon="-0.14196">
        <ele>1519.02</ele>
        <time>2021-02-23T07:18:42Z</time>
      </trkpt>
      <trkpt lat="42.852" lon="-0.14212">
        <ele>1520.46</ele>
        <time>2021-02-23T07:18:57Z</time>
      </trkpt>
      <trkpt lat="42.85212" lon="-0.14229">
        <ele>1520.94</ele>
        <time>2021-02-23T07:19:12Z</time>
      </trkpt>
      <trkpt lat="42.85223" lon="-0.14244">
        <ele>1520.94</ele>
        <time>2021-02-23T07:19:25Z</time>
      </trkpt>
      <trkpt lat="42.85236" lon="-0.14255">
        <ele>1521.42</ele>
        <time>2021-02-23T07:19:38Z</time>
      </trkpt>
      <trkpt lat="42.85251" lon="-0.14268">
        <ele>1521.42</ele>
        <time>2021-02-23T07:19:53Z</time>
      </trkpt>
      <trkpt lat="42.85259" lon="-0.14285">
        <ele>1521.42</ele>
        <time>2021-02-23T07:20:05Z</time>
      </trkpt>
      <trkpt lat="42.85262" lon="-0.14313">
        <ele>1520.46</ele>
        <time>2021-02-23T07:20:21Z</time>
      </trkpt>
      <trkpt lat="42.85263" lon="-0.14335">
        <ele>1521.42</ele>
        <time>2021-02-23T07:20:35Z</time>
      </trkpt>
      <trkpt lat="42.85263" lon="-0.14358">
        <ele>1521.42</ele>
        <time>2021-02-23T07:20:49Z</time>
      </trkpt>
      <trkpt lat="42.85261" lon="-0.14383">
        <ele>1521.9</ele>
        <time>2021-02-23T07:21:05Z</time>
      </trkpt>
      <trkpt lat="42.85254" lon="-0.14411">
        <ele>1522.39</ele>
        <time>2021-02-23T07:21:23Z</time>
      </trkpt>
      <trkpt lat="42.85246" lon="-0.14435">
        <ele>1522.39</ele>
        <time>2021-02-23T07:21:39Z</time>
      </trkpt>
      <trkpt lat="42.85237" lon="-0.14456">
        <ele>1521.42</ele>
        <time>2021-02-23T07:21:54Z</time>
      </trkpt>
      <trkpt lat="42.85231" lon="-0.14481">
        <ele>1520.46</ele>
        <time>2021-02-23T07:22:09Z</time>
      </trkpt>
      <trkpt lat="42.85224" lon="-0.14504">
        <ele>1519.98</ele>
        <time>2021-02-23T07:22:25Z</time>
      </trkpt>
      <trkpt lat="42.85214" lon="-0.14527">
        <ele>1519.02</ele>
        <time>2021-02-23T07:22:40Z</time>
      </trkpt>
      <trkpt lat="42.85207" lon="-0.14551">
        <ele>1519.02</ele>
        <time>2021-02-23T07:22:56Z</time>
      </trkpt>
      <trkpt lat="42.85202" lon="-0.14567">
        <ele>1519.02</ele>
        <time>2021-02-23T07:23:08Z</time>
      </trkpt>
      <trkpt lat="42.85201" lon="-0.14568">
        <ele>1519.02</ele>
        <time>2021-02-23T07:23:09Z</time>
      </trkpt>
      <trkpt lat="42.85196" lon="-0.14578">
        <ele>1519.02</ele>
        <time>2021-02-23T07:23:17Z</time>
      </trkpt>
      <trkpt lat="42.85185" lon="-0.14603">
        <ele>1519.02</ele>
        <time>2021-02-23T07:23:36Z</time>
      </trkpt>
      <trkpt lat="42.85178" lon="-0.14626">
        <ele>1520.46</ele>
        <time>2021-02-23T07:23:52Z</time>
      </trkpt>
      <trkpt lat="42.85168" lon="-0.14647">
        <ele>1520.46</ele>
        <time>2021-02-23T07:24:07Z</time>
      </trkpt>
      <trkpt lat="42.85162" lon="-0.14668">
        <ele>1520.94</ele>
        <time>2021-02-23T07:24:21Z</time>
      </trkpt>
      <trkpt lat="42.85148" lon="-0.14683">
        <ele>1521.9</ele>
        <time>2021-02-23T07:24:35Z</time>
      </trkpt>
      <trkpt lat="42.8513" lon="-0.147">
        <ele>1522.87</ele>
        <time>2021-02-23T07:24:52Z</time>
      </trkpt>
      <trkpt lat="42.85115" lon="-0.14695">
        <ele>1522.87</ele>
        <time>2021-02-23T07:25:04Z</time>
      </trkpt>
      <trkpt lat="42.85105" lon="-0.14694">
        <ele>1522.87</ele>
        <time>2021-02-23T07:25:18Z</time>
      </trkpt>
      <trkpt lat="42.85101" lon="-0.1469">
        <ele>1522.87</ele>
        <time>2021-02-23T07:25:23Z</time>
      </trkpt>
      <trkpt lat="42.85095" lon="-0.14685">
        <ele>1521.42</ele>
        <time>2021-02-23T07:25:30Z</time>
      </trkpt>
      <trkpt lat="42.85083" lon="-0.14683">
        <ele>1522.87</ele>
        <time>2021-02-23T07:25:40Z</time>
      </trkpt>
      <trkpt lat="42.85072" lon="-0.14682">
        <ele>1522.87</ele>
        <time>2021-02-23T07:25:53Z</time>
      </trkpt>
      <trkpt lat="42.8507" lon="-0.14686">
        <ele>1522.87</ele>
        <time>2021-02-23T07:25:57Z</time>
      </trkpt>
      <trkpt lat="42.85067" lon="-0.14689">
        <ele>1521.9</ele>
        <time>2021-02-23T07:26:08Z</time>
      </trkpt>
      <trkpt lat="42.85067" lon="-0.14689">
        <ele>1523.35</ele>
        <time>2021-02-23T07:26:10Z</time>
      </trkpt>
      <trkpt lat="42.85064" lon="-0.14691">
        <ele>1523.35</ele>
        <time>2021-02-23T07:26:21Z</time>
      </trkpt>
      <trkpt lat="42.85065" lon="-0.14692">
        <ele>1523.35</ele>
        <time>2021-02-23T07:26:30Z</time>
      </trkpt>
      <trkpt lat="42.85065" lon="-0.14692">
        <ele>1521.9</ele>
        <time>2021-02-23T07:26:32Z</time>
      </trkpt>
      <trkpt lat="42.85065" lon="-0.14692">
        <ele>1521.9</ele>
        <time>2021-02-23T07:26:35Z</time>
      </trkpt>
      <trkpt lat="42.85063" lon="-0.14696">
        <ele>1523.35</ele>
        <time>2021-02-23T07:26:40Z</time>
      </trkpt>
      <trkpt lat="42.85063" lon="-0.14712">
        <ele>1524.31</ele>
        <time>2021-02-23T07:26:51Z</time>
      </trkpt>
      <trkpt lat="42.85064" lon="-0.14722">
        <ele>1524.79</ele>
        <time>2021-02-23T07:27:00Z</time>
      </trkpt>
      <trkpt lat="42.85062" lon="-0.14737">
        <ele>1524.79</ele>
        <time>2021-02-23T07:27:11Z</time>
      </trkpt>
      <trkpt lat="42.85062" lon="-0.14744">
        <ele>1524.79</ele>
        <time>2021-02-23T07:27:16Z</time>
      </trkpt>
      <trkpt lat="42.85063" lon="-0.14756">
        <ele>1525.27</ele>
        <time>2021-02-23T07:27:25Z</time>
      </trkpt>
      <trkpt lat="42.85062" lon="-0.14765">
        <ele>1525.27</ele>
        <time>2021-02-23T07:27:30Z</time>
      </trkpt>
      <trkpt lat="42.85059" lon="-0.14784">
        <ele>1526.23</ele>
        <time>2021-02-23T07:27:43Z</time>
      </trkpt>
      <trkpt lat="42.85059" lon="-0.14807">
        <ele>1526.23</ele>
        <time>2021-02-23T07:27:57Z</time>
      </trkpt>
      <trkpt lat="42.85053" lon="-0.14821">
        <ele>1526.71</ele>
        <time>2021-02-23T07:28:08Z</time>
      </trkpt>
      <trkpt lat="42.8505" lon="-0.14836">
        <ele>1527.19</ele>
        <time>2021-02-23T07:28:17Z</time>
      </trkpt>
      <trkpt lat="42.85047" lon="-0.14853">
        <ele>1527.67</ele>
        <time>2021-02-23T07:28:29Z</time>
      </trkpt>
      <trkpt lat="42.85043" lon="-0.14875">
        <ele>1528.15</ele>
        <time>2021-02-23T07:28:42Z</time>
      </trkpt>
      <trkpt lat="42.85042" lon="-0.14886">
        <ele>1528.63</ele>
        <time>2021-02-23T07:28:49Z</time>
      </trkpt>
      <trkpt lat="42.8504" lon="-0.14906">
        <ele>1529.59</ele>
        <time>2021-02-23T07:29:02Z</time>
      </trkpt>
      <trkpt lat="42.85035" lon="-0.14922">
        <ele>1531.04</ele>
        <time>2021-02-23T07:29:15Z</time>
      </trkpt>
      <trkpt lat="42.85031" lon="-0.14936">
        <ele>1532.48</ele>
        <time>2021-02-23T07:29:27Z</time>
      </trkpt>
      <trkpt lat="42.85027" lon="-0.1495">
        <ele>1533.92</ele>
        <time>2021-02-23T07:29:38Z</time>
      </trkpt>
      <trkpt lat="42.85023" lon="-0.14966">
        <ele>1535.36</ele>
        <time>2021-02-23T07:29:50Z</time>
      </trkpt>
      <trkpt lat="42.85021" lon="-0.1497">
        <ele>1535.36</ele>
        <time>2021-02-23T07:29:53Z</time>
      </trkpt>
      <trkpt lat="42.85014" lon="-0.14986">
        <ele>1536.8</ele>
        <time>2021-02-23T07:30:07Z</time>
      </trkpt>
      <trkpt lat="42.85006" lon="-0.15004">
        <ele>1536.8</ele>
        <time>2021-02-23T07:30:21Z</time>
      </trkpt>
      <trkpt lat="42.85005" lon="-0.15005">
        <ele>1536.8</ele>
        <time>2021-02-23T07:30:22Z</time>
      </trkpt>
      <trkpt lat="42.85002" lon="-0.15014">
        <ele>1536.8</ele>
        <time>2021-02-23T07:30:28Z</time>
      </trkpt>
      <trkpt lat="42.84994" lon="-0.15028">
        <ele>1537.29</ele>
        <time>2021-02-23T07:30:39Z</time>
      </trkpt>
      <trkpt lat="42.84988" lon="-0.15043">
        <ele>1537.77</ele>
        <time>2021-02-23T07:30:49Z</time>
      </trkpt>
      <trkpt lat="42.84987" lon="-0.1505">
        <ele>1537.77</ele>
        <time>2021-02-23T07:30:53Z</time>
      </trkpt>
      <trkpt lat="42.84986" lon="-0.15055">
        <ele>1538.25</ele>
        <time>2021-02-23T07:30:57Z</time>
      </trkpt>
      <trkpt lat="42.84988" lon="-0.15076">
        <ele>1538.73</ele>
        <time>2021-02-23T07:31:10Z</time>
      </trkpt>
      <trkpt lat="42.84995" lon="-0.15096">
        <ele>1539.21</ele>
        <time>2021-02-23T07:31:24Z</time>
      </trkpt>
      <trkpt lat="42.85002" lon="-0.15112">
        <ele>1539.69</ele>
        <time>2021-02-23T07:31:35Z</time>
      </trkpt>
      <trkpt lat="42.85003" lon="-0.1513">
        <ele>1540.17</ele>
        <time>2021-02-23T07:31:48Z</time>
      </trkpt>
      <trkpt lat="42.85002" lon="-0.15146">
        <ele>1542.09</ele>
        <time>2021-02-23T07:32:01Z</time>
      </trkpt>
      <trkpt lat="42.85004" lon="-0.15158">
        <ele>1544.5</ele>
        <time>2021-02-23T07:32:12Z</time>
      </trkpt>
      <trkpt lat="42.85007" lon="-0.15169">
        <ele>1545.94</ele>
        <time>2021-02-23T07:32:23Z</time>
      </trkpt>
      <trkpt lat="42.85011" lon="-0.15185">
        <ele>1547.38</ele>
        <time>2021-02-23T07:32:37Z</time>
      </trkpt>
      <trkpt lat="42.85011" lon="-0.15201">
        <ele>1548.82</ele>
        <time>2021-02-23T07:32:48Z</time>
      </trkpt>
      <trkpt lat="42.8501" lon="-0.15206">
        <ele>1549.3</ele>
        <time>2021-02-23T07:32:53Z</time>
      </trkpt>
      <trkpt lat="42.85005" lon="-0.15221">
        <ele>1550.74</ele>
        <time>2021-02-23T07:33:05Z</time>
      </trkpt>
      <trkpt lat="42.84998" lon="-0.15239">
        <ele>1551.22</ele>
        <time>2021-02-23T07:33:19Z</time>
      </trkpt>
      <trkpt lat="42.84993" lon="-0.15256">
        <ele>1552.67</ele>
        <time>2021-02-23T07:33:31Z</time>
      </trkpt>
      <trkpt lat="42.84992" lon="-0.15257">
        <ele>1553.15</ele>
        <time>2021-02-23T07:33:32Z</time>
      </trkpt>
      <trkpt lat="42.84993" lon="-0.15274">
        <ele>1554.59</ele>
        <time>2021-02-23T07:33:45Z</time>
      </trkpt>
      <trkpt lat="42.84993" lon="-0.15295">
        <ele>1556.51</ele>
        <time>2021-02-23T07:34:01Z</time>
      </trkpt>
      <trkpt lat="42.84994" lon="-0.15314">
        <ele>1557.47</ele>
        <time>2021-02-23T07:34:14Z</time>
      </trkpt>
      <trkpt lat="42.84996" lon="-0.15323">
        <ele>1557.95</ele>
        <time>2021-02-23T07:34:21Z</time>
      </trkpt>
      <trkpt lat="42.85005" lon="-0.15339">
        <ele>1559.88</ele>
        <time>2021-02-23T07:34:36Z</time>
      </trkpt>
      <trkpt lat="42.85009" lon="-0.15345">
        <ele>1561.8</ele>
        <time>2021-02-23T07:34:43Z</time>
      </trkpt>
      <trkpt lat="42.85017" lon="-0.15356">
        <ele>1562.76</ele>
        <time>2021-02-23T07:34:56Z</time>
      </trkpt>
      <trkpt lat="42.85026" lon="-0.15367">
        <ele>1564.2</ele>
        <time>2021-02-23T07:35:09Z</time>
      </trkpt>
      <trkpt lat="42.85032" lon="-0.15377">
        <ele>1565.16</ele>
        <time>2021-02-23T07:35:20Z</time>
      </trkpt>
      <trkpt lat="42.85037" lon="-0.15385">
        <ele>1566.61</ele>
        <time>2021-02-23T07:35:30Z</time>
      </trkpt>
      <trkpt lat="42.85043" lon="-0.15397">
        <ele>1568.05</ele>
        <time>2021-02-23T07:35:43Z</time>
      </trkpt>
      <trkpt lat="42.85042" lon="-0.15405">
        <ele>1569.01</ele>
        <time>2021-02-23T07:35:55Z</time>
      </trkpt>
      <trkpt lat="42.85041" lon="-0.15406">
        <ele>1569.49</ele>
        <time>2021-02-23T07:35:57Z</time>
      </trkpt>
      <trkpt lat="42.85032" lon="-0.1541">
        <ele>1569.97</ele>
        <time>2021-02-23T07:36:07Z</time>
      </trkpt>
      <trkpt lat="42.8503" lon="-0.15417">
        <ele>1570.93</ele>
        <time>2021-02-23T07:36:14Z</time>
      </trkpt>
      <trkpt lat="42.85029" lon="-0.15426">
        <ele>1570.93</ele>
        <time>2021-02-23T07:36:26Z</time>
      </trkpt>
      <trkpt lat="42.85029" lon="-0.15431">
        <ele>1571.41</ele>
        <time>2021-02-23T07:36:35Z</time>
      </trkpt>
      <trkpt lat="42.85029" lon="-0.1544">
        <ele>1571.89</ele>
        <time>2021-02-23T07:36:47Z</time>
      </trkpt>
      <trkpt lat="42.85031" lon="-0.15461">
        <ele>1571.89</ele>
        <time>2021-02-23T07:37:01Z</time>
      </trkpt>
      <trkpt lat="42.8503" lon="-0.15479">
        <ele>1572.37</ele>
        <time>2021-02-23T07:37:13Z</time>
      </trkpt>
      <trkpt lat="42.85029" lon="-0.15482">
        <ele>1572.37</ele>
        <time>2021-02-23T07:37:16Z</time>
      </trkpt>
      <trkpt lat="42.85024" lon="-0.15496">
        <ele>1572.85</ele>
        <time>2021-02-23T07:37:27Z</time>
      </trkpt>
      <trkpt lat="42.85021" lon="-0.155">
        <ele>1573.33</ele>
        <time>2021-02-23T07:37:30Z</time>
      </trkpt>
      <trkpt lat="42.85018" lon="-0.1551">
        <ele>1573.82</ele>
        <time>2021-02-23T07:37:37Z</time>
      </trkpt>
      <trkpt lat="42.85016" lon="-0.15515">
        <ele>1573.82</ele>
        <time>2021-02-23T07:37:41Z</time>
      </trkpt>
      <trkpt lat="42.85017" lon="-0.15534">
        <ele>1575.26</ele>
        <time>2021-02-23T07:37:52Z</time>
      </trkpt>
      <trkpt lat="42.85019" lon="-0.15536">
        <ele>1575.74</ele>
        <time>2021-02-23T07:37:58Z</time>
      </trkpt>
      <trkpt lat="42.85019" lon="-0.15548">
        <ele>1576.7</ele>
        <time>2021-02-23T07:38:09Z</time>
      </trkpt>
      <trkpt lat="42.85019" lon="-0.15565">
        <ele>1578.14</ele>
        <time>2021-02-23T07:38:20Z</time>
      </trkpt>
      <trkpt lat="42.85018" lon="-0.15569">
        <ele>1578.14</ele>
        <time>2021-02-23T07:38:24Z</time>
      </trkpt>
      <trkpt lat="42.85018" lon="-0.15586">
        <ele>1579.58</ele>
        <time>2021-02-23T07:38:37Z</time>
      </trkpt>
      <trkpt lat="42.85019" lon="-0.15599">
        <ele>1581.03</ele>
        <time>2021-02-23T07:38:48Z</time>
      </trkpt>
      <trkpt lat="42.8502" lon="-0.15612">
        <ele>1581.99</ele>
        <time>2021-02-23T07:38:58Z</time>
      </trkpt>
      <trkpt lat="42.85022" lon="-0.15625">
        <ele>1583.43</ele>
        <time>2021-02-23T07:39:09Z</time>
      </trkpt>
      <trkpt lat="42.85029" lon="-0.15638">
        <ele>1584.39</ele>
        <time>2021-02-23T07:39:22Z</time>
      </trkpt>
      <trkpt lat="42.85033" lon="-0.15648">
        <ele>1585.83</ele>
        <time>2021-02-23T07:39:33Z</time>
      </trkpt>
      <trkpt lat="42.85037" lon="-0.15663">
        <ele>1587.27</ele>
        <time>2021-02-23T07:39:46Z</time>
      </trkpt>
      <trkpt lat="42.85037" lon="-0.15674">
        <ele>1587.75</ele>
        <time>2021-02-23T07:39:55Z</time>
      </trkpt>
      <trkpt lat="42.85034" lon="-0.15684">
        <ele>1589.2</ele>
        <time>2021-02-23T07:40:06Z</time>
      </trkpt>
      <trkpt lat="42.85027" lon="-0.15695">
        <ele>1590.64</ele>
        <time>2021-02-23T07:40:18Z</time>
      </trkpt>
      <trkpt lat="42.85026" lon="-0.15699">
        <ele>1591.6</ele>
        <time>2021-02-23T07:40:22Z</time>
      </trkpt>
      <trkpt lat="42.85021" lon="-0.15711">
        <ele>1592.56</ele>
        <time>2021-02-23T07:40:33Z</time>
      </trkpt>
      <trkpt lat="42.85017" lon="-0.15723">
        <ele>1594</ele>
        <time>2021-02-23T07:40:44Z</time>
      </trkpt>
      <trkpt lat="42.8501" lon="-0.15735">
        <ele>1595.45</ele>
        <time>2021-02-23T07:40:55Z</time>
      </trkpt>
      <trkpt lat="42.85007" lon="-0.15742">
        <ele>1596.89</ele>
        <time>2021-02-23T07:41:00Z</time>
      </trkpt>
      <trkpt lat="42.85004" lon="-0.15744">
        <ele>1596.89</ele>
        <time>2021-02-23T07:41:03Z</time>
      </trkpt>
      <trkpt lat="42.85003" lon="-0.15746">
        <ele>1597.37</ele>
        <time>2021-02-23T07:41:06Z</time>
      </trkpt>
      <trkpt lat="42.84993" lon="-0.15756">
        <ele>1598.81</ele>
        <time>2021-02-23T07:41:20Z</time>
      </trkpt>
      <trkpt lat="42.84985" lon="-0.15765">
        <ele>1600.25</ele>
        <time>2021-02-23T07:41:32Z</time>
      </trkpt>
      <trkpt lat="42.8498" lon="-0.15772">
        <ele>1600.73</ele>
        <time>2021-02-23T07:41:40Z</time>
      </trkpt>
      <trkpt lat="42.84973" lon="-0.15782">
        <ele>1601.69</ele>
        <time>2021-02-23T07:41:52Z</time>
      </trkpt>
      <trkpt lat="42.84968" lon="-0.15786">
        <ele>1602.17</ele>
        <time>2021-02-23T07:41:58Z</time>
      </trkpt>
      <trkpt lat="42.84967" lon="-0.15789">
        <ele>1602.17</ele>
        <time>2021-02-23T07:42:01Z</time>
      </trkpt>
      <trkpt lat="42.84962" lon="-0.15799">
        <ele>1603.14</ele>
        <time>2021-02-23T07:42:11Z</time>
      </trkpt>
      <trkpt lat="42.84957" lon="-0.15812">
        <ele>1604.58</ele>
        <time>2021-02-23T07:42:22Z</time>
      </trkpt>
      <trkpt lat="42.84952" lon="-0.15828">
        <ele>1606.02</ele>
        <time>2021-02-23T07:42:36Z</time>
      </trkpt>
      <trkpt lat="42.8495" lon="-0.15842">
        <ele>1606.98</ele>
        <time>2021-02-23T07:42:48Z</time>
      </trkpt>
      <trkpt lat="42.84948" lon="-0.15847">
        <ele>1607.94</ele>
        <time>2021-02-23T07:42:53Z</time>
      </trkpt>
      <trkpt lat="42.84943" lon="-0.15859">
        <ele>1608.9</ele>
        <time>2021-02-23T07:43:05Z</time>
      </trkpt>
      <trkpt lat="42.84944" lon="-0.15855">
        <ele>1609.86</ele>
        <time>2021-02-23T07:43:27Z</time>
      </trkpt>
      <trkpt lat="42.84944" lon="-0.15855">
        <ele>1609.86</ele>
        <time>2021-02-23T07:43:29Z</time>
      </trkpt>
      <trkpt lat="42.8494" lon="-0.1587">
        <ele>1610.35</ele>
        <time>2021-02-23T07:43:40Z</time>
      </trkpt>
      <trkpt lat="42.84937" lon="-0.15887">
        <ele>1612.27</ele>
        <time>2021-02-23T07:43:53Z</time>
      </trkpt>
      <trkpt lat="42.84937" lon="-0.1589">
        <ele>1612.75</ele>
        <time>2021-02-23T07:44:04Z</time>
      </trkpt>
      <trkpt lat="42.84937" lon="-0.15893">
        <ele>1612.75</ele>
        <time>2021-02-23T07:44:21Z</time>
      </trkpt>
      <trkpt lat="42.84935" lon="-0.15904">
        <ele>1614.19</ele>
        <time>2021-02-23T07:44:33Z</time>
      </trkpt>
      <trkpt lat="42.84932" lon="-0.15917">
        <ele>1615.63</ele>
        <time>2021-02-23T07:44:45Z</time>
      </trkpt>
      <trkpt lat="42.84929" lon="-0.15929">
        <ele>1617.07</ele>
        <time>2021-02-23T07:44:56Z</time>
      </trkpt>
      <trkpt lat="42.84929" lon="-0.15941">
        <ele>1618.04</ele>
        <time>2021-02-23T07:45:05Z</time>
      </trkpt>
      <trkpt lat="42.8493" lon="-0.15944">
        <ele>1618.04</ele>
        <time>2021-02-23T07:45:07Z</time>
      </trkpt>
      <trkpt lat="42.84926" lon="-0.1596">
        <ele>1617.07</ele>
        <time>2021-02-23T07:45:22Z</time>
      </trkpt>
      <trkpt lat="42.84923" lon="-0.15963">
        <ele>1617.07</ele>
        <time>2021-02-23T07:45:30Z</time>
      </trkpt>
      <trkpt lat="42.84916" lon="-0.15968">
        <ele>1617.07</ele>
        <time>2021-02-23T07:45:42Z</time>
      </trkpt>
      <trkpt lat="42.8491" lon="-0.15974">
        <ele>1616.59</ele>
        <time>2021-02-23T07:45:55Z</time>
      </trkpt>
      <trkpt lat="42.84909" lon="-0.15975">
        <ele>1616.11</ele>
        <time>2021-02-23T07:45:57Z</time>
      </trkpt>
      <trkpt lat="42.84905" lon="-0.15977">
        <ele>1616.11</ele>
        <time>2021-02-23T07:46:02Z</time>
      </trkpt>
      <trkpt lat="42.84899" lon="-0.15981">
        <ele>1617.56</ele>
        <time>2021-02-23T07:46:09Z</time>
      </trkpt>
      <trkpt lat="42.84894" lon="-0.15982">
        <ele>1617.56</ele>
        <time>2021-02-23T07:46:22Z</time>
      </trkpt>
      <trkpt lat="42.84884" lon="-0.15987">
        <ele>1617.56</ele>
        <time>2021-02-23T07:46:34Z</time>
      </trkpt>
      <trkpt lat="42.8488" lon="-0.15988">
        <ele>1617.56</ele>
        <time>2021-02-23T07:46:38Z</time>
      </trkpt>
      <trkpt lat="42.84878" lon="-0.1599">
        <ele>1617.56</ele>
        <time>2021-02-23T07:46:41Z</time>
      </trkpt>
      <trkpt lat="42.84871" lon="-0.15992">
        <ele>1618.52</ele>
        <time>2021-02-23T07:46:49Z</time>
      </trkpt>
      <trkpt lat="42.84863" lon="-0.15994">
        <ele>1617.56</ele>
        <time>2021-02-23T07:47:02Z</time>
      </trkpt>
      <trkpt lat="42.84865" lon="-0.15993">
        <ele>1616.11</ele>
        <time>2021-02-23T07:47:25Z</time>
      </trkpt>
      <trkpt lat="42.84864" lon="-0.15993">
        <ele>1616.11</ele>
        <time>2021-02-23T07:47:27Z</time>
      </trkpt>
      <trkpt lat="42.84849" lon="-0.15998">
        <ele>1617.56</ele>
        <time>2021-02-23T07:47:40Z</time>
      </trkpt>
      <trkpt lat="42.84848" lon="-0.15999">
        <ele>1617.56</ele>
        <time>2021-02-23T07:47:41Z</time>
      </trkpt>
      <trkpt lat="42.84836" lon="-0.16008">
        <ele>1619</ele>
        <time>2021-02-23T07:47:55Z</time>
      </trkpt>
      <trkpt lat="42.84824" lon="-0.16016">
        <ele>1620.44</ele>
        <time>2021-02-23T07:48:09Z</time>
      </trkpt>
      <trkpt lat="42.84815" lon="-0.16024">
        <ele>1621.88</ele>
        <time>2021-02-23T07:48:21Z</time>
      </trkpt>
      <trkpt lat="42.84806" lon="-0.16029">
        <ele>1621.88</ele>
        <time>2021-02-23T07:48:30Z</time>
      </trkpt>
      <trkpt lat="42.84796" lon="-0.16037">
        <ele>1623.32</ele>
        <time>2021-02-23T07:48:42Z</time>
      </trkpt>
      <trkpt lat="42.84789" lon="-0.16041">
        <ele>1623.8</ele>
        <time>2021-02-23T07:48:48Z</time>
      </trkpt>
      <trkpt lat="42.84786" lon="-0.16042">
        <ele>1623.8</ele>
        <time>2021-02-23T07:48:51Z</time>
      </trkpt>
      <trkpt lat="42.84778" lon="-0.1605">
        <ele>1624.28</ele>
        <time>2021-02-23T07:49:00Z</time>
      </trkpt>
      <trkpt lat="42.84777" lon="-0.16053">
        <ele>1624.28</ele>
        <time>2021-02-23T07:49:03Z</time>
      </trkpt>
      <trkpt lat="42.84774" lon="-0.16063">
        <ele>1624.77</ele>
        <time>2021-02-23T07:49:10Z</time>
      </trkpt>
      <trkpt lat="42.84769" lon="-0.1608">
        <ele>1625.73</ele>
        <time>2021-02-23T07:49:22Z</time>
      </trkpt>
      <trkpt lat="42.84767" lon="-0.16084">
        <ele>1625.73</ele>
        <time>2021-02-23T07:49:25Z</time>
      </trkpt>
      <trkpt lat="42.84764" lon="-0.16101">
        <ele>1625.25</ele>
        <time>2021-02-23T07:49:37Z</time>
      </trkpt>
      <trkpt lat="42.84763" lon="-0.16107">
        <ele>1625.25</ele>
        <time>2021-02-23T07:49:41Z</time>
      </trkpt>
      <trkpt lat="42.84764" lon="-0.16113">
        <ele>1625.25</ele>
        <time>2021-02-23T07:49:45Z</time>
      </trkpt>
      <trkpt lat="42.84767" lon="-0.1614">
        <ele>1624.28</ele>
        <time>2021-02-23T07:50:01Z</time>
      </trkpt>
      <trkpt lat="42.84773" lon="-0.16159">
        <ele>1624.28</ele>
        <time>2021-02-23T07:50:14Z</time>
      </trkpt>
      <trkpt lat="42.84778" lon="-0.16168">
        <ele>1624.28</ele>
        <time>2021-02-23T07:50:22Z</time>
      </trkpt>
      <trkpt lat="42.84782" lon="-0.16182">
        <ele>1624.28</ele>
        <time>2021-02-23T07:50:32Z</time>
      </trkpt>
      <trkpt lat="42.84781" lon="-0.16204">
        <ele>1623.32</ele>
        <time>2021-02-23T07:50:46Z</time>
      </trkpt>
      <trkpt lat="42.84779" lon="-0.16227">
        <ele>1621.4</ele>
        <time>2021-02-23T07:51:02Z</time>
      </trkpt>
      <trkpt lat="42.84779" lon="-0.16247">
        <ele>1619.48</ele>
        <time>2021-02-23T07:51:17Z</time>
      </trkpt>
      <trkpt lat="42.84781" lon="-0.16273">
        <ele>1618.52</ele>
        <time>2021-02-23T07:51:35Z</time>
      </trkpt>
      <trkpt lat="42.84796" lon="-0.16286">
        <ele>1617.07</ele>
        <time>2021-02-23T07:51:50Z</time>
      </trkpt>
      <trkpt lat="42.84807" lon="-0.16301">
        <ele>1616.11</ele>
        <time>2021-02-23T07:52:04Z</time>
      </trkpt>
      <trkpt lat="42.84818" lon="-0.16318">
        <ele>1616.59</ele>
        <time>2021-02-23T07:52:19Z</time>
      </trkpt>
      <trkpt lat="42.84819" lon="-0.16347">
        <ele>1615.63</ele>
        <time>2021-02-23T07:52:37Z</time>
      </trkpt>
      <trkpt lat="42.84816" lon="-0.16354">
        <ele>1615.63</ele>
        <time>2021-02-23T07:52:42Z</time>
      </trkpt>
      <trkpt lat="42.84814" lon="-0.16356">
        <ele>1617.07</ele>
        <time>2021-02-23T07:52:44Z</time>
      </trkpt>
      <trkpt lat="42.84804" lon="-0.16364">
        <ele>1619.96</ele>
        <time>2021-02-23T07:52:54Z</time>
      </trkpt>
      <trkpt lat="42.84802" lon="-0.16365">
        <ele>1619.96</ele>
        <time>2021-02-23T07:52:55Z</time>
      </trkpt>
      <trkpt lat="42.84795" lon="-0.16367">
        <ele>1616.59</ele>
        <time>2021-02-23T07:53:02Z</time>
      </trkpt>
      <trkpt lat="42.84794" lon="-0.16368">
        <ele>1617.07</ele>
        <time>2021-02-23T07:53:03Z</time>
      </trkpt>
      <trkpt lat="42.84775" lon="-0.16379">
        <ele>1615.63</ele>
        <time>2021-02-23T07:53:20Z</time>
      </trkpt>
      <trkpt lat="42.84772" lon="-0.16378">
        <ele>1613.71</ele>
        <time>2021-02-23T07:53:31Z</time>
      </trkpt>
      <trkpt lat="42.84771" lon="-0.16379">
        <ele>1615.63</ele>
        <time>2021-02-23T07:53:41Z</time>
      </trkpt>
      <trkpt lat="42.8477" lon="-0.16379">
        <ele>1614.19</ele>
        <time>2021-02-23T07:53:43Z</time>
      </trkpt>
      <trkpt lat="42.8477" lon="-0.16377">
        <ele>1616.11</ele>
        <time>2021-02-23T07:53:59Z</time>
      </trkpt>
      <trkpt lat="42.8477" lon="-0.16378">
        <ele>1617.07</ele>
        <time>2021-02-23T07:54:20Z</time>
      </trkpt>
      <trkpt lat="42.8477" lon="-0.16378">
        <ele>1615.15</ele>
        <time>2021-02-23T07:54:24Z</time>
      </trkpt>
      <trkpt lat="42.84759" lon="-0.16388">
        <ele>1616.59</ele>
        <time>2021-02-23T07:54:35Z</time>
      </trkpt>
      <trkpt lat="42.84757" lon="-0.16389">
        <ele>1616.59</ele>
        <time>2021-02-23T07:54:37Z</time>
      </trkpt>
      <trkpt lat="42.84745" lon="-0.16398">
        <ele>1617.07</ele>
        <time>2021-02-23T07:54:52Z</time>
      </trkpt>
      <trkpt lat="42.84744" lon="-0.16399">
        <ele>1615.63</ele>
        <time>2021-02-23T07:54:55Z</time>
      </trkpt>
      <trkpt lat="42.84737" lon="-0.164">
        <ele>1614.67</ele>
        <time>2021-02-23T07:55:07Z</time>
      </trkpt>
      <trkpt lat="42.84734" lon="-0.16403">
        <ele>1616.11</ele>
        <time>2021-02-23T07:55:10Z</time>
      </trkpt>
      <trkpt lat="42.84719" lon="-0.16415">
        <ele>1616.59</ele>
        <time>2021-02-23T07:55:25Z</time>
      </trkpt>
      <trkpt lat="42.84701" lon="-0.16427">
        <ele>1617.07</ele>
        <time>2021-02-23T07:55:42Z</time>
      </trkpt>
      <trkpt lat="42.84683" lon="-0.16434">
        <ele>1617.07</ele>
        <time>2021-02-23T07:55:58Z</time>
      </trkpt>
      <trkpt lat="42.84666" lon="-0.16443">
        <ele>1616.11</ele>
        <time>2021-02-23T07:56:14Z</time>
      </trkpt>
      <trkpt lat="42.84647" lon="-0.16451">
        <ele>1616.11</ele>
        <time>2021-02-23T07:56:32Z</time>
      </trkpt>
      <trkpt lat="42.84628" lon="-0.16457">
        <ele>1617.07</ele>
        <time>2021-02-23T07:56:50Z</time>
      </trkpt>
      <trkpt lat="42.8461" lon="-0.16463">
        <ele>1617.56</ele>
        <time>2021-02-23T07:57:06Z</time>
      </trkpt>
      <trkpt lat="42.84594" lon="-0.16472">
        <ele>1618.04</ele>
        <time>2021-02-23T07:57:21Z</time>
      </trkpt>
      <trkpt lat="42.84575" lon="-0.16479">
        <ele>1618.04</ele>
        <time>2021-02-23T07:57:38Z</time>
      </trkpt>
      <trkpt lat="42.84557" lon="-0.16488">
        <ele>1618.04</ele>
        <time>2021-02-23T07:57:54Z</time>
      </trkpt>
      <trkpt lat="42.84545" lon="-0.16493">
        <ele>1618.52</ele>
        <time>2021-02-23T07:58:05Z</time>
      </trkpt>
      <trkpt lat="42.8453" lon="-0.165">
        <ele>1618.04</ele>
        <time>2021-02-23T07:58:20Z</time>
      </trkpt>
      <trkpt lat="42.84522" lon="-0.16504">
        <ele>1619.48</ele>
        <time>2021-02-23T07:58:27Z</time>
      </trkpt>
      <trkpt lat="42.84503" lon="-0.16513">
        <ele>1619.96</ele>
        <time>2021-02-23T07:58:44Z</time>
      </trkpt>
      <trkpt lat="42.84483" lon="-0.1652">
        <ele>1620.44</ele>
        <time>2021-02-23T07:59:02Z</time>
      </trkpt>
      <trkpt lat="42.84467" lon="-0.16527">
        <ele>1620.44</ele>
        <time>2021-02-23T07:59:17Z</time>
      </trkpt>
      <trkpt lat="42.84452" lon="-0.16533">
        <ele>1620.44</ele>
        <time>2021-02-23T07:59:30Z</time>
      </trkpt>
      <trkpt lat="42.8443" lon="-0.16539">
        <ele>1620.92</ele>
        <time>2021-02-23T07:59:48Z</time>
      </trkpt>
      <trkpt lat="42.8441" lon="-0.16541">
        <ele>1621.88</ele>
        <time>2021-02-23T08:00:04Z</time>
      </trkpt>
      <trkpt lat="42.84389" lon="-0.16539">
        <ele>1621.4</ele>
        <time>2021-02-23T08:00:21Z</time>
      </trkpt>
      <trkpt lat="42.84367" lon="-0.16537">
        <ele>1619</ele>
        <time>2021-02-23T08:00:39Z</time>
      </trkpt>
      <trkpt lat="42.84348" lon="-0.16541">
        <ele>1617.56</ele>
        <time>2021-02-23T08:00:55Z</time>
      </trkpt>
      <trkpt lat="42.84329" lon="-0.16548">
        <ele>1617.56</ele>
        <time>2021-02-23T08:01:10Z</time>
      </trkpt>
      <trkpt lat="42.84311" lon="-0.16553">
        <ele>1620.44</ele>
        <time>2021-02-23T08:01:25Z</time>
      </trkpt>
      <trkpt lat="42.84292" lon="-0.16558">
        <ele>1620.44</ele>
        <time>2021-02-23T08:01:41Z</time>
      </trkpt>
      <trkpt lat="42.84271" lon="-0.16566">
        <ele>1620.44</ele>
        <time>2021-02-23T08:01:58Z</time>
      </trkpt>
      <trkpt lat="42.84253" lon="-0.16574">
        <ele>1621.88</ele>
        <time>2021-02-23T08:02:14Z</time>
      </trkpt>
      <trkpt lat="42.84239" lon="-0.1658">
        <ele>1620.44</ele>
        <time>2021-02-23T08:02:25Z</time>
      </trkpt>
      <trkpt lat="42.84227" lon="-0.16585">
        <ele>1621.4</ele>
        <time>2021-02-23T08:02:36Z</time>
      </trkpt>
      <trkpt lat="42.84208" lon="-0.16593">
        <ele>1619</ele>
        <time>2021-02-23T08:02:52Z</time>
      </trkpt>
      <trkpt lat="42.84204" lon="-0.16594">
        <ele>1620.44</ele>
        <time>2021-02-23T08:02:56Z</time>
      </trkpt>
      <trkpt lat="42.842" lon="-0.16595">
        <ele>1619</ele>
        <time>2021-02-23T08:02:59Z</time>
      </trkpt>
      <trkpt lat="42.84186" lon="-0.16611">
        <ele>1621.4</ele>
        <time>2021-02-23T08:03:14Z</time>
      </trkpt>
      <trkpt lat="42.84184" lon="-0.16613">
        <ele>1622.84</ele>
        <time>2021-02-23T08:03:16Z</time>
      </trkpt>
      <trkpt lat="42.84182" lon="-0.16615">
        <ele>1619.48</ele>
        <time>2021-02-23T08:03:18Z</time>
      </trkpt>
      <trkpt lat="42.84181" lon="-0.16616">
        <ele>1619.48</ele>
        <time>2021-02-23T08:03:19Z</time>
      </trkpt>
      <trkpt lat="42.84178" lon="-0.16618">
        <ele>1622.84</ele>
        <time>2021-02-23T08:03:21Z</time>
      </trkpt>
      <trkpt lat="42.84161" lon="-0.1663">
        <ele>1620.92</ele>
        <time>2021-02-23T08:03:38Z</time>
      </trkpt>
      <trkpt lat="42.84144" lon="-0.16634">
        <ele>1619.96</ele>
        <time>2021-02-23T08:03:52Z</time>
      </trkpt>
      <trkpt lat="42.84136" lon="-0.16635">
        <ele>1620.92</ele>
        <time>2021-02-23T08:03:59Z</time>
      </trkpt>
      <trkpt lat="42.84117" lon="-0.16651">
        <ele>1621.88</ele>
        <time>2021-02-23T08:04:17Z</time>
      </trkpt>
      <trkpt lat="42.84103" lon="-0.16669">
        <ele>1622.36</ele>
        <time>2021-02-23T08:04:33Z</time>
      </trkpt>
      <trkpt lat="42.84093" lon="-0.16686">
        <ele>1624.77</ele>
        <time>2021-02-23T08:04:47Z</time>
      </trkpt>
      <trkpt lat="42.84091" lon="-0.16709">
        <ele>1625.25</ele>
        <time>2021-02-23T08:05:02Z</time>
      </trkpt>
      <trkpt lat="42.84092" lon="-0.16713">
        <ele>1623.8</ele>
        <time>2021-02-23T08:05:05Z</time>
      </trkpt>
      <trkpt lat="42.84102" lon="-0.16736">
        <ele>1623.8</ele>
        <time>2021-02-23T08:05:21Z</time>
      </trkpt>
      <trkpt lat="42.84099" lon="-0.16756">
        <ele>1623.8</ele>
        <time>2021-02-23T08:05:34Z</time>
      </trkpt>
      <trkpt lat="42.84097" lon="-0.16764">
        <ele>1625.25</ele>
        <time>2021-02-23T08:05:39Z</time>
      </trkpt>
      <trkpt lat="42.84087" lon="-0.16789">
        <ele>1625.25</ele>
        <time>2021-02-23T08:05:56Z</time>
      </trkpt>
      <trkpt lat="42.84079" lon="-0.16806">
        <ele>1624.77</ele>
        <time>2021-02-23T08:06:08Z</time>
      </trkpt>
      <trkpt lat="42.8407" lon="-0.16828">
        <ele>1624.28</ele>
        <time>2021-02-23T08:06:24Z</time>
      </trkpt>
      <trkpt lat="42.84067" lon="-0.16835">
        <ele>1625.73</ele>
        <time>2021-02-23T08:06:29Z</time>
      </trkpt>
      <trkpt lat="42.84056" lon="-0.16853">
        <ele>1626.21</ele>
        <time>2021-02-23T08:06:43Z</time>
      </trkpt>
      <trkpt lat="42.8404" lon="-0.16869">
        <ele>1627.17</ele>
        <time>2021-02-23T08:06:59Z</time>
      </trkpt>
      <trkpt lat="42.84035" lon="-0.16873">
        <ele>1628.13</ele>
        <time>2021-02-23T08:07:04Z</time>
      </trkpt>
      <trkpt lat="42.84033" lon="-0.16875">
        <ele>1626.69</ele>
        <time>2021-02-23T08:07:07Z</time>
      </trkpt>
      <trkpt lat="42.84015" lon="-0.16882">
        <ele>1626.21</ele>
        <time>2021-02-23T08:07:22Z</time>
      </trkpt>
      <trkpt lat="42.84001" lon="-0.16886">
        <ele>1626.69</ele>
        <time>2021-02-23T08:07:33Z</time>
      </trkpt>
      <trkpt lat="42.83989" lon="-0.1689">
        <ele>1625.25</ele>
        <time>2021-02-23T08:07:44Z</time>
      </trkpt>
      <trkpt lat="42.83985" lon="-0.16891">
        <ele>1627.65</ele>
        <time>2021-02-23T08:07:47Z</time>
      </trkpt>
      <trkpt lat="42.83966" lon="-0.16891">
        <ele>1629.09</ele>
        <time>2021-02-23T08:08:04Z</time>
      </trkpt>
      <trkpt lat="42.83958" lon="-0.1689">
        <ele>1627.17</ele>
        <time>2021-02-23T08:08:11Z</time>
      </trkpt>
      <trkpt lat="42.83951" lon="-0.16887">
        <ele>1628.13</ele>
        <time>2021-02-23T08:08:17Z</time>
      </trkpt>
      <trkpt lat="42.83947" lon="-0.16884">
        <ele>1628.61</ele>
        <time>2021-02-23T08:08:22Z</time>
      </trkpt>
      <trkpt lat="42.8394" lon="-0.16877">
        <ele>1631.01</ele>
        <time>2021-02-23T08:08:29Z</time>
      </trkpt>
      <trkpt lat="42.83934" lon="-0.1687">
        <ele>1631.01</ele>
        <time>2021-02-23T08:08:36Z</time>
      </trkpt>
      <trkpt lat="42.83931" lon="-0.16867">
        <ele>1631.01</ele>
        <time>2021-02-23T08:08:40Z</time>
      </trkpt>
      <trkpt lat="42.83929" lon="-0.16865">
        <ele>1631.49</ele>
        <time>2021-02-23T08:08:42Z</time>
      </trkpt>
      <trkpt lat="42.83919" lon="-0.16856">
        <ele>1632.94</ele>
        <time>2021-02-23T08:08:56Z</time>
      </trkpt>
      <trkpt lat="42.8391" lon="-0.16851">
        <ele>1635.34</ele>
        <time>2021-02-23T08:09:09Z</time>
      </trkpt>
      <trkpt lat="42.83901" lon="-0.16843">
        <ele>1635.82</ele>
        <time>2021-02-23T08:09:20Z</time>
      </trkpt>
      <trkpt lat="42.83897" lon="-0.16833">
        <ele>1637.74</ele>
        <time>2021-02-23T08:09:30Z</time>
      </trkpt>
      <trkpt lat="42.83894" lon="-0.16821">
        <ele>1639.19</ele>
        <time>2021-02-23T08:09:42Z</time>
      </trkpt>
      <trkpt lat="42.83894" lon="-0.1681">
        <ele>1640.63</ele>
        <time>2021-02-23T08:09:52Z</time>
      </trkpt>
      <trkpt lat="42.83895" lon="-0.16801">
        <ele>1641.59</ele>
        <time>2021-02-23T08:10:02Z</time>
      </trkpt>
      <trkpt lat="42.83896" lon="-0.16786">
        <ele>1641.11</ele>
        <time>2021-02-23T08:10:14Z</time>
      </trkpt>
      <trkpt lat="42.839" lon="-0.16772">
        <ele>1641.11</ele>
        <time>2021-02-23T08:10:26Z</time>
      </trkpt>
      <trkpt lat="42.839" lon="-0.16764">
        <ele>1642.55</ele>
        <time>2021-02-23T08:10:32Z</time>
      </trkpt>
      <trkpt lat="42.83898" lon="-0.16761">
        <ele>1642.55</ele>
        <time>2021-02-23T08:10:44Z</time>
      </trkpt>
      <trkpt lat="42.83898" lon="-0.16759">
        <ele>1643.03</ele>
        <time>2021-02-23T08:10:54Z</time>
      </trkpt>
      <trkpt lat="42.839" lon="-0.16758">
        <ele>1643.03</ele>
        <time>2021-02-23T08:11:04Z</time>
      </trkpt>
      <trkpt lat="42.83901" lon="-0.16759">
        <ele>1640.63</ele>
        <time>2021-02-23T08:11:20Z</time>
      </trkpt>
      <trkpt lat="42.83899" lon="-0.16757">
        <ele>1644.95</ele>
        <time>2021-02-23T08:11:22Z</time>
      </trkpt>
      <trkpt lat="42.83899" lon="-0.16756">
        <ele>1642.55</ele>
        <time>2021-02-23T08:11:23Z</time>
      </trkpt>
      <trkpt lat="42.83905" lon="-0.16763">
        <ele>1642.55</ele>
        <time>2021-02-23T08:11:34Z</time>
      </trkpt>
      <trkpt lat="42.83905" lon="-0.16761">
        <ele>1642.07</ele>
        <time>2021-02-23T08:12:02Z</time>
      </trkpt>
      <trkpt lat="42.83903" lon="-0.16762">
        <ele>1641.59</ele>
        <time>2021-02-23T08:12:30Z</time>
      </trkpt>
      <trkpt lat="42.83905" lon="-0.16761">
        <ele>1643.03</ele>
        <time>2021-02-23T08:12:37Z</time>
      </trkpt>
      <trkpt lat="42.83907" lon="-0.16761">
        <ele>1643.03</ele>
        <time>2021-02-23T08:12:51Z</time>
      </trkpt>
      <trkpt lat="42.83907" lon="-0.16763">
        <ele>1643.03</ele>
        <time>2021-02-23T08:12:55Z</time>
      </trkpt>
      <trkpt lat="42.83905" lon="-0.16762">
        <ele>1643.03</ele>
        <time>2021-02-23T08:13:04Z</time>
      </trkpt>
      <trkpt lat="42.83905" lon="-0.16762">
        <ele>1641.59</ele>
        <time>2021-02-23T08:13:13Z</time>
      </trkpt>
      <trkpt lat="42.83906" lon="-0.16763">
        <ele>1641.59</ele>
        <time>2021-02-23T08:13:25Z</time>
      </trkpt>
      <trkpt lat="42.83907" lon="-0.16761">
        <ele>1641.59</ele>
        <time>2021-02-23T08:13:39Z</time>
      </trkpt>
      <trkpt lat="42.83907" lon="-0.16759">
        <ele>1643.51</ele>
        <time>2021-02-23T08:13:50Z</time>
      </trkpt>
      <trkpt lat="42.83903" lon="-0.16759">
        <ele>1642.55</ele>
        <time>2021-02-23T08:14:09Z</time>
      </trkpt>
      <trkpt lat="42.83904" lon="-0.16758">
        <ele>1642.55</ele>
        <time>2021-02-23T08:14:28Z</time>
      </trkpt>
      <trkpt lat="42.83902" lon="-0.1676">
        <ele>1642.55</ele>
        <time>2021-02-23T08:14:41Z</time>
      </trkpt>
      <trkpt lat="42.83903" lon="-0.1676">
        <ele>1644.47</ele>
        <time>2021-02-23T08:14:51Z</time>
      </trkpt>
      <trkpt lat="42.83901" lon="-0.16758">
        <ele>1644.47</ele>
        <time>2021-02-23T08:14:53Z</time>
      </trkpt>
      <trkpt lat="42.83898" lon="-0.16744">
        <ele>1644.47</ele>
        <time>2021-02-23T08:15:03Z</time>
      </trkpt>
      <trkpt lat="42.83896" lon="-0.16731">
        <ele>1645.91</ele>
        <time>2021-02-23T08:15:14Z</time>
      </trkpt>
      <trkpt lat="42.83892" lon="-0.16722">
        <ele>1647.36</ele>
        <time>2021-02-23T08:15:26Z</time>
      </trkpt>
      <trkpt lat="42.83887" lon="-0.16711">
        <ele>1648.32</ele>
        <time>2021-02-23T08:15:38Z</time>
      </trkpt>
      <trkpt lat="42.83881" lon="-0.16696">
        <ele>1649.28</ele>
        <time>2021-02-23T08:15:51Z</time>
      </trkpt>
      <trkpt lat="42.8388" lon="-0.1668">
        <ele>1650.72</ele>
        <time>2021-02-23T08:16:05Z</time>
      </trkpt>
      <trkpt lat="42.8388" lon="-0.16677">
        <ele>1651.2</ele>
        <time>2021-02-23T08:16:07Z</time>
      </trkpt>
      <trkpt lat="42.8388" lon="-0.16673">
        <ele>1651.2</ele>
        <time>2021-02-23T08:16:09Z</time>
      </trkpt>
      <trkpt lat="42.83882" lon="-0.16667">
        <ele>1651.2</ele>
        <time>2021-02-23T08:16:13Z</time>
      </trkpt>
      <trkpt lat="42.83885" lon="-0.16652">
        <ele>1652.16</ele>
        <time>2021-02-23T08:16:25Z</time>
      </trkpt>
      <trkpt lat="42.83885" lon="-0.16651">
        <ele>1652.16</ele>
        <time>2021-02-23T08:16:26Z</time>
      </trkpt>
      <trkpt lat="42.83893" lon="-0.16633">
        <ele>1652.64</ele>
        <time>2021-02-23T08:16:42Z</time>
      </trkpt>
      <trkpt lat="42.83898" lon="-0.16621">
        <ele>1655.05</ele>
        <time>2021-02-23T08:16:53Z</time>
      </trkpt>
      <trkpt lat="42.839" lon="-0.16618">
        <ele>1656.01</ele>
        <time>2021-02-23T08:16:56Z</time>
      </trkpt>
      <trkpt lat="42.83904" lon="-0.16605">
        <ele>1658.89</ele>
        <time>2021-02-23T08:17:08Z</time>
      </trkpt>
      <trkpt lat="42.83908" lon="-0.166">
        <ele>1658.89</ele>
        <time>2021-02-23T08:17:13Z</time>
      </trkpt>
      <trkpt lat="42.83917" lon="-0.16589">
        <ele>1658.89</ele>
        <time>2021-02-23T08:17:25Z</time>
      </trkpt>
      <trkpt lat="42.83924" lon="-0.16577">
        <ele>1658.89</ele>
        <time>2021-02-23T08:17:37Z</time>
      </trkpt>
      <trkpt lat="42.83935" lon="-0.16566">
        <ele>1659.85</ele>
        <time>2021-02-23T08:17:50Z</time>
      </trkpt>
      <trkpt lat="42.83933" lon="-0.16561">
        <ele>1661.78</ele>
        <time>2021-02-23T08:18:01Z</time>
      </trkpt>
      <trkpt lat="42.83926" lon="-0.16563">
        <ele>1662.74</ele>
        <time>2021-02-23T08:18:12Z</time>
      </trkpt>
      <trkpt lat="42.83913" lon="-0.16566">
        <ele>1666.1</ele>
        <time>2021-02-23T08:18:24Z</time>
      </trkpt>
      <trkpt lat="42.83909" lon="-0.16567">
        <ele>1667.06</ele>
        <time>2021-02-23T08:18:29Z</time>
      </trkpt>
      <trkpt lat="42.839" lon="-0.1657">
        <ele>1667.06</ele>
        <time>2021-02-23T08:18:38Z</time>
      </trkpt>
      <trkpt lat="42.83886" lon="-0.16573">
        <ele>1667.06</ele>
        <time>2021-02-23T08:18:51Z</time>
      </trkpt>
      <trkpt lat="42.83872" lon="-0.16573">
        <ele>1668.51</ele>
        <time>2021-02-23T08:19:05Z</time>
      </trkpt>
      <trkpt lat="42.8386" lon="-0.16575">
        <ele>1669.95</ele>
        <time>2021-02-23T08:19:17Z</time>
      </trkpt>
      <trkpt lat="42.83849" lon="-0.16576">
        <ele>1671.39</ele>
        <time>2021-02-23T08:19:28Z</time>
      </trkpt>
      <trkpt lat="42.83838" lon="-0.16578">
        <ele>1673.31</ele>
        <time>2021-02-23T08:19:41Z</time>
      </trkpt>
      <trkpt lat="42.83828" lon="-0.16583">
        <ele>1673.79</ele>
        <time>2021-02-23T08:19:53Z</time>
      </trkpt>
      <trkpt lat="42.83819" lon="-0.16591">
        <ele>1675.72</ele>
        <time>2021-02-23T08:20:06Z</time>
      </trkpt>
      <trkpt lat="42.83811" lon="-0.16596">
        <ele>1677.16</ele>
        <time>2021-02-23T08:20:17Z</time>
      </trkpt>
      <trkpt lat="42.83802" lon="-0.16613">
        <ele>1677.64</ele>
        <time>2021-02-23T08:20:31Z</time>
      </trkpt>
      <trkpt lat="42.83799" lon="-0.16626">
        <ele>1679.56</ele>
        <time>2021-02-23T08:20:43Z</time>
      </trkpt>
      <trkpt lat="42.83798" lon="-0.16638">
        <ele>1681</ele>
        <time>2021-02-23T08:20:55Z</time>
      </trkpt>
      <trkpt lat="42.83795" lon="-0.16657">
        <ele>1682.93</ele>
        <time>2021-02-23T08:21:09Z</time>
      </trkpt>
      <trkpt lat="42.83791" lon="-0.16675">
        <ele>1684.37</ele>
        <time>2021-02-23T08:21:23Z</time>
      </trkpt>
      <trkpt lat="42.83782" lon="-0.16686">
        <ele>1685.81</ele>
        <time>2021-02-23T08:21:35Z</time>
      </trkpt>
      <trkpt lat="42.83772" lon="-0.16693">
        <ele>1686.29</ele>
        <time>2021-02-23T08:21:46Z</time>
      </trkpt>
      <trkpt lat="42.8376" lon="-0.16691">
        <ele>1687.25</ele>
        <time>2021-02-23T08:21:58Z</time>
      </trkpt>
      <trkpt lat="42.8375" lon="-0.16683">
        <ele>1689.17</ele>
        <time>2021-02-23T08:22:11Z</time>
      </trkpt>
      <trkpt lat="42.83746" lon="-0.16679">
        <ele>1689.65</ele>
        <time>2021-02-23T08:22:16Z</time>
      </trkpt>
      <trkpt lat="42.83735" lon="-0.16668">
        <ele>1690.14</ele>
        <time>2021-02-23T08:22:30Z</time>
      </trkpt>
      <trkpt lat="42.83728" lon="-0.16662">
        <ele>1691.58</ele>
        <time>2021-02-23T08:22:40Z</time>
      </trkpt>
      <trkpt lat="42.83719" lon="-0.16657">
        <ele>1692.54</ele>
        <time>2021-02-23T08:22:52Z</time>
      </trkpt>
      <trkpt lat="42.83714" lon="-0.16661">
        <ele>1693.5</ele>
        <time>2021-02-23T08:23:01Z</time>
      </trkpt>
      <trkpt lat="42.8372" lon="-0.16678">
        <ele>1694.46</ele>
        <time>2021-02-23T08:23:17Z</time>
      </trkpt>
      <trkpt lat="42.83728" lon="-0.16693">
        <ele>1696.38</ele>
        <time>2021-02-23T08:23:31Z</time>
      </trkpt>
      <trkpt lat="42.8373" lon="-0.16708">
        <ele>1697.34</ele>
        <time>2021-02-23T08:23:43Z</time>
      </trkpt>
      <trkpt lat="42.83731" lon="-0.16712">
        <ele>1697.83</ele>
        <time>2021-02-23T08:23:46Z</time>
      </trkpt>
      <trkpt lat="42.83732" lon="-0.16726">
        <ele>1698.79</ele>
        <time>2021-02-23T08:23:58Z</time>
      </trkpt>
      <trkpt lat="42.83723" lon="-0.16735">
        <ele>1700.23</ele>
        <time>2021-02-23T08:24:08Z</time>
      </trkpt>
      <trkpt lat="42.83708" lon="-0.16745">
        <ele>1701.19</ele>
        <time>2021-02-23T08:24:23Z</time>
      </trkpt>
      <trkpt lat="42.83702" lon="-0.16762">
        <ele>1703.59</ele>
        <time>2021-02-23T08:24:37Z</time>
      </trkpt>
      <trkpt lat="42.83699" lon="-0.16779">
        <ele>1704.55</ele>
        <time>2021-02-23T08:24:51Z</time>
      </trkpt>
      <trkpt lat="42.83703" lon="-0.16792">
        <ele>1706.96</ele>
        <time>2021-02-23T08:25:03Z</time>
      </trkpt>
      <trkpt lat="42.83708" lon="-0.16805">
        <ele>1708.4</ele>
        <time>2021-02-23T08:25:16Z</time>
      </trkpt>
      <trkpt lat="42.83712" lon="-0.16819">
        <ele>1709.36</ele>
        <time>2021-02-23T08:25:29Z</time>
      </trkpt>
      <trkpt lat="42.83711" lon="-0.16833">
        <ele>1710.8</ele>
        <time>2021-02-23T08:25:41Z</time>
      </trkpt>
      <trkpt lat="42.8371" lon="-0.16836">
        <ele>1711.28</ele>
        <time>2021-02-23T08:25:43Z</time>
      </trkpt>
      <trkpt lat="42.83697" lon="-0.1686">
        <ele>1711.76</ele>
        <time>2021-02-23T08:26:01Z</time>
      </trkpt>
      <trkpt lat="42.83686" lon="-0.16882">
        <ele>1710.8</ele>
        <time>2021-02-23T08:26:16Z</time>
      </trkpt>
      <trkpt lat="42.83675" lon="-0.16898">
        <ele>1707.92</ele>
        <time>2021-02-23T08:26:29Z</time>
      </trkpt>
      <trkpt lat="42.83665" lon="-0.16919">
        <ele>1707.44</ele>
        <time>2021-02-23T08:26:44Z</time>
      </trkpt>
      <trkpt lat="42.83664" lon="-0.16922">
        <ele>1708.88</ele>
        <time>2021-02-23T08:26:46Z</time>
      </trkpt>
      <trkpt lat="42.83654" lon="-0.16943">
        <ele>1708.88</ele>
        <time>2021-02-23T08:27:00Z</time>
      </trkpt>
      <trkpt lat="42.8365" lon="-0.16966">
        <ele>1710.32</ele>
        <time>2021-02-23T08:27:16Z</time>
      </trkpt>
      <trkpt lat="42.83648" lon="-0.16977">
        <ele>1713.21</ele>
        <time>2021-02-23T08:27:25Z</time>
      </trkpt>
      <trkpt lat="42.83648" lon="-0.16978">
        <ele>1713.21</ele>
        <time>2021-02-23T08:27:26Z</time>
      </trkpt>
      <trkpt lat="42.83646" lon="-0.1699">
        <ele>1715.13</ele>
        <time>2021-02-23T08:27:36Z</time>
      </trkpt>
      <trkpt lat="42.83644" lon="-0.16993">
        <ele>1715.13</ele>
        <time>2021-02-23T08:27:39Z</time>
      </trkpt>
      <trkpt lat="42.8364" lon="-0.17001">
        <ele>1715.13</ele>
        <time>2021-02-23T08:27:46Z</time>
      </trkpt>
      <trkpt lat="42.83628" lon="-0.1701">
        <ele>1716.57</ele>
        <time>2021-02-23T08:27:59Z</time>
      </trkpt>
      <trkpt lat="42.83626" lon="-0.17012">
        <ele>1717.05</ele>
        <time>2021-02-23T08:28:02Z</time>
      </trkpt>
      <trkpt lat="42.83616" lon="-0.1703">
        <ele>1717.53</ele>
        <time>2021-02-23T08:28:17Z</time>
      </trkpt>
      <trkpt lat="42.83602" lon="-0.17044">
        <ele>1715.61</ele>
        <time>2021-02-23T08:28:32Z</time>
      </trkpt>
      <trkpt lat="42.83594" lon="-0.17057">
        <ele>1715.13</ele>
        <time>2021-02-23T08:28:43Z</time>
      </trkpt>
      <trkpt lat="42.83584" lon="-0.17071">
        <ele>1711.76</ele>
        <time>2021-02-23T08:28:57Z</time>
      </trkpt>
      <trkpt lat="42.8358" lon="-0.17087">
        <ele>1710.8</ele>
        <time>2021-02-23T08:29:08Z</time>
      </trkpt>
      <trkpt lat="42.83582" lon="-0.17101">
        <ele>1711.28</ele>
        <time>2021-02-23T08:29:16Z</time>
      </trkpt>
      <trkpt lat="42.83584" lon="-0.17127">
        <ele>1710.8</ele>
        <time>2021-02-23T08:29:32Z</time>
      </trkpt>
      <trkpt lat="42.83585" lon="-0.17147">
        <ele>1710.8</ele>
        <time>2021-02-23T08:29:45Z</time>
      </trkpt>
      <trkpt lat="42.83584" lon="-0.17169">
        <ele>1710.8</ele>
        <time>2021-02-23T08:29:59Z</time>
      </trkpt>
      <trkpt lat="42.83584" lon="-0.17175">
        <ele>1713.21</ele>
        <time>2021-02-23T08:30:03Z</time>
      </trkpt>
      <trkpt lat="42.83576" lon="-0.17191">
        <ele>1713.69</ele>
        <time>2021-02-23T08:30:15Z</time>
      </trkpt>
      <trkpt lat="42.8357" lon="-0.17197">
        <ele>1714.17</ele>
        <time>2021-02-23T08:30:21Z</time>
      </trkpt>
      <trkpt lat="42.83557" lon="-0.17204">
        <ele>1715.61</ele>
        <time>2021-02-23T08:30:34Z</time>
      </trkpt>
      <trkpt lat="42.83543" lon="-0.17209">
        <ele>1716.57</ele>
        <time>2021-02-23T08:30:47Z</time>
      </trkpt>
      <trkpt lat="42.83537" lon="-0.17209">
        <ele>1717.05</ele>
        <time>2021-02-23T08:30:52Z</time>
      </trkpt>
      <trkpt lat="42.83523" lon="-0.17214">
        <ele>1718.49</ele>
        <time>2021-02-23T08:31:06Z</time>
      </trkpt>
      <trkpt lat="42.83521" lon="-0.17214">
        <ele>1718.49</ele>
        <time>2021-02-23T08:31:18Z</time>
      </trkpt>
      <trkpt lat="42.8351" lon="-0.17218">
        <ele>1719.46</ele>
        <time>2021-02-23T08:31:30Z</time>
      </trkpt>
      <trkpt lat="42.83501" lon="-0.17221">
        <ele>1720.42</ele>
        <time>2021-02-23T08:31:40Z</time>
      </trkpt>
      <trkpt lat="42.83488" lon="-0.17226">
        <ele>1719.94</ele>
        <time>2021-02-23T08:31:53Z</time>
      </trkpt>
      <trkpt lat="42.83477" lon="-0.17233">
        <ele>1719.94</ele>
        <time>2021-02-23T08:32:05Z</time>
      </trkpt>
      <trkpt lat="42.83462" lon="-0.17237">
        <ele>1720.9</ele>
        <time>2021-02-23T08:32:17Z</time>
      </trkpt>
      <trkpt lat="42.8345" lon="-0.17247">
        <ele>1720.9</ele>
        <time>2021-02-23T08:32:29Z</time>
      </trkpt>
      <trkpt lat="42.83447" lon="-0.1725">
        <ele>1719.46</ele>
        <time>2021-02-23T08:32:33Z</time>
      </trkpt>
      <trkpt lat="42.83432" lon="-0.17259">
        <ele>1718.49</ele>
        <time>2021-02-23T08:32:47Z</time>
      </trkpt>
      <trkpt lat="42.83426" lon="-0.17263">
        <ele>1718.01</ele>
        <time>2021-02-23T08:32:53Z</time>
      </trkpt>
      <trkpt lat="42.83411" lon="-0.17271">
        <ele>1718.01</ele>
        <time>2021-02-23T08:33:07Z</time>
      </trkpt>
      <trkpt lat="42.83392" lon="-0.17279">
        <ele>1718.97</ele>
        <time>2021-02-23T08:33:23Z</time>
      </trkpt>
      <trkpt lat="42.83379" lon="-0.17286">
        <ele>1718.97</ele>
        <time>2021-02-23T08:33:35Z</time>
      </trkpt>
      <trkpt lat="42.83369" lon="-0.17288">
        <ele>1719.46</ele>
        <time>2021-02-23T08:33:43Z</time>
      </trkpt>
      <trkpt lat="42.83353" lon="-0.17293">
        <ele>1719.46</ele>
        <time>2021-02-23T08:33:58Z</time>
      </trkpt>
      <trkpt lat="42.8334" lon="-0.17297">
        <ele>1719.46</ele>
        <time>2021-02-23T08:34:11Z</time>
      </trkpt>
      <trkpt lat="42.83336" lon="-0.17297">
        <ele>1720.42</ele>
        <time>2021-02-23T08:34:14Z</time>
      </trkpt>
      <trkpt lat="42.83326" lon="-0.17299">
        <ele>1720.9</ele>
        <time>2021-02-23T08:34:25Z</time>
      </trkpt>
      <trkpt lat="42.83321" lon="-0.17303">
        <ele>1721.38</ele>
        <time>2021-02-23T08:34:30Z</time>
      </trkpt>
      <trkpt lat="42.83319" lon="-0.17305">
        <ele>1721.86</ele>
        <time>2021-02-23T08:34:32Z</time>
      </trkpt>
      <trkpt lat="42.83308" lon="-0.17312">
        <ele>1721.86</ele>
        <time>2021-02-23T08:34:46Z</time>
      </trkpt>
      <trkpt lat="42.83306" lon="-0.17313">
        <ele>1720.42</ele>
        <time>2021-02-23T08:34:50Z</time>
      </trkpt>
      <trkpt lat="42.833" lon="-0.17321">
        <ele>1719.46</ele>
        <time>2021-02-23T08:35:00Z</time>
      </trkpt>
      <trkpt lat="42.83299" lon="-0.17325">
        <ele>1718.49</ele>
        <time>2021-02-23T08:35:05Z</time>
      </trkpt>
      <trkpt lat="42.83291" lon="-0.17333">
        <ele>1718.49</ele>
        <time>2021-02-23T08:35:17Z</time>
      </trkpt>
      <trkpt lat="42.83282" lon="-0.17334">
        <ele>1718.49</ele>
        <time>2021-02-23T08:35:28Z</time>
      </trkpt>
      <trkpt lat="42.83277" lon="-0.17335">
        <ele>1718.01</ele>
        <time>2021-02-23T08:35:42Z</time>
      </trkpt>
      <trkpt lat="42.83274" lon="-0.17332">
        <ele>1718.01</ele>
        <time>2021-02-23T08:35:51Z</time>
      </trkpt>
      <trkpt lat="42.83276" lon="-0.1733">
        <ele>1718.01</ele>
        <time>2021-02-23T08:36:08Z</time>
      </trkpt>
      <trkpt lat="42.83274" lon="-0.17329">
        <ele>1718.97</ele>
        <time>2021-02-23T08:36:18Z</time>
      </trkpt>
      <trkpt lat="42.83274" lon="-0.1733">
        <ele>1718.97</ele>
        <time>2021-02-23T08:36:19Z</time>
      </trkpt>
      <trkpt lat="42.83276" lon="-0.17328">
        <ele>1716.09</ele>
        <time>2021-02-23T08:36:27Z</time>
      </trkpt>
      <trkpt lat="42.83277" lon="-0.17329">
        <ele>1719.46</ele>
        <time>2021-02-23T08:36:29Z</time>
      </trkpt>
      <trkpt lat="42.83281" lon="-0.1733">
        <ele>1717.05</ele>
        <time>2021-02-23T08:36:38Z</time>
      </trkpt>
      <trkpt lat="42.83286" lon="-0.17327">
        <ele>1719.46</ele>
        <time>2021-02-23T08:36:46Z</time>
      </trkpt>
      <trkpt lat="42.83296" lon="-0.17328">
        <ele>1719.94</ele>
        <time>2021-02-23T08:36:58Z</time>
      </trkpt>
      <trkpt lat="42.83298" lon="-0.1732">
        <ele>1718.49</ele>
        <time>2021-02-23T08:37:05Z</time>
      </trkpt>
      <trkpt lat="42.83306" lon="-0.1731">
        <ele>1718.01</ele>
        <time>2021-02-23T08:37:17Z</time>
      </trkpt>
      <trkpt lat="42.8331" lon="-0.17307">
        <ele>1719.46</ele>
        <time>2021-02-23T08:37:21Z</time>
      </trkpt>
      <trkpt lat="42.83321" lon="-0.17292">
        <ele>1719.46</ele>
        <time>2021-02-23T08:37:35Z</time>
      </trkpt>
      <trkpt lat="42.83317" lon="-0.17288">
        <ele>1720.9</ele>
        <time>2021-02-23T08:37:45Z</time>
      </trkpt>
      <trkpt lat="42.83311" lon="-0.17287">
        <ele>1718.49</ele>
        <time>2021-02-23T08:37:54Z</time>
      </trkpt>
      <trkpt lat="42.83303" lon="-0.17292">
        <ele>1715.13</ele>
        <time>2021-02-23T08:38:06Z</time>
      </trkpt>
      <trkpt lat="42.83299" lon="-0.17295">
        <ele>1714.17</ele>
        <time>2021-02-23T08:38:11Z</time>
      </trkpt>
      <trkpt lat="42.83285" lon="-0.17302">
        <ele>1711.28</ele>
        <time>2021-02-23T08:38:26Z</time>
      </trkpt>
      <trkpt lat="42.83271" lon="-0.17306">
        <ele>1709.84</ele>
        <time>2021-02-23T08:38:38Z</time>
      </trkpt>
      <trkpt lat="42.83256" lon="-0.17314">
        <ele>1708.4</ele>
        <time>2021-02-23T08:38:52Z</time>
      </trkpt>
      <trkpt lat="42.83241" lon="-0.17318">
        <ele>1708.4</ele>
        <time>2021-02-23T08:39:05Z</time>
      </trkpt>
      <trkpt lat="42.83226" lon="-0.17322">
        <ele>1710.32</ele>
        <time>2021-02-23T08:39:18Z</time>
      </trkpt>
      <trkpt lat="42.83214" lon="-0.17329">
        <ele>1710.8</ele>
        <time>2021-02-23T08:39:30Z</time>
      </trkpt>
      <trkpt lat="42.83199" lon="-0.1734">
        <ele>1708.88</ele>
        <time>2021-02-23T08:39:45Z</time>
      </trkpt>
      <trkpt lat="42.83186" lon="-0.17342">
        <ele>1709.36</ele>
        <time>2021-02-23T08:39:57Z</time>
      </trkpt>
      <trkpt lat="42.83171" lon="-0.17343">
        <ele>1710.32</ele>
        <time>2021-02-23T08:40:12Z</time>
      </trkpt>
      <trkpt lat="42.83162" lon="-0.17347">
        <ele>1711.76</ele>
        <time>2021-02-23T08:40:22Z</time>
      </trkpt>
      <trkpt lat="42.83152" lon="-0.17357">
        <ele>1712.73</ele>
        <time>2021-02-23T08:40:33Z</time>
      </trkpt>
      <trkpt lat="42.83145" lon="-0.17364">
        <ele>1713.21</ele>
        <time>2021-02-23T08:40:41Z</time>
      </trkpt>
      <trkpt lat="42.83144" lon="-0.17368">
        <ele>1713.21</ele>
        <time>2021-02-23T08:40:45Z</time>
      </trkpt>
      <trkpt lat="42.83138" lon="-0.17382">
        <ele>1713.69</ele>
        <time>2021-02-23T08:40:59Z</time>
      </trkpt>
      <trkpt lat="42.83138" lon="-0.17396">
        <ele>1714.17</ele>
        <time>2021-02-23T08:41:11Z</time>
      </trkpt>
      <trkpt lat="42.83138" lon="-0.17397">
        <ele>1714.17</ele>
        <time>2021-02-23T08:41:12Z</time>
      </trkpt>
      <trkpt lat="42.8314" lon="-0.17406">
        <ele>1712.25</ele>
        <time>2021-02-23T08:41:19Z</time>
      </trkpt>
      <trkpt lat="42.83141" lon="-0.17405">
        <ele>1710.8</ele>
        <time>2021-02-23T08:41:26Z</time>
      </trkpt>
      <trkpt lat="42.83141" lon="-0.17405">
        <ele>1712.25</ele>
        <time>2021-02-23T08:41:32Z</time>
      </trkpt>
      <trkpt lat="42.8314" lon="-0.17405">
        <ele>1710.8</ele>
        <time>2021-02-23T08:41:38Z</time>
      </trkpt>
      <trkpt lat="42.83139" lon="-0.17406">
        <ele>1711.76</ele>
        <time>2021-02-23T08:41:49Z</time>
      </trkpt>
      <trkpt lat="42.83138" lon="-0.17407">
        <ele>1712.73</ele>
        <time>2021-02-23T08:41:50Z</time>
      </trkpt>
      <trkpt lat="42.83137" lon="-0.17409">
        <ele>1713.69</ele>
        <time>2021-02-23T08:41:52Z</time>
      </trkpt>
      <trkpt lat="42.83135" lon="-0.17411">
        <ele>1712.25</ele>
        <time>2021-02-23T08:41:54Z</time>
      </trkpt>
      <trkpt lat="42.83124" lon="-0.17422">
        <ele>1713.69</ele>
        <time>2021-02-23T08:42:06Z</time>
      </trkpt>
      <trkpt lat="42.83122" lon="-0.17427">
        <ele>1712.25</ele>
        <time>2021-02-23T08:42:10Z</time>
      </trkpt>
      <trkpt lat="42.83115" lon="-0.17441">
        <ele>1711.76</ele>
        <time>2021-02-23T08:42:21Z</time>
      </trkpt>
      <trkpt lat="42.8311" lon="-0.17447">
        <ele>1711.76</ele>
        <time>2021-02-23T08:42:27Z</time>
      </trkpt>
      <trkpt lat="42.83101" lon="-0.17463">
        <ele>1710.8</ele>
        <time>2021-02-23T08:42:40Z</time>
      </trkpt>
      <trkpt lat="42.83097" lon="-0.17471">
        <ele>1712.25</ele>
        <time>2021-02-23T08:42:46Z</time>
      </trkpt>
      <trkpt lat="42.83094" lon="-0.17477">
        <ele>1713.69</ele>
        <time>2021-02-23T08:42:51Z</time>
      </trkpt>
      <trkpt lat="42.83091" lon="-0.17481">
        <ele>1712.25</ele>
        <time>2021-02-23T08:42:55Z</time>
      </trkpt>
      <trkpt lat="42.83088" lon="-0.17487">
        <ele>1712.73</ele>
        <time>2021-02-23T08:43:00Z</time>
      </trkpt>
      <trkpt lat="42.83087" lon="-0.1749">
        <ele>1712.73</ele>
        <time>2021-02-23T08:43:02Z</time>
      </trkpt>
      <trkpt lat="42.83083" lon="-0.17499">
        <ele>1712.25</ele>
        <time>2021-02-23T08:43:09Z</time>
      </trkpt>
      <trkpt lat="42.83082" lon="-0.17501">
        <ele>1710.8</ele>
        <time>2021-02-23T08:43:11Z</time>
      </trkpt>
      <trkpt lat="42.83081" lon="-0.17503">
        <ele>1714.65</ele>
        <time>2021-02-23T08:43:13Z</time>
      </trkpt>
      <trkpt lat="42.8308" lon="-0.17505">
        <ele>1714.65</ele>
        <time>2021-02-23T08:43:14Z</time>
      </trkpt>
      <trkpt lat="42.83075" lon="-0.17514">
        <ele>1712.73</ele>
        <time>2021-02-23T08:43:22Z</time>
      </trkpt>
      <trkpt lat="42.83065" lon="-0.17522">
        <ele>1713.69</ele>
        <time>2021-02-23T08:43:33Z</time>
      </trkpt>
      <trkpt lat="42.83064" lon="-0.17524">
        <ele>1712.25</ele>
        <time>2021-02-23T08:43:35Z</time>
      </trkpt>
      <trkpt lat="42.83057" lon="-0.1753">
        <ele>1713.21</ele>
        <time>2021-02-23T08:43:42Z</time>
      </trkpt>
      <trkpt lat="42.83044" lon="-0.17541">
        <ele>1715.61</ele>
        <time>2021-02-23T08:43:57Z</time>
      </trkpt>
      <trkpt lat="42.83038" lon="-0.17548">
        <ele>1716.57</ele>
        <time>2021-02-23T08:44:05Z</time>
      </trkpt>
      <trkpt lat="42.83036" lon="-0.17552">
        <ele>1713.21</ele>
        <time>2021-02-23T08:44:08Z</time>
      </trkpt>
      <trkpt lat="42.83036" lon="-0.17553">
        <ele>1713.21</ele>
        <time>2021-02-23T08:44:09Z</time>
      </trkpt>
      <trkpt lat="42.83029" lon="-0.17564">
        <ele>1714.17</ele>
        <time>2021-02-23T08:44:21Z</time>
      </trkpt>
      <trkpt lat="42.83028" lon="-0.17565">
        <ele>1714.17</ele>
        <time>2021-02-23T08:44:22Z</time>
      </trkpt>
      <trkpt lat="42.83023" lon="-0.17576">
        <ele>1713.21</ele>
        <time>2021-02-23T08:44:34Z</time>
      </trkpt>
      <trkpt lat="42.83012" lon="-0.17588">
        <ele>1714.65</ele>
        <time>2021-02-23T08:44:49Z</time>
      </trkpt>
      <trkpt lat="42.83003" lon="-0.17594">
        <ele>1715.13</ele>
        <time>2021-02-23T08:44:57Z</time>
      </trkpt>
      <trkpt lat="42.82996" lon="-0.17597">
        <ele>1715.13</ele>
        <time>2021-02-23T08:45:03Z</time>
      </trkpt>
      <trkpt lat="42.82992" lon="-0.176">
        <ele>1719.46</ele>
        <time>2021-02-23T08:45:07Z</time>
      </trkpt>
      <trkpt lat="42.82988" lon="-0.17603">
        <ele>1717.05</ele>
        <time>2021-02-23T08:45:11Z</time>
      </trkpt>
      <trkpt lat="42.82985" lon="-0.17605">
        <ele>1716.09</ele>
        <time>2021-02-23T08:45:14Z</time>
      </trkpt>
      <trkpt lat="42.82977" lon="-0.1761">
        <ele>1719.46</ele>
        <time>2021-02-23T08:45:23Z</time>
      </trkpt>
      <trkpt lat="42.82976" lon="-0.17611">
        <ele>1719.46</ele>
        <time>2021-02-23T08:45:24Z</time>
      </trkpt>
      <trkpt lat="42.82967" lon="-0.17619">
        <ele>1717.05</ele>
        <time>2021-02-23T08:45:36Z</time>
      </trkpt>
      <trkpt lat="42.82965" lon="-0.17623">
        <ele>1718.01</ele>
        <time>2021-02-23T08:45:40Z</time>
      </trkpt>
      <trkpt lat="42.82962" lon="-0.17625">
        <ele>1712.73</ele>
        <time>2021-02-23T08:45:45Z</time>
      </trkpt>
      <trkpt lat="42.82962" lon="-0.17626">
        <ele>1712.73</ele>
        <time>2021-02-23T08:45:46Z</time>
      </trkpt>
      <trkpt lat="42.82961" lon="-0.1763">
        <ele>1716.09</ele>
        <time>2021-02-23T08:45:55Z</time>
      </trkpt>
      <trkpt lat="42.82953" lon="-0.17641">
        <ele>1715.61</ele>
        <time>2021-02-23T08:46:09Z</time>
      </trkpt>
      <trkpt lat="42.8295" lon="-0.17645">
        <ele>1716.57</ele>
        <time>2021-02-23T08:46:13Z</time>
      </trkpt>
      <trkpt lat="42.82947" lon="-0.17648">
        <ele>1721.86</ele>
        <time>2021-02-23T08:46:17Z</time>
      </trkpt>
      <trkpt lat="42.82947" lon="-0.17649">
        <ele>1721.86</ele>
        <time>2021-02-23T08:46:18Z</time>
      </trkpt>
      <trkpt lat="42.82946" lon="-0.17649">
        <ele>1717.05</ele>
        <time>2021-02-23T08:46:19Z</time>
      </trkpt>
      <trkpt lat="42.82945" lon="-0.17651">
        <ele>1715.61</ele>
        <time>2021-02-23T08:46:21Z</time>
      </trkpt>
      <trkpt lat="42.82942" lon="-0.17658">
        <ele>1716.09</ele>
        <time>2021-02-23T08:46:27Z</time>
      </trkpt>
      <trkpt lat="42.82938" lon="-0.17662">
        <ele>1716.57</ele>
        <time>2021-02-23T08:46:32Z</time>
      </trkpt>
      <trkpt lat="42.82936" lon="-0.17666">
        <ele>1715.13</ele>
        <time>2021-02-23T08:46:36Z</time>
      </trkpt>
      <trkpt lat="42.82932" lon="-0.17672">
        <ele>1716.57</ele>
        <time>2021-02-23T08:46:42Z</time>
      </trkpt>
      <trkpt lat="42.82927" lon="-0.17682">
        <ele>1717.53</ele>
        <time>2021-02-23T08:46:54Z</time>
      </trkpt>
      <trkpt lat="42.82926" lon="-0.17684">
        <ele>1717.05</ele>
        <time>2021-02-23T08:46:56Z</time>
      </trkpt>
      <trkpt lat="42.82923" lon="-0.17688">
        <ele>1716.57</ele>
        <time>2021-02-23T08:47:01Z</time>
      </trkpt>
      <trkpt lat="42.82919" lon="-0.17694">
        <ele>1717.53</ele>
        <time>2021-02-23T08:47:09Z</time>
      </trkpt>
      <trkpt lat="42.82917" lon="-0.17698">
        <ele>1716.57</ele>
        <time>2021-02-23T08:47:13Z</time>
      </trkpt>
      <trkpt lat="42.82913" lon="-0.17709">
        <ele>1720.9</ele>
        <time>2021-02-23T08:47:25Z</time>
      </trkpt>
      <trkpt lat="42.82912" lon="-0.1771">
        <ele>1717.53</ele>
        <time>2021-02-23T08:47:27Z</time>
      </trkpt>
      <trkpt lat="42.82912" lon="-0.17711">
        <ele>1717.53</ele>
        <time>2021-02-23T08:47:28Z</time>
      </trkpt>
      <trkpt lat="42.82911" lon="-0.17713">
        <ele>1716.09</ele>
        <time>2021-02-23T08:47:31Z</time>
      </trkpt>
      <trkpt lat="42.82905" lon="-0.17723">
        <ele>1715.61</ele>
        <time>2021-02-23T08:47:43Z</time>
      </trkpt>
      <trkpt lat="42.82903" lon="-0.17725">
        <ele>1721.38</ele>
        <time>2021-02-23T08:47:46Z</time>
      </trkpt>
      <trkpt lat="42.82903" lon="-0.17726">
        <ele>1719.46</ele>
        <time>2021-02-23T08:47:47Z</time>
      </trkpt>
      <trkpt lat="42.82901" lon="-0.17728">
        <ele>1717.53</ele>
        <time>2021-02-23T08:47:50Z</time>
      </trkpt>
      <trkpt lat="42.82895" lon="-0.17737">
        <ele>1716.09</ele>
        <time>2021-02-23T08:48:02Z</time>
      </trkpt>
      <trkpt lat="42.82892" lon="-0.17744">
        <ele>1714.65</ele>
        <time>2021-02-23T08:48:10Z</time>
      </trkpt>
      <trkpt lat="42.82885" lon="-0.17751">
        <ele>1714.65</ele>
        <time>2021-02-23T08:48:21Z</time>
      </trkpt>
      <trkpt lat="42.82882" lon="-0.17753">
        <ele>1716.09</ele>
        <time>2021-02-23T08:48:25Z</time>
      </trkpt>
      <trkpt lat="42.82876" lon="-0.17764">
        <ele>1718.01</ele>
        <time>2021-02-23T08:48:37Z</time>
      </trkpt>
      <trkpt lat="42.82868" lon="-0.17776">
        <ele>1718.49</ele>
        <time>2021-02-23T08:48:51Z</time>
      </trkpt>
      <trkpt lat="42.82865" lon="-0.17781">
        <ele>1717.05</ele>
        <time>2021-02-23T08:48:56Z</time>
      </trkpt>
      <trkpt lat="42.82855" lon="-0.17794">
        <ele>1718.49</ele>
        <time>2021-02-23T08:49:11Z</time>
      </trkpt>
      <trkpt lat="42.82852" lon="-0.17797">
        <ele>1717.53</ele>
        <time>2021-02-23T08:49:15Z</time>
      </trkpt>
      <trkpt lat="42.82847" lon="-0.17802">
        <ele>1716.09</ele>
        <time>2021-02-23T08:49:22Z</time>
      </trkpt>
      <trkpt lat="42.82846" lon="-0.17803">
        <ele>1717.05</ele>
        <time>2021-02-23T08:49:23Z</time>
      </trkpt>
      <trkpt lat="42.82835" lon="-0.17815">
        <ele>1717.05</ele>
        <time>2021-02-23T08:49:38Z</time>
      </trkpt>
      <trkpt lat="42.82827" lon="-0.17826">
        <ele>1719.46</ele>
        <time>2021-02-23T08:49:53Z</time>
      </trkpt>
      <trkpt lat="42.82822" lon="-0.17836">
        <ele>1722.34</ele>
        <time>2021-02-23T08:50:06Z</time>
      </trkpt>
      <trkpt lat="42.82821" lon="-0.17836">
        <ele>1722.34</ele>
        <time>2021-02-23T08:50:07Z</time>
      </trkpt>
      <trkpt lat="42.82819" lon="-0.17839">
        <ele>1718.49</ele>
        <time>2021-02-23T08:50:11Z</time>
      </trkpt>
      <trkpt lat="42.82818" lon="-0.17839">
        <ele>1718.49</ele>
        <time>2021-02-23T08:50:12Z</time>
      </trkpt>
      <trkpt lat="42.82814" lon="-0.17844">
        <ele>1721.86</ele>
        <time>2021-02-23T08:50:20Z</time>
      </trkpt>
      <trkpt lat="42.82813" lon="-0.17845">
        <ele>1722.82</ele>
        <time>2021-02-23T08:50:22Z</time>
      </trkpt>
      <trkpt lat="42.8281" lon="-0.17849">
        <ele>1721.86</ele>
        <time>2021-02-23T08:50:28Z</time>
      </trkpt>
      <trkpt lat="42.82807" lon="-0.17853">
        <ele>1723.3</ele>
        <time>2021-02-23T08:50:34Z</time>
      </trkpt>
      <trkpt lat="42.82802" lon="-0.17859">
        <ele>1725.22</ele>
        <time>2021-02-23T08:50:45Z</time>
      </trkpt>
      <trkpt lat="42.82804" lon="-0.17866">
        <ele>1726.67</ele>
        <time>2021-02-23T08:50:57Z</time>
      </trkpt>
      <trkpt lat="42.82813" lon="-0.17867">
        <ele>1727.15</ele>
        <time>2021-02-23T08:51:09Z</time>
      </trkpt>
      <trkpt lat="42.82815" lon="-0.17867">
        <ele>1728.59</ele>
        <time>2021-02-23T08:51:12Z</time>
      </trkpt>
      <trkpt lat="42.82817" lon="-0.17866">
        <ele>1729.07</ele>
        <time>2021-02-23T08:51:14Z</time>
      </trkpt>
      <trkpt lat="42.82827" lon="-0.17864">
        <ele>1729.55</ele>
        <time>2021-02-23T08:51:27Z</time>
      </trkpt>
      <trkpt lat="42.82835" lon="-0.17862">
        <ele>1728.59</ele>
        <time>2021-02-23T08:51:38Z</time>
      </trkpt>
      <trkpt lat="42.82839" lon="-0.17862">
        <ele>1729.55</ele>
        <time>2021-02-23T08:51:44Z</time>
      </trkpt>
      <trkpt lat="42.82847" lon="-0.1786">
        <ele>1731.95</ele>
        <time>2021-02-23T08:51:57Z</time>
      </trkpt>
      <trkpt lat="42.82854" lon="-0.17861">
        <ele>1733.88</ele>
        <time>2021-02-23T08:52:10Z</time>
      </trkpt>
      <trkpt lat="42.82858" lon="-0.17866">
        <ele>1735.8</ele>
        <time>2021-02-23T08:52:21Z</time>
      </trkpt>
      <trkpt lat="42.82854" lon="-0.17873">
        <ele>1736.76</ele>
        <time>2021-02-23T08:52:32Z</time>
      </trkpt>
      <trkpt lat="42.82854" lon="-0.17873">
        <ele>1737.24</ele>
        <time>2021-02-23T08:52:45Z</time>
      </trkpt>
      <trkpt lat="42.82851" lon="-0.17874">
        <ele>1735.8</ele>
        <time>2021-02-23T08:53:04Z</time>
      </trkpt>
      <trkpt lat="42.8285" lon="-0.17874">
        <ele>1735.8</ele>
        <time>2021-02-23T08:53:17Z</time>
      </trkpt>
      <trkpt lat="42.82852" lon="-0.17874">
        <ele>1735.8</ele>
        <time>2021-02-23T08:53:33Z</time>
      </trkpt>
      <trkpt lat="42.82851" lon="-0.17874">
        <ele>1736.76</ele>
        <time>2021-02-23T08:53:50Z</time>
      </trkpt>
      <trkpt lat="42.82852" lon="-0.17874">
        <ele>1737.24</ele>
        <time>2021-02-23T08:54:11Z</time>
      </trkpt>
      <trkpt lat="42.8285" lon="-0.17875">
        <ele>1737.24</ele>
        <time>2021-02-23T08:54:24Z</time>
      </trkpt>
      <trkpt lat="42.82848" lon="-0.17876">
        <ele>1735.8</ele>
        <time>2021-02-23T08:54:27Z</time>
      </trkpt>
      <trkpt lat="42.82842" lon="-0.17881">
        <ele>1736.76</ele>
        <time>2021-02-23T08:54:37Z</time>
      </trkpt>
      <trkpt lat="42.82839" lon="-0.17885">
        <ele>1738.68</ele>
        <time>2021-02-23T08:54:46Z</time>
      </trkpt>
      <trkpt lat="42.82833" lon="-0.17893">
        <ele>1740.12</ele>
        <time>2021-02-23T08:54:57Z</time>
      </trkpt>
      <trkpt lat="42.82826" lon="-0.17904">
        <ele>1740.6</ele>
        <time>2021-02-23T08:55:10Z</time>
      </trkpt>
      <trkpt lat="42.82817" lon="-0.1791">
        <ele>1742.05</ele>
        <time>2021-02-23T08:55:21Z</time>
      </trkpt>
      <trkpt lat="42.82811" lon="-0.17916">
        <ele>1743.01</ele>
        <time>2021-02-23T08:55:34Z</time>
      </trkpt>
      <trkpt lat="42.82808" lon="-0.17922">
        <ele>1744.45</ele>
        <time>2021-02-23T08:55:44Z</time>
      </trkpt>
      <trkpt lat="42.82804" lon="-0.17926">
        <ele>1745.41</ele>
        <time>2021-02-23T08:55:53Z</time>
      </trkpt>
      <trkpt lat="42.82797" lon="-0.17931">
        <ele>1747.33</ele>
        <time>2021-02-23T08:56:06Z</time>
      </trkpt>
      <trkpt lat="42.82792" lon="-0.17936">
        <ele>1745.89</ele>
        <time>2021-02-23T08:56:19Z</time>
      </trkpt>
      <trkpt lat="42.82784" lon="-0.1794">
        <ele>1747.81</ele>
        <time>2021-02-23T08:56:32Z</time>
      </trkpt>
      <trkpt lat="42.82781" lon="-0.17945">
        <ele>1749.74</ele>
        <time>2021-02-23T08:56:41Z</time>
      </trkpt>
      <trkpt lat="42.82776" lon="-0.1795">
        <ele>1750.22</ele>
        <time>2021-02-23T08:56:54Z</time>
      </trkpt>
      <trkpt lat="42.82773" lon="-0.17957">
        <ele>1752.14</ele>
        <time>2021-02-23T08:57:05Z</time>
      </trkpt>
      <trkpt lat="42.82768" lon="-0.17961">
        <ele>1754.06</ele>
        <time>2021-02-23T08:57:17Z</time>
      </trkpt>
      <trkpt lat="42.82762" lon="-0.17967">
        <ele>1754.54</ele>
        <time>2021-02-23T08:57:29Z</time>
      </trkpt>
      <trkpt lat="42.82757" lon="-0.1797">
        <ele>1756.47</ele>
        <time>2021-02-23T08:57:40Z</time>
      </trkpt>
      <trkpt lat="42.82749" lon="-0.17971">
        <ele>1757.91</ele>
        <time>2021-02-23T08:57:52Z</time>
      </trkpt>
      <trkpt lat="42.82744" lon="-0.17974">
        <ele>1759.83</ele>
        <time>2021-02-23T08:58:03Z</time>
      </trkpt>
      <trkpt lat="42.82747" lon="-0.17981">
        <ele>1761.27</ele>
        <time>2021-02-23T08:58:14Z</time>
      </trkpt>
      <trkpt lat="42.82753" lon="-0.17987">
        <ele>1762.71</ele>
        <time>2021-02-23T08:58:25Z</time>
      </trkpt>
      <trkpt lat="42.82754" lon="-0.17988">
        <ele>1763.68</ele>
        <time>2021-02-23T08:58:27Z</time>
      </trkpt>
      <trkpt lat="42.82757" lon="-0.17992">
        <ele>1763.68</ele>
        <time>2021-02-23T08:58:37Z</time>
      </trkpt>
      <trkpt lat="42.82751" lon="-0.17997">
        <ele>1764.64</ele>
        <time>2021-02-23T08:58:48Z</time>
      </trkpt>
      <trkpt lat="42.82743" lon="-0.18">
        <ele>1766.08</ele>
        <time>2021-02-23T08:59:00Z</time>
      </trkpt>
      <trkpt lat="42.82733" lon="-0.18">
        <ele>1767.04</ele>
        <time>2021-02-23T08:59:12Z</time>
      </trkpt>
      <trkpt lat="42.82726" lon="-0.1801">
        <ele>1767.52</ele>
        <time>2021-02-23T08:59:25Z</time>
      </trkpt>
      <trkpt lat="42.82723" lon="-0.1802">
        <ele>1768</ele>
        <time>2021-02-23T08:59:36Z</time>
      </trkpt>
      <trkpt lat="42.82723" lon="-0.18029">
        <ele>1768.96</ele>
        <time>2021-02-23T08:59:47Z</time>
      </trkpt>
      <trkpt lat="42.82722" lon="-0.18038">
        <ele>1769.92</ele>
        <time>2021-02-23T08:59:57Z</time>
      </trkpt>
      <trkpt lat="42.82721" lon="-0.18046">
        <ele>1771.85</ele>
        <time>2021-02-23T09:00:09Z</time>
      </trkpt>
      <trkpt lat="42.82717" lon="-0.18052">
        <ele>1772.33</ele>
        <time>2021-02-23T09:00:18Z</time>
      </trkpt>
      <trkpt lat="42.82714" lon="-0.18059">
        <ele>1772.81</ele>
        <time>2021-02-23T09:00:28Z</time>
      </trkpt>
      <trkpt lat="42.82713" lon="-0.18068">
        <ele>1773.77</ele>
        <time>2021-02-23T09:00:38Z</time>
      </trkpt>
      <trkpt lat="42.82713" lon="-0.18069">
        <ele>1773.77</ele>
        <time>2021-02-23T09:00:39Z</time>
      </trkpt>
      <trkpt lat="42.82707" lon="-0.1808">
        <ele>1774.73</ele>
        <time>2021-02-23T09:00:51Z</time>
      </trkpt>
      <trkpt lat="42.82704" lon="-0.18085">
        <ele>1775.21</ele>
        <time>2021-02-23T09:00:58Z</time>
      </trkpt>
      <trkpt lat="42.82695" lon="-0.18093">
        <ele>1775.21</ele>
        <time>2021-02-23T09:01:10Z</time>
      </trkpt>
      <trkpt lat="42.82687" lon="-0.18098">
        <ele>1775.21</ele>
        <time>2021-02-23T09:01:20Z</time>
      </trkpt>
      <trkpt lat="42.82682" lon="-0.18106">
        <ele>1777.13</ele>
        <time>2021-02-23T09:01:30Z</time>
      </trkpt>
      <trkpt lat="42.82679" lon="-0.1811">
        <ele>1778.58</ele>
        <time>2021-02-23T09:01:35Z</time>
      </trkpt>
      <trkpt lat="42.82677" lon="-0.18111">
        <ele>1777.13</ele>
        <time>2021-02-23T09:01:38Z</time>
      </trkpt>
      <trkpt lat="42.82675" lon="-0.18114">
        <ele>1777.13</ele>
        <time>2021-02-23T09:01:42Z</time>
      </trkpt>
      <trkpt lat="42.82667" lon="-0.18128">
        <ele>1776.17</ele>
        <time>2021-02-23T09:01:55Z</time>
      </trkpt>
      <trkpt lat="42.82661" lon="-0.1814">
        <ele>1776.17</ele>
        <time>2021-02-23T09:02:07Z</time>
      </trkpt>
      <trkpt lat="42.82654" lon="-0.1815">
        <ele>1777.61</ele>
        <time>2021-02-23T09:02:19Z</time>
      </trkpt>
      <trkpt lat="42.82649" lon="-0.18158">
        <ele>1779.06</ele>
        <time>2021-02-23T09:02:29Z</time>
      </trkpt>
      <trkpt lat="42.82642" lon="-0.18163">
        <ele>1779.06</ele>
        <time>2021-02-23T09:02:41Z</time>
      </trkpt>
      <trkpt lat="42.82636" lon="-0.18172">
        <ele>1780.5</ele>
        <time>2021-02-23T09:02:53Z</time>
      </trkpt>
      <trkpt lat="42.82629" lon="-0.18179">
        <ele>1781.46</ele>
        <time>2021-02-23T09:03:05Z</time>
      </trkpt>
      <trkpt lat="42.82626" lon="-0.18181">
        <ele>1783.86</ele>
        <time>2021-02-23T09:03:10Z</time>
      </trkpt>
      <trkpt lat="42.82621" lon="-0.18184">
        <ele>1782.42</ele>
        <time>2021-02-23T09:03:19Z</time>
      </trkpt>
      <trkpt lat="42.82618" lon="-0.18185">
        <ele>1783.38</ele>
        <time>2021-02-23T09:03:23Z</time>
      </trkpt>
      <trkpt lat="42.82616" lon="-0.18186">
        <ele>1785.31</ele>
        <time>2021-02-23T09:03:26Z</time>
      </trkpt>
      <trkpt lat="42.82609" lon="-0.18191">
        <ele>1785.31</ele>
        <time>2021-02-23T09:03:37Z</time>
      </trkpt>
      <trkpt lat="42.82604" lon="-0.18196">
        <ele>1785.79</ele>
        <time>2021-02-23T09:03:45Z</time>
      </trkpt>
      <trkpt lat="42.82603" lon="-0.18197">
        <ele>1784.34</ele>
        <time>2021-02-23T09:03:47Z</time>
      </trkpt>
      <trkpt lat="42.82597" lon="-0.18205">
        <ele>1784.34</ele>
        <time>2021-02-23T09:04:00Z</time>
      </trkpt>
      <trkpt lat="42.82597" lon="-0.18207">
        <ele>1785.79</ele>
        <time>2021-02-23T09:04:02Z</time>
      </trkpt>
      <trkpt lat="42.82592" lon="-0.18213">
        <ele>1787.23</ele>
        <time>2021-02-23T09:04:14Z</time>
      </trkpt>
      <trkpt lat="42.82588" lon="-0.18219">
        <ele>1789.63</ele>
        <time>2021-02-23T09:04:25Z</time>
      </trkpt>
      <trkpt lat="42.82579" lon="-0.18222">
        <ele>1791.55</ele>
        <time>2021-02-23T09:04:37Z</time>
      </trkpt>
      <trkpt lat="42.82574" lon="-0.18227">
        <ele>1790.11</ele>
        <time>2021-02-23T09:04:46Z</time>
      </trkpt>
      <trkpt lat="42.8257" lon="-0.18233">
        <ele>1789.15</ele>
        <time>2021-02-23T09:04:58Z</time>
      </trkpt>
      <trkpt lat="42.82565" lon="-0.1824">
        <ele>1787.71</ele>
        <time>2021-02-23T09:05:09Z</time>
      </trkpt>
      <trkpt lat="42.82564" lon="-0.18245">
        <ele>1783.86</ele>
        <time>2021-02-23T09:05:17Z</time>
      </trkpt>
      <trkpt lat="42.82559" lon="-0.18251">
        <ele>1784.82</ele>
        <time>2021-02-23T09:05:25Z</time>
      </trkpt>
      <trkpt lat="42.82551" lon="-0.18263">
        <ele>1786.75</ele>
        <time>2021-02-23T09:05:39Z</time>
      </trkpt>
      <trkpt lat="42.82542" lon="-0.18275">
        <ele>1788.19</ele>
        <time>2021-02-23T09:05:53Z</time>
      </trkpt>
      <trkpt lat="42.82534" lon="-0.18286">
        <ele>1787.71</ele>
        <time>2021-02-23T09:06:05Z</time>
      </trkpt>
      <trkpt lat="42.82533" lon="-0.18292">
        <ele>1789.15</ele>
        <time>2021-02-23T09:06:11Z</time>
      </trkpt>
      <trkpt lat="42.82531" lon="-0.18294">
        <ele>1786.75</ele>
        <time>2021-02-23T09:06:14Z</time>
      </trkpt>
      <trkpt lat="42.82534" lon="-0.18302">
        <ele>1785.79</ele>
        <time>2021-02-23T09:06:25Z</time>
      </trkpt>
      <trkpt lat="42.82534" lon="-0.18311">
        <ele>1784.34</ele>
        <time>2021-02-23T09:06:37Z</time>
      </trkpt>
      <trkpt lat="42.82529" lon="-0.18322">
        <ele>1783.38</ele>
        <time>2021-02-23T09:06:50Z</time>
      </trkpt>
      <trkpt lat="42.82524" lon="-0.18331">
        <ele>1782.42</ele>
        <time>2021-02-23T09:07:01Z</time>
      </trkpt>
      <trkpt lat="42.82517" lon="-0.18336">
        <ele>1781.46</ele>
        <time>2021-02-23T09:07:11Z</time>
      </trkpt>
      <trkpt lat="42.8251" lon="-0.18342">
        <ele>1780.98</ele>
        <time>2021-02-23T09:07:21Z</time>
      </trkpt>
      <trkpt lat="42.82503" lon="-0.18345">
        <ele>1780.02</ele>
        <time>2021-02-23T09:07:32Z</time>
      </trkpt>
      <trkpt lat="42.82498" lon="-0.1835">
        <ele>1779.06</ele>
        <time>2021-02-23T09:07:41Z</time>
      </trkpt>
      <trkpt lat="42.82491" lon="-0.1835">
        <ele>1780.5</ele>
        <time>2021-02-23T09:07:51Z</time>
      </trkpt>
      <trkpt lat="42.82485" lon="-0.18348">
        <ele>1780.5</ele>
        <time>2021-02-23T09:07:58Z</time>
      </trkpt>
      <trkpt lat="42.8248" lon="-0.18349">
        <ele>1780.5</ele>
        <time>2021-02-23T09:08:04Z</time>
      </trkpt>
      <trkpt lat="42.82469" lon="-0.18356">
        <ele>1780.98</ele>
        <time>2021-02-23T09:08:18Z</time>
      </trkpt>
      <trkpt lat="42.82464" lon="-0.18357">
        <ele>1779.54</ele>
        <time>2021-02-23T09:08:31Z</time>
      </trkpt>
      <trkpt lat="42.8246" lon="-0.18359">
        <ele>1777.61</ele>
        <time>2021-02-23T09:08:43Z</time>
      </trkpt>
      <trkpt lat="42.82453" lon="-0.18364">
        <ele>1777.13</ele>
        <time>2021-02-23T09:08:57Z</time>
      </trkpt>
      <trkpt lat="42.82446" lon="-0.18373">
        <ele>1775.69</ele>
        <time>2021-02-23T09:09:10Z</time>
      </trkpt>
      <trkpt lat="42.82442" lon="-0.18379">
        <ele>1775.69</ele>
        <time>2021-02-23T09:09:16Z</time>
      </trkpt>
      <trkpt lat="42.82431" lon="-0.18391">
        <ele>1775.69</ele>
        <time>2021-02-23T09:09:29Z</time>
      </trkpt>
      <trkpt lat="42.82423" lon="-0.18399">
        <ele>1777.61</ele>
        <time>2021-02-23T09:09:41Z</time>
      </trkpt>
      <trkpt lat="42.82417" lon="-0.18407">
        <ele>1779.06</ele>
        <time>2021-02-23T09:09:51Z</time>
      </trkpt>
      <trkpt lat="42.82417" lon="-0.18408">
        <ele>1779.06</ele>
        <time>2021-02-23T09:09:52Z</time>
      </trkpt>
      <trkpt lat="42.82411" lon="-0.18413">
        <ele>1779.54</ele>
        <time>2021-02-23T09:09:59Z</time>
      </trkpt>
      <trkpt lat="42.82406" lon="-0.18419">
        <ele>1777.61</ele>
        <time>2021-02-23T09:10:05Z</time>
      </trkpt>
      <trkpt lat="42.82402" lon="-0.18423">
        <ele>1777.13</ele>
        <time>2021-02-23T09:10:18Z</time>
      </trkpt>
      <trkpt lat="42.82402" lon="-0.18431">
        <ele>1774.73</ele>
        <time>2021-02-23T09:10:29Z</time>
      </trkpt>
      <trkpt lat="42.82397" lon="-0.1844">
        <ele>1773.77</ele>
        <time>2021-02-23T09:10:42Z</time>
      </trkpt>
      <trkpt lat="42.82393" lon="-0.18447">
        <ele>1772.81</ele>
        <time>2021-02-23T09:10:52Z</time>
      </trkpt>
      <trkpt lat="42.82386" lon="-0.18465">
        <ele>1772.33</ele>
        <time>2021-02-23T09:11:06Z</time>
      </trkpt>
      <trkpt lat="42.82379" lon="-0.18474">
        <ele>1772.33</ele>
        <time>2021-02-23T09:11:16Z</time>
      </trkpt>
      <trkpt lat="42.82377" lon="-0.18476">
        <ele>1774.25</ele>
        <time>2021-02-23T09:11:19Z</time>
      </trkpt>
      <trkpt lat="42.8237" lon="-0.18485">
        <ele>1772.81</ele>
        <time>2021-02-23T09:11:30Z</time>
      </trkpt>
      <trkpt lat="42.82362" lon="-0.18488">
        <ele>1774.73</ele>
        <time>2021-02-23T09:11:41Z</time>
      </trkpt>
      <trkpt lat="42.82354" lon="-0.18495">
        <ele>1776.17</ele>
        <time>2021-02-23T09:11:54Z</time>
      </trkpt>
      <trkpt lat="42.82347" lon="-0.18504">
        <ele>1776.65</ele>
        <time>2021-02-23T09:12:09Z</time>
      </trkpt>
      <trkpt lat="42.82344" lon="-0.18506">
        <ele>1778.1</ele>
        <time>2021-02-23T09:12:16Z</time>
      </trkpt>
      <trkpt lat="42.82338" lon="-0.18509">
        <ele>1780.02</ele>
        <time>2021-02-23T09:12:27Z</time>
      </trkpt>
      <trkpt lat="42.82333" lon="-0.18515">
        <ele>1780.02</ele>
        <time>2021-02-23T09:12:38Z</time>
      </trkpt>
      <trkpt lat="42.82324" lon="-0.1852">
        <ele>1781.94</ele>
        <time>2021-02-23T09:12:51Z</time>
      </trkpt>
      <trkpt lat="42.82319" lon="-0.18523">
        <ele>1783.38</ele>
        <time>2021-02-23T09:13:03Z</time>
      </trkpt>
      <trkpt lat="42.82317" lon="-0.18522">
        <ele>1781.94</ele>
        <time>2021-02-23T09:13:18Z</time>
      </trkpt>
      <trkpt lat="42.82316" lon="-0.18521">
        <ele>1783.38</ele>
        <time>2021-02-23T09:13:32Z</time>
      </trkpt>
      <trkpt lat="42.82315" lon="-0.18524">
        <ele>1784.34</ele>
        <time>2021-02-23T09:13:44Z</time>
      </trkpt>
      <trkpt lat="42.82313" lon="-0.18528">
        <ele>1784.34</ele>
        <time>2021-02-23T09:13:55Z</time>
      </trkpt>
      <trkpt lat="42.82308" lon="-0.1853">
        <ele>1784.34</ele>
        <time>2021-02-23T09:14:06Z</time>
      </trkpt>
      <trkpt lat="42.82302" lon="-0.18534">
        <ele>1785.79</ele>
        <time>2021-02-23T09:14:19Z</time>
      </trkpt>
      <trkpt lat="42.82295" lon="-0.18535">
        <ele>1787.71</ele>
        <time>2021-02-23T09:14:31Z</time>
      </trkpt>
      <trkpt lat="42.82287" lon="-0.18536">
        <ele>1788.67</ele>
        <time>2021-02-23T09:14:45Z</time>
      </trkpt>
      <trkpt lat="42.8228" lon="-0.18538">
        <ele>1789.63</ele>
        <time>2021-02-23T09:14:59Z</time>
      </trkpt>
      <trkpt lat="42.82275" lon="-0.18539">
        <ele>1791.07</ele>
        <time>2021-02-23T09:15:10Z</time>
      </trkpt>
      <trkpt lat="42.82269" lon="-0.18538">
        <ele>1792.52</ele>
        <time>2021-02-23T09:15:21Z</time>
      </trkpt>
      <trkpt lat="42.82263" lon="-0.18543">
        <ele>1793</ele>
        <time>2021-02-23T09:15:33Z</time>
      </trkpt>
      <trkpt lat="42.82258" lon="-0.18547">
        <ele>1794.44</ele>
        <time>2021-02-23T09:15:46Z</time>
      </trkpt>
      <trkpt lat="42.82255" lon="-0.1855">
        <ele>1795.88</ele>
        <time>2021-02-23T09:16:01Z</time>
      </trkpt>
      <trkpt lat="42.8225" lon="-0.18555">
        <ele>1797.8</ele>
        <time>2021-02-23T09:16:13Z</time>
      </trkpt>
      <trkpt lat="42.82239" lon="-0.18558">
        <ele>1797.8</ele>
        <time>2021-02-23T09:16:25Z</time>
      </trkpt>
      <trkpt lat="42.82231" lon="-0.18563">
        <ele>1798.76</ele>
        <time>2021-02-23T09:16:37Z</time>
      </trkpt>
      <trkpt lat="42.82224" lon="-0.18563">
        <ele>1801.65</ele>
        <time>2021-02-23T09:16:49Z</time>
      </trkpt>
      <trkpt lat="42.82214" lon="-0.18563">
        <ele>1801.65</ele>
        <time>2021-02-23T09:17:03Z</time>
      </trkpt>
      <trkpt lat="42.82212" lon="-0.18564">
        <ele>1800.21</ele>
        <time>2021-02-23T09:17:06Z</time>
      </trkpt>
      <trkpt lat="42.82206" lon="-0.18565">
        <ele>1800.21</ele>
        <time>2021-02-23T09:17:17Z</time>
      </trkpt>
      <trkpt lat="42.82203" lon="-0.18567">
        <ele>1801.17</ele>
        <time>2021-02-23T09:17:23Z</time>
      </trkpt>
      <trkpt lat="42.82194" lon="-0.18571">
        <ele>1801.65</ele>
        <time>2021-02-23T09:17:36Z</time>
      </trkpt>
      <trkpt lat="42.82192" lon="-0.18575">
        <ele>1800.21</ele>
        <time>2021-02-23T09:17:42Z</time>
      </trkpt>
      <trkpt lat="42.82186" lon="-0.18581">
        <ele>1800.21</ele>
        <time>2021-02-23T09:17:53Z</time>
      </trkpt>
      <trkpt lat="42.82182" lon="-0.18586">
        <ele>1800.69</ele>
        <time>2021-02-23T09:18:04Z</time>
      </trkpt>
      <trkpt lat="42.82171" lon="-0.18593">
        <ele>1801.17</ele>
        <time>2021-02-23T09:18:17Z</time>
      </trkpt>
      <trkpt lat="42.82165" lon="-0.18601">
        <ele>1802.61</ele>
        <time>2021-02-23T09:18:29Z</time>
      </trkpt>
      <trkpt lat="42.82159" lon="-0.18612">
        <ele>1804.53</ele>
        <time>2021-02-23T09:18:42Z</time>
      </trkpt>
      <trkpt lat="42.82156" lon="-0.18617">
        <ele>1805.97</ele>
        <time>2021-02-23T09:18:50Z</time>
      </trkpt>
      <trkpt lat="42.82153" lon="-0.18625">
        <ele>1805.97</ele>
        <time>2021-02-23T09:19:03Z</time>
      </trkpt>
      <trkpt lat="42.82149" lon="-0.1863">
        <ele>1806.45</ele>
        <time>2021-02-23T09:19:15Z</time>
      </trkpt>
      <trkpt lat="42.82144" lon="-0.18636">
        <ele>1807.42</ele>
        <time>2021-02-23T09:19:26Z</time>
      </trkpt>
      <trkpt lat="42.82141" lon="-0.18645">
        <ele>1809.34</ele>
        <time>2021-02-23T09:19:39Z</time>
      </trkpt>
      <trkpt lat="42.8214" lon="-0.18649">
        <ele>1810.78</ele>
        <time>2021-02-23T09:19:49Z</time>
      </trkpt>
      <trkpt lat="42.8214" lon="-0.18657">
        <ele>1812.22</ele>
        <time>2021-02-23T09:20:02Z</time>
      </trkpt>
      <trkpt lat="42.82137" lon="-0.18663">
        <ele>1815.11</ele>
        <time>2021-02-23T09:20:15Z</time>
      </trkpt>
      <trkpt lat="42.82133" lon="-0.18669">
        <ele>1815.59</ele>
        <time>2021-02-23T09:20:25Z</time>
      </trkpt>
      <trkpt lat="42.82131" lon="-0.18672">
        <ele>1814.15</ele>
        <time>2021-02-23T09:20:35Z</time>
      </trkpt>
      <trkpt lat="42.8213" lon="-0.18672">
        <ele>1814.15</ele>
        <time>2021-02-23T09:20:55Z</time>
      </trkpt>
      <trkpt lat="42.8213" lon="-0.18671">
        <ele>1815.11</ele>
        <time>2021-02-23T09:21:04Z</time>
      </trkpt>
      <trkpt lat="42.8213" lon="-0.18671">
        <ele>1813.66</ele>
        <time>2021-02-23T09:21:06Z</time>
      </trkpt>
      <trkpt lat="42.82132" lon="-0.1867">
        <ele>1815.11</ele>
        <time>2021-02-23T09:21:17Z</time>
      </trkpt>
      <trkpt lat="42.82135" lon="-0.18671">
        <ele>1814.63</ele>
        <time>2021-02-23T09:21:45Z</time>
      </trkpt>
      <trkpt lat="42.82135" lon="-0.18672">
        <ele>1813.66</ele>
        <time>2021-02-23T09:21:56Z</time>
      </trkpt>
      <trkpt lat="42.82133" lon="-0.1867">
        <ele>1815.11</ele>
        <time>2021-02-23T09:21:59Z</time>
      </trkpt>
      <trkpt lat="42.82133" lon="-0.18669">
        <ele>1812.7</ele>
        <time>2021-02-23T09:22:03Z</time>
      </trkpt>
      <trkpt lat="42.82133" lon="-0.18669">
        <ele>1812.7</ele>
        <time>2021-02-23T09:22:04Z</time>
      </trkpt>
      <trkpt lat="42.82132" lon="-0.18671">
        <ele>1816.07</ele>
        <time>2021-02-23T09:22:09Z</time>
      </trkpt>
      <trkpt lat="42.82132" lon="-0.1867">
        <ele>1816.07</ele>
        <time>2021-02-23T09:22:10Z</time>
      </trkpt>
      <trkpt lat="42.82131" lon="-0.18671">
        <ele>1812.22</ele>
        <time>2021-02-23T09:22:12Z</time>
      </trkpt>
      <trkpt lat="42.8213" lon="-0.18671">
        <ele>1812.22</ele>
        <time>2021-02-23T09:22:13Z</time>
      </trkpt>
      <trkpt lat="42.8213" lon="-0.18671">
        <ele>1814.15</ele>
        <time>2021-02-23T09:22:15Z</time>
      </trkpt>
      <trkpt lat="42.82129" lon="-0.18674">
        <ele>1815.11</ele>
        <time>2021-02-23T09:22:18Z</time>
      </trkpt>
      <trkpt lat="42.82128" lon="-0.18677">
        <ele>1813.18</ele>
        <time>2021-02-23T09:22:22Z</time>
      </trkpt>
      <trkpt lat="42.82128" lon="-0.1868">
        <ele>1813.66</ele>
        <time>2021-02-23T09:22:32Z</time>
      </trkpt>
      <trkpt lat="42.82124" lon="-0.18685">
        <ele>1815.59</ele>
        <time>2021-02-23T09:22:43Z</time>
      </trkpt>
      <trkpt lat="42.82122" lon="-0.18691">
        <ele>1816.55</ele>
        <time>2021-02-23T09:22:56Z</time>
      </trkpt>
      <trkpt lat="42.82123" lon="-0.18692">
        <ele>1817.99</ele>
        <time>2021-02-23T09:23:10Z</time>
      </trkpt>
      <trkpt lat="42.82122" lon="-0.18692">
        <ele>1817.03</ele>
        <time>2021-02-23T09:23:19Z</time>
      </trkpt>
      <trkpt lat="42.82122" lon="-0.18691">
        <ele>1815.11</ele>
        <time>2021-02-23T09:23:30Z</time>
      </trkpt>
      <trkpt lat="42.82123" lon="-0.18691">
        <ele>1814.15</ele>
        <time>2021-02-23T09:23:39Z</time>
      </trkpt>
      <trkpt lat="42.82122" lon="-0.1869">
        <ele>1816.07</ele>
        <time>2021-02-23T09:24:04Z</time>
      </trkpt>
      <trkpt lat="42.82125" lon="-0.18691">
        <ele>1816.55</ele>
        <time>2021-02-23T09:24:35Z</time>
      </trkpt>
      <trkpt lat="42.82124" lon="-0.18691">
        <ele>1817.03</ele>
        <time>2021-02-23T09:25:05Z</time>
      </trkpt>
      <trkpt lat="42.82124" lon="-0.18691">
        <ele>1815.59</ele>
        <time>2021-02-23T09:25:07Z</time>
      </trkpt>
      <trkpt lat="42.82124" lon="-0.18691">
        <ele>1816.55</ele>
        <time>2021-02-23T09:25:23Z</time>
      </trkpt>
      <trkpt lat="42.8212" lon="-0.18692">
        <ele>1815.59</ele>
        <time>2021-02-23T09:25:39Z</time>
      </trkpt>
      <trkpt lat="42.82122" lon="-0.18691">
        <ele>1815.59</ele>
        <time>2021-02-23T09:26:07Z</time>
      </trkpt>
      <trkpt lat="42.82122" lon="-0.18692">
        <ele>1815.59</ele>
        <time>2021-02-23T09:26:08Z</time>
      </trkpt>
      <trkpt lat="42.82121" lon="-0.18695">
        <ele>1817.03</ele>
        <time>2021-02-23T09:26:29Z</time>
      </trkpt>
      <trkpt lat="42.82122" lon="-0.18694">
        <ele>1817.03</ele>
        <time>2021-02-23T09:27:01Z</time>
      </trkpt>
      <trkpt lat="42.82123" lon="-0.18694">
        <ele>1817.03</ele>
        <time>2021-02-23T09:27:12Z</time>
      </trkpt>
      <trkpt lat="42.82125" lon="-0.18696">
        <ele>1815.59</ele>
        <time>2021-02-23T09:27:18Z</time>
      </trkpt>
      <trkpt lat="42.82122" lon="-0.18695">
        <ele>1814.15</ele>
        <time>2021-02-23T09:27:47Z</time>
      </trkpt>
      <trkpt lat="42.82119" lon="-0.18687">
        <ele>1815.59</ele>
        <time>2021-02-23T09:28:00Z</time>
      </trkpt>
      <trkpt lat="42.8212" lon="-0.18691">
        <ele>1814.15</ele>
        <time>2021-02-23T09:28:29Z</time>
      </trkpt>
      <trkpt lat="42.8212" lon="-0.1869">
        <ele>1815.11</ele>
        <time>2021-02-23T09:28:33Z</time>
      </trkpt>
      <trkpt lat="42.82121" lon="-0.18689">
        <ele>1815.59</ele>
        <time>2021-02-23T09:28:44Z</time>
      </trkpt>
      <trkpt lat="42.82123" lon="-0.18692">
        <ele>1815.59</ele>
        <time>2021-02-23T09:29:00Z</time>
      </trkpt>
      <trkpt lat="42.82121" lon="-0.18691">
        <ele>1814.15</ele>
        <time>2021-02-23T09:29:19Z</time>
      </trkpt>
      <trkpt lat="42.82116" lon="-0.18694">
        <ele>1814.63</ele>
        <time>2021-02-23T09:29:33Z</time>
      </trkpt>
      <trkpt lat="42.82115" lon="-0.18698">
        <ele>1816.55</ele>
        <time>2021-02-23T09:29:37Z</time>
      </trkpt>
      <trkpt lat="42.82114" lon="-0.18705">
        <ele>1816.55</ele>
        <time>2021-02-23T09:29:44Z</time>
      </trkpt>
      <trkpt lat="42.82111" lon="-0.18719">
        <ele>1814.63</ele>
        <time>2021-02-23T09:29:58Z</time>
      </trkpt>
      <trkpt lat="42.82112" lon="-0.18727">
        <ele>1813.66</ele>
        <time>2021-02-23T09:30:12Z</time>
      </trkpt>
      <trkpt lat="42.82111" lon="-0.18736">
        <ele>1814.63</ele>
        <time>2021-02-23T09:30:22Z</time>
      </trkpt>
      <trkpt lat="42.82105" lon="-0.1875">
        <ele>1814.63</ele>
        <time>2021-02-23T09:30:35Z</time>
      </trkpt>
      <trkpt lat="42.82099" lon="-0.1876">
        <ele>1815.59</ele>
        <time>2021-02-23T09:30:46Z</time>
      </trkpt>
      <trkpt lat="42.82085" lon="-0.18769">
        <ele>1815.59</ele>
        <time>2021-02-23T09:31:01Z</time>
      </trkpt>
      <trkpt lat="42.82075" lon="-0.18778">
        <ele>1815.11</ele>
        <time>2021-02-23T09:31:13Z</time>
      </trkpt>
      <trkpt lat="42.82068" lon="-0.18783">
        <ele>1815.11</ele>
        <time>2021-02-23T09:31:20Z</time>
      </trkpt>
      <trkpt lat="42.82059" lon="-0.18792">
        <ele>1813.18</ele>
        <time>2021-02-23T09:31:32Z</time>
      </trkpt>
      <trkpt lat="42.82056" lon="-0.18795">
        <ele>1814.63</ele>
        <time>2021-02-23T09:31:35Z</time>
      </trkpt>
      <trkpt lat="42.82053" lon="-0.188">
        <ele>1816.07</ele>
        <time>2021-02-23T09:31:40Z</time>
      </trkpt>
      <trkpt lat="42.82052" lon="-0.18805">
        <ele>1817.03</ele>
        <time>2021-02-23T09:31:54Z</time>
      </trkpt>
      <trkpt lat="42.8205" lon="-0.18811">
        <ele>1815.59</ele>
        <time>2021-02-23T09:31:59Z</time>
      </trkpt>
      <trkpt lat="42.82047" lon="-0.18825">
        <ele>1816.07</ele>
        <time>2021-02-23T09:32:11Z</time>
      </trkpt>
      <trkpt lat="42.82043" lon="-0.18834">
        <ele>1817.51</ele>
        <time>2021-02-23T09:32:19Z</time>
      </trkpt>
      <trkpt lat="42.82033" lon="-0.18846">
        <ele>1817.51</ele>
        <time>2021-02-23T09:32:33Z</time>
      </trkpt>
      <trkpt lat="42.82025" lon="-0.18851">
        <ele>1817.51</ele>
        <time>2021-02-23T09:32:46Z</time>
      </trkpt>
      <trkpt lat="42.82025" lon="-0.18849">
        <ele>1817.51</ele>
        <time>2021-02-23T09:33:06Z</time>
      </trkpt>
      <trkpt lat="42.82024" lon="-0.18852">
        <ele>1818.95</ele>
        <time>2021-02-23T09:33:27Z</time>
      </trkpt>
      <trkpt lat="42.82025" lon="-0.18851">
        <ele>1820.87</ele>
        <time>2021-02-23T09:33:36Z</time>
      </trkpt>
      <trkpt lat="42.82024" lon="-0.18851">
        <ele>1818.47</ele>
        <time>2021-02-23T09:33:38Z</time>
      </trkpt>
      <trkpt lat="42.82021" lon="-0.18854">
        <ele>1817.51</ele>
        <time>2021-02-23T09:33:41Z</time>
      </trkpt>
      <trkpt lat="42.82018" lon="-0.18857">
        <ele>1819.91</ele>
        <time>2021-02-23T09:33:45Z</time>
      </trkpt>
      <trkpt lat="42.82015" lon="-0.1886">
        <ele>1821.35</ele>
        <time>2021-02-23T09:33:48Z</time>
      </trkpt>
      <trkpt lat="42.82014" lon="-0.18862">
        <ele>1819.91</ele>
        <time>2021-02-23T09:33:50Z</time>
      </trkpt>
      <trkpt lat="42.82012" lon="-0.18865">
        <ele>1818.47</ele>
        <time>2021-02-23T09:33:53Z</time>
      </trkpt>
      <trkpt lat="42.82007" lon="-0.18874">
        <ele>1817.99</ele>
        <time>2021-02-23T09:34:03Z</time>
      </trkpt>
      <trkpt lat="42.82002" lon="-0.1888">
        <ele>1817.99</ele>
        <time>2021-02-23T09:34:09Z</time>
      </trkpt>
      <trkpt lat="42.81998" lon="-0.18889">
        <ele>1820.39</ele>
        <time>2021-02-23T09:34:18Z</time>
      </trkpt>
      <trkpt lat="42.81995" lon="-0.18893">
        <ele>1818.47</ele>
        <time>2021-02-23T09:34:22Z</time>
      </trkpt>
      <trkpt lat="42.81988" lon="-0.18908">
        <ele>1817.99</ele>
        <time>2021-02-23T09:34:37Z</time>
      </trkpt>
      <trkpt lat="42.81988" lon="-0.18909">
        <ele>1818.47</ele>
        <time>2021-02-23T09:34:38Z</time>
      </trkpt>
      <trkpt lat="42.81987" lon="-0.18913">
        <ele>1820.39</ele>
        <time>2021-02-23T09:34:41Z</time>
      </trkpt>
      <trkpt lat="42.81982" lon="-0.18921">
        <ele>1817.99</ele>
        <time>2021-02-23T09:34:48Z</time>
      </trkpt>
      <trkpt lat="42.81974" lon="-0.18944">
        <ele>1817.03</ele>
        <time>2021-02-23T09:35:06Z</time>
      </trkpt>
      <trkpt lat="42.81971" lon="-0.18949">
        <ele>1815.59</ele>
        <time>2021-02-23T09:35:18Z</time>
      </trkpt>
      <trkpt lat="42.8197" lon="-0.1895">
        <ele>1817.99</ele>
        <time>2021-02-23T09:35:20Z</time>
      </trkpt>
      <trkpt lat="42.81972" lon="-0.18952">
        <ele>1815.59</ele>
        <time>2021-02-23T09:35:37Z</time>
      </trkpt>
      <trkpt lat="42.81972" lon="-0.1895">
        <ele>1818.47</ele>
        <time>2021-02-23T09:35:50Z</time>
      </trkpt>
      <trkpt lat="42.81972" lon="-0.18949">
        <ele>1815.11</ele>
        <time>2021-02-23T09:36:01Z</time>
      </trkpt>
      <trkpt lat="42.81968" lon="-0.1896">
        <ele>1813.66</ele>
        <time>2021-02-23T09:36:16Z</time>
      </trkpt>
      <trkpt lat="42.81965" lon="-0.18968">
        <ele>1815.11</ele>
        <time>2021-02-23T09:36:23Z</time>
      </trkpt>
      <trkpt lat="42.81963" lon="-0.18975">
        <ele>1817.99</ele>
        <time>2021-02-23T09:36:28Z</time>
      </trkpt>
      <trkpt lat="42.81962" lon="-0.18981">
        <ele>1818.47</ele>
        <time>2021-02-23T09:36:32Z</time>
      </trkpt>
      <trkpt lat="42.81959" lon="-0.18986">
        <ele>1817.03</ele>
        <time>2021-02-23T09:36:37Z</time>
      </trkpt>
      <trkpt lat="42.81956" lon="-0.18994">
        <ele>1817.99</ele>
        <time>2021-02-23T09:36:48Z</time>
      </trkpt>
      <trkpt lat="42.81954" lon="-0.18998">
        <ele>1820.87</ele>
        <time>2021-02-23T09:36:55Z</time>
      </trkpt>
      <trkpt lat="42.81953" lon="-0.19">
        <ele>1818.95</ele>
        <time>2021-02-23T09:36:57Z</time>
      </trkpt>
      <trkpt lat="42.81945" lon="-0.19008">
        <ele>1822.32</ele>
        <time>2021-02-23T09:37:07Z</time>
      </trkpt>
      <trkpt lat="42.81943" lon="-0.19012">
        <ele>1819.91</ele>
        <time>2021-02-23T09:37:10Z</time>
      </trkpt>
      <trkpt lat="42.81938" lon="-0.19021">
        <ele>1818.47</ele>
        <time>2021-02-23T09:37:21Z</time>
      </trkpt>
      <trkpt lat="42.81936" lon="-0.19031">
        <ele>1818.95</ele>
        <time>2021-02-23T09:37:32Z</time>
      </trkpt>
      <trkpt lat="42.81935" lon="-0.19035">
        <ele>1818.95</ele>
        <time>2021-02-23T09:37:44Z</time>
      </trkpt>
      <trkpt lat="42.81934" lon="-0.19035">
        <ele>1817.51</ele>
        <time>2021-02-23T09:37:57Z</time>
      </trkpt>
      <trkpt lat="42.81932" lon="-0.19037">
        <ele>1821.35</ele>
        <time>2021-02-23T09:38:08Z</time>
      </trkpt>
      <trkpt lat="42.81932" lon="-0.19037">
        <ele>1821.35</ele>
        <time>2021-02-23T09:38:09Z</time>
      </trkpt>
      <trkpt lat="42.81932" lon="-0.19038">
        <ele>1821.35</ele>
        <time>2021-02-23T09:38:29Z</time>
      </trkpt>
      <trkpt lat="42.81932" lon="-0.19038">
        <ele>1821.35</ele>
        <time>2021-02-23T09:38:43Z</time>
      </trkpt>
      <trkpt lat="42.81932" lon="-0.19036">
        <ele>1822.8</ele>
        <time>2021-02-23T09:39:05Z</time>
      </trkpt>
      <trkpt lat="42.81929" lon="-0.19042">
        <ele>1822.8</ele>
        <time>2021-02-23T09:39:15Z</time>
      </trkpt>
      <trkpt lat="42.81925" lon="-0.19049">
        <ele>1822.8</ele>
        <time>2021-02-23T09:39:25Z</time>
      </trkpt>
      <trkpt lat="42.81924" lon="-0.19049">
        <ele>1821.35</ele>
        <time>2021-02-23T09:39:28Z</time>
      </trkpt>
      <trkpt lat="42.81918" lon="-0.19045">
        <ele>1819.91</ele>
        <time>2021-02-23T09:39:39Z</time>
      </trkpt>
      <trkpt lat="42.81916" lon="-0.19041">
        <ele>1818.95</ele>
        <time>2021-02-23T09:39:52Z</time>
      </trkpt>
      <trkpt lat="42.8191" lon="-0.1904">
        <ele>1816.55</ele>
        <time>2021-02-23T09:40:02Z</time>
      </trkpt>
      <trkpt lat="42.81909" lon="-0.19038">
        <ele>1820.39</ele>
        <time>2021-02-23T09:40:13Z</time>
      </trkpt>
      <trkpt lat="42.81909" lon="-0.19039">
        <ele>1821.35</ele>
        <time>2021-02-23T09:40:16Z</time>
      </trkpt>
      <trkpt lat="42.81909" lon="-0.19038">
        <ele>1819.91</ele>
        <time>2021-02-23T09:40:19Z</time>
      </trkpt>
      <trkpt lat="42.81908" lon="-0.19037">
        <ele>1818.47</ele>
        <time>2021-02-23T09:40:31Z</time>
      </trkpt>
      <trkpt lat="42.81906" lon="-0.19035">
        <ele>1820.39</ele>
        <time>2021-02-23T09:40:40Z</time>
      </trkpt>
      <trkpt lat="42.81906" lon="-0.19035">
        <ele>1818.95</ele>
        <time>2021-02-23T09:40:43Z</time>
      </trkpt>
      <trkpt lat="42.81904" lon="-0.19036">
        <ele>1817.99</ele>
        <time>2021-02-23T09:40:54Z</time>
      </trkpt>
      <trkpt lat="42.81906" lon="-0.19036">
        <ele>1818.95</ele>
        <time>2021-02-23T09:41:12Z</time>
      </trkpt>
      <trkpt lat="42.81906" lon="-0.19036">
        <ele>1815.11</ele>
        <time>2021-02-23T09:41:17Z</time>
      </trkpt>
      <trkpt lat="42.81906" lon="-0.19036">
        <ele>1817.03</ele>
        <time>2021-02-23T09:41:18Z</time>
      </trkpt>
      <trkpt lat="42.81906" lon="-0.19035">
        <ele>1817.51</ele>
        <time>2021-02-23T09:41:24Z</time>
      </trkpt>
      <trkpt lat="42.81906" lon="-0.19034">
        <ele>1818.95</ele>
        <time>2021-02-23T09:41:50Z</time>
      </trkpt>
      <trkpt lat="42.81907" lon="-0.19035">
        <ele>1817.99</ele>
        <time>2021-02-23T09:42:19Z</time>
      </trkpt>
      <trkpt lat="42.81908" lon="-0.19036">
        <ele>1816.55</ele>
        <time>2021-02-23T09:42:28Z</time>
      </trkpt>
      <trkpt lat="42.81907" lon="-0.19034">
        <ele>1817.99</ele>
        <time>2021-02-23T09:42:44Z</time>
      </trkpt>
      <trkpt lat="42.81906" lon="-0.19032">
        <ele>1818.95</ele>
        <time>2021-02-23T09:43:06Z</time>
      </trkpt>
      <trkpt lat="42.81907" lon="-0.19032">
        <ele>1819.43</ele>
        <time>2021-02-23T09:43:29Z</time>
      </trkpt>
      <trkpt lat="42.81907" lon="-0.19034">
        <ele>1819.43</ele>
        <time>2021-02-23T09:44:01Z</time>
      </trkpt>
      <trkpt lat="42.81908" lon="-0.19034">
        <ele>1817.99</ele>
        <time>2021-02-23T09:44:34Z</time>
      </trkpt>
      <trkpt lat="42.81908" lon="-0.19034">
        <ele>1817.99</ele>
        <time>2021-02-23T09:44:35Z</time>
      </trkpt>
      <trkpt lat="42.81906" lon="-0.19034">
        <ele>1817.99</ele>
        <time>2021-02-23T09:44:57Z</time>
      </trkpt>
      <trkpt lat="42.81904" lon="-0.19033">
        <ele>1817.99</ele>
        <time>2021-02-23T09:45:08Z</time>
      </trkpt>
      <trkpt lat="42.81905" lon="-0.19034">
        <ele>1816.55</ele>
        <time>2021-02-23T09:45:13Z</time>
      </trkpt>
      <trkpt lat="42.81905" lon="-0.19037">
        <ele>1818.47</ele>
        <time>2021-02-23T09:45:43Z</time>
      </trkpt>
      <trkpt lat="42.81908" lon="-0.19038">
        <ele>1817.99</ele>
        <time>2021-02-23T09:46:02Z</time>
      </trkpt>
      <trkpt lat="42.81906" lon="-0.19035">
        <ele>1817.51</ele>
        <time>2021-02-23T09:46:15Z</time>
      </trkpt>
      <trkpt lat="42.81906" lon="-0.19035">
        <ele>1819.43</ele>
        <time>2021-02-23T09:46:23Z</time>
      </trkpt>
      <trkpt lat="42.81906" lon="-0.19036">
        <ele>1822.8</ele>
        <time>2021-02-23T09:46:43Z</time>
      </trkpt>
      <trkpt lat="42.81906" lon="-0.19037">
        <ele>1821.35</ele>
        <time>2021-02-23T09:46:46Z</time>
      </trkpt>
      <trkpt lat="42.81906" lon="-0.19036">
        <ele>1817.99</ele>
        <time>2021-02-23T09:46:51Z</time>
      </trkpt>
      <trkpt lat="42.81906" lon="-0.19036">
        <ele>1817.99</ele>
        <time>2021-02-23T09:46:52Z</time>
      </trkpt>
      <trkpt lat="42.81907" lon="-0.19036">
        <ele>1819.43</ele>
        <time>2021-02-23T09:47:10Z</time>
      </trkpt>
      <trkpt lat="42.81907" lon="-0.19036">
        <ele>1818.47</ele>
        <time>2021-02-23T09:47:22Z</time>
      </trkpt>
      <trkpt lat="42.81905" lon="-0.19035">
        <ele>1820.87</ele>
        <time>2021-02-23T09:47:34Z</time>
      </trkpt>
      <trkpt lat="42.81906" lon="-0.19035">
        <ele>1821.35</ele>
        <time>2021-02-23T09:47:49Z</time>
      </trkpt>
      <trkpt lat="42.81905" lon="-0.19035">
        <ele>1821.35</ele>
        <time>2021-02-23T09:48:02Z</time>
      </trkpt>
      <trkpt lat="42.81907" lon="-0.19033">
        <ele>1821.35</ele>
        <time>2021-02-23T09:48:19Z</time>
      </trkpt>
      <trkpt lat="42.81907" lon="-0.19034">
        <ele>1819.43</ele>
        <time>2021-02-23T09:48:28Z</time>
      </trkpt>
      <trkpt lat="42.81907" lon="-0.19033">
        <ele>1821.35</ele>
        <time>2021-02-23T09:48:33Z</time>
      </trkpt>
      <trkpt lat="42.81908" lon="-0.19033">
        <ele>1819.91</ele>
        <time>2021-02-23T09:48:49Z</time>
      </trkpt>
      <trkpt lat="42.81907" lon="-0.19033">
        <ele>1819.91</ele>
        <time>2021-02-23T09:48:50Z</time>
      </trkpt>
      <trkpt lat="42.81904" lon="-0.19033">
        <ele>1819.91</ele>
        <time>2021-02-23T09:48:54Z</time>
      </trkpt>
      <trkpt lat="42.81901" lon="-0.19033">
        <ele>1818.95</ele>
        <time>2021-02-23T09:48:57Z</time>
      </trkpt>
      <trkpt lat="42.81896" lon="-0.19031">
        <ele>1821.84</ele>
        <time>2021-02-23T09:49:01Z</time>
      </trkpt>
      <trkpt lat="42.81895" lon="-0.1903">
        <ele>1825.68</ele>
        <time>2021-02-23T09:49:03Z</time>
      </trkpt>
      <trkpt lat="42.81894" lon="-0.1903">
        <ele>1825.68</ele>
        <time>2021-02-23T09:49:04Z</time>
      </trkpt>
      <trkpt lat="42.81893" lon="-0.1903">
        <ele>1823.28</ele>
        <time>2021-02-23T09:49:05Z</time>
      </trkpt>
      <trkpt lat="42.81889" lon="-0.19031">
        <ele>1821.84</ele>
        <time>2021-02-23T09:49:08Z</time>
      </trkpt>
      <trkpt lat="42.81889" lon="-0.19031">
        <ele>1821.84</ele>
        <time>2021-02-23T09:49:09Z</time>
      </trkpt>
      <trkpt lat="42.81882" lon="-0.19036">
        <ele>1822.32</ele>
        <time>2021-02-23T09:49:18Z</time>
      </trkpt>
      <trkpt lat="42.81879" lon="-0.19037">
        <ele>1820.39</ele>
        <time>2021-02-23T09:49:22Z</time>
      </trkpt>
      <trkpt lat="42.81873" lon="-0.19039">
        <ele>1822.8</ele>
        <time>2021-02-23T09:49:28Z</time>
      </trkpt>
      <trkpt lat="42.81869" lon="-0.19038">
        <ele>1819.43</ele>
        <time>2021-02-23T09:49:32Z</time>
      </trkpt>
      <trkpt lat="42.8186" lon="-0.19036">
        <ele>1819.91</ele>
        <time>2021-02-23T09:49:42Z</time>
      </trkpt>
      <trkpt lat="42.81854" lon="-0.19031">
        <ele>1820.87</ele>
        <time>2021-02-23T09:49:51Z</time>
      </trkpt>
      <trkpt lat="42.81846" lon="-0.19023">
        <ele>1820.87</ele>
        <time>2021-02-23T09:50:02Z</time>
      </trkpt>
      <trkpt lat="42.81838" lon="-0.19018">
        <ele>1818.95</ele>
        <time>2021-02-23T09:50:11Z</time>
      </trkpt>
      <trkpt lat="42.81836" lon="-0.19016">
        <ele>1818.95</ele>
        <time>2021-02-23T09:50:14Z</time>
      </trkpt>
      <trkpt lat="42.81833" lon="-0.19009">
        <ele>1821.84</ele>
        <time>2021-02-23T09:50:21Z</time>
      </trkpt>
      <trkpt lat="42.8183" lon="-0.19">
        <ele>1822.8</ele>
        <time>2021-02-23T09:50:30Z</time>
      </trkpt>
      <trkpt lat="42.81827" lon="-0.18992">
        <ele>1823.28</ele>
        <time>2021-02-23T09:50:39Z</time>
      </trkpt>
      <trkpt lat="42.81825" lon="-0.18983">
        <ele>1823.28</ele>
        <time>2021-02-23T09:50:50Z</time>
      </trkpt>
      <trkpt lat="42.81824" lon="-0.18978">
        <ele>1827.12</ele>
        <time>2021-02-23T09:50:54Z</time>
      </trkpt>
      <trkpt lat="42.81824" lon="-0.18977">
        <ele>1827.12</ele>
        <time>2021-02-23T09:50:55Z</time>
      </trkpt>
      <trkpt lat="42.81823" lon="-0.18975">
        <ele>1826.16</ele>
        <time>2021-02-23T09:50:57Z</time>
      </trkpt>
      <trkpt lat="42.81821" lon="-0.18963">
        <ele>1825.68</ele>
        <time>2021-02-23T09:51:07Z</time>
      </trkpt>
      <trkpt lat="42.81819" lon="-0.18956">
        <ele>1825.68</ele>
        <time>2021-02-23T09:51:17Z</time>
      </trkpt>
      <trkpt lat="42.81818" lon="-0.18952">
        <ele>1825.68</ele>
        <time>2021-02-23T09:51:22Z</time>
      </trkpt>
      <trkpt lat="42.81815" lon="-0.18949">
        <ele>1824.72</ele>
        <time>2021-02-23T09:51:29Z</time>
      </trkpt>
      <trkpt lat="42.81813" lon="-0.18947">
        <ele>1826.16</ele>
        <time>2021-02-23T09:51:36Z</time>
      </trkpt>
      <trkpt lat="42.81808" lon="-0.18941">
        <ele>1826.64</ele>
        <time>2021-02-23T09:51:46Z</time>
      </trkpt>
      <trkpt lat="42.81808" lon="-0.1894">
        <ele>1825.2</ele>
        <time>2021-02-23T09:51:51Z</time>
      </trkpt>
      <trkpt lat="42.81809" lon="-0.1893">
        <ele>1824.24</ele>
        <time>2021-02-23T09:52:02Z</time>
      </trkpt>
      <trkpt lat="42.81808" lon="-0.18928">
        <ele>1822.32</ele>
        <time>2021-02-23T09:52:06Z</time>
      </trkpt>
      <trkpt lat="42.81803" lon="-0.1893">
        <ele>1820.39</ele>
        <time>2021-02-23T09:52:16Z</time>
      </trkpt>
      <trkpt lat="42.81799" lon="-0.18929">
        <ele>1822.8</ele>
        <time>2021-02-23T09:52:22Z</time>
      </trkpt>
      <trkpt lat="42.81797" lon="-0.18929">
        <ele>1820.39</ele>
        <time>2021-02-23T09:52:24Z</time>
      </trkpt>
      <trkpt lat="42.81792" lon="-0.18925">
        <ele>1820.39</ele>
        <time>2021-02-23T09:52:33Z</time>
      </trkpt>
      <trkpt lat="42.81788" lon="-0.18923">
        <ele>1820.39</ele>
        <time>2021-02-23T09:52:41Z</time>
      </trkpt>
      <trkpt lat="42.81784" lon="-0.18923">
        <ele>1820.39</ele>
        <time>2021-02-23T09:52:49Z</time>
      </trkpt>
      <trkpt lat="42.81778" lon="-0.18921">
        <ele>1822.8</ele>
        <time>2021-02-23T09:52:59Z</time>
      </trkpt>
      <trkpt lat="42.81776" lon="-0.18921">
        <ele>1824.72</ele>
        <time>2021-02-23T09:53:02Z</time>
      </trkpt>
      <trkpt lat="42.81771" lon="-0.18918">
        <ele>1823.28</ele>
        <time>2021-02-23T09:53:12Z</time>
      </trkpt>
      <trkpt lat="42.8177" lon="-0.18917">
        <ele>1824.72</ele>
        <time>2021-02-23T09:53:14Z</time>
      </trkpt>
      <trkpt lat="42.81763" lon="-0.18916">
        <ele>1824.72</ele>
        <time>2021-02-23T09:53:23Z</time>
      </trkpt>
      <trkpt lat="42.8176" lon="-0.18917">
        <ele>1823.76</ele>
        <time>2021-02-23T09:53:28Z</time>
      </trkpt>
      <trkpt lat="42.81759" lon="-0.18917">
        <ele>1825.68</ele>
        <time>2021-02-23T09:53:30Z</time>
      </trkpt>
      <trkpt lat="42.81756" lon="-0.18919">
        <ele>1826.16</ele>
        <time>2021-02-23T09:53:34Z</time>
      </trkpt>
      <trkpt lat="42.81753" lon="-0.18922">
        <ele>1824.24</ele>
        <time>2021-02-23T09:53:41Z</time>
      </trkpt>
      <trkpt lat="42.8175" lon="-0.18925">
        <ele>1826.64</ele>
        <time>2021-02-23T09:53:49Z</time>
      </trkpt>
      <trkpt lat="42.81744" lon="-0.18931">
        <ele>1826.64</ele>
        <time>2021-02-23T09:54:01Z</time>
      </trkpt>
      <trkpt lat="42.81739" lon="-0.18938">
        <ele>1828.08</ele>
        <time>2021-02-23T09:54:11Z</time>
      </trkpt>
      <trkpt lat="42.81736" lon="-0.1894">
        <ele>1826.64</ele>
        <time>2021-02-23T09:54:14Z</time>
      </trkpt>
      <trkpt lat="42.81734" lon="-0.18941">
        <ele>1828.08</ele>
        <time>2021-02-23T09:54:16Z</time>
      </trkpt>
      <trkpt lat="42.81729" lon="-0.18943">
        <ele>1829.05</ele>
        <time>2021-02-23T09:54:25Z</time>
      </trkpt>
      <trkpt lat="42.81722" lon="-0.18944">
        <ele>1830.01</ele>
        <time>2021-02-23T09:54:35Z</time>
      </trkpt>
      <trkpt lat="42.81719" lon="-0.18945">
        <ele>1829.05</ele>
        <time>2021-02-23T09:54:40Z</time>
      </trkpt>
      <trkpt lat="42.81714" lon="-0.18948">
        <ele>1830.49</ele>
        <time>2021-02-23T09:54:47Z</time>
      </trkpt>
      <trkpt lat="42.81707" lon="-0.18949">
        <ele>1831.45</ele>
        <time>2021-02-23T09:54:58Z</time>
      </trkpt>
      <trkpt lat="42.81703" lon="-0.18949">
        <ele>1832.41</ele>
        <time>2021-02-23T09:55:02Z</time>
      </trkpt>
      <trkpt lat="42.81699" lon="-0.1895">
        <ele>1832.41</ele>
        <time>2021-02-23T09:55:09Z</time>
      </trkpt>
      <trkpt lat="42.81695" lon="-0.18951">
        <ele>1831.93</ele>
        <time>2021-02-23T09:55:16Z</time>
      </trkpt>
      <trkpt lat="42.81691" lon="-0.18952">
        <ele>1834.33</ele>
        <time>2021-02-23T09:55:21Z</time>
      </trkpt>
      <trkpt lat="42.81687" lon="-0.18953">
        <ele>1830.97</ele>
        <time>2021-02-23T09:55:26Z</time>
      </trkpt>
      <trkpt lat="42.81686" lon="-0.18953">
        <ele>1832.89</ele>
        <time>2021-02-23T09:55:28Z</time>
      </trkpt>
      <trkpt lat="42.81683" lon="-0.18954">
        <ele>1832.89</ele>
        <time>2021-02-23T09:55:32Z</time>
      </trkpt>
      <trkpt lat="42.8168" lon="-0.18955">
        <ele>1833.37</ele>
        <time>2021-02-23T09:55:37Z</time>
      </trkpt>
      <trkpt lat="42.81678" lon="-0.18956">
        <ele>1833.85</ele>
        <time>2021-02-23T09:55:40Z</time>
      </trkpt>
      <trkpt lat="42.81672" lon="-0.18957">
        <ele>1833.85</ele>
        <time>2021-02-23T09:55:48Z</time>
      </trkpt>
      <trkpt lat="42.81667" lon="-0.18962">
        <ele>1834.33</ele>
        <time>2021-02-23T09:55:57Z</time>
      </trkpt>
      <trkpt lat="42.8166" lon="-0.18965">
        <ele>1835.29</ele>
        <time>2021-02-23T09:56:07Z</time>
      </trkpt>
      <trkpt lat="42.81654" lon="-0.18967">
        <ele>1835.29</ele>
        <time>2021-02-23T09:56:15Z</time>
      </trkpt>
      <trkpt lat="42.81654" lon="-0.18968">
        <ele>1836.26</ele>
        <time>2021-02-23T09:56:18Z</time>
      </trkpt>
      <trkpt lat="42.81653" lon="-0.1897">
        <ele>1835.77</ele>
        <time>2021-02-23T09:56:20Z</time>
      </trkpt>
      <trkpt lat="42.81651" lon="-0.18971">
        <ele>1836.74</ele>
        <time>2021-02-23T09:56:22Z</time>
      </trkpt>
      <trkpt lat="42.81646" lon="-0.18974">
        <ele>1838.66</ele>
        <time>2021-02-23T09:56:29Z</time>
      </trkpt>
      <trkpt lat="42.81641" lon="-0.18978">
        <ele>1836.74</ele>
        <time>2021-02-23T09:56:39Z</time>
      </trkpt>
      <trkpt lat="42.81641" lon="-0.18979">
        <ele>1836.74</ele>
        <time>2021-02-23T09:56:40Z</time>
      </trkpt>
      <trkpt lat="42.81639" lon="-0.18979">
        <ele>1838.18</ele>
        <time>2021-02-23T09:56:42Z</time>
      </trkpt>
      <trkpt lat="42.81635" lon="-0.18982">
        <ele>1839.14</ele>
        <time>2021-02-23T09:56:51Z</time>
      </trkpt>
      <trkpt lat="42.81631" lon="-0.18983">
        <ele>1841.06</ele>
        <time>2021-02-23T09:57:00Z</time>
      </trkpt>
      <trkpt lat="42.81628" lon="-0.18984">
        <ele>1840.58</ele>
        <time>2021-02-23T09:57:05Z</time>
      </trkpt>
      <trkpt lat="42.81623" lon="-0.18987">
        <ele>1841.06</ele>
        <time>2021-02-23T09:57:16Z</time>
      </trkpt>
      <trkpt lat="42.81622" lon="-0.1899">
        <ele>1842.5</ele>
        <time>2021-02-23T09:57:21Z</time>
      </trkpt>
      <trkpt lat="42.81619" lon="-0.18992">
        <ele>1842.5</ele>
        <time>2021-02-23T09:57:33Z</time>
      </trkpt>
      <trkpt lat="42.81614" lon="-0.18993">
        <ele>1843.47</ele>
        <time>2021-02-23T09:57:41Z</time>
      </trkpt>
      <trkpt lat="42.81612" lon="-0.18994">
        <ele>1843.47</ele>
        <time>2021-02-23T09:57:43Z</time>
      </trkpt>
      <trkpt lat="42.81608" lon="-0.18996">
        <ele>1844.43</ele>
        <time>2021-02-23T09:57:54Z</time>
      </trkpt>
      <trkpt lat="42.81607" lon="-0.18996">
        <ele>1845.87</ele>
        <time>2021-02-23T09:57:56Z</time>
      </trkpt>
      <trkpt lat="42.81606" lon="-0.18996">
        <ele>1845.87</ele>
        <time>2021-02-23T09:57:58Z</time>
      </trkpt>
      <trkpt lat="42.81604" lon="-0.18995">
        <ele>1845.87</ele>
        <time>2021-02-23T09:58:00Z</time>
      </trkpt>
      <trkpt lat="42.81602" lon="-0.18995">
        <ele>1847.31</ele>
        <time>2021-02-23T09:58:05Z</time>
      </trkpt>
      <trkpt lat="42.81596" lon="-0.18998">
        <ele>1847.79</ele>
        <time>2021-02-23T09:58:16Z</time>
      </trkpt>
      <trkpt lat="42.81591" lon="-0.19">
        <ele>1848.27</ele>
        <time>2021-02-23T09:58:26Z</time>
      </trkpt>
      <trkpt lat="42.81589" lon="-0.19">
        <ele>1849.23</ele>
        <time>2021-02-23T09:58:30Z</time>
      </trkpt>
      <trkpt lat="42.81585" lon="-0.19">
        <ele>1850.19</ele>
        <time>2021-02-23T09:58:41Z</time>
      </trkpt>
      <trkpt lat="42.81582" lon="-0.19001">
        <ele>1851.64</ele>
        <time>2021-02-23T09:58:53Z</time>
      </trkpt>
      <trkpt lat="42.81578" lon="-0.19002">
        <ele>1851.64</ele>
        <time>2021-02-23T09:58:58Z</time>
      </trkpt>
      <trkpt lat="42.81572" lon="-0.19006">
        <ele>1852.6</ele>
        <time>2021-02-23T09:59:09Z</time>
      </trkpt>
      <trkpt lat="42.81567" lon="-0.19006">
        <ele>1854.52</ele>
        <time>2021-02-23T09:59:16Z</time>
      </trkpt>
      <trkpt lat="42.81563" lon="-0.19007">
        <ele>1854.52</ele>
        <time>2021-02-23T09:59:26Z</time>
      </trkpt>
      <trkpt lat="42.81561" lon="-0.19008">
        <ele>1855</ele>
        <time>2021-02-23T09:59:36Z</time>
      </trkpt>
      <trkpt lat="42.8156" lon="-0.19008">
        <ele>1856.44</ele>
        <time>2021-02-23T09:59:48Z</time>
      </trkpt>
      <trkpt lat="42.81556" lon="-0.19007">
        <ele>1856.92</ele>
        <time>2021-02-23T09:59:59Z</time>
      </trkpt>
      <trkpt lat="42.8155" lon="-0.19006">
        <ele>1858.37</ele>
        <time>2021-02-23T10:00:08Z</time>
      </trkpt>
      <trkpt lat="42.81546" lon="-0.19006">
        <ele>1859.33</ele>
        <time>2021-02-23T10:00:18Z</time>
      </trkpt>
      <trkpt lat="42.81543" lon="-0.19004">
        <ele>1860.77</ele>
        <time>2021-02-23T10:00:25Z</time>
      </trkpt>
      <trkpt lat="42.81538" lon="-0.19004">
        <ele>1862.21</ele>
        <time>2021-02-23T10:00:32Z</time>
      </trkpt>
      <trkpt lat="42.81532" lon="-0.19002">
        <ele>1862.21</ele>
        <time>2021-02-23T10:00:43Z</time>
      </trkpt>
      <trkpt lat="42.81526" lon="-0.18999">
        <ele>1863.17</ele>
        <time>2021-02-23T10:00:52Z</time>
      </trkpt>
      <trkpt lat="42.81523" lon="-0.18999">
        <ele>1864.61</ele>
        <time>2021-02-23T10:01:00Z</time>
      </trkpt>
      <trkpt lat="42.8152" lon="-0.18999">
        <ele>1865.09</ele>
        <time>2021-02-23T10:01:08Z</time>
      </trkpt>
      <trkpt lat="42.81517" lon="-0.19">
        <ele>1866.06</ele>
        <time>2021-02-23T10:01:17Z</time>
      </trkpt>
      <trkpt lat="42.81514" lon="-0.18998">
        <ele>1867.98</ele>
        <time>2021-02-23T10:01:27Z</time>
      </trkpt>
      <trkpt lat="42.8151" lon="-0.18998">
        <ele>1868.94</ele>
        <time>2021-02-23T10:01:37Z</time>
      </trkpt>
      <trkpt lat="42.81505" lon="-0.18999">
        <ele>1868.46</ele>
        <time>2021-02-23T10:01:46Z</time>
      </trkpt>
      <trkpt lat="42.81503" lon="-0.19">
        <ele>1868.46</ele>
        <time>2021-02-23T10:01:58Z</time>
      </trkpt>
      <trkpt lat="42.81501" lon="-0.18999">
        <ele>1870.86</ele>
        <time>2021-02-23T10:02:01Z</time>
      </trkpt>
      <trkpt lat="42.81495" lon="-0.18998">
        <ele>1869.9</ele>
        <time>2021-02-23T10:02:09Z</time>
      </trkpt>
      <trkpt lat="42.81489" lon="-0.18997">
        <ele>1872.79</ele>
        <time>2021-02-23T10:02:19Z</time>
      </trkpt>
      <trkpt lat="42.81488" lon="-0.18997">
        <ele>1874.71</ele>
        <time>2021-02-23T10:02:21Z</time>
      </trkpt>
      <trkpt lat="42.81487" lon="-0.18997">
        <ele>1873.27</ele>
        <time>2021-02-23T10:02:23Z</time>
      </trkpt>
      <trkpt lat="42.81482" lon="-0.18996">
        <ele>1873.27</ele>
        <time>2021-02-23T10:02:33Z</time>
      </trkpt>
      <trkpt lat="42.81478" lon="-0.18994">
        <ele>1874.71</ele>
        <time>2021-02-23T10:02:42Z</time>
      </trkpt>
      <trkpt lat="42.81474" lon="-0.1899">
        <ele>1875.19</ele>
        <time>2021-02-23T10:02:51Z</time>
      </trkpt>
      <trkpt lat="42.81471" lon="-0.18988">
        <ele>1877.59</ele>
        <time>2021-02-23T10:03:00Z</time>
      </trkpt>
      <trkpt lat="42.81465" lon="-0.18988">
        <ele>1878.55</ele>
        <time>2021-02-23T10:03:11Z</time>
      </trkpt>
      <trkpt lat="42.81461" lon="-0.18986">
        <ele>1875.19</ele>
        <time>2021-02-23T10:03:19Z</time>
      </trkpt>
      <trkpt lat="42.81461" lon="-0.18986">
        <ele>1875.19</ele>
        <time>2021-02-23T10:03:20Z</time>
      </trkpt>
      <trkpt lat="42.81461" lon="-0.18987">
        <ele>1878.55</ele>
        <time>2021-02-23T10:03:28Z</time>
      </trkpt>
      <trkpt lat="42.81455" lon="-0.18988">
        <ele>1876.63</ele>
        <time>2021-02-23T10:03:41Z</time>
      </trkpt>
      <trkpt lat="42.81453" lon="-0.18987">
        <ele>1878.07</ele>
        <time>2021-02-23T10:03:44Z</time>
      </trkpt>
      <trkpt lat="42.81449" lon="-0.18985">
        <ele>1878.55</ele>
        <time>2021-02-23T10:03:52Z</time>
      </trkpt>
      <trkpt lat="42.81447" lon="-0.18985">
        <ele>1879.03</ele>
        <time>2021-02-23T10:03:54Z</time>
      </trkpt>
      <trkpt lat="42.81444" lon="-0.18981">
        <ele>1879.03</ele>
        <time>2021-02-23T10:04:03Z</time>
      </trkpt>
      <trkpt lat="42.81439" lon="-0.18979">
        <ele>1879.03</ele>
        <time>2021-02-23T10:04:12Z</time>
      </trkpt>
      <trkpt lat="42.81438" lon="-0.18976">
        <ele>1879.03</ele>
        <time>2021-02-23T10:04:20Z</time>
      </trkpt>
      <trkpt lat="42.81434" lon="-0.18975">
        <ele>1879.03</ele>
        <time>2021-02-23T10:04:27Z</time>
      </trkpt>
      <trkpt lat="42.81433" lon="-0.18974">
        <ele>1880.48</ele>
        <time>2021-02-23T10:04:30Z</time>
      </trkpt>
      <trkpt lat="42.81425" lon="-0.1897">
        <ele>1880.48</ele>
        <time>2021-02-23T10:04:40Z</time>
      </trkpt>
      <trkpt lat="42.81422" lon="-0.18962">
        <ele>1882.4</ele>
        <time>2021-02-23T10:04:49Z</time>
      </trkpt>
      <trkpt lat="42.8142" lon="-0.18958">
        <ele>1881.92</ele>
        <time>2021-02-23T10:04:55Z</time>
      </trkpt>
      <trkpt lat="42.81417" lon="-0.18956">
        <ele>1882.88</ele>
        <time>2021-02-23T10:05:01Z</time>
      </trkpt>
      <trkpt lat="42.81412" lon="-0.18956">
        <ele>1882.88</ele>
        <time>2021-02-23T10:05:10Z</time>
      </trkpt>
      <trkpt lat="42.81411" lon="-0.18955">
        <ele>1881.44</ele>
        <time>2021-02-23T10:05:13Z</time>
      </trkpt>
      <trkpt lat="42.81407" lon="-0.18953">
        <ele>1879.51</ele>
        <time>2021-02-23T10:05:21Z</time>
      </trkpt>
      <trkpt lat="42.81404" lon="-0.18952">
        <ele>1882.4</ele>
        <time>2021-02-23T10:05:25Z</time>
      </trkpt>
      <trkpt lat="42.81398" lon="-0.18951">
        <ele>1880.96</ele>
        <time>2021-02-23T10:05:35Z</time>
      </trkpt>
      <trkpt lat="42.81395" lon="-0.18951">
        <ele>1880.96</ele>
        <time>2021-02-23T10:05:46Z</time>
      </trkpt>
      <trkpt lat="42.81393" lon="-0.18952">
        <ele>1880.96</ele>
        <time>2021-02-23T10:06:07Z</time>
      </trkpt>
      <trkpt lat="42.81394" lon="-0.18949">
        <ele>1881.92</ele>
        <time>2021-02-23T10:06:19Z</time>
      </trkpt>
      <trkpt lat="42.81389" lon="-0.18952">
        <ele>1880.48</ele>
        <time>2021-02-23T10:06:45Z</time>
      </trkpt>
      <trkpt lat="42.81387" lon="-0.18952">
        <ele>1882.4</ele>
        <time>2021-02-23T10:07:03Z</time>
      </trkpt>
      <trkpt lat="42.81391" lon="-0.18951">
        <ele>1881.44</ele>
        <time>2021-02-23T10:07:16Z</time>
      </trkpt>
      <trkpt lat="42.8139" lon="-0.1895">
        <ele>1880.48</ele>
        <time>2021-02-23T10:07:35Z</time>
      </trkpt>
      <trkpt lat="42.8139" lon="-0.18949">
        <ele>1882.4</ele>
        <time>2021-02-23T10:07:37Z</time>
      </trkpt>
      <trkpt lat="42.81392" lon="-0.18949">
        <ele>1881.44</ele>
        <time>2021-02-23T10:07:47Z</time>
      </trkpt>
      <trkpt lat="42.81388" lon="-0.1895">
        <ele>1883.84</ele>
        <time>2021-02-23T10:07:56Z</time>
      </trkpt>
      <trkpt lat="42.8139" lon="-0.18946">
        <ele>1883.36</ele>
        <time>2021-02-23T10:08:03Z</time>
      </trkpt>
      <trkpt lat="42.81388" lon="-0.18947">
        <ele>1881.92</ele>
        <time>2021-02-23T10:08:05Z</time>
      </trkpt>
      <trkpt lat="42.81383" lon="-0.18947">
        <ele>1883.36</ele>
        <time>2021-02-23T10:08:10Z</time>
      </trkpt>
      <trkpt lat="42.81375" lon="-0.18946">
        <ele>1884.32</ele>
        <time>2021-02-23T10:08:19Z</time>
      </trkpt>
      <trkpt lat="42.81368" lon="-0.18947">
        <ele>1885.28</ele>
        <time>2021-02-23T10:08:29Z</time>
      </trkpt>
      <trkpt lat="42.81361" lon="-0.18948">
        <ele>1885.76</ele>
        <time>2021-02-23T10:08:39Z</time>
      </trkpt>
      <trkpt lat="42.81354" lon="-0.18946">
        <ele>1885.76</ele>
        <time>2021-02-23T10:08:49Z</time>
      </trkpt>
      <trkpt lat="42.8135" lon="-0.18942">
        <ele>1887.21</ele>
        <time>2021-02-23T10:08:58Z</time>
      </trkpt>
      <trkpt lat="42.81344" lon="-0.18939">
        <ele>1888.65</ele>
        <time>2021-02-23T10:09:08Z</time>
      </trkpt>
      <trkpt lat="42.81343" lon="-0.18938">
        <ele>1887.21</ele>
        <time>2021-02-23T10:09:10Z</time>
      </trkpt>
      <trkpt lat="42.81338" lon="-0.18933">
        <ele>1887.21</ele>
        <time>2021-02-23T10:09:21Z</time>
      </trkpt>
      <trkpt lat="42.81334" lon="-0.18929">
        <ele>1887.21</ele>
        <time>2021-02-23T10:09:30Z</time>
      </trkpt>
      <trkpt lat="42.8133" lon="-0.18928">
        <ele>1889.61</ele>
        <time>2021-02-23T10:09:43Z</time>
      </trkpt>
      <trkpt lat="42.81328" lon="-0.18926">
        <ele>1891.05</ele>
        <time>2021-02-23T10:09:50Z</time>
      </trkpt>
      <trkpt lat="42.81323" lon="-0.18921">
        <ele>1892.01</ele>
        <time>2021-02-23T10:10:01Z</time>
      </trkpt>
      <trkpt lat="42.81322" lon="-0.18916">
        <ele>1892.49</ele>
        <time>2021-02-23T10:10:11Z</time>
      </trkpt>
      <trkpt lat="42.81319" lon="-0.18916">
        <ele>1894.42</ele>
        <time>2021-02-23T10:10:17Z</time>
      </trkpt>
      <trkpt lat="42.81314" lon="-0.18919">
        <ele>1892.97</ele>
        <time>2021-02-23T10:10:25Z</time>
      </trkpt>
      <trkpt lat="42.81309" lon="-0.18924">
        <ele>1892.01</ele>
        <time>2021-02-23T10:10:33Z</time>
      </trkpt>
      <trkpt lat="42.81307" lon="-0.18926">
        <ele>1892.97</ele>
        <time>2021-02-23T10:10:39Z</time>
      </trkpt>
      <trkpt lat="42.81305" lon="-0.18929">
        <ele>1895.38</ele>
        <time>2021-02-23T10:10:47Z</time>
      </trkpt>
      <trkpt lat="42.813" lon="-0.18932">
        <ele>1896.82</ele>
        <time>2021-02-23T10:10:56Z</time>
      </trkpt>
      <trkpt lat="42.81294" lon="-0.18931">
        <ele>1896.34</ele>
        <time>2021-02-23T10:11:05Z</time>
      </trkpt>
      <trkpt lat="42.81289" lon="-0.18929">
        <ele>1896.82</ele>
        <time>2021-02-23T10:11:17Z</time>
      </trkpt>
      <trkpt lat="42.81282" lon="-0.18928">
        <ele>1897.78</ele>
        <time>2021-02-23T10:11:26Z</time>
      </trkpt>
      <trkpt lat="42.81277" lon="-0.18928">
        <ele>1900.18</ele>
        <time>2021-02-23T10:11:34Z</time>
      </trkpt>
      <trkpt lat="42.81274" lon="-0.18928">
        <ele>1902.11</ele>
        <time>2021-02-23T10:11:47Z</time>
      </trkpt>
      <trkpt lat="42.81268" lon="-0.18926">
        <ele>1903.07</ele>
        <time>2021-02-23T10:12:02Z</time>
      </trkpt>
      <trkpt lat="42.81261" lon="-0.18922">
        <ele>1903.07</ele>
        <time>2021-02-23T10:12:13Z</time>
      </trkpt>
      <trkpt lat="42.81257" lon="-0.18921">
        <ele>1904.03</ele>
        <time>2021-02-23T10:12:24Z</time>
      </trkpt>
      <trkpt lat="42.81252" lon="-0.18921">
        <ele>1906.43</ele>
        <time>2021-02-23T10:12:32Z</time>
      </trkpt>
      <trkpt lat="42.81248" lon="-0.1892">
        <ele>1904.51</ele>
        <time>2021-02-23T10:12:40Z</time>
      </trkpt>
      <trkpt lat="42.81244" lon="-0.18919">
        <ele>1905.95</ele>
        <time>2021-02-23T10:12:49Z</time>
      </trkpt>
      <trkpt lat="42.81237" lon="-0.18919">
        <ele>1907.87</ele>
        <time>2021-02-23T10:13:02Z</time>
      </trkpt>
      <trkpt lat="42.81236" lon="-0.18918">
        <ele>1905.95</ele>
        <time>2021-02-23T10:13:04Z</time>
      </trkpt>
      <trkpt lat="42.81236" lon="-0.18917">
        <ele>1907.39</ele>
        <time>2021-02-23T10:13:08Z</time>
      </trkpt>
      <trkpt lat="42.81233" lon="-0.18914">
        <ele>1910.76</ele>
        <time>2021-02-23T10:13:16Z</time>
      </trkpt>
      <trkpt lat="42.81232" lon="-0.18913">
        <ele>1910.28</ele>
        <time>2021-02-23T10:13:28Z</time>
      </trkpt>
      <trkpt lat="42.81232" lon="-0.18913">
        <ele>1910.28</ele>
        <time>2021-02-23T10:13:29Z</time>
      </trkpt>
      <trkpt lat="42.81228" lon="-0.18908">
        <ele>1910.28</ele>
        <time>2021-02-23T10:13:39Z</time>
      </trkpt>
      <trkpt lat="42.81229" lon="-0.18907">
        <ele>1911.72</ele>
        <time>2021-02-23T10:13:43Z</time>
      </trkpt>
      <trkpt lat="42.81224" lon="-0.18905">
        <ele>1912.68</ele>
        <time>2021-02-23T10:13:52Z</time>
      </trkpt>
      <trkpt lat="42.8122" lon="-0.18902">
        <ele>1916.04</ele>
        <time>2021-02-23T10:14:03Z</time>
      </trkpt>
      <trkpt lat="42.8122" lon="-0.18901">
        <ele>1916.04</ele>
        <time>2021-02-23T10:14:04Z</time>
      </trkpt>
      <trkpt lat="42.81219" lon="-0.18901">
        <ele>1912.68</ele>
        <time>2021-02-23T10:14:06Z</time>
      </trkpt>
      <trkpt lat="42.81219" lon="-0.18901">
        <ele>1912.68</ele>
        <time>2021-02-23T10:14:07Z</time>
      </trkpt>
      <trkpt lat="42.81219" lon="-0.18901">
        <ele>1916.04</ele>
        <time>2021-02-23T10:14:09Z</time>
      </trkpt>
      <trkpt lat="42.81219" lon="-0.189">
        <ele>1916.53</ele>
        <time>2021-02-23T10:14:10Z</time>
      </trkpt>
      <trkpt lat="42.81215" lon="-0.18899">
        <ele>1914.12</ele>
        <time>2021-02-23T10:14:16Z</time>
      </trkpt>
      <trkpt lat="42.81209" lon="-0.18899">
        <ele>1915.08</ele>
        <time>2021-02-23T10:14:28Z</time>
      </trkpt>
      <trkpt lat="42.81205" lon="-0.18899">
        <ele>1916.53</ele>
        <time>2021-02-23T10:14:34Z</time>
      </trkpt>
      <trkpt lat="42.81204" lon="-0.18899">
        <ele>1915.08</ele>
        <time>2021-02-23T10:14:37Z</time>
      </trkpt>
      <trkpt lat="42.81205" lon="-0.18899">
        <ele>1916.53</ele>
        <time>2021-02-23T10:14:44Z</time>
      </trkpt>
      <trkpt lat="42.81205" lon="-0.18899">
        <ele>1915.56</ele>
        <time>2021-02-23T10:14:47Z</time>
      </trkpt>
      <trkpt lat="42.81203" lon="-0.18899">
        <ele>1916.53</ele>
        <time>2021-02-23T10:14:57Z</time>
      </trkpt>
      <trkpt lat="42.81202" lon="-0.189">
        <ele>1915.08</ele>
        <time>2021-02-23T10:15:13Z</time>
      </trkpt>
      <trkpt lat="42.81202" lon="-0.18901">
        <ele>1915.56</ele>
        <time>2021-02-23T10:15:20Z</time>
      </trkpt>
      <trkpt lat="42.81203" lon="-0.18901">
        <ele>1915.56</ele>
        <time>2021-02-23T10:15:38Z</time>
      </trkpt>
      <trkpt lat="42.81204" lon="-0.18899">
        <ele>1916.04</ele>
        <time>2021-02-23T10:15:46Z</time>
      </trkpt>
      <trkpt lat="42.81204" lon="-0.18898">
        <ele>1914.6</ele>
        <time>2021-02-23T10:15:48Z</time>
      </trkpt>
      <trkpt lat="42.81204" lon="-0.18897">
        <ele>1916.53</ele>
        <time>2021-02-23T10:15:50Z</time>
      </trkpt>
      <trkpt lat="42.81206" lon="-0.18898">
        <ele>1914.12</ele>
        <time>2021-02-23T10:15:57Z</time>
      </trkpt>
      <trkpt lat="42.81213" lon="-0.18896">
        <ele>1914.6</ele>
        <time>2021-02-23T10:16:08Z</time>
      </trkpt>
      <trkpt lat="42.81219" lon="-0.18896">
        <ele>1914.6</ele>
        <time>2021-02-23T10:16:18Z</time>
      </trkpt>
      <trkpt lat="42.8122" lon="-0.18897">
        <ele>1913.16</ele>
        <time>2021-02-23T10:16:20Z</time>
      </trkpt>
      <trkpt lat="42.81226" lon="-0.18903">
        <ele>1911.24</ele>
        <time>2021-02-23T10:16:29Z</time>
      </trkpt>
      <trkpt lat="42.81231" lon="-0.18908">
        <ele>1910.28</ele>
        <time>2021-02-23T10:16:39Z</time>
      </trkpt>
      <trkpt lat="42.81236" lon="-0.18914">
        <ele>1906.91</ele>
        <time>2021-02-23T10:16:47Z</time>
      </trkpt>
      <trkpt lat="42.81238" lon="-0.18917">
        <ele>1908.35</ele>
        <time>2021-02-23T10:16:52Z</time>
      </trkpt>
      <trkpt lat="42.81241" lon="-0.18918">
        <ele>1907.39</ele>
        <time>2021-02-23T10:16:59Z</time>
      </trkpt>
      <trkpt lat="42.81248" lon="-0.18918">
        <ele>1905.47</ele>
        <time>2021-02-23T10:17:10Z</time>
      </trkpt>
      <trkpt lat="42.81256" lon="-0.18918">
        <ele>1904.03</ele>
        <time>2021-02-23T10:17:22Z</time>
      </trkpt>
      <trkpt lat="42.81261" lon="-0.18919">
        <ele>1902.11</ele>
        <time>2021-02-23T10:17:32Z</time>
      </trkpt>
      <trkpt lat="42.81269" lon="-0.1892">
        <ele>1901.14</ele>
        <time>2021-02-23T10:17:43Z</time>
      </trkpt>
      <trkpt lat="42.81276" lon="-0.18923">
        <ele>1901.14</ele>
        <time>2021-02-23T10:17:53Z</time>
      </trkpt>
      <trkpt lat="42.8128" lon="-0.18923">
        <ele>1899.7</ele>
        <time>2021-02-23T10:17:58Z</time>
      </trkpt>
      <trkpt lat="42.81285" lon="-0.18925">
        <ele>1897.3</ele>
        <time>2021-02-23T10:18:07Z</time>
      </trkpt>
      <trkpt lat="42.81293" lon="-0.18926">
        <ele>1896.34</ele>
        <time>2021-02-23T10:18:17Z</time>
      </trkpt>
      <trkpt lat="42.81302" lon="-0.18926">
        <ele>1894.42</ele>
        <time>2021-02-23T10:18:28Z</time>
      </trkpt>
      <trkpt lat="42.81307" lon="-0.18922">
        <ele>1893.45</ele>
        <time>2021-02-23T10:18:38Z</time>
      </trkpt>
      <trkpt lat="42.81311" lon="-0.18918">
        <ele>1892.49</ele>
        <time>2021-02-23T10:18:48Z</time>
      </trkpt>
      <trkpt lat="42.81318" lon="-0.18915">
        <ele>1892.01</ele>
        <time>2021-02-23T10:18:59Z</time>
      </trkpt>
      <trkpt lat="42.81322" lon="-0.18917">
        <ele>1890.09</ele>
        <time>2021-02-23T10:19:09Z</time>
      </trkpt>
      <trkpt lat="42.81326" lon="-0.18917">
        <ele>1886.72</ele>
        <time>2021-02-23T10:19:15Z</time>
      </trkpt>
      <trkpt lat="42.81327" lon="-0.18918">
        <ele>1886.72</ele>
        <time>2021-02-23T10:19:16Z</time>
      </trkpt>
      <trkpt lat="42.8133" lon="-0.18921">
        <ele>1890.09</ele>
        <time>2021-02-23T10:19:20Z</time>
      </trkpt>
      <trkpt lat="42.81334" lon="-0.18927">
        <ele>1890.09</ele>
        <time>2021-02-23T10:19:30Z</time>
      </trkpt>
      <trkpt lat="42.81341" lon="-0.18929">
        <ele>1888.65</ele>
        <time>2021-02-23T10:19:40Z</time>
      </trkpt>
      <trkpt lat="42.81344" lon="-0.1893">
        <ele>1890.09</ele>
        <time>2021-02-23T10:19:46Z</time>
      </trkpt>
      <trkpt lat="42.81352" lon="-0.18936">
        <ele>1890.09</ele>
        <time>2021-02-23T10:19:56Z</time>
      </trkpt>
      <trkpt lat="42.81357" lon="-0.18941">
        <ele>1888.17</ele>
        <time>2021-02-23T10:20:06Z</time>
      </trkpt>
      <trkpt lat="42.81365" lon="-0.18944">
        <ele>1887.69</ele>
        <time>2021-02-23T10:20:18Z</time>
      </trkpt>
      <trkpt lat="42.81368" lon="-0.18943">
        <ele>1885.76</ele>
        <time>2021-02-23T10:20:23Z</time>
      </trkpt>
      <trkpt lat="42.81375" lon="-0.18943">
        <ele>1883.84</ele>
        <time>2021-02-23T10:20:32Z</time>
      </trkpt>
      <trkpt lat="42.81377" lon="-0.18942">
        <ele>1883.84</ele>
        <time>2021-02-23T10:20:35Z</time>
      </trkpt>
      <trkpt lat="42.81385" lon="-0.18944">
        <ele>1883.36</ele>
        <time>2021-02-23T10:20:46Z</time>
      </trkpt>
      <trkpt lat="42.81394" lon="-0.18945">
        <ele>1881.44</ele>
        <time>2021-02-23T10:20:57Z</time>
      </trkpt>
      <trkpt lat="42.81401" lon="-0.18948">
        <ele>1881.44</ele>
        <time>2021-02-23T10:21:06Z</time>
      </trkpt>
      <trkpt lat="42.81409" lon="-0.18951">
        <ele>1880.96</ele>
        <time>2021-02-23T10:21:16Z</time>
      </trkpt>
      <trkpt lat="42.81414" lon="-0.18953">
        <ele>1880.96</ele>
        <time>2021-02-23T10:21:25Z</time>
      </trkpt>
      <trkpt lat="42.81414" lon="-0.18954">
        <ele>1882.4</ele>
        <time>2021-02-23T10:21:29Z</time>
      </trkpt>
      <trkpt lat="42.81421" lon="-0.18955">
        <ele>1882.4</ele>
        <time>2021-02-23T10:21:42Z</time>
      </trkpt>
      <trkpt lat="42.81428" lon="-0.18957">
        <ele>1883.36</ele>
        <time>2021-02-23T10:21:51Z</time>
      </trkpt>
      <trkpt lat="42.81434" lon="-0.1896">
        <ele>1883.36</ele>
        <time>2021-02-23T10:22:00Z</time>
      </trkpt>
      <trkpt lat="42.81434" lon="-0.18962">
        <ele>1883.36</ele>
        <time>2021-02-23T10:22:07Z</time>
      </trkpt>
      <trkpt lat="42.81434" lon="-0.18963">
        <ele>1881.92</ele>
        <time>2021-02-23T10:22:12Z</time>
      </trkpt>
      <trkpt lat="42.8144" lon="-0.18968">
        <ele>1880.48</ele>
        <time>2021-02-23T10:22:27Z</time>
      </trkpt>
      <trkpt lat="42.81444" lon="-0.18975">
        <ele>1879.03</ele>
        <time>2021-02-23T10:22:40Z</time>
      </trkpt>
      <trkpt lat="42.8145" lon="-0.18978">
        <ele>1877.11</ele>
        <time>2021-02-23T10:22:50Z</time>
      </trkpt>
      <trkpt lat="42.81455" lon="-0.18981">
        <ele>1876.63</ele>
        <time>2021-02-23T10:23:00Z</time>
      </trkpt>
      <trkpt lat="42.81461" lon="-0.18983">
        <ele>1876.15</ele>
        <time>2021-02-23T10:23:10Z</time>
      </trkpt>
      <trkpt lat="42.81468" lon="-0.18985">
        <ele>1876.15</ele>
        <time>2021-02-23T10:23:20Z</time>
      </trkpt>
      <trkpt lat="42.81474" lon="-0.18984">
        <ele>1876.15</ele>
        <time>2021-02-23T10:23:31Z</time>
      </trkpt>
      <trkpt lat="42.8148" lon="-0.18988">
        <ele>1875.19</ele>
        <time>2021-02-23T10:23:41Z</time>
      </trkpt>
      <trkpt lat="42.81486" lon="-0.18994">
        <ele>1873.75</ele>
        <time>2021-02-23T10:23:51Z</time>
      </trkpt>
      <trkpt lat="42.81492" lon="-0.18995">
        <ele>1871.82</ele>
        <time>2021-02-23T10:24:02Z</time>
      </trkpt>
      <trkpt lat="42.81498" lon="-0.18995">
        <ele>1870.86</ele>
        <time>2021-02-23T10:24:13Z</time>
      </trkpt>
      <trkpt lat="42.81503" lon="-0.18994">
        <ele>1870.86</ele>
        <time>2021-02-23T10:24:23Z</time>
      </trkpt>
      <trkpt lat="42.81509" lon="-0.18992">
        <ele>1869.42</ele>
        <time>2021-02-23T10:24:33Z</time>
      </trkpt>
      <trkpt lat="42.81514" lon="-0.18992">
        <ele>1867.5</ele>
        <time>2021-02-23T10:24:43Z</time>
      </trkpt>
      <trkpt lat="42.81519" lon="-0.18992">
        <ele>1864.61</ele>
        <time>2021-02-23T10:24:53Z</time>
      </trkpt>
      <trkpt lat="42.81525" lon="-0.18994">
        <ele>1863.65</ele>
        <time>2021-02-23T10:25:04Z</time>
      </trkpt>
      <trkpt lat="42.81532" lon="-0.18998">
        <ele>1862.69</ele>
        <time>2021-02-23T10:25:15Z</time>
      </trkpt>
      <trkpt lat="42.81539" lon="-0.18999">
        <ele>1860.77</ele>
        <time>2021-02-23T10:25:27Z</time>
      </trkpt>
      <trkpt lat="42.81544" lon="-0.19">
        <ele>1859.33</ele>
        <time>2021-02-23T10:25:38Z</time>
      </trkpt>
      <trkpt lat="42.81547" lon="-0.19001">
        <ele>1858.85</ele>
        <time>2021-02-23T10:25:48Z</time>
      </trkpt>
      <trkpt lat="42.81548" lon="-0.19002">
        <ele>1858.37</ele>
        <time>2021-02-23T10:26:03Z</time>
      </trkpt>
      <trkpt lat="42.81552" lon="-0.19002">
        <ele>1858.37</ele>
        <time>2021-02-23T10:26:12Z</time>
      </trkpt>
      <trkpt lat="42.81556" lon="-0.19">
        <ele>1857.89</ele>
        <time>2021-02-23T10:26:22Z</time>
      </trkpt>
      <trkpt lat="42.81562" lon="-0.18998">
        <ele>1856.44</ele>
        <time>2021-02-23T10:26:32Z</time>
      </trkpt>
      <trkpt lat="42.81567" lon="-0.18997">
        <ele>1853.56</ele>
        <time>2021-02-23T10:26:42Z</time>
      </trkpt>
      <trkpt lat="42.81572" lon="-0.18996">
        <ele>1852.6</ele>
        <time>2021-02-23T10:26:53Z</time>
      </trkpt>
      <trkpt lat="42.8158" lon="-0.18992">
        <ele>1849.71</ele>
        <time>2021-02-23T10:27:05Z</time>
      </trkpt>
      <trkpt lat="42.81588" lon="-0.1899">
        <ele>1849.23</ele>
        <time>2021-02-23T10:27:16Z</time>
      </trkpt>
      <trkpt lat="42.81595" lon="-0.18988">
        <ele>1847.31</ele>
        <time>2021-02-23T10:27:27Z</time>
      </trkpt>
      <trkpt lat="42.81601" lon="-0.18986">
        <ele>1845.39</ele>
        <time>2021-02-23T10:27:38Z</time>
      </trkpt>
      <trkpt lat="42.81602" lon="-0.18985">
        <ele>1844.91</ele>
        <time>2021-02-23T10:27:59Z</time>
      </trkpt>
      <trkpt lat="42.81608" lon="-0.18985">
        <ele>1844.91</ele>
        <time>2021-02-23T10:28:09Z</time>
      </trkpt>
      <trkpt lat="42.81615" lon="-0.18982">
        <ele>1844.43</ele>
        <time>2021-02-23T10:28:20Z</time>
      </trkpt>
      <trkpt lat="42.81623" lon="-0.18979">
        <ele>1842.02</ele>
        <time>2021-02-23T10:28:33Z</time>
      </trkpt>
      <trkpt lat="42.81631" lon="-0.18975">
        <ele>1839.62</ele>
        <time>2021-02-23T10:28:45Z</time>
      </trkpt>
      <trkpt lat="42.81639" lon="-0.18972">
        <ele>1837.22</ele>
        <time>2021-02-23T10:28:58Z</time>
      </trkpt>
      <trkpt lat="42.81647" lon="-0.18969">
        <ele>1836.74</ele>
        <time>2021-02-23T10:29:10Z</time>
      </trkpt>
      <trkpt lat="42.81655" lon="-0.18963">
        <ele>1835.77</ele>
        <time>2021-02-23T10:29:21Z</time>
      </trkpt>
      <trkpt lat="42.81665" lon="-0.18957">
        <ele>1832.89</ele>
        <time>2021-02-23T10:29:34Z</time>
      </trkpt>
      <trkpt lat="42.81675" lon="-0.18953">
        <ele>1832.89</ele>
        <time>2021-02-23T10:29:46Z</time>
      </trkpt>
      <trkpt lat="42.81683" lon="-0.18948">
        <ele>1832.41</ele>
        <time>2021-02-23T10:29:57Z</time>
      </trkpt>
      <trkpt lat="42.81692" lon="-0.18945">
        <ele>1831.45</ele>
        <time>2021-02-23T10:30:08Z</time>
      </trkpt>
      <trkpt lat="42.81701" lon="-0.18942">
        <ele>1830.01</ele>
        <time>2021-02-23T10:30:20Z</time>
      </trkpt>
      <trkpt lat="42.81712" lon="-0.1894">
        <ele>1830.01</ele>
        <time>2021-02-23T10:30:33Z</time>
      </trkpt>
      <trkpt lat="42.81716" lon="-0.18938">
        <ele>1829.53</ele>
        <time>2021-02-23T10:30:37Z</time>
      </trkpt>
      <trkpt lat="42.81725" lon="-0.18937">
        <ele>1829.05</ele>
        <time>2021-02-23T10:30:47Z</time>
      </trkpt>
      <trkpt lat="42.81736" lon="-0.18932">
        <ele>1827.6</ele>
        <time>2021-02-23T10:31:00Z</time>
      </trkpt>
      <trkpt lat="42.81745" lon="-0.18924">
        <ele>1827.12</ele>
        <time>2021-02-23T10:31:11Z</time>
      </trkpt>
      <trkpt lat="42.81752" lon="-0.18917">
        <ele>1826.64</ele>
        <time>2021-02-23T10:31:22Z</time>
      </trkpt>
      <trkpt lat="42.81754" lon="-0.18916">
        <ele>1825.68</ele>
        <time>2021-02-23T10:31:34Z</time>
      </trkpt>
      <trkpt lat="42.81757" lon="-0.18915">
        <ele>1824.24</ele>
        <time>2021-02-23T10:31:47Z</time>
      </trkpt>
      <trkpt lat="42.81765" lon="-0.18912">
        <ele>1823.76</ele>
        <time>2021-02-23T10:31:57Z</time>
      </trkpt>
      <trkpt lat="42.81771" lon="-0.18913">
        <ele>1822.8</ele>
        <time>2021-02-23T10:32:09Z</time>
      </trkpt>
      <trkpt lat="42.81773" lon="-0.18914">
        <ele>1823.76</ele>
        <time>2021-02-23T10:32:20Z</time>
      </trkpt>
      <trkpt lat="42.81778" lon="-0.18919">
        <ele>1822.8</ele>
        <time>2021-02-23T10:32:30Z</time>
      </trkpt>
      <trkpt lat="42.81782" lon="-0.18922">
        <ele>1820.87</ele>
        <time>2021-02-23T10:32:40Z</time>
      </trkpt>
      <trkpt lat="42.81787" lon="-0.18918">
        <ele>1819.91</ele>
        <time>2021-02-23T10:32:51Z</time>
      </trkpt>
      <trkpt lat="42.81789" lon="-0.18919">
        <ele>1820.87</ele>
        <time>2021-02-23T10:32:54Z</time>
      </trkpt>
      <trkpt lat="42.81794" lon="-0.18925">
        <ele>1818.47</ele>
        <time>2021-02-23T10:33:03Z</time>
      </trkpt>
      <trkpt lat="42.81798" lon="-0.18926">
        <ele>1820.39</ele>
        <time>2021-02-23T10:33:10Z</time>
      </trkpt>
      <trkpt lat="42.81803" lon="-0.18927">
        <ele>1819.43</ele>
        <time>2021-02-23T10:33:20Z</time>
      </trkpt>
      <trkpt lat="42.81807" lon="-0.18927">
        <ele>1819.91</ele>
        <time>2021-02-23T10:33:30Z</time>
      </trkpt>
      <trkpt lat="42.8181" lon="-0.18927">
        <ele>1821.84</ele>
        <time>2021-02-23T10:33:45Z</time>
      </trkpt>
      <trkpt lat="42.8181" lon="-0.18935">
        <ele>1824.24</ele>
        <time>2021-02-23T10:33:57Z</time>
      </trkpt>
      <trkpt lat="42.8181" lon="-0.18936">
        <ele>1825.68</ele>
        <time>2021-02-23T10:33:59Z</time>
      </trkpt>
      <trkpt lat="42.81812" lon="-0.18941">
        <ele>1824.24</ele>
        <time>2021-02-23T10:34:11Z</time>
      </trkpt>
      <trkpt lat="42.81817" lon="-0.18943">
        <ele>1824.24</ele>
        <time>2021-02-23T10:34:19Z</time>
      </trkpt>
      <trkpt lat="42.81823" lon="-0.18948">
        <ele>1823.76</ele>
        <time>2021-02-23T10:34:28Z</time>
      </trkpt>
      <trkpt lat="42.81824" lon="-0.18957">
        <ele>1823.28</ele>
        <time>2021-02-23T10:34:37Z</time>
      </trkpt>
      <trkpt lat="42.81824" lon="-0.18964">
        <ele>1823.28</ele>
        <time>2021-02-23T10:34:46Z</time>
      </trkpt>
      <trkpt lat="42.81824" lon="-0.18963">
        <ele>1823.28</ele>
        <time>2021-02-23T10:35:02Z</time>
      </trkpt>
      <trkpt lat="42.81823" lon="-0.18966">
        <ele>1824.72</ele>
        <time>2021-02-23T10:35:22Z</time>
      </trkpt>
      <trkpt lat="42.81823" lon="-0.18967">
        <ele>1824.72</ele>
        <time>2021-02-23T10:35:42Z</time>
      </trkpt>
      <trkpt lat="42.81824" lon="-0.18973">
        <ele>1825.68</ele>
        <time>2021-02-23T10:35:51Z</time>
      </trkpt>
      <trkpt lat="42.81827" lon="-0.18978">
        <ele>1825.68</ele>
        <time>2021-02-23T10:36:02Z</time>
      </trkpt>
      <trkpt lat="42.81827" lon="-0.1898">
        <ele>1824.24</ele>
        <time>2021-02-23T10:36:04Z</time>
      </trkpt>
      <trkpt lat="42.81829" lon="-0.18989">
        <ele>1827.12</ele>
        <time>2021-02-23T10:36:13Z</time>
      </trkpt>
      <trkpt lat="42.8183" lon="-0.18995">
        <ele>1824.24</ele>
        <time>2021-02-23T10:36:20Z</time>
      </trkpt>
      <trkpt lat="42.81831" lon="-0.18997">
        <ele>1823.76</ele>
        <time>2021-02-23T10:36:22Z</time>
      </trkpt>
      <trkpt lat="42.81833" lon="-0.19003">
        <ele>1824.24</ele>
        <time>2021-02-23T10:36:27Z</time>
      </trkpt>
      <trkpt lat="42.81834" lon="-0.19007">
        <ele>1822.32</ele>
        <time>2021-02-23T10:36:30Z</time>
      </trkpt>
      <trkpt lat="42.81839" lon="-0.19017">
        <ele>1820.87</ele>
        <time>2021-02-23T10:36:40Z</time>
      </trkpt>
      <trkpt lat="42.81844" lon="-0.19021">
        <ele>1820.87</ele>
        <time>2021-02-23T10:36:49Z</time>
      </trkpt>
      <trkpt lat="42.81847" lon="-0.19022">
        <ele>1820.87</ele>
        <time>2021-02-23T10:36:52Z</time>
      </trkpt>
      <trkpt lat="42.81855" lon="-0.19031">
        <ele>1820.87</ele>
        <time>2021-02-23T10:37:04Z</time>
      </trkpt>
      <trkpt lat="42.81864" lon="-0.19036">
        <ele>1819.91</ele>
        <time>2021-02-23T10:37:15Z</time>
      </trkpt>
      <trkpt lat="42.81867" lon="-0.19038">
        <ele>1818.95</ele>
        <time>2021-02-23T10:37:19Z</time>
      </trkpt>
      <trkpt lat="42.81875" lon="-0.19038">
        <ele>1818.95</ele>
        <time>2021-02-23T10:37:29Z</time>
      </trkpt>
      <trkpt lat="42.8188" lon="-0.19034">
        <ele>1818.95</ele>
        <time>2021-02-23T10:37:39Z</time>
      </trkpt>
      <trkpt lat="42.81882" lon="-0.19034">
        <ele>1820.39</ele>
        <time>2021-02-23T10:37:47Z</time>
      </trkpt>
      <trkpt lat="42.81889" lon="-0.19031">
        <ele>1822.8</ele>
        <time>2021-02-23T10:37:56Z</time>
      </trkpt>
      <trkpt lat="42.8189" lon="-0.19031">
        <ele>1822.8</ele>
        <time>2021-02-23T10:37:57Z</time>
      </trkpt>
      <trkpt lat="42.81898" lon="-0.19032">
        <ele>1822.32</ele>
        <time>2021-02-23T10:38:08Z</time>
      </trkpt>
      <trkpt lat="42.81899" lon="-0.19033">
        <ele>1821.35</ele>
        <time>2021-02-23T10:38:10Z</time>
      </trkpt>
      <trkpt lat="42.81908" lon="-0.19034">
        <ele>1820.39</ele>
        <time>2021-02-23T10:38:20Z</time>
      </trkpt>
      <trkpt lat="42.81912" lon="-0.19037">
        <ele>1822.32</ele>
        <time>2021-02-23T10:38:27Z</time>
      </trkpt>
      <trkpt lat="42.81916" lon="-0.19038">
        <ele>1817.99</ele>
        <time>2021-02-23T10:38:34Z</time>
      </trkpt>
      <trkpt lat="42.81916" lon="-0.19039">
        <ele>1817.99</ele>
        <time>2021-02-23T10:38:35Z</time>
      </trkpt>
      <trkpt lat="42.81921" lon="-0.19045">
        <ele>1817.51</ele>
        <time>2021-02-23T10:38:45Z</time>
      </trkpt>
      <trkpt lat="42.81922" lon="-0.19047">
        <ele>1818.95</ele>
        <time>2021-02-23T10:38:48Z</time>
      </trkpt>
      <trkpt lat="42.81927" lon="-0.19046">
        <ele>1819.43</ele>
        <time>2021-02-23T10:39:00Z</time>
      </trkpt>
      <trkpt lat="42.81932" lon="-0.19045">
        <ele>1819.43</ele>
        <time>2021-02-23T10:39:09Z</time>
      </trkpt>
      <trkpt lat="42.81933" lon="-0.19054">
        <ele>1821.84</ele>
        <time>2021-02-23T10:39:18Z</time>
      </trkpt>
      <trkpt lat="42.81932" lon="-0.19064">
        <ele>1821.84</ele>
        <time>2021-02-23T10:39:28Z</time>
      </trkpt>
      <trkpt lat="42.81931" lon="-0.19071">
        <ele>1822.8</ele>
        <time>2021-02-23T10:39:36Z</time>
      </trkpt>
      <trkpt lat="42.81931" lon="-0.19076">
        <ele>1825.2</ele>
        <time>2021-02-23T10:39:42Z</time>
      </trkpt>
      <trkpt lat="42.81932" lon="-0.19082">
        <ele>1827.6</ele>
        <time>2021-02-23T10:39:49Z</time>
      </trkpt>
      <trkpt lat="42.81932" lon="-0.19084">
        <ele>1824.24</ele>
        <time>2021-02-23T10:39:51Z</time>
      </trkpt>
      <trkpt lat="42.81932" lon="-0.19085">
        <ele>1824.24</ele>
        <time>2021-02-23T10:39:52Z</time>
      </trkpt>
      <trkpt lat="42.81932" lon="-0.19093">
        <ele>1823.28</ele>
        <time>2021-02-23T10:40:02Z</time>
      </trkpt>
      <trkpt lat="42.81932" lon="-0.19095">
        <ele>1824.24</ele>
        <time>2021-02-23T10:40:04Z</time>
      </trkpt>
      <trkpt lat="42.81935" lon="-0.191">
        <ele>1824.24</ele>
        <time>2021-02-23T10:40:15Z</time>
      </trkpt>
      <trkpt lat="42.81934" lon="-0.19108">
        <ele>1824.24</ele>
        <time>2021-02-23T10:40:25Z</time>
      </trkpt>
      <trkpt lat="42.81933" lon="-0.19118">
        <ele>1825.2</ele>
        <time>2021-02-23T10:40:35Z</time>
      </trkpt>
      <trkpt lat="42.81933" lon="-0.19127">
        <ele>1827.12</ele>
        <time>2021-02-23T10:40:45Z</time>
      </trkpt>
      <trkpt lat="42.8193" lon="-0.19136">
        <ele>1827.6</ele>
        <time>2021-02-23T10:40:56Z</time>
      </trkpt>
      <trkpt lat="42.81929" lon="-0.19143">
        <ele>1829.05</ele>
        <time>2021-02-23T10:41:05Z</time>
      </trkpt>
      <trkpt lat="42.81929" lon="-0.19146">
        <ele>1827.6</ele>
        <time>2021-02-23T10:41:09Z</time>
      </trkpt>
      <trkpt lat="42.81929" lon="-0.19147">
        <ele>1829.53</ele>
        <time>2021-02-23T10:41:11Z</time>
      </trkpt>
      <trkpt lat="42.81928" lon="-0.1915">
        <ele>1828.08</ele>
        <time>2021-02-23T10:41:15Z</time>
      </trkpt>
      <trkpt lat="42.81927" lon="-0.19156">
        <ele>1828.08</ele>
        <time>2021-02-23T10:41:23Z</time>
      </trkpt>
      <trkpt lat="42.81926" lon="-0.19162">
        <ele>1830.49</ele>
        <time>2021-02-23T10:41:33Z</time>
      </trkpt>
      <trkpt lat="42.81925" lon="-0.19165">
        <ele>1831.93</ele>
        <time>2021-02-23T10:41:49Z</time>
      </trkpt>
      <trkpt lat="42.81921" lon="-0.1917">
        <ele>1834.33</ele>
        <time>2021-02-23T10:41:59Z</time>
      </trkpt>
      <trkpt lat="42.81914" lon="-0.19176">
        <ele>1835.29</ele>
        <time>2021-02-23T10:42:09Z</time>
      </trkpt>
      <trkpt lat="42.81911" lon="-0.19182">
        <ele>1835.29</ele>
        <time>2021-02-23T10:42:18Z</time>
      </trkpt>
      <trkpt lat="42.81912" lon="-0.1919">
        <ele>1835.29</ele>
        <time>2021-02-23T10:42:28Z</time>
      </trkpt>
      <trkpt lat="42.81918" lon="-0.19196">
        <ele>1835.29</ele>
        <time>2021-02-23T10:42:39Z</time>
      </trkpt>
      <trkpt lat="42.8192" lon="-0.19201">
        <ele>1834.33</ele>
        <time>2021-02-23T10:42:50Z</time>
      </trkpt>
      <trkpt lat="42.8192" lon="-0.19202">
        <ele>1834.33</ele>
        <time>2021-02-23T10:43:02Z</time>
      </trkpt>
      <trkpt lat="42.81923" lon="-0.19213">
        <ele>1836.26</ele>
        <time>2021-02-23T10:43:14Z</time>
      </trkpt>
      <trkpt lat="42.81922" lon="-0.19221">
        <ele>1836.26</ele>
        <time>2021-02-23T10:43:26Z</time>
      </trkpt>
      <trkpt lat="42.81922" lon="-0.19223">
        <ele>1834.81</ele>
        <time>2021-02-23T10:43:40Z</time>
      </trkpt>
      <trkpt lat="42.81922" lon="-0.19222">
        <ele>1834.81</ele>
        <time>2021-02-23T10:43:51Z</time>
      </trkpt>
      <trkpt lat="42.81921" lon="-0.19222">
        <ele>1834.33</ele>
        <time>2021-02-23T10:44:10Z</time>
      </trkpt>
      <trkpt lat="42.81922" lon="-0.19226">
        <ele>1835.29</ele>
        <time>2021-02-23T10:44:26Z</time>
      </trkpt>
      <trkpt lat="42.81924" lon="-0.19235">
        <ele>1836.74</ele>
        <time>2021-02-23T10:44:37Z</time>
      </trkpt>
      <trkpt lat="42.81924" lon="-0.19249">
        <ele>1836.74</ele>
        <time>2021-02-23T10:44:49Z</time>
      </trkpt>
      <trkpt lat="42.81923" lon="-0.19259">
        <ele>1836.74</ele>
        <time>2021-02-23T10:44:59Z</time>
      </trkpt>
      <trkpt lat="42.81923" lon="-0.19268">
        <ele>1836.74</ele>
        <time>2021-02-23T10:45:08Z</time>
      </trkpt>
      <trkpt lat="42.81918" lon="-0.19277">
        <ele>1837.7</ele>
        <time>2021-02-23T10:45:19Z</time>
      </trkpt>
      <trkpt lat="42.81914" lon="-0.19285">
        <ele>1838.66</ele>
        <time>2021-02-23T10:45:29Z</time>
      </trkpt>
      <trkpt lat="42.81912" lon="-0.19294">
        <ele>1839.14</ele>
        <time>2021-02-23T10:45:41Z</time>
      </trkpt>
      <trkpt lat="42.8191" lon="-0.19302">
        <ele>1840.58</ele>
        <time>2021-02-23T10:45:51Z</time>
      </trkpt>
      <trkpt lat="42.81908" lon="-0.19311">
        <ele>1840.58</ele>
        <time>2021-02-23T10:46:02Z</time>
      </trkpt>
      <trkpt lat="42.81909" lon="-0.19318">
        <ele>1842.02</ele>
        <time>2021-02-23T10:46:12Z</time>
      </trkpt>
      <trkpt lat="42.81912" lon="-0.19322">
        <ele>1842.98</ele>
        <time>2021-02-23T10:46:21Z</time>
      </trkpt>
      <trkpt lat="42.81917" lon="-0.19328">
        <ele>1843.95</ele>
        <time>2021-02-23T10:46:34Z</time>
      </trkpt>
      <trkpt lat="42.81918" lon="-0.19338">
        <ele>1845.39</ele>
        <time>2021-02-23T10:46:44Z</time>
      </trkpt>
      <trkpt lat="42.81917" lon="-0.19349">
        <ele>1845.39</ele>
        <time>2021-02-23T10:46:55Z</time>
      </trkpt>
      <trkpt lat="42.81916" lon="-0.19358">
        <ele>1845.87</ele>
        <time>2021-02-23T10:47:06Z</time>
      </trkpt>
      <trkpt lat="42.81917" lon="-0.19364">
        <ele>1844.43</ele>
        <time>2021-02-23T10:47:17Z</time>
      </trkpt>
      <trkpt lat="42.81919" lon="-0.19372">
        <ele>1844.43</ele>
        <time>2021-02-23T10:47:26Z</time>
      </trkpt>
      <trkpt lat="42.81924" lon="-0.19377">
        <ele>1846.83</ele>
        <time>2021-02-23T10:47:37Z</time>
      </trkpt>
      <trkpt lat="42.81929" lon="-0.19378">
        <ele>1847.79</ele>
        <time>2021-02-23T10:47:47Z</time>
      </trkpt>
      <trkpt lat="42.81934" lon="-0.1938">
        <ele>1846.35</ele>
        <time>2021-02-23T10:47:56Z</time>
      </trkpt>
      <trkpt lat="42.81938" lon="-0.19386">
        <ele>1845.87</ele>
        <time>2021-02-23T10:48:06Z</time>
      </trkpt>
      <trkpt lat="42.81943" lon="-0.19394">
        <ele>1846.35</ele>
        <time>2021-02-23T10:48:16Z</time>
      </trkpt>
      <trkpt lat="42.81944" lon="-0.19398">
        <ele>1847.31</ele>
        <time>2021-02-23T10:48:21Z</time>
      </trkpt>
      <trkpt lat="42.81949" lon="-0.19406">
        <ele>1848.75</ele>
        <time>2021-02-23T10:48:31Z</time>
      </trkpt>
      <trkpt lat="42.81951" lon="-0.19405">
        <ele>1847.31</ele>
        <time>2021-02-23T10:48:42Z</time>
      </trkpt>
      <trkpt lat="42.81953" lon="-0.19407">
        <ele>1846.83</ele>
        <time>2021-02-23T10:49:01Z</time>
      </trkpt>
      <trkpt lat="42.81953" lon="-0.19407">
        <ele>1848.27</ele>
        <time>2021-02-23T10:49:06Z</time>
      </trkpt>
      <trkpt lat="42.8195" lon="-0.19407">
        <ele>1849.71</ele>
        <time>2021-02-23T10:49:13Z</time>
      </trkpt>
      <trkpt lat="42.8195" lon="-0.19407">
        <ele>1848.27</ele>
        <time>2021-02-23T10:49:16Z</time>
      </trkpt>
      <trkpt lat="42.81949" lon="-0.19408">
        <ele>1849.23</ele>
        <time>2021-02-23T10:49:33Z</time>
      </trkpt>
      <trkpt lat="42.81952" lon="-0.19413">
        <ele>1849.71</ele>
        <time>2021-02-23T10:49:42Z</time>
      </trkpt>
      <trkpt lat="42.81956" lon="-0.19417">
        <ele>1850.19</ele>
        <time>2021-02-23T10:49:52Z</time>
      </trkpt>
      <trkpt lat="42.81961" lon="-0.19422">
        <ele>1850.68</ele>
        <time>2021-02-23T10:50:01Z</time>
      </trkpt>
      <trkpt lat="42.81964" lon="-0.19425">
        <ele>1851.64</ele>
        <time>2021-02-23T10:50:09Z</time>
      </trkpt>
      <trkpt lat="42.81966" lon="-0.19426">
        <ele>1852.6</ele>
        <time>2021-02-23T10:50:18Z</time>
      </trkpt>
      <trkpt lat="42.81969" lon="-0.19431">
        <ele>1854.52</ele>
        <time>2021-02-23T10:50:27Z</time>
      </trkpt>
      <trkpt lat="42.81972" lon="-0.19436">
        <ele>1855</ele>
        <time>2021-02-23T10:50:37Z</time>
      </trkpt>
      <trkpt lat="42.81976" lon="-0.19438">
        <ele>1855.48</ele>
        <time>2021-02-23T10:50:45Z</time>
      </trkpt>
      <trkpt lat="42.8198" lon="-0.1944">
        <ele>1855.96</ele>
        <time>2021-02-23T10:50:52Z</time>
      </trkpt>
      <trkpt lat="42.81984" lon="-0.19445">
        <ele>1856.92</ele>
        <time>2021-02-23T10:51:02Z</time>
      </trkpt>
      <trkpt lat="42.81986" lon="-0.19453">
        <ele>1857.89</ele>
        <time>2021-02-23T10:51:11Z</time>
      </trkpt>
      <trkpt lat="42.81986" lon="-0.19463">
        <ele>1857.89</ele>
        <time>2021-02-23T10:51:21Z</time>
      </trkpt>
      <trkpt lat="42.81986" lon="-0.19471">
        <ele>1857.89</ele>
        <time>2021-02-23T10:51:30Z</time>
      </trkpt>
      <trkpt lat="42.81986" lon="-0.19478">
        <ele>1857.89</ele>
        <time>2021-02-23T10:51:38Z</time>
      </trkpt>
      <trkpt lat="42.81986" lon="-0.19486">
        <ele>1857.89</ele>
        <time>2021-02-23T10:51:49Z</time>
      </trkpt>
      <trkpt lat="42.81986" lon="-0.19494">
        <ele>1858.37</ele>
        <time>2021-02-23T10:51:58Z</time>
      </trkpt>
      <trkpt lat="42.81987" lon="-0.195">
        <ele>1858.37</ele>
        <time>2021-02-23T10:52:08Z</time>
      </trkpt>
      <trkpt lat="42.81989" lon="-0.19502">
        <ele>1858.37</ele>
        <time>2021-02-23T10:52:20Z</time>
      </trkpt>
      <trkpt lat="42.8199" lon="-0.19507">
        <ele>1858.37</ele>
        <time>2021-02-23T10:52:31Z</time>
      </trkpt>
      <trkpt lat="42.81988" lon="-0.19509">
        <ele>1858.37</ele>
        <time>2021-02-23T10:52:48Z</time>
      </trkpt>
      <trkpt lat="42.8199" lon="-0.19509">
        <ele>1858.85</ele>
        <time>2021-02-23T10:52:58Z</time>
      </trkpt>
      <trkpt lat="42.81991" lon="-0.19509">
        <ele>1858.85</ele>
        <time>2021-02-23T10:53:21Z</time>
      </trkpt>
      <trkpt lat="42.81989" lon="-0.19508">
        <ele>1858.85</ele>
        <time>2021-02-23T10:53:41Z</time>
      </trkpt>
      <trkpt lat="42.81991" lon="-0.19508">
        <ele>1859.33</ele>
        <time>2021-02-23T10:54:03Z</time>
      </trkpt>
      <trkpt lat="42.81994" lon="-0.19509">
        <ele>1859.33</ele>
        <time>2021-02-23T10:54:14Z</time>
      </trkpt>
      <trkpt lat="42.82" lon="-0.19512">
        <ele>1859.81</ele>
        <time>2021-02-23T10:54:24Z</time>
      </trkpt>
      <trkpt lat="42.82002" lon="-0.19512">
        <ele>1859.81</ele>
        <time>2021-02-23T10:54:34Z</time>
      </trkpt>
      <trkpt lat="42.82006" lon="-0.19512">
        <ele>1859.81</ele>
        <time>2021-02-23T10:54:42Z</time>
      </trkpt>
      <trkpt lat="42.82012" lon="-0.19514">
        <ele>1860.77</ele>
        <time>2021-02-23T10:54:53Z</time>
      </trkpt>
      <trkpt lat="42.82015" lon="-0.1952">
        <ele>1862.21</ele>
        <time>2021-02-23T10:55:02Z</time>
      </trkpt>
      <trkpt lat="42.82018" lon="-0.19526">
        <ele>1862.69</ele>
        <time>2021-02-23T10:55:11Z</time>
      </trkpt>
      <trkpt lat="42.82023" lon="-0.19526">
        <ele>1862.69</ele>
        <time>2021-02-23T10:55:20Z</time>
      </trkpt>
      <trkpt lat="42.82026" lon="-0.19529">
        <ele>1862.69</ele>
        <time>2021-02-23T10:55:29Z</time>
      </trkpt>
      <trkpt lat="42.82028" lon="-0.19531">
        <ele>1862.69</ele>
        <time>2021-02-23T10:55:38Z</time>
      </trkpt>
      <trkpt lat="42.8203" lon="-0.19534">
        <ele>1863.17</ele>
        <time>2021-02-23T10:55:48Z</time>
      </trkpt>
      <trkpt lat="42.82029" lon="-0.19538">
        <ele>1864.13</ele>
        <time>2021-02-23T10:55:56Z</time>
      </trkpt>
      <trkpt lat="42.82033" lon="-0.19545">
        <ele>1864.61</ele>
        <time>2021-02-23T10:56:06Z</time>
      </trkpt>
      <trkpt lat="42.82037" lon="-0.19551">
        <ele>1865.09</ele>
        <time>2021-02-23T10:56:16Z</time>
      </trkpt>
      <trkpt lat="42.8204" lon="-0.19556">
        <ele>1865.09</ele>
        <time>2021-02-23T10:56:25Z</time>
      </trkpt>
      <trkpt lat="42.82044" lon="-0.19562">
        <ele>1865.09</ele>
        <time>2021-02-23T10:56:34Z</time>
      </trkpt>
      <trkpt lat="42.82046" lon="-0.19568">
        <ele>1865.58</ele>
        <time>2021-02-23T10:56:43Z</time>
      </trkpt>
      <trkpt lat="42.82048" lon="-0.1957">
        <ele>1865.58</ele>
        <time>2021-02-23T10:56:52Z</time>
      </trkpt>
      <trkpt lat="42.82046" lon="-0.19574">
        <ele>1865.58</ele>
        <time>2021-02-23T10:57:08Z</time>
      </trkpt>
      <trkpt lat="42.82047" lon="-0.19574">
        <ele>1865.58</ele>
        <time>2021-02-23T10:57:25Z</time>
      </trkpt>
      <trkpt lat="42.82048" lon="-0.19576">
        <ele>1865.58</ele>
        <time>2021-02-23T10:57:36Z</time>
      </trkpt>
      <trkpt lat="42.8205" lon="-0.19581">
        <ele>1865.58</ele>
        <time>2021-02-23T10:57:44Z</time>
      </trkpt>
      <trkpt lat="42.8205" lon="-0.19588">
        <ele>1866.54</ele>
        <time>2021-02-23T10:57:54Z</time>
      </trkpt>
      <trkpt lat="42.82049" lon="-0.19589">
        <ele>1866.54</ele>
        <time>2021-02-23T10:58:10Z</time>
      </trkpt>
      <trkpt lat="42.82048" lon="-0.1959">
        <ele>1866.54</ele>
        <time>2021-02-23T10:58:29Z</time>
      </trkpt>
      <trkpt lat="42.82049" lon="-0.19599">
        <ele>1867.02</ele>
        <time>2021-02-23T10:58:39Z</time>
      </trkpt>
      <trkpt lat="42.82048" lon="-0.19605">
        <ele>1867.5</ele>
        <time>2021-02-23T10:58:47Z</time>
      </trkpt>
      <trkpt lat="42.82044" lon="-0.19611">
        <ele>1868.94</ele>
        <time>2021-02-23T10:58:58Z</time>
      </trkpt>
      <trkpt lat="42.82038" lon="-0.19615">
        <ele>1869.42</ele>
        <time>2021-02-23T10:59:11Z</time>
      </trkpt>
      <trkpt lat="42.82036" lon="-0.19616">
        <ele>1869.42</ele>
        <time>2021-02-23T10:59:26Z</time>
      </trkpt>
      <trkpt lat="42.82033" lon="-0.19618">
        <ele>1869.42</ele>
        <time>2021-02-23T10:59:35Z</time>
      </trkpt>
      <trkpt lat="42.82031" lon="-0.19621">
        <ele>1869.42</ele>
        <time>2021-02-23T10:59:50Z</time>
      </trkpt>
      <trkpt lat="42.82027" lon="-0.19626">
        <ele>1869.9</ele>
        <time>2021-02-23T10:59:59Z</time>
      </trkpt>
      <trkpt lat="42.82025" lon="-0.19627">
        <ele>1869.9</ele>
        <time>2021-02-23T11:00:19Z</time>
      </trkpt>
      <trkpt lat="42.82025" lon="-0.19628">
        <ele>1869.9</ele>
        <time>2021-02-23T11:00:33Z</time>
      </trkpt>
      <trkpt lat="42.82026" lon="-0.19628">
        <ele>1870.38</ele>
        <time>2021-02-23T11:00:49Z</time>
      </trkpt>
      <trkpt lat="42.82025" lon="-0.19629">
        <ele>1870.38</ele>
        <time>2021-02-23T11:00:58Z</time>
      </trkpt>
      <trkpt lat="42.82023" lon="-0.1963">
        <ele>1868.94</ele>
        <time>2021-02-23T11:01:07Z</time>
      </trkpt>
      <trkpt lat="42.82023" lon="-0.19633">
        <ele>1866.54</ele>
        <time>2021-02-23T11:01:19Z</time>
      </trkpt>
      <trkpt lat="42.82019" lon="-0.19634">
        <ele>1864.61</ele>
        <time>2021-02-23T11:01:32Z</time>
      </trkpt>
      <trkpt lat="42.82014" lon="-0.1963">
        <ele>1863.65</ele>
        <time>2021-02-23T11:01:43Z</time>
      </trkpt>
      <trkpt lat="42.82013" lon="-0.19637">
        <ele>1862.21</ele>
        <time>2021-02-23T11:01:54Z</time>
      </trkpt>
      <trkpt lat="42.82018" lon="-0.19647">
        <ele>1862.21</ele>
        <time>2021-02-23T11:02:06Z</time>
      </trkpt>
      <trkpt lat="42.82019" lon="-0.19654">
        <ele>1862.21</ele>
        <time>2021-02-23T11:02:17Z</time>
      </trkpt>
      <trkpt lat="42.82017" lon="-0.19663">
        <ele>1862.21</ele>
        <time>2021-02-23T11:02:28Z</time>
      </trkpt>
      <trkpt lat="42.82018" lon="-0.19666">
        <ele>1863.17</ele>
        <time>2021-02-23T11:02:40Z</time>
      </trkpt>
      <trkpt lat="42.82019" lon="-0.19671">
        <ele>1863.17</ele>
        <time>2021-02-23T11:02:49Z</time>
      </trkpt>
      <trkpt lat="42.82017" lon="-0.19673">
        <ele>1864.61</ele>
        <time>2021-02-23T11:03:10Z</time>
      </trkpt>
      <trkpt lat="42.82018" lon="-0.19673">
        <ele>1866.06</ele>
        <time>2021-02-23T11:03:25Z</time>
      </trkpt>
      <trkpt lat="42.82017" lon="-0.19673">
        <ele>1866.54</ele>
        <time>2021-02-23T11:03:42Z</time>
      </trkpt>
      <trkpt lat="42.82015" lon="-0.19672">
        <ele>1864.61</ele>
        <time>2021-02-23T11:03:57Z</time>
      </trkpt>
      <trkpt lat="42.82015" lon="-0.19673">
        <ele>1863.17</ele>
        <time>2021-02-23T11:04:16Z</time>
      </trkpt>
      <trkpt lat="42.82015" lon="-0.19673">
        <ele>1864.61</ele>
        <time>2021-02-23T11:04:22Z</time>
      </trkpt>
      <trkpt lat="42.82015" lon="-0.1967">
        <ele>1862.69</ele>
        <time>2021-02-23T11:04:34Z</time>
      </trkpt>
      <trkpt lat="42.82015" lon="-0.19669">
        <ele>1862.69</ele>
        <time>2021-02-23T11:04:52Z</time>
      </trkpt>
      <trkpt lat="42.82016" lon="-0.19669">
        <ele>1861.73</ele>
        <time>2021-02-23T11:05:12Z</time>
      </trkpt>
      <trkpt lat="42.82016" lon="-0.19671">
        <ele>1863.17</ele>
        <time>2021-02-23T11:05:28Z</time>
      </trkpt>
      <trkpt lat="42.82014" lon="-0.19673">
        <ele>1863.17</ele>
        <time>2021-02-23T11:05:46Z</time>
      </trkpt>
      <trkpt lat="42.82014" lon="-0.19672">
        <ele>1862.69</ele>
        <time>2021-02-23T11:06:09Z</time>
      </trkpt>
      <trkpt lat="42.82014" lon="-0.19671">
        <ele>1863.17</ele>
        <time>2021-02-23T11:06:32Z</time>
      </trkpt>
      <trkpt lat="42.82012" lon="-0.19671">
        <ele>1863.17</ele>
        <time>2021-02-23T11:07:02Z</time>
      </trkpt>
      <trkpt lat="42.8201" lon="-0.19671">
        <ele>1862.21</ele>
        <time>2021-02-23T11:07:30Z</time>
      </trkpt>
      <trkpt lat="42.82014" lon="-0.19674">
        <ele>1861.73</ele>
        <time>2021-02-23T11:08:04Z</time>
      </trkpt>
      <trkpt lat="42.82012" lon="-0.19676">
        <ele>1862.69</ele>
        <time>2021-02-23T11:08:40Z</time>
      </trkpt>
      <trkpt lat="42.82011" lon="-0.19674">
        <ele>1862.69</ele>
        <time>2021-02-23T11:09:08Z</time>
      </trkpt>
      <trkpt lat="42.82011" lon="-0.19671">
        <ele>1863.17</ele>
        <time>2021-02-23T11:09:40Z</time>
      </trkpt>
      <trkpt lat="42.82012" lon="-0.19672">
        <ele>1861.73</ele>
        <time>2021-02-23T11:09:50Z</time>
      </trkpt>
      <trkpt lat="42.82014" lon="-0.19672">
        <ele>1860.29</ele>
        <time>2021-02-23T11:10:22Z</time>
      </trkpt>
      <trkpt lat="42.82012" lon="-0.19674">
        <ele>1861.25</ele>
        <time>2021-02-23T11:10:51Z</time>
      </trkpt>
      <trkpt lat="42.82015" lon="-0.1967">
        <ele>1861.25</ele>
        <time>2021-02-23T11:11:22Z</time>
      </trkpt>
      <trkpt lat="42.82015" lon="-0.19671">
        <ele>1861.73</ele>
        <time>2021-02-23T11:11:52Z</time>
      </trkpt>
      <trkpt lat="42.82015" lon="-0.19672">
        <ele>1860.29</ele>
        <time>2021-02-23T11:12:23Z</time>
      </trkpt>
      <trkpt lat="42.82013" lon="-0.19671">
        <ele>1862.69</ele>
        <time>2021-02-23T11:12:41Z</time>
      </trkpt>
      <trkpt lat="42.82014" lon="-0.19671">
        <ele>1861.25</ele>
        <time>2021-02-23T11:12:44Z</time>
      </trkpt>
      <trkpt lat="42.82014" lon="-0.19671">
        <ele>1864.61</ele>
        <time>2021-02-23T11:12:52Z</time>
      </trkpt>
      <trkpt lat="42.82015" lon="-0.19671">
        <ele>1864.13</ele>
        <time>2021-02-23T11:13:09Z</time>
      </trkpt>
      <trkpt lat="42.82015" lon="-0.19671">
        <ele>1865.58</ele>
        <time>2021-02-23T11:13:12Z</time>
      </trkpt>
      <trkpt lat="42.82014" lon="-0.19671">
        <ele>1867.98</ele>
        <time>2021-02-23T11:13:24Z</time>
      </trkpt>
      <trkpt lat="42.82015" lon="-0.19671">
        <ele>1865.58</ele>
        <time>2021-02-23T11:13:31Z</time>
      </trkpt>
      <trkpt lat="42.82015" lon="-0.19671">
        <ele>1862.21</ele>
        <time>2021-02-23T11:13:57Z</time>
      </trkpt>
      <trkpt lat="42.82015" lon="-0.19671">
        <ele>1858.85</ele>
        <time>2021-02-23T11:14:16Z</time>
      </trkpt>
      <trkpt lat="42.82016" lon="-0.19669">
        <ele>1857.89</ele>
        <time>2021-02-23T11:14:42Z</time>
      </trkpt>
      <trkpt lat="42.82014" lon="-0.1967">
        <ele>1859.33</ele>
        <time>2021-02-23T11:15:04Z</time>
      </trkpt>
      <trkpt lat="42.82016" lon="-0.1967">
        <ele>1859.33</ele>
        <time>2021-02-23T11:15:32Z</time>
      </trkpt>
      <trkpt lat="42.82014" lon="-0.19671">
        <ele>1860.29</ele>
        <time>2021-02-23T11:15:59Z</time>
      </trkpt>
      <trkpt lat="42.82013" lon="-0.19674">
        <ele>1860.29</ele>
        <time>2021-02-23T11:16:26Z</time>
      </trkpt>
      <trkpt lat="42.82014" lon="-0.19676">
        <ele>1860.29</ele>
        <time>2021-02-23T11:16:51Z</time>
      </trkpt>
      <trkpt lat="42.82013" lon="-0.19673">
        <ele>1861.25</ele>
        <time>2021-02-23T11:17:21Z</time>
      </trkpt>
      <trkpt lat="42.82012" lon="-0.19673">
        <ele>1861.25</ele>
        <time>2021-02-23T11:17:51Z</time>
      </trkpt>
      <trkpt lat="42.82012" lon="-0.19672">
        <ele>1859.81</ele>
        <time>2021-02-23T11:18:14Z</time>
      </trkpt>
      <trkpt lat="42.82012" lon="-0.19672">
        <ele>1861.25</ele>
        <time>2021-02-23T11:18:34Z</time>
      </trkpt>
      <trkpt lat="42.82014" lon="-0.19671">
        <ele>1860.77</ele>
        <time>2021-02-23T11:18:50Z</time>
      </trkpt>
      <trkpt lat="42.82018" lon="-0.19667">
        <ele>1861.73</ele>
        <time>2021-02-23T11:19:19Z</time>
      </trkpt>
      <trkpt lat="42.82018" lon="-0.19666">
        <ele>1860.29</ele>
        <time>2021-02-23T11:19:22Z</time>
      </trkpt>
      <trkpt lat="42.82019" lon="-0.19663">
        <ele>1860.29</ele>
        <time>2021-02-23T11:19:56Z</time>
      </trkpt>
      <trkpt lat="42.82018" lon="-0.19667">
        <ele>1860.29</ele>
        <time>2021-02-23T11:20:38Z</time>
      </trkpt>
      <trkpt lat="42.82017" lon="-0.19665">
        <ele>1859.81</ele>
        <time>2021-02-23T11:21:11Z</time>
      </trkpt>
      <trkpt lat="42.82016" lon="-0.19667">
        <ele>1856.44</ele>
        <time>2021-02-23T11:21:36Z</time>
      </trkpt>
      <trkpt lat="42.82014" lon="-0.19665">
        <ele>1857.89</ele>
        <time>2021-02-23T11:21:57Z</time>
      </trkpt>
      <trkpt lat="42.82018" lon="-0.19666">
        <ele>1858.85</ele>
        <time>2021-02-23T11:22:25Z</time>
      </trkpt>
      <trkpt lat="42.82017" lon="-0.19667">
        <ele>1858.85</ele>
        <time>2021-02-23T11:22:50Z</time>
      </trkpt>
      <trkpt lat="42.82018" lon="-0.19669">
        <ele>1859.33</ele>
        <time>2021-02-23T11:23:11Z</time>
      </trkpt>
      <trkpt lat="42.82017" lon="-0.1967">
        <ele>1859.33</ele>
        <time>2021-02-23T11:23:26Z</time>
      </trkpt>
      <trkpt lat="42.82016" lon="-0.19668">
        <ele>1861.73</ele>
        <time>2021-02-23T11:23:49Z</time>
      </trkpt>
      <trkpt lat="42.82017" lon="-0.19667">
        <ele>1861.25</ele>
        <time>2021-02-23T11:24:16Z</time>
      </trkpt>
      <trkpt lat="42.82017" lon="-0.19666">
        <ele>1859.81</ele>
        <time>2021-02-23T11:24:41Z</time>
      </trkpt>
      <trkpt lat="42.82017" lon="-0.19666">
        <ele>1859.81</ele>
        <time>2021-02-23T11:24:56Z</time>
      </trkpt>
      <trkpt lat="42.82017" lon="-0.19666">
        <ele>1860.77</ele>
        <time>2021-02-23T11:25:01Z</time>
      </trkpt>
      <trkpt lat="42.82014" lon="-0.19665">
        <ele>1860.77</ele>
        <time>2021-02-23T11:25:21Z</time>
      </trkpt>
      <trkpt lat="42.82011" lon="-0.19663">
        <ele>1862.21</ele>
        <time>2021-02-23T11:25:54Z</time>
      </trkpt>
      <trkpt lat="42.82013" lon="-0.19664">
        <ele>1862.69</ele>
        <time>2021-02-23T11:26:27Z</time>
      </trkpt>
      <trkpt lat="42.82014" lon="-0.19665">
        <ele>1860.29</ele>
        <time>2021-02-23T11:26:32Z</time>
      </trkpt>
      <trkpt lat="42.82017" lon="-0.19664">
        <ele>1861.73</ele>
        <time>2021-02-23T11:26:44Z</time>
      </trkpt>
      <trkpt lat="42.82019" lon="-0.19662">
        <ele>1863.65</ele>
        <time>2021-02-23T11:27:18Z</time>
      </trkpt>
      <trkpt lat="42.82015" lon="-0.19664">
        <ele>1864.13</ele>
        <time>2021-02-23T11:27:48Z</time>
      </trkpt>
      <trkpt lat="42.82016" lon="-0.19671">
        <ele>1864.13</ele>
        <time>2021-02-23T11:28:07Z</time>
      </trkpt>
      <trkpt lat="42.82015" lon="-0.19672">
        <ele>1862.21</ele>
        <time>2021-02-23T11:28:13Z</time>
      </trkpt>
      <trkpt lat="42.82016" lon="-0.19672">
        <ele>1862.21</ele>
        <time>2021-02-23T11:28:21Z</time>
      </trkpt>
      <trkpt lat="42.82016" lon="-0.19671">
        <ele>1862.21</ele>
        <time>2021-02-23T11:28:31Z</time>
      </trkpt>
      <trkpt lat="42.82015" lon="-0.19672">
        <ele>1862.21</ele>
        <time>2021-02-23T11:28:40Z</time>
      </trkpt>
      <trkpt lat="42.82014" lon="-0.19671">
        <ele>1861.25</ele>
        <time>2021-02-23T11:28:52Z</time>
      </trkpt>
      <trkpt lat="42.82014" lon="-0.19672">
        <ele>1861.25</ele>
        <time>2021-02-23T11:29:07Z</time>
      </trkpt>
      <trkpt lat="42.82014" lon="-0.19672">
        <ele>1860.77</ele>
        <time>2021-02-23T11:29:28Z</time>
      </trkpt>
      <trkpt lat="42.82014" lon="-0.19672">
        <ele>1860.77</ele>
        <time>2021-02-23T11:29:31Z</time>
      </trkpt>
      <trkpt lat="42.82014" lon="-0.19675">
        <ele>1861.73</ele>
        <time>2021-02-23T11:29:35Z</time>
      </trkpt>
      <trkpt lat="42.82014" lon="-0.19672">
        <ele>1861.25</ele>
        <time>2021-02-23T11:29:37Z</time>
      </trkpt>
      <trkpt lat="42.82015" lon="-0.19671">
        <ele>1860.29</ele>
        <time>2021-02-23T11:29:40Z</time>
      </trkpt>
      <trkpt lat="42.82015" lon="-0.19672">
        <ele>1861.73</ele>
        <time>2021-02-23T11:29:43Z</time>
      </trkpt>
      <trkpt lat="42.82016" lon="-0.19669">
        <ele>1858.85</ele>
        <time>2021-02-23T11:29:50Z</time>
      </trkpt>
      <trkpt lat="42.82016" lon="-0.19668">
        <ele>1863.65</ele>
        <time>2021-02-23T11:29:51Z</time>
      </trkpt>
      <trkpt lat="42.82015" lon="-0.19669">
        <ele>1860.77</ele>
        <time>2021-02-23T11:29:59Z</time>
      </trkpt>
      <trkpt lat="42.82015" lon="-0.19668">
        <ele>1859.81</ele>
        <time>2021-02-23T11:30:06Z</time>
      </trkpt>
      <trkpt lat="42.82015" lon="-0.19661">
        <ele>1859.81</ele>
        <time>2021-02-23T11:30:16Z</time>
      </trkpt>
      <trkpt lat="42.82016" lon="-0.19658">
        <ele>1861.25</ele>
        <time>2021-02-23T11:30:26Z</time>
      </trkpt>
      <trkpt lat="42.82017" lon="-0.19656">
        <ele>1861.25</ele>
        <time>2021-02-23T11:30:43Z</time>
      </trkpt>
      <trkpt lat="42.82014" lon="-0.19646">
        <ele>1861.73</ele>
        <time>2021-02-23T11:30:54Z</time>
      </trkpt>
      <trkpt lat="42.82011" lon="-0.19633">
        <ele>1861.73</ele>
        <time>2021-02-23T11:31:06Z</time>
      </trkpt>
      <trkpt lat="42.82011" lon="-0.19631">
        <ele>1860.77</ele>
        <time>2021-02-23T11:31:08Z</time>
      </trkpt>
      <trkpt lat="42.82016" lon="-0.19629">
        <ele>1860.77</ele>
        <time>2021-02-23T11:31:17Z</time>
      </trkpt>
      <trkpt lat="42.8202" lon="-0.19631">
        <ele>1863.17</ele>
        <time>2021-02-23T11:31:27Z</time>
      </trkpt>
      <trkpt lat="42.82023" lon="-0.19629">
        <ele>1864.13</ele>
        <time>2021-02-23T11:31:36Z</time>
      </trkpt>
      <trkpt lat="42.82025" lon="-0.19624">
        <ele>1864.61</ele>
        <time>2021-02-23T11:31:45Z</time>
      </trkpt>
      <trkpt lat="42.82028" lon="-0.19621">
        <ele>1866.54</ele>
        <time>2021-02-23T11:31:55Z</time>
      </trkpt>
      <trkpt lat="42.82029" lon="-0.1962">
        <ele>1866.54</ele>
        <time>2021-02-23T11:32:05Z</time>
      </trkpt>
      <trkpt lat="42.82029" lon="-0.1962">
        <ele>1866.54</ele>
        <time>2021-02-23T11:32:16Z</time>
      </trkpt>
      <trkpt lat="42.82029" lon="-0.19617">
        <ele>1865.58</ele>
        <time>2021-02-23T11:32:33Z</time>
      </trkpt>
      <trkpt lat="42.82028" lon="-0.19618">
        <ele>1865.09</ele>
        <time>2021-02-23T11:32:51Z</time>
      </trkpt>
      <trkpt lat="42.82029" lon="-0.19622">
        <ele>1864.61</ele>
        <time>2021-02-23T11:33:09Z</time>
      </trkpt>
      <trkpt lat="42.82029" lon="-0.1962">
        <ele>1864.61</ele>
        <time>2021-02-23T11:33:19Z</time>
      </trkpt>
      <trkpt lat="42.82033" lon="-0.19615">
        <ele>1864.61</ele>
        <time>2021-02-23T11:33:29Z</time>
      </trkpt>
      <trkpt lat="42.82034" lon="-0.19613">
        <ele>1863.65</ele>
        <time>2021-02-23T11:33:40Z</time>
      </trkpt>
      <trkpt lat="42.82037" lon="-0.19611">
        <ele>1863.65</ele>
        <time>2021-02-23T11:33:51Z</time>
      </trkpt>
      <trkpt lat="42.82045" lon="-0.19605">
        <ele>1863.65</ele>
        <time>2021-02-23T11:34:02Z</time>
      </trkpt>
      <trkpt lat="42.82047" lon="-0.19599">
        <ele>1863.65</ele>
        <time>2021-02-23T11:34:12Z</time>
      </trkpt>
      <trkpt lat="42.82047" lon="-0.19599">
        <ele>1863.65</ele>
        <time>2021-02-23T11:34:13Z</time>
      </trkpt>
      <trkpt lat="42.82047" lon="-0.19585">
        <ele>1862.69</ele>
        <time>2021-02-23T11:34:25Z</time>
      </trkpt>
      <trkpt lat="42.82046" lon="-0.19577">
        <ele>1862.69</ele>
        <time>2021-02-23T11:34:34Z</time>
      </trkpt>
      <trkpt lat="42.82046" lon="-0.19576">
        <ele>1862.69</ele>
        <time>2021-02-23T11:34:36Z</time>
      </trkpt>
      <trkpt lat="42.82045" lon="-0.19571">
        <ele>1859.81</ele>
        <time>2021-02-23T11:34:45Z</time>
      </trkpt>
      <trkpt lat="42.82045" lon="-0.19571">
        <ele>1859.81</ele>
        <time>2021-02-23T11:34:46Z</time>
      </trkpt>
      <trkpt lat="42.82045" lon="-0.1957">
        <ele>1862.21</ele>
        <time>2021-02-23T11:34:49Z</time>
      </trkpt>
      <trkpt lat="42.82041" lon="-0.19567">
        <ele>1862.21</ele>
        <time>2021-02-23T11:34:57Z</time>
      </trkpt>
      <trkpt lat="42.8204" lon="-0.19563">
        <ele>1860.77</ele>
        <time>2021-02-23T11:35:05Z</time>
      </trkpt>
      <trkpt lat="42.82037" lon="-0.19558">
        <ele>1861.25</ele>
        <time>2021-02-23T11:35:13Z</time>
      </trkpt>
      <trkpt lat="42.82035" lon="-0.19556">
        <ele>1862.21</ele>
        <time>2021-02-23T11:35:17Z</time>
      </trkpt>
      <trkpt lat="42.82033" lon="-0.19549">
        <ele>1863.65</ele>
        <time>2021-02-23T11:35:25Z</time>
      </trkpt>
      <trkpt lat="42.8203" lon="-0.19546">
        <ele>1862.21</ele>
        <time>2021-02-23T11:35:30Z</time>
      </trkpt>
      <trkpt lat="42.82026" lon="-0.19537">
        <ele>1859.81</ele>
        <time>2021-02-23T11:35:41Z</time>
      </trkpt>
      <trkpt lat="42.82026" lon="-0.19532">
        <ele>1857.89</ele>
        <time>2021-02-23T11:35:49Z</time>
      </trkpt>
      <trkpt lat="42.82023" lon="-0.1953">
        <ele>1857.89</ele>
        <time>2021-02-23T11:35:57Z</time>
      </trkpt>
      <trkpt lat="42.82018" lon="-0.19525">
        <ele>1858.37</ele>
        <time>2021-02-23T11:36:06Z</time>
      </trkpt>
      <trkpt lat="42.82016" lon="-0.19526">
        <ele>1859.33</ele>
        <time>2021-02-23T11:36:09Z</time>
      </trkpt>
      <trkpt lat="42.82011" lon="-0.1952">
        <ele>1860.29</ele>
        <time>2021-02-23T11:36:20Z</time>
      </trkpt>
      <trkpt lat="42.82009" lon="-0.19515">
        <ele>1859.33</ele>
        <time>2021-02-23T11:36:27Z</time>
      </trkpt>
      <trkpt lat="42.82003" lon="-0.19513">
        <ele>1858.37</ele>
        <time>2021-02-23T11:36:37Z</time>
      </trkpt>
      <trkpt lat="42.81998" lon="-0.19513">
        <ele>1858.37</ele>
        <time>2021-02-23T11:36:45Z</time>
      </trkpt>
      <trkpt lat="42.81992" lon="-0.1951">
        <ele>1856.44</ele>
        <time>2021-02-23T11:36:55Z</time>
      </trkpt>
      <trkpt lat="42.81992" lon="-0.1951">
        <ele>1856.92</ele>
        <time>2021-02-23T11:36:56Z</time>
      </trkpt>
      <trkpt lat="42.81989" lon="-0.19507">
        <ele>1856.92</ele>
        <time>2021-02-23T11:37:00Z</time>
      </trkpt>
      <trkpt lat="42.81986" lon="-0.19498">
        <ele>1859.81</ele>
        <time>2021-02-23T11:37:08Z</time>
      </trkpt>
      <trkpt lat="42.81985" lon="-0.19497">
        <ele>1859.81</ele>
        <time>2021-02-23T11:37:09Z</time>
      </trkpt>
      <trkpt lat="42.81985" lon="-0.19494">
        <ele>1858.85</ele>
        <time>2021-02-23T11:37:11Z</time>
      </trkpt>
      <trkpt lat="42.81984" lon="-0.19487">
        <ele>1857.4</ele>
        <time>2021-02-23T11:37:16Z</time>
      </trkpt>
      <trkpt lat="42.81983" lon="-0.19476">
        <ele>1856.92</ele>
        <time>2021-02-23T11:37:25Z</time>
      </trkpt>
      <trkpt lat="42.81983" lon="-0.19468">
        <ele>1860.29</ele>
        <time>2021-02-23T11:37:32Z</time>
      </trkpt>
      <trkpt lat="42.81983" lon="-0.19467">
        <ele>1860.29</ele>
        <time>2021-02-23T11:37:33Z</time>
      </trkpt>
      <trkpt lat="42.81983" lon="-0.19464">
        <ele>1856.44</ele>
        <time>2021-02-23T11:37:35Z</time>
      </trkpt>
      <trkpt lat="42.81983" lon="-0.19454">
        <ele>1855.48</ele>
        <time>2021-02-23T11:37:43Z</time>
      </trkpt>
      <trkpt lat="42.81981" lon="-0.19448">
        <ele>1854.52</ele>
        <time>2021-02-23T11:37:47Z</time>
      </trkpt>
      <trkpt lat="42.81979" lon="-0.19443">
        <ele>1854.52</ele>
        <time>2021-02-23T11:37:52Z</time>
      </trkpt>
      <trkpt lat="42.81967" lon="-0.19433">
        <ele>1853.56</ele>
        <time>2021-02-23T11:38:06Z</time>
      </trkpt>
      <trkpt lat="42.81966" lon="-0.19433">
        <ele>1853.56</ele>
        <time>2021-02-23T11:38:07Z</time>
      </trkpt>
      <trkpt lat="42.81959" lon="-0.19424">
        <ele>1851.16</ele>
        <time>2021-02-23T11:38:19Z</time>
      </trkpt>
      <trkpt lat="42.81953" lon="-0.19419">
        <ele>1849.71</ele>
        <time>2021-02-23T11:38:29Z</time>
      </trkpt>
      <trkpt lat="42.81947" lon="-0.19411">
        <ele>1849.23</ele>
        <time>2021-02-23T11:38:39Z</time>
      </trkpt>
      <trkpt lat="42.81945" lon="-0.19406">
        <ele>1849.23</ele>
        <time>2021-02-23T11:38:46Z</time>
      </trkpt>
      <trkpt lat="42.81938" lon="-0.19393">
        <ele>1845.87</ele>
        <time>2021-02-23T11:38:58Z</time>
      </trkpt>
      <trkpt lat="42.81932" lon="-0.19381">
        <ele>1844.43</ele>
        <time>2021-02-23T11:39:09Z</time>
      </trkpt>
      <trkpt lat="42.81931" lon="-0.1938">
        <ele>1843.95</ele>
        <time>2021-02-23T11:39:10Z</time>
      </trkpt>
      <trkpt lat="42.81923" lon="-0.19378">
        <ele>1845.87</ele>
        <time>2021-02-23T11:39:22Z</time>
      </trkpt>
      <trkpt lat="42.81921" lon="-0.19377">
        <ele>1847.31</ele>
        <time>2021-02-23T11:39:25Z</time>
      </trkpt>
      <trkpt lat="42.81918" lon="-0.19374">
        <ele>1845.87</ele>
        <time>2021-02-23T11:39:31Z</time>
      </trkpt>
      <trkpt lat="42.81917" lon="-0.19373">
        <ele>1844.43</ele>
        <time>2021-02-23T11:39:33Z</time>
      </trkpt>
      <trkpt lat="42.81916" lon="-0.1937">
        <ele>1843.95</ele>
        <time>2021-02-23T11:39:36Z</time>
      </trkpt>
      <trkpt lat="42.81915" lon="-0.19368">
        <ele>1842.98</ele>
        <time>2021-02-23T11:39:38Z</time>
      </trkpt>
      <trkpt lat="42.81914" lon="-0.19365">
        <ele>1842.98</ele>
        <time>2021-02-23T11:39:40Z</time>
      </trkpt>
      <trkpt lat="42.81912" lon="-0.19357">
        <ele>1840.58</ele>
        <time>2021-02-23T11:39:46Z</time>
      </trkpt>
      <trkpt lat="42.81914" lon="-0.19345">
        <ele>1839.62</ele>
        <time>2021-02-23T11:39:56Z</time>
      </trkpt>
      <trkpt lat="42.81914" lon="-0.19332">
        <ele>1840.1</ele>
        <time>2021-02-23T11:40:07Z</time>
      </trkpt>
      <trkpt lat="42.81913" lon="-0.19327">
        <ele>1839.62</ele>
        <time>2021-02-23T11:40:12Z</time>
      </trkpt>
      <trkpt lat="42.81906" lon="-0.19318">
        <ele>1839.62</ele>
        <time>2021-02-23T11:40:23Z</time>
      </trkpt>
      <trkpt lat="42.81906" lon="-0.19308">
        <ele>1837.22</ele>
        <time>2021-02-23T11:40:34Z</time>
      </trkpt>
      <trkpt lat="42.81908" lon="-0.19298">
        <ele>1835.77</ele>
        <time>2021-02-23T11:40:44Z</time>
      </trkpt>
      <trkpt lat="42.81912" lon="-0.19286">
        <ele>1835.29</ele>
        <time>2021-02-23T11:40:55Z</time>
      </trkpt>
      <trkpt lat="42.81918" lon="-0.19274">
        <ele>1833.85</ele>
        <time>2021-02-23T11:41:07Z</time>
      </trkpt>
      <trkpt lat="42.81919" lon="-0.19262">
        <ele>1831.93</ele>
        <time>2021-02-23T11:41:17Z</time>
      </trkpt>
      <trkpt lat="42.81921" lon="-0.19249">
        <ele>1829.53</ele>
        <time>2021-02-23T11:41:29Z</time>
      </trkpt>
      <trkpt lat="42.81922" lon="-0.19241">
        <ele>1830.01</ele>
        <time>2021-02-23T11:41:38Z</time>
      </trkpt>
      <trkpt lat="42.81921" lon="-0.1923">
        <ele>1830.01</ele>
        <time>2021-02-23T11:41:48Z</time>
      </trkpt>
      <trkpt lat="42.8192" lon="-0.19225">
        <ele>1830.01</ele>
        <time>2021-02-23T11:41:52Z</time>
      </trkpt>
      <trkpt lat="42.81921" lon="-0.19214">
        <ele>1830.97</ele>
        <time>2021-02-23T11:41:59Z</time>
      </trkpt>
      <trkpt lat="42.81917" lon="-0.19202">
        <ele>1832.41</ele>
        <time>2021-02-23T11:42:10Z</time>
      </trkpt>
      <trkpt lat="42.81909" lon="-0.1919">
        <ele>1832.41</ele>
        <time>2021-02-23T11:42:22Z</time>
      </trkpt>
      <trkpt lat="42.81908" lon="-0.19189">
        <ele>1832.41</ele>
        <time>2021-02-23T11:42:23Z</time>
      </trkpt>
      <trkpt lat="42.81908" lon="-0.19182">
        <ele>1830.97</ele>
        <time>2021-02-23T11:42:28Z</time>
      </trkpt>
      <trkpt lat="42.81913" lon="-0.19173">
        <ele>1829.05</ele>
        <time>2021-02-23T11:42:37Z</time>
      </trkpt>
      <trkpt lat="42.81921" lon="-0.19162">
        <ele>1827.6</ele>
        <time>2021-02-23T11:42:50Z</time>
      </trkpt>
      <trkpt lat="42.81924" lon="-0.1916">
        <ele>1826.16</ele>
        <time>2021-02-23T11:42:54Z</time>
      </trkpt>
      <trkpt lat="42.81926" lon="-0.19148">
        <ele>1823.76</ele>
        <time>2021-02-23T11:43:07Z</time>
      </trkpt>
      <trkpt lat="42.81928" lon="-0.19138">
        <ele>1823.76</ele>
        <time>2021-02-23T11:43:17Z</time>
      </trkpt>
      <trkpt lat="42.8193" lon="-0.19127">
        <ele>1823.28</ele>
        <time>2021-02-23T11:43:28Z</time>
      </trkpt>
      <trkpt lat="42.81931" lon="-0.19113">
        <ele>1821.84</ele>
        <time>2021-02-23T11:43:40Z</time>
      </trkpt>
      <trkpt lat="42.81931" lon="-0.19111">
        <ele>1821.84</ele>
        <time>2021-02-23T11:43:41Z</time>
      </trkpt>
      <trkpt lat="42.81933" lon="-0.19106">
        <ele>1821.35</ele>
        <time>2021-02-23T11:43:45Z</time>
      </trkpt>
      <trkpt lat="42.81933" lon="-0.19098">
        <ele>1820.39</ele>
        <time>2021-02-23T11:43:56Z</time>
      </trkpt>
      <trkpt lat="42.8193" lon="-0.19087">
        <ele>1819.91</ele>
        <time>2021-02-23T11:44:06Z</time>
      </trkpt>
      <trkpt lat="42.81929" lon="-0.19081">
        <ele>1819.43</ele>
        <time>2021-02-23T11:44:16Z</time>
      </trkpt>
      <trkpt lat="42.81929" lon="-0.19078">
        <ele>1819.43</ele>
        <time>2021-02-23T11:44:32Z</time>
      </trkpt>
      <trkpt lat="42.81928" lon="-0.19066">
        <ele>1817.99</ele>
        <time>2021-02-23T11:44:42Z</time>
      </trkpt>
      <trkpt lat="42.81929" lon="-0.19062">
        <ele>1817.99</ele>
        <time>2021-02-23T11:44:45Z</time>
      </trkpt>
      <trkpt lat="42.81929" lon="-0.19059">
        <ele>1819.43</ele>
        <time>2021-02-23T11:44:48Z</time>
      </trkpt>
      <trkpt lat="42.8193" lon="-0.19048">
        <ele>1822.32</ele>
        <time>2021-02-23T11:44:56Z</time>
      </trkpt>
      <trkpt lat="42.8193" lon="-0.19046">
        <ele>1819.91</ele>
        <time>2021-02-23T11:44:58Z</time>
      </trkpt>
      <trkpt lat="42.81933" lon="-0.19035">
        <ele>1818.47</ele>
        <time>2021-02-23T11:45:08Z</time>
      </trkpt>
      <trkpt lat="42.81935" lon="-0.19022">
        <ele>1817.99</ele>
        <time>2021-02-23T11:45:19Z</time>
      </trkpt>
      <trkpt lat="42.81937" lon="-0.19012">
        <ele>1817.51</ele>
        <time>2021-02-23T11:45:29Z</time>
      </trkpt>
      <trkpt lat="42.81943" lon="-0.19006">
        <ele>1816.55</ele>
        <time>2021-02-23T11:45:37Z</time>
      </trkpt>
      <trkpt lat="42.81948" lon="-0.19">
        <ele>1817.51</ele>
        <time>2021-02-23T11:45:44Z</time>
      </trkpt>
      <trkpt lat="42.81954" lon="-0.18991">
        <ele>1815.59</ele>
        <time>2021-02-23T11:45:54Z</time>
      </trkpt>
      <trkpt lat="42.81958" lon="-0.18984">
        <ele>1815.11</ele>
        <time>2021-02-23T11:46:02Z</time>
      </trkpt>
      <trkpt lat="42.81959" lon="-0.1898">
        <ele>1815.11</ele>
        <time>2021-02-23T11:46:05Z</time>
      </trkpt>
      <trkpt lat="42.8196" lon="-0.18978">
        <ele>1814.15</ele>
        <time>2021-02-23T11:46:07Z</time>
      </trkpt>
      <trkpt lat="42.81962" lon="-0.18973">
        <ele>1812.22</ele>
        <time>2021-02-23T11:46:11Z</time>
      </trkpt>
      <trkpt lat="42.81966" lon="-0.1896">
        <ele>1813.66</ele>
        <time>2021-02-23T11:46:22Z</time>
      </trkpt>
      <trkpt lat="42.8197" lon="-0.1895">
        <ele>1813.66</ele>
        <time>2021-02-23T11:46:30Z</time>
      </trkpt>
      <trkpt lat="42.81974" lon="-0.18936">
        <ele>1812.7</ele>
        <time>2021-02-23T11:46:42Z</time>
      </trkpt>
      <trkpt lat="42.81975" lon="-0.18935">
        <ele>1812.7</ele>
        <time>2021-02-23T11:46:43Z</time>
      </trkpt>
      <trkpt lat="42.81977" lon="-0.18928">
        <ele>1813.66</ele>
        <time>2021-02-23T11:46:49Z</time>
      </trkpt>
      <trkpt lat="42.81979" lon="-0.18921">
        <ele>1812.22</ele>
        <time>2021-02-23T11:46:55Z</time>
      </trkpt>
      <trkpt lat="42.8198" lon="-0.18919">
        <ele>1812.22</ele>
        <time>2021-02-23T11:46:57Z</time>
      </trkpt>
      <trkpt lat="42.81982" lon="-0.18917">
        <ele>1812.22</ele>
        <time>2021-02-23T11:46:59Z</time>
      </trkpt>
      <trkpt lat="42.81988" lon="-0.18901">
        <ele>1812.22</ele>
        <time>2021-02-23T11:47:12Z</time>
      </trkpt>
      <trkpt lat="42.81989" lon="-0.18899">
        <ele>1813.18</ele>
        <time>2021-02-23T11:47:14Z</time>
      </trkpt>
      <trkpt lat="42.81991" lon="-0.18896">
        <ele>1813.18</ele>
        <time>2021-02-23T11:47:17Z</time>
      </trkpt>
      <trkpt lat="42.81999" lon="-0.18882">
        <ele>1811.26</ele>
        <time>2021-02-23T11:47:29Z</time>
      </trkpt>
      <trkpt lat="42.82005" lon="-0.1887">
        <ele>1812.22</ele>
        <time>2021-02-23T11:47:40Z</time>
      </trkpt>
      <trkpt lat="42.8201" lon="-0.18862">
        <ele>1812.22</ele>
        <time>2021-02-23T11:47:49Z</time>
      </trkpt>
      <trkpt lat="42.82017" lon="-0.18853">
        <ele>1812.7</ele>
        <time>2021-02-23T11:47:59Z</time>
      </trkpt>
      <trkpt lat="42.82026" lon="-0.18843">
        <ele>1814.15</ele>
        <time>2021-02-23T11:48:11Z</time>
      </trkpt>
      <trkpt lat="42.82034" lon="-0.18837">
        <ele>1813.18</ele>
        <time>2021-02-23T11:48:21Z</time>
      </trkpt>
      <trkpt lat="42.82039" lon="-0.18832">
        <ele>1812.7</ele>
        <time>2021-02-23T11:48:28Z</time>
      </trkpt>
      <trkpt lat="42.8204" lon="-0.1883">
        <ele>1812.7</ele>
        <time>2021-02-23T11:48:30Z</time>
      </trkpt>
      <trkpt lat="42.82041" lon="-0.18828">
        <ele>1812.7</ele>
        <time>2021-02-23T11:48:32Z</time>
      </trkpt>
      <trkpt lat="42.82043" lon="-0.18821">
        <ele>1812.22</ele>
        <time>2021-02-23T11:48:38Z</time>
      </trkpt>
      <trkpt lat="42.82046" lon="-0.18806">
        <ele>1811.74</ele>
        <time>2021-02-23T11:48:51Z</time>
      </trkpt>
      <trkpt lat="42.82049" lon="-0.18798">
        <ele>1812.22</ele>
        <time>2021-02-23T11:49:00Z</time>
      </trkpt>
      <trkpt lat="42.82055" lon="-0.18791">
        <ele>1812.7</ele>
        <time>2021-02-23T11:49:10Z</time>
      </trkpt>
      <trkpt lat="42.82057" lon="-0.18788">
        <ele>1812.7</ele>
        <time>2021-02-23T11:49:14Z</time>
      </trkpt>
      <trkpt lat="42.82061" lon="-0.18784">
        <ele>1810.78</ele>
        <time>2021-02-23T11:49:22Z</time>
      </trkpt>
      <trkpt lat="42.82063" lon="-0.18781">
        <ele>1812.22</ele>
        <time>2021-02-23T11:49:27Z</time>
      </trkpt>
      <trkpt lat="42.82065" lon="-0.18778">
        <ele>1812.7</ele>
        <time>2021-02-23T11:49:36Z</time>
      </trkpt>
      <trkpt lat="42.82064" lon="-0.1878">
        <ele>1811.74</ele>
        <time>2021-02-23T11:49:48Z</time>
      </trkpt>
      <trkpt lat="42.82064" lon="-0.1878">
        <ele>1813.18</ele>
        <time>2021-02-23T11:49:53Z</time>
      </trkpt>
      <trkpt lat="42.82064" lon="-0.1878">
        <ele>1811.74</ele>
        <time>2021-02-23T11:49:58Z</time>
      </trkpt>
      <trkpt lat="42.82067" lon="-0.1878">
        <ele>1813.18</ele>
        <time>2021-02-23T11:50:21Z</time>
      </trkpt>
      <trkpt lat="42.82068" lon="-0.18782">
        <ele>1813.66</ele>
        <time>2021-02-23T11:50:41Z</time>
      </trkpt>
      <trkpt lat="42.82069" lon="-0.18781">
        <ele>1814.15</ele>
        <time>2021-02-23T11:51:05Z</time>
      </trkpt>
      <trkpt lat="42.82072" lon="-0.18784">
        <ele>1813.18</ele>
        <time>2021-02-23T11:51:24Z</time>
      </trkpt>
      <trkpt lat="42.8207" lon="-0.18782">
        <ele>1813.18</ele>
        <time>2021-02-23T11:51:52Z</time>
      </trkpt>
      <trkpt lat="42.8207" lon="-0.18782">
        <ele>1814.63</ele>
        <time>2021-02-23T11:51:57Z</time>
      </trkpt>
      <trkpt lat="42.82068" lon="-0.18783">
        <ele>1813.66</ele>
        <time>2021-02-23T11:52:12Z</time>
      </trkpt>
      <trkpt lat="42.82067" lon="-0.18783">
        <ele>1813.66</ele>
        <time>2021-02-23T11:52:37Z</time>
      </trkpt>
      <trkpt lat="42.82068" lon="-0.18781">
        <ele>1813.66</ele>
        <time>2021-02-23T11:53:04Z</time>
      </trkpt>
      <trkpt lat="42.82067" lon="-0.1878">
        <ele>1812.7</ele>
        <time>2021-02-23T11:53:30Z</time>
      </trkpt>
      <trkpt lat="42.82066" lon="-0.18781">
        <ele>1814.63</ele>
        <time>2021-02-23T11:53:57Z</time>
      </trkpt>
      <trkpt lat="42.82064" lon="-0.1878">
        <ele>1812.22</ele>
        <time>2021-02-23T11:54:25Z</time>
      </trkpt>
      <trkpt lat="42.82064" lon="-0.1878">
        <ele>1810.78</ele>
        <time>2021-02-23T11:54:53Z</time>
      </trkpt>
      <trkpt lat="42.82066" lon="-0.18783">
        <ele>1811.74</ele>
        <time>2021-02-23T11:55:22Z</time>
      </trkpt>
      <trkpt lat="42.82067" lon="-0.18783">
        <ele>1810.3</ele>
        <time>2021-02-23T11:55:32Z</time>
      </trkpt>
      <trkpt lat="42.82067" lon="-0.18782">
        <ele>1809.82</ele>
        <time>2021-02-23T11:55:52Z</time>
      </trkpt>
      <trkpt lat="42.82066" lon="-0.1878">
        <ele>1812.22</ele>
        <time>2021-02-23T11:56:24Z</time>
      </trkpt>
      <trkpt lat="42.82065" lon="-0.18779">
        <ele>1812.22</ele>
        <time>2021-02-23T11:56:37Z</time>
      </trkpt>
      <trkpt lat="42.82066" lon="-0.18778">
        <ele>1810.78</ele>
        <time>2021-02-23T11:56:46Z</time>
      </trkpt>
      <trkpt lat="42.82065" lon="-0.18778">
        <ele>1812.22</ele>
        <time>2021-02-23T11:56:51Z</time>
      </trkpt>
      <trkpt lat="42.82066" lon="-0.18778">
        <ele>1810.78</ele>
        <time>2021-02-23T11:56:55Z</time>
      </trkpt>
      <trkpt lat="42.82066" lon="-0.18777">
        <ele>1812.22</ele>
        <time>2021-02-23T11:57:00Z</time>
      </trkpt>
      <trkpt lat="42.82068" lon="-0.18774">
        <ele>1812.22</ele>
        <time>2021-02-23T11:57:11Z</time>
      </trkpt>
      <trkpt lat="42.82074" lon="-0.18769">
        <ele>1810.78</ele>
        <time>2021-02-23T11:57:22Z</time>
      </trkpt>
      <trkpt lat="42.82076" lon="-0.18769">
        <ele>1810.78</ele>
        <time>2021-02-23T11:57:24Z</time>
      </trkpt>
      <trkpt lat="42.82086" lon="-0.18763">
        <ele>1810.78</ele>
        <time>2021-02-23T11:57:34Z</time>
      </trkpt>
      <trkpt lat="42.82087" lon="-0.18763">
        <ele>1810.78</ele>
        <time>2021-02-23T11:57:35Z</time>
      </trkpt>
      <trkpt lat="42.82092" lon="-0.1876">
        <ele>1810.78</ele>
        <time>2021-02-23T11:57:45Z</time>
      </trkpt>
      <trkpt lat="42.82095" lon="-0.18758">
        <ele>1810.78</ele>
        <time>2021-02-23T11:57:49Z</time>
      </trkpt>
      <trkpt lat="42.82099" lon="-0.18749">
        <ele>1810.78</ele>
        <time>2021-02-23T11:57:59Z</time>
      </trkpt>
      <trkpt lat="42.82103" lon="-0.18742">
        <ele>1812.22</ele>
        <time>2021-02-23T11:58:09Z</time>
      </trkpt>
      <trkpt lat="42.82105" lon="-0.18733">
        <ele>1812.22</ele>
        <time>2021-02-23T11:58:20Z</time>
      </trkpt>
      <trkpt lat="42.82107" lon="-0.18727">
        <ele>1810.78</ele>
        <time>2021-02-23T11:58:27Z</time>
      </trkpt>
      <trkpt lat="42.82108" lon="-0.18714">
        <ele>1813.18</ele>
        <time>2021-02-23T11:58:38Z</time>
      </trkpt>
      <trkpt lat="42.82109" lon="-0.18709">
        <ele>1813.18</ele>
        <time>2021-02-23T11:58:44Z</time>
      </trkpt>
      <trkpt lat="42.82109" lon="-0.18705">
        <ele>1812.22</ele>
        <time>2021-02-23T11:58:47Z</time>
      </trkpt>
      <trkpt lat="42.82112" lon="-0.18702">
        <ele>1813.66</ele>
        <time>2021-02-23T11:58:51Z</time>
      </trkpt>
      <trkpt lat="42.82113" lon="-0.187">
        <ele>1812.22</ele>
        <time>2021-02-23T11:58:54Z</time>
      </trkpt>
      <trkpt lat="42.82115" lon="-0.18695">
        <ele>1814.15</ele>
        <time>2021-02-23T11:58:58Z</time>
      </trkpt>
      <trkpt lat="42.82116" lon="-0.18694">
        <ele>1812.7</ele>
        <time>2021-02-23T11:59:01Z</time>
      </trkpt>
      <trkpt lat="42.82122" lon="-0.18683">
        <ele>1812.7</ele>
        <time>2021-02-23T11:59:12Z</time>
      </trkpt>
      <trkpt lat="42.82128" lon="-0.18677">
        <ele>1812.22</ele>
        <time>2021-02-23T11:59:22Z</time>
      </trkpt>
      <trkpt lat="42.8213" lon="-0.18669">
        <ele>1811.74</ele>
        <time>2021-02-23T11:59:31Z</time>
      </trkpt>
      <trkpt lat="42.82133" lon="-0.18663">
        <ele>1812.7</ele>
        <time>2021-02-23T11:59:39Z</time>
      </trkpt>
      <trkpt lat="42.82135" lon="-0.18657">
        <ele>1811.26</ele>
        <time>2021-02-23T11:59:48Z</time>
      </trkpt>
      <trkpt lat="42.82136" lon="-0.18644">
        <ele>1808.38</ele>
        <time>2021-02-23T12:00:01Z</time>
      </trkpt>
      <trkpt lat="42.82138" lon="-0.18633">
        <ele>1805.97</ele>
        <time>2021-02-23T12:00:11Z</time>
      </trkpt>
      <trkpt lat="42.82139" lon="-0.18632">
        <ele>1805.49</ele>
        <time>2021-02-23T12:00:12Z</time>
      </trkpt>
      <trkpt lat="42.82144" lon="-0.18623">
        <ele>1803.57</ele>
        <time>2021-02-23T12:00:21Z</time>
      </trkpt>
      <trkpt lat="42.82149" lon="-0.18613">
        <ele>1800.21</ele>
        <time>2021-02-23T12:00:32Z</time>
      </trkpt>
      <trkpt lat="42.82151" lon="-0.18609">
        <ele>1800.69</ele>
        <time>2021-02-23T12:00:36Z</time>
      </trkpt>
      <trkpt lat="42.82155" lon="-0.18604">
        <ele>1799.24</ele>
        <time>2021-02-23T12:00:42Z</time>
      </trkpt>
      <trkpt lat="42.82161" lon="-0.18602">
        <ele>1798.76</ele>
        <time>2021-02-23T12:00:48Z</time>
      </trkpt>
      <trkpt lat="42.8217" lon="-0.18594">
        <ele>1800.21</ele>
        <time>2021-02-23T12:00:58Z</time>
      </trkpt>
      <trkpt lat="42.82173" lon="-0.18592">
        <ele>1798.28</ele>
        <time>2021-02-23T12:01:01Z</time>
      </trkpt>
      <trkpt lat="42.82179" lon="-0.18586">
        <ele>1797.8</ele>
        <time>2021-02-23T12:01:10Z</time>
      </trkpt>
      <trkpt lat="42.82186" lon="-0.1858">
        <ele>1797.8</ele>
        <time>2021-02-23T12:01:19Z</time>
      </trkpt>
      <trkpt lat="42.82187" lon="-0.18578">
        <ele>1796.84</ele>
        <time>2021-02-23T12:01:21Z</time>
      </trkpt>
      <trkpt lat="42.82193" lon="-0.1857">
        <ele>1796.84</ele>
        <time>2021-02-23T12:01:32Z</time>
      </trkpt>
      <trkpt lat="42.82198" lon="-0.18567">
        <ele>1796.84</ele>
        <time>2021-02-23T12:01:41Z</time>
      </trkpt>
      <trkpt lat="42.82199" lon="-0.18566">
        <ele>1798.28</ele>
        <time>2021-02-23T12:01:43Z</time>
      </trkpt>
      <trkpt lat="42.82206" lon="-0.18564">
        <ele>1798.76</ele>
        <time>2021-02-23T12:01:52Z</time>
      </trkpt>
      <trkpt lat="42.82208" lon="-0.18562">
        <ele>1798.76</ele>
        <time>2021-02-23T12:01:55Z</time>
      </trkpt>
      <trkpt lat="42.8221" lon="-0.18561">
        <ele>1797.32</ele>
        <time>2021-02-23T12:01:58Z</time>
      </trkpt>
      <trkpt lat="42.82215" lon="-0.18557">
        <ele>1798.28</ele>
        <time>2021-02-23T12:02:05Z</time>
      </trkpt>
      <trkpt lat="42.82217" lon="-0.18555">
        <ele>1798.76</ele>
        <time>2021-02-23T12:02:08Z</time>
      </trkpt>
      <trkpt lat="42.82227" lon="-0.18554">
        <ele>1798.76</ele>
        <time>2021-02-23T12:02:19Z</time>
      </trkpt>
      <trkpt lat="42.82228" lon="-0.18555">
        <ele>1798.76</ele>
        <time>2021-02-23T12:02:20Z</time>
      </trkpt>
      <trkpt lat="42.82235" lon="-0.18555">
        <ele>1798.28</ele>
        <time>2021-02-23T12:02:30Z</time>
      </trkpt>
      <trkpt lat="42.82241" lon="-0.18554">
        <ele>1794.92</ele>
        <time>2021-02-23T12:02:38Z</time>
      </trkpt>
      <trkpt lat="42.82247" lon="-0.18551">
        <ele>1794.92</ele>
        <time>2021-02-23T12:02:47Z</time>
      </trkpt>
      <trkpt lat="42.82252" lon="-0.18546">
        <ele>1794.92</ele>
        <time>2021-02-23T12:02:52Z</time>
      </trkpt>
      <trkpt lat="42.82259" lon="-0.18537">
        <ele>1792.52</ele>
        <time>2021-02-23T12:03:02Z</time>
      </trkpt>
      <trkpt lat="42.82266" lon="-0.18534">
        <ele>1790.11</ele>
        <time>2021-02-23T12:03:12Z</time>
      </trkpt>
      <trkpt lat="42.82271" lon="-0.18531">
        <ele>1789.15</ele>
        <time>2021-02-23T12:03:22Z</time>
      </trkpt>
      <trkpt lat="42.82277" lon="-0.18531">
        <ele>1787.23</ele>
        <time>2021-02-23T12:03:33Z</time>
      </trkpt>
      <trkpt lat="42.82282" lon="-0.1853">
        <ele>1785.31</ele>
        <time>2021-02-23T12:03:42Z</time>
      </trkpt>
      <trkpt lat="42.82285" lon="-0.1853">
        <ele>1783.38</ele>
        <time>2021-02-23T12:03:47Z</time>
      </trkpt>
      <trkpt lat="42.82292" lon="-0.18528">
        <ele>1781.46</ele>
        <time>2021-02-23T12:03:56Z</time>
      </trkpt>
      <trkpt lat="42.82303" lon="-0.18522">
        <ele>1780.5</ele>
        <time>2021-02-23T12:04:07Z</time>
      </trkpt>
      <trkpt lat="42.82309" lon="-0.1852">
        <ele>1777.61</ele>
        <time>2021-02-23T12:04:16Z</time>
      </trkpt>
      <trkpt lat="42.82317" lon="-0.18516">
        <ele>1777.61</ele>
        <time>2021-02-23T12:04:25Z</time>
      </trkpt>
      <trkpt lat="42.82325" lon="-0.1851">
        <ele>1776.65</ele>
        <time>2021-02-23T12:04:36Z</time>
      </trkpt>
      <trkpt lat="42.82334" lon="-0.18503">
        <ele>1775.21</ele>
        <time>2021-02-23T12:04:48Z</time>
      </trkpt>
      <trkpt lat="42.82338" lon="-0.18498">
        <ele>1773.77</ele>
        <time>2021-02-23T12:04:56Z</time>
      </trkpt>
      <trkpt lat="42.82345" lon="-0.18494">
        <ele>1773.29</ele>
        <time>2021-02-23T12:05:06Z</time>
      </trkpt>
      <trkpt lat="42.82348" lon="-0.18492">
        <ele>1774.73</ele>
        <time>2021-02-23T12:05:15Z</time>
      </trkpt>
      <trkpt lat="42.82351" lon="-0.18489">
        <ele>1775.69</ele>
        <time>2021-02-23T12:05:19Z</time>
      </trkpt>
      <trkpt lat="42.82355" lon="-0.18482">
        <ele>1778.1</ele>
        <time>2021-02-23T12:05:27Z</time>
      </trkpt>
      <trkpt lat="42.82357" lon="-0.18481">
        <ele>1776.65</ele>
        <time>2021-02-23T12:05:29Z</time>
      </trkpt>
      <trkpt lat="42.82358" lon="-0.1848">
        <ele>1773.77</ele>
        <time>2021-02-23T12:05:30Z</time>
      </trkpt>
      <trkpt lat="42.82364" lon="-0.1848">
        <ele>1772.81</ele>
        <time>2021-02-23T12:05:41Z</time>
      </trkpt>
      <trkpt lat="42.82365" lon="-0.1848">
        <ele>1772.33</ele>
        <time>2021-02-23T12:05:43Z</time>
      </trkpt>
      <trkpt lat="42.82373" lon="-0.18473">
        <ele>1771.37</ele>
        <time>2021-02-23T12:05:54Z</time>
      </trkpt>
      <trkpt lat="42.82377" lon="-0.18466">
        <ele>1770.89</ele>
        <time>2021-02-23T12:06:02Z</time>
      </trkpt>
      <trkpt lat="42.82383" lon="-0.1846">
        <ele>1770.41</ele>
        <time>2021-02-23T12:06:11Z</time>
      </trkpt>
      <trkpt lat="42.82387" lon="-0.18452">
        <ele>1770.41</ele>
        <time>2021-02-23T12:06:18Z</time>
      </trkpt>
      <trkpt lat="42.82392" lon="-0.1844">
        <ele>1770.41</ele>
        <time>2021-02-23T12:06:29Z</time>
      </trkpt>
      <trkpt lat="42.82394" lon="-0.18432">
        <ele>1770.41</ele>
        <time>2021-02-23T12:06:36Z</time>
      </trkpt>
      <trkpt lat="42.82397" lon="-0.18425">
        <ele>1772.33</ele>
        <time>2021-02-23T12:06:45Z</time>
      </trkpt>
      <trkpt lat="42.824" lon="-0.18418">
        <ele>1774.25</ele>
        <time>2021-02-23T12:06:55Z</time>
      </trkpt>
      <trkpt lat="42.82404" lon="-0.18409">
        <ele>1776.17</ele>
        <time>2021-02-23T12:07:06Z</time>
      </trkpt>
      <trkpt lat="42.82406" lon="-0.18403">
        <ele>1777.61</ele>
        <time>2021-02-23T12:07:14Z</time>
      </trkpt>
      <trkpt lat="42.82415" lon="-0.18396">
        <ele>1776.65</ele>
        <time>2021-02-23T12:07:25Z</time>
      </trkpt>
      <trkpt lat="42.82416" lon="-0.18395">
        <ele>1776.65</ele>
        <time>2021-02-23T12:07:26Z</time>
      </trkpt>
      <trkpt lat="42.82421" lon="-0.1839">
        <ele>1776.17</ele>
        <time>2021-02-23T12:07:35Z</time>
      </trkpt>
      <trkpt lat="42.82426" lon="-0.18387">
        <ele>1775.69</ele>
        <time>2021-02-23T12:07:43Z</time>
      </trkpt>
      <trkpt lat="42.82433" lon="-0.18378">
        <ele>1774.25</ele>
        <time>2021-02-23T12:07:54Z</time>
      </trkpt>
      <trkpt lat="42.8244" lon="-0.18368">
        <ele>1773.77</ele>
        <time>2021-02-23T12:08:05Z</time>
      </trkpt>
      <trkpt lat="42.82448" lon="-0.18365">
        <ele>1773.29</ele>
        <time>2021-02-23T12:08:15Z</time>
      </trkpt>
      <trkpt lat="42.82454" lon="-0.1836">
        <ele>1775.21</ele>
        <time>2021-02-23T12:08:24Z</time>
      </trkpt>
      <trkpt lat="42.82459" lon="-0.18356">
        <ele>1775.69</ele>
        <time>2021-02-23T12:08:33Z</time>
      </trkpt>
      <trkpt lat="42.82461" lon="-0.18354">
        <ele>1775.69</ele>
        <time>2021-02-23T12:08:41Z</time>
      </trkpt>
      <trkpt lat="42.82465" lon="-0.18354">
        <ele>1777.61</ele>
        <time>2021-02-23T12:08:50Z</time>
      </trkpt>
      <trkpt lat="42.82473" lon="-0.18349">
        <ele>1778.1</ele>
        <time>2021-02-23T12:09:01Z</time>
      </trkpt>
      <trkpt lat="42.82475" lon="-0.18347">
        <ele>1778.1</ele>
        <time>2021-02-23T12:09:04Z</time>
      </trkpt>
      <trkpt lat="42.82483" lon="-0.18345">
        <ele>1776.65</ele>
        <time>2021-02-23T12:09:12Z</time>
      </trkpt>
      <trkpt lat="42.82487" lon="-0.18345">
        <ele>1776.65</ele>
        <time>2021-02-23T12:09:20Z</time>
      </trkpt>
      <trkpt lat="42.82491" lon="-0.18346">
        <ele>1776.17</ele>
        <time>2021-02-23T12:09:32Z</time>
      </trkpt>
      <trkpt lat="42.82497" lon="-0.18345">
        <ele>1777.13</ele>
        <time>2021-02-23T12:09:41Z</time>
      </trkpt>
      <trkpt lat="42.82503" lon="-0.18341">
        <ele>1778.1</ele>
        <time>2021-02-23T12:09:50Z</time>
      </trkpt>
      <trkpt lat="42.82509" lon="-0.18337">
        <ele>1779.54</ele>
        <time>2021-02-23T12:10:00Z</time>
      </trkpt>
      <trkpt lat="42.82513" lon="-0.18333">
        <ele>1778.1</ele>
        <time>2021-02-23T12:10:08Z</time>
      </trkpt>
      <trkpt lat="42.82518" lon="-0.18326">
        <ele>1780.5</ele>
        <time>2021-02-23T12:10:18Z</time>
      </trkpt>
      <trkpt lat="42.82521" lon="-0.1832">
        <ele>1780.5</ele>
        <time>2021-02-23T12:10:26Z</time>
      </trkpt>
      <trkpt lat="42.82524" lon="-0.18316">
        <ele>1782.9</ele>
        <time>2021-02-23T12:10:34Z</time>
      </trkpt>
      <trkpt lat="42.82528" lon="-0.18311">
        <ele>1783.38</ele>
        <time>2021-02-23T12:10:43Z</time>
      </trkpt>
      <trkpt lat="42.82528" lon="-0.18304">
        <ele>1785.31</ele>
        <time>2021-02-23T12:10:51Z</time>
      </trkpt>
      <trkpt lat="42.82528" lon="-0.18303">
        <ele>1785.79</ele>
        <time>2021-02-23T12:10:52Z</time>
      </trkpt>
      <trkpt lat="42.82527" lon="-0.18293">
        <ele>1784.34</ele>
        <time>2021-02-23T12:11:03Z</time>
      </trkpt>
      <trkpt lat="42.82529" lon="-0.18289">
        <ele>1784.34</ele>
        <time>2021-02-23T12:11:07Z</time>
      </trkpt>
      <trkpt lat="42.8253" lon="-0.18285">
        <ele>1785.79</ele>
        <time>2021-02-23T12:11:10Z</time>
      </trkpt>
      <trkpt lat="42.8254" lon="-0.1827">
        <ele>1786.27</ele>
        <time>2021-02-23T12:11:25Z</time>
      </trkpt>
      <trkpt lat="42.82547" lon="-0.18262">
        <ele>1785.79</ele>
        <time>2021-02-23T12:11:35Z</time>
      </trkpt>
      <trkpt lat="42.82548" lon="-0.1826">
        <ele>1785.79</ele>
        <time>2021-02-23T12:11:37Z</time>
      </trkpt>
      <trkpt lat="42.82556" lon="-0.18252">
        <ele>1783.38</ele>
        <time>2021-02-23T12:11:49Z</time>
      </trkpt>
      <trkpt lat="42.82557" lon="-0.18251">
        <ele>1781.46</ele>
        <time>2021-02-23T12:11:51Z</time>
      </trkpt>
      <trkpt lat="42.82559" lon="-0.18248">
        <ele>1780.5</ele>
        <time>2021-02-23T12:11:54Z</time>
      </trkpt>
      <trkpt lat="42.82561" lon="-0.18242">
        <ele>1781.94</ele>
        <time>2021-02-23T12:11:59Z</time>
      </trkpt>
      <trkpt lat="42.82563" lon="-0.18236">
        <ele>1782.42</ele>
        <time>2021-02-23T12:12:06Z</time>
      </trkpt>
      <trkpt lat="42.82567" lon="-0.18229">
        <ele>1784.34</ele>
        <time>2021-02-23T12:12:14Z</time>
      </trkpt>
      <trkpt lat="42.82568" lon="-0.18229">
        <ele>1782.9</ele>
        <time>2021-02-23T12:12:16Z</time>
      </trkpt>
      <trkpt lat="42.82572" lon="-0.18227">
        <ele>1784.34</ele>
        <time>2021-02-23T12:12:22Z</time>
      </trkpt>
      <trkpt lat="42.82575" lon="-0.18221">
        <ele>1785.31</ele>
        <time>2021-02-23T12:12:32Z</time>
      </trkpt>
      <trkpt lat="42.8258" lon="-0.18213">
        <ele>1786.75</ele>
        <time>2021-02-23T12:12:42Z</time>
      </trkpt>
      <trkpt lat="42.82588" lon="-0.18211">
        <ele>1787.23</ele>
        <time>2021-02-23T12:12:55Z</time>
      </trkpt>
      <trkpt lat="42.8259" lon="-0.1821">
        <ele>1785.79</ele>
        <time>2021-02-23T12:12:59Z</time>
      </trkpt>
      <trkpt lat="42.82594" lon="-0.18205">
        <ele>1783.38</ele>
        <time>2021-02-23T12:13:09Z</time>
      </trkpt>
      <trkpt lat="42.82596" lon="-0.18197">
        <ele>1782.9</ele>
        <time>2021-02-23T12:13:17Z</time>
      </trkpt>
      <trkpt lat="42.82597" lon="-0.18197">
        <ele>1782.9</ele>
        <time>2021-02-23T12:13:18Z</time>
      </trkpt>
      <trkpt lat="42.82606" lon="-0.18188">
        <ele>1780.98</ele>
        <time>2021-02-23T12:13:29Z</time>
      </trkpt>
      <trkpt lat="42.82615" lon="-0.18181">
        <ele>1779.06</ele>
        <time>2021-02-23T12:13:40Z</time>
      </trkpt>
      <trkpt lat="42.82618" lon="-0.1818">
        <ele>1778.1</ele>
        <time>2021-02-23T12:13:43Z</time>
      </trkpt>
      <trkpt lat="42.82621" lon="-0.18181">
        <ele>1776.65</ele>
        <time>2021-02-23T12:13:48Z</time>
      </trkpt>
      <trkpt lat="42.82627" lon="-0.18177">
        <ele>1776.65</ele>
        <time>2021-02-23T12:13:56Z</time>
      </trkpt>
      <trkpt lat="42.82635" lon="-0.18166">
        <ele>1776.17</ele>
        <time>2021-02-23T12:14:08Z</time>
      </trkpt>
      <trkpt lat="42.82636" lon="-0.18165">
        <ele>1776.17</ele>
        <time>2021-02-23T12:14:09Z</time>
      </trkpt>
      <trkpt lat="42.82642" lon="-0.1816">
        <ele>1775.69</ele>
        <time>2021-02-23T12:14:19Z</time>
      </trkpt>
      <trkpt lat="42.82647" lon="-0.18151">
        <ele>1774.25</ele>
        <time>2021-02-23T12:14:30Z</time>
      </trkpt>
      <trkpt lat="42.82648" lon="-0.1815">
        <ele>1773.77</ele>
        <time>2021-02-23T12:14:40Z</time>
      </trkpt>
      <trkpt lat="42.82654" lon="-0.18141">
        <ele>1773.29</ele>
        <time>2021-02-23T12:14:51Z</time>
      </trkpt>
      <trkpt lat="42.82659" lon="-0.18136">
        <ele>1773.29</ele>
        <time>2021-02-23T12:14:59Z</time>
      </trkpt>
      <trkpt lat="42.82663" lon="-0.18127">
        <ele>1772.33</ele>
        <time>2021-02-23T12:15:09Z</time>
      </trkpt>
      <trkpt lat="42.82664" lon="-0.18126">
        <ele>1772.33</ele>
        <time>2021-02-23T12:15:10Z</time>
      </trkpt>
      <trkpt lat="42.82673" lon="-0.18115">
        <ele>1772.33</ele>
        <time>2021-02-23T12:15:20Z</time>
      </trkpt>
      <trkpt lat="42.82676" lon="-0.18109">
        <ele>1772.33</ele>
        <time>2021-02-23T12:15:25Z</time>
      </trkpt>
      <trkpt lat="42.82684" lon="-0.181">
        <ele>1771.85</ele>
        <time>2021-02-23T12:15:36Z</time>
      </trkpt>
      <trkpt lat="42.82687" lon="-0.18094">
        <ele>1771.85</ele>
        <time>2021-02-23T12:15:45Z</time>
      </trkpt>
      <trkpt lat="42.82691" lon="-0.18091">
        <ele>1771.85</ele>
        <time>2021-02-23T12:15:49Z</time>
      </trkpt>
      <trkpt lat="42.82693" lon="-0.18088">
        <ele>1773.77</ele>
        <time>2021-02-23T12:15:53Z</time>
      </trkpt>
      <trkpt lat="42.82695" lon="-0.18084">
        <ele>1772.33</ele>
        <time>2021-02-23T12:15:57Z</time>
      </trkpt>
      <trkpt lat="42.82701" lon="-0.18081">
        <ele>1772.33</ele>
        <time>2021-02-23T12:16:03Z</time>
      </trkpt>
      <trkpt lat="42.82707" lon="-0.18074">
        <ele>1772.33</ele>
        <time>2021-02-23T12:16:13Z</time>
      </trkpt>
      <trkpt lat="42.82709" lon="-0.18064">
        <ele>1771.37</ele>
        <time>2021-02-23T12:16:24Z</time>
      </trkpt>
      <trkpt lat="42.8271" lon="-0.18055">
        <ele>1770.89</ele>
        <time>2021-02-23T12:16:36Z</time>
      </trkpt>
      <trkpt lat="42.82712" lon="-0.18044">
        <ele>1768.96</ele>
        <time>2021-02-23T12:16:48Z</time>
      </trkpt>
      <trkpt lat="42.82716" lon="-0.18037">
        <ele>1768.48</ele>
        <time>2021-02-23T12:16:58Z</time>
      </trkpt>
      <trkpt lat="42.82718" lon="-0.18033">
        <ele>1765.6</ele>
        <time>2021-02-23T12:17:09Z</time>
      </trkpt>
      <trkpt lat="42.82719" lon="-0.1803">
        <ele>1766.56</ele>
        <time>2021-02-23T12:17:15Z</time>
      </trkpt>
      <trkpt lat="42.82719" lon="-0.18021">
        <ele>1766.56</ele>
        <time>2021-02-23T12:17:23Z</time>
      </trkpt>
      <trkpt lat="42.82725" lon="-0.18008">
        <ele>1765.12</ele>
        <time>2021-02-23T12:17:34Z</time>
      </trkpt>
      <trkpt lat="42.82727" lon="-0.18004">
        <ele>1764.64</ele>
        <time>2021-02-23T12:17:38Z</time>
      </trkpt>
      <trkpt lat="42.8273" lon="-0.18">
        <ele>1766.08</ele>
        <time>2021-02-23T12:17:41Z</time>
      </trkpt>
      <trkpt lat="42.82739" lon="-0.17996">
        <ele>1766.08</ele>
        <time>2021-02-23T12:17:53Z</time>
      </trkpt>
      <trkpt lat="42.82741" lon="-0.17996">
        <ele>1766.08</ele>
        <time>2021-02-23T12:17:55Z</time>
      </trkpt>
      <trkpt lat="42.82744" lon="-0.17995">
        <ele>1764.64</ele>
        <time>2021-02-23T12:17:57Z</time>
      </trkpt>
      <trkpt lat="42.82747" lon="-0.17994">
        <ele>1763.2</ele>
        <time>2021-02-23T12:18:00Z</time>
      </trkpt>
      <trkpt lat="42.82749" lon="-0.17993">
        <ele>1766.56</ele>
        <time>2021-02-23T12:18:02Z</time>
      </trkpt>
      <trkpt lat="42.82751" lon="-0.17993">
        <ele>1763.68</ele>
        <time>2021-02-23T12:18:05Z</time>
      </trkpt>
      <trkpt lat="42.82755" lon="-0.17988">
        <ele>1760.79</ele>
        <time>2021-02-23T12:18:15Z</time>
      </trkpt>
      <trkpt lat="42.82747" lon="-0.17978">
        <ele>1757.91</ele>
        <time>2021-02-23T12:18:27Z</time>
      </trkpt>
      <trkpt lat="42.82747" lon="-0.17966">
        <ele>1756.47</ele>
        <time>2021-02-23T12:18:37Z</time>
      </trkpt>
      <trkpt lat="42.82755" lon="-0.17965">
        <ele>1755.02</ele>
        <time>2021-02-23T12:18:47Z</time>
      </trkpt>
      <trkpt lat="42.82763" lon="-0.17964">
        <ele>1753.58</ele>
        <time>2021-02-23T12:18:56Z</time>
      </trkpt>
      <trkpt lat="42.82766" lon="-0.17958">
        <ele>1750.22</ele>
        <time>2021-02-23T12:19:04Z</time>
      </trkpt>
      <trkpt lat="42.82772" lon="-0.17953">
        <ele>1749.26</ele>
        <time>2021-02-23T12:19:15Z</time>
      </trkpt>
      <trkpt lat="42.82776" lon="-0.17944">
        <ele>1748.29</ele>
        <time>2021-02-23T12:19:26Z</time>
      </trkpt>
      <trkpt lat="42.82779" lon="-0.17941">
        <ele>1748.29</ele>
        <time>2021-02-23T12:19:37Z</time>
      </trkpt>
      <trkpt lat="42.82782" lon="-0.17937">
        <ele>1747.33</ele>
        <time>2021-02-23T12:19:46Z</time>
      </trkpt>
      <trkpt lat="42.82782" lon="-0.17936">
        <ele>1746.85</ele>
        <time>2021-02-23T12:19:48Z</time>
      </trkpt>
      <trkpt lat="42.82788" lon="-0.17933">
        <ele>1745.89</ele>
        <time>2021-02-23T12:19:58Z</time>
      </trkpt>
      <trkpt lat="42.82791" lon="-0.17929">
        <ele>1744.45</ele>
        <time>2021-02-23T12:20:07Z</time>
      </trkpt>
      <trkpt lat="42.82797" lon="-0.17925">
        <ele>1743.49</ele>
        <time>2021-02-23T12:20:16Z</time>
      </trkpt>
      <trkpt lat="42.82802" lon="-0.17923">
        <ele>1743.97</ele>
        <time>2021-02-23T12:20:24Z</time>
      </trkpt>
      <trkpt lat="42.82805" lon="-0.17921">
        <ele>1742.53</ele>
        <time>2021-02-23T12:20:30Z</time>
      </trkpt>
      <trkpt lat="42.82809" lon="-0.1792">
        <ele>1741.57</ele>
        <time>2021-02-23T12:20:36Z</time>
      </trkpt>
      <trkpt lat="42.82815" lon="-0.17913">
        <ele>1741.08</ele>
        <time>2021-02-23T12:20:47Z</time>
      </trkpt>
      <trkpt lat="42.82816" lon="-0.17913">
        <ele>1742.53</ele>
        <time>2021-02-23T12:20:49Z</time>
      </trkpt>
      <trkpt lat="42.82818" lon="-0.17911">
        <ele>1739.64</ele>
        <time>2021-02-23T12:20:52Z</time>
      </trkpt>
      <trkpt lat="42.82819" lon="-0.1791">
        <ele>1738.68</ele>
        <time>2021-02-23T12:20:54Z</time>
      </trkpt>
      <trkpt lat="42.82823" lon="-0.17907">
        <ele>1738.2</ele>
        <time>2021-02-23T12:20:59Z</time>
      </trkpt>
      <trkpt lat="42.8283" lon="-0.17895">
        <ele>1738.2</ele>
        <time>2021-02-23T12:21:10Z</time>
      </trkpt>
      <trkpt lat="42.82835" lon="-0.17887">
        <ele>1736.76</ele>
        <time>2021-02-23T12:21:19Z</time>
      </trkpt>
      <trkpt lat="42.82836" lon="-0.17885">
        <ele>1736.28</ele>
        <time>2021-02-23T12:21:21Z</time>
      </trkpt>
      <trkpt lat="42.82841" lon="-0.17877">
        <ele>1736.28</ele>
        <time>2021-02-23T12:21:30Z</time>
      </trkpt>
      <trkpt lat="42.82842" lon="-0.17876">
        <ele>1736.28</ele>
        <time>2021-02-23T12:21:31Z</time>
      </trkpt>
      <trkpt lat="42.82847" lon="-0.17867">
        <ele>1734.84</ele>
        <time>2021-02-23T12:21:40Z</time>
      </trkpt>
      <trkpt lat="42.82852" lon="-0.17865">
        <ele>1733.39</ele>
        <time>2021-02-23T12:21:48Z</time>
      </trkpt>
      <trkpt lat="42.82855" lon="-0.17861">
        <ele>1732.43</ele>
        <time>2021-02-23T12:21:56Z</time>
      </trkpt>
      <trkpt lat="42.82852" lon="-0.17859">
        <ele>1732.91</ele>
        <time>2021-02-23T12:22:06Z</time>
      </trkpt>
      <trkpt lat="42.82852" lon="-0.1786">
        <ele>1731.47</ele>
        <time>2021-02-23T12:22:12Z</time>
      </trkpt>
      <trkpt lat="42.82851" lon="-0.17862">
        <ele>1732.43</ele>
        <time>2021-02-23T12:22:30Z</time>
      </trkpt>
      <trkpt lat="42.82852" lon="-0.17862">
        <ele>1733.39</ele>
        <time>2021-02-23T12:22:40Z</time>
      </trkpt>
      <trkpt lat="42.82852" lon="-0.17861">
        <ele>1731.47</ele>
        <time>2021-02-23T12:22:43Z</time>
      </trkpt>
      <trkpt lat="42.82853" lon="-0.17858">
        <ele>1730.03</ele>
        <time>2021-02-23T12:23:01Z</time>
      </trkpt>
      <trkpt lat="42.82849" lon="-0.17858">
        <ele>1730.03</ele>
        <time>2021-02-23T12:23:05Z</time>
      </trkpt>
      <trkpt lat="42.8284" lon="-0.1786">
        <ele>1728.59</ele>
        <time>2021-02-23T12:23:17Z</time>
      </trkpt>
      <trkpt lat="42.82831" lon="-0.17862">
        <ele>1726.67</ele>
        <time>2021-02-23T12:23:29Z</time>
      </trkpt>
      <trkpt lat="42.82828" lon="-0.17864">
        <ele>1725.7</ele>
        <time>2021-02-23T12:23:50Z</time>
      </trkpt>
      <trkpt lat="42.82825" lon="-0.17866">
        <ele>1724.26</ele>
        <time>2021-02-23T12:23:54Z</time>
      </trkpt>
      <trkpt lat="42.82812" lon="-0.17866">
        <ele>1723.78</ele>
        <time>2021-02-23T12:24:05Z</time>
      </trkpt>
      <trkpt lat="42.82804" lon="-0.17866">
        <ele>1723.3</ele>
        <time>2021-02-23T12:24:16Z</time>
      </trkpt>
      <trkpt lat="42.82802" lon="-0.17855">
        <ele>1721.86</ele>
        <time>2021-02-23T12:24:28Z</time>
      </trkpt>
      <trkpt lat="42.82811" lon="-0.17848">
        <ele>1720.9</ele>
        <time>2021-02-23T12:24:39Z</time>
      </trkpt>
      <trkpt lat="42.82818" lon="-0.17839">
        <ele>1719.46</ele>
        <time>2021-02-23T12:24:49Z</time>
      </trkpt>
      <trkpt lat="42.82825" lon="-0.17833">
        <ele>1717.53</ele>
        <time>2021-02-23T12:24:59Z</time>
      </trkpt>
      <trkpt lat="42.8283" lon="-0.1782">
        <ele>1716.09</ele>
        <time>2021-02-23T12:25:11Z</time>
      </trkpt>
      <trkpt lat="42.82831" lon="-0.17817">
        <ele>1715.61</ele>
        <time>2021-02-23T12:25:14Z</time>
      </trkpt>
      <trkpt lat="42.82838" lon="-0.1781">
        <ele>1715.13</ele>
        <time>2021-02-23T12:25:21Z</time>
      </trkpt>
      <trkpt lat="42.82844" lon="-0.17804">
        <ele>1714.65</ele>
        <time>2021-02-23T12:25:27Z</time>
      </trkpt>
      <trkpt lat="42.82849" lon="-0.17796">
        <ele>1714.17</ele>
        <time>2021-02-23T12:25:37Z</time>
      </trkpt>
      <trkpt lat="42.82848" lon="-0.17795">
        <ele>1713.21</ele>
        <time>2021-02-23T12:25:48Z</time>
      </trkpt>
      <trkpt lat="42.82847" lon="-0.17795">
        <ele>1714.65</ele>
        <time>2021-02-23T12:25:50Z</time>
      </trkpt>
      <trkpt lat="42.8285" lon="-0.17794">
        <ele>1716.09</ele>
        <time>2021-02-23T12:25:54Z</time>
      </trkpt>
      <trkpt lat="42.82852" lon="-0.17792">
        <ele>1714.17</ele>
        <time>2021-02-23T12:25:57Z</time>
      </trkpt>
      <trkpt lat="42.82859" lon="-0.17785">
        <ele>1713.69</ele>
        <time>2021-02-23T12:26:06Z</time>
      </trkpt>
      <trkpt lat="42.82861" lon="-0.17782">
        <ele>1715.13</ele>
        <time>2021-02-23T12:26:09Z</time>
      </trkpt>
      <trkpt lat="42.82868" lon="-0.17771">
        <ele>1714.65</ele>
        <time>2021-02-23T12:26:18Z</time>
      </trkpt>
      <trkpt lat="42.82876" lon="-0.17759">
        <ele>1712.25</ele>
        <time>2021-02-23T12:26:27Z</time>
      </trkpt>
      <trkpt lat="42.82883" lon="-0.17751">
        <ele>1713.69</ele>
        <time>2021-02-23T12:26:34Z</time>
      </trkpt>
      <trkpt lat="42.8289" lon="-0.17739">
        <ele>1713.69</ele>
        <time>2021-02-23T12:26:45Z</time>
      </trkpt>
      <trkpt lat="42.82891" lon="-0.17738">
        <ele>1713.69</ele>
        <time>2021-02-23T12:26:46Z</time>
      </trkpt>
      <trkpt lat="42.82894" lon="-0.17727">
        <ele>1713.69</ele>
        <time>2021-02-23T12:26:57Z</time>
      </trkpt>
      <trkpt lat="42.82897" lon="-0.1772">
        <ele>1713.69</ele>
        <time>2021-02-23T12:27:05Z</time>
      </trkpt>
      <trkpt lat="42.82901" lon="-0.17715">
        <ele>1713.69</ele>
        <time>2021-02-23T12:27:12Z</time>
      </trkpt>
      <trkpt lat="42.82909" lon="-0.17709">
        <ele>1713.69</ele>
        <time>2021-02-23T12:27:22Z</time>
      </trkpt>
      <trkpt lat="42.82909" lon="-0.17708">
        <ele>1714.17</ele>
        <time>2021-02-23T12:27:23Z</time>
      </trkpt>
      <trkpt lat="42.82911" lon="-0.17701">
        <ele>1714.17</ele>
        <time>2021-02-23T12:27:29Z</time>
      </trkpt>
      <trkpt lat="42.82914" lon="-0.17695">
        <ele>1712.73</ele>
        <time>2021-02-23T12:27:36Z</time>
      </trkpt>
      <trkpt lat="42.82915" lon="-0.17693">
        <ele>1712.25</ele>
        <time>2021-02-23T12:27:38Z</time>
      </trkpt>
      <trkpt lat="42.82919" lon="-0.17685">
        <ele>1711.76</ele>
        <time>2021-02-23T12:27:47Z</time>
      </trkpt>
      <trkpt lat="42.82925" lon="-0.17676">
        <ele>1713.21</ele>
        <time>2021-02-23T12:27:57Z</time>
      </trkpt>
      <trkpt lat="42.82927" lon="-0.17674">
        <ele>1713.21</ele>
        <time>2021-02-23T12:28:00Z</time>
      </trkpt>
      <trkpt lat="42.82927" lon="-0.17671">
        <ele>1713.21</ele>
        <time>2021-02-23T12:28:02Z</time>
      </trkpt>
      <trkpt lat="42.82928" lon="-0.17666">
        <ele>1713.21</ele>
        <time>2021-02-23T12:28:06Z</time>
      </trkpt>
      <trkpt lat="42.82936" lon="-0.17654">
        <ele>1711.76</ele>
        <time>2021-02-23T12:28:17Z</time>
      </trkpt>
      <trkpt lat="42.82941" lon="-0.17647">
        <ele>1711.76</ele>
        <time>2021-02-23T12:28:23Z</time>
      </trkpt>
      <trkpt lat="42.82949" lon="-0.17636">
        <ele>1711.28</ele>
        <time>2021-02-23T12:28:33Z</time>
      </trkpt>
      <trkpt lat="42.82954" lon="-0.17629">
        <ele>1710.8</ele>
        <time>2021-02-23T12:28:43Z</time>
      </trkpt>
      <trkpt lat="42.82959" lon="-0.17624">
        <ele>1710.8</ele>
        <time>2021-02-23T12:28:49Z</time>
      </trkpt>
      <trkpt lat="42.82962" lon="-0.17618">
        <ele>1710.32</ele>
        <time>2021-02-23T12:28:54Z</time>
      </trkpt>
      <trkpt lat="42.82966" lon="-0.17609">
        <ele>1712.25</ele>
        <time>2021-02-23T12:29:04Z</time>
      </trkpt>
      <trkpt lat="42.82966" lon="-0.17609">
        <ele>1712.25</ele>
        <time>2021-02-23T12:29:05Z</time>
      </trkpt>
      <trkpt lat="42.8297" lon="-0.17606">
        <ele>1710.8</ele>
        <time>2021-02-23T12:29:10Z</time>
      </trkpt>
      <trkpt lat="42.8298" lon="-0.17599">
        <ele>1709.84</ele>
        <time>2021-02-23T12:29:20Z</time>
      </trkpt>
      <trkpt lat="42.82989" lon="-0.17596">
        <ele>1709.84</ele>
        <time>2021-02-23T12:29:29Z</time>
      </trkpt>
      <trkpt lat="42.82995" lon="-0.17589">
        <ele>1711.28</ele>
        <time>2021-02-23T12:29:38Z</time>
      </trkpt>
      <trkpt lat="42.83002" lon="-0.17587">
        <ele>1710.32</ele>
        <time>2021-02-23T12:29:44Z</time>
      </trkpt>
      <trkpt lat="42.83009" lon="-0.17581">
        <ele>1711.28</ele>
        <time>2021-02-23T12:29:53Z</time>
      </trkpt>
      <trkpt lat="42.8301" lon="-0.17579">
        <ele>1712.25</ele>
        <time>2021-02-23T12:29:55Z</time>
      </trkpt>
      <trkpt lat="42.83013" lon="-0.17576">
        <ele>1708.88</ele>
        <time>2021-02-23T12:30:00Z</time>
      </trkpt>
      <trkpt lat="42.83019" lon="-0.1757">
        <ele>1710.32</ele>
        <time>2021-02-23T12:30:07Z</time>
      </trkpt>
      <trkpt lat="42.83021" lon="-0.17567">
        <ele>1708.88</ele>
        <time>2021-02-23T12:30:12Z</time>
      </trkpt>
      <trkpt lat="42.83028" lon="-0.17556">
        <ele>1709.36</ele>
        <time>2021-02-23T12:30:23Z</time>
      </trkpt>
      <trkpt lat="42.8303" lon="-0.1755">
        <ele>1709.36</ele>
        <time>2021-02-23T12:30:28Z</time>
      </trkpt>
      <trkpt lat="42.83032" lon="-0.17547">
        <ele>1708.88</ele>
        <time>2021-02-23T12:30:31Z</time>
      </trkpt>
      <trkpt lat="42.8304" lon="-0.1754">
        <ele>1710.32</ele>
        <time>2021-02-23T12:30:40Z</time>
      </trkpt>
      <trkpt lat="42.83049" lon="-0.17531">
        <ele>1710.32</ele>
        <time>2021-02-23T12:30:52Z</time>
      </trkpt>
      <trkpt lat="42.83054" lon="-0.17526">
        <ele>1710.32</ele>
        <time>2021-02-23T12:30:57Z</time>
      </trkpt>
      <trkpt lat="42.83055" lon="-0.17526">
        <ele>1709.36</ele>
        <time>2021-02-23T12:30:59Z</time>
      </trkpt>
      <trkpt lat="42.83058" lon="-0.17522">
        <ele>1710.8</ele>
        <time>2021-02-23T12:31:03Z</time>
      </trkpt>
      <trkpt lat="42.83064" lon="-0.17516">
        <ele>1708.4</ele>
        <time>2021-02-23T12:31:10Z</time>
      </trkpt>
      <trkpt lat="42.83068" lon="-0.17514">
        <ele>1708.4</ele>
        <time>2021-02-23T12:31:14Z</time>
      </trkpt>
      <trkpt lat="42.83071" lon="-0.17512">
        <ele>1707.44</ele>
        <time>2021-02-23T12:31:18Z</time>
      </trkpt>
      <trkpt lat="42.83076" lon="-0.17507">
        <ele>1707.44</ele>
        <time>2021-02-23T12:31:26Z</time>
      </trkpt>
      <trkpt lat="42.83076" lon="-0.17503">
        <ele>1708.88</ele>
        <time>2021-02-23T12:31:28Z</time>
      </trkpt>
      <trkpt lat="42.8308" lon="-0.17492">
        <ele>1708.88</ele>
        <time>2021-02-23T12:31:38Z</time>
      </trkpt>
      <trkpt lat="42.83084" lon="-0.17489">
        <ele>1708.88</ele>
        <time>2021-02-23T12:31:47Z</time>
      </trkpt>
      <trkpt lat="42.83083" lon="-0.17487">
        <ele>1709.36</ele>
        <time>2021-02-23T12:31:54Z</time>
      </trkpt>
      <trkpt lat="42.83083" lon="-0.17485">
        <ele>1709.84</ele>
        <time>2021-02-23T12:32:09Z</time>
      </trkpt>
      <trkpt lat="42.83081" lon="-0.17485">
        <ele>1706.96</ele>
        <time>2021-02-23T12:32:14Z</time>
      </trkpt>
      <trkpt lat="42.83082" lon="-0.17484">
        <ele>1707.92</ele>
        <time>2021-02-23T12:32:27Z</time>
      </trkpt>
      <trkpt lat="42.83082" lon="-0.17483">
        <ele>1706.96</ele>
        <time>2021-02-23T12:32:40Z</time>
      </trkpt>
      <trkpt lat="42.83081" lon="-0.17483">
        <ele>1707.92</ele>
        <time>2021-02-23T12:32:52Z</time>
      </trkpt>
      <trkpt lat="42.83085" lon="-0.17478">
        <ele>1708.88</ele>
        <time>2021-02-23T12:32:59Z</time>
      </trkpt>
      <trkpt lat="42.83092" lon="-0.17471">
        <ele>1709.84</ele>
        <time>2021-02-23T12:33:09Z</time>
      </trkpt>
      <trkpt lat="42.83094" lon="-0.1747">
        <ele>1709.84</ele>
        <time>2021-02-23T12:33:11Z</time>
      </trkpt>
      <trkpt lat="42.83098" lon="-0.17463">
        <ele>1706.96</ele>
        <time>2021-02-23T12:33:17Z</time>
      </trkpt>
      <trkpt lat="42.83103" lon="-0.17447">
        <ele>1706.48</ele>
        <time>2021-02-23T12:33:28Z</time>
      </trkpt>
      <trkpt lat="42.83106" lon="-0.17441">
        <ele>1706.48</ele>
        <time>2021-02-23T12:33:33Z</time>
      </trkpt>
      <trkpt lat="42.83109" lon="-0.17436">
        <ele>1708.4</ele>
        <time>2021-02-23T12:33:37Z</time>
      </trkpt>
      <trkpt lat="42.83111" lon="-0.17433">
        <ele>1708.4</ele>
        <time>2021-02-23T12:33:40Z</time>
      </trkpt>
      <trkpt lat="42.83113" lon="-0.17428">
        <ele>1709.36</ele>
        <time>2021-02-23T12:33:44Z</time>
      </trkpt>
      <trkpt lat="42.83116" lon="-0.17426">
        <ele>1708.4</ele>
        <time>2021-02-23T12:33:48Z</time>
      </trkpt>
      <trkpt lat="42.8312" lon="-0.17421">
        <ele>1708.4</ele>
        <time>2021-02-23T12:33:53Z</time>
      </trkpt>
      <trkpt lat="42.83124" lon="-0.17417">
        <ele>1707.44</ele>
        <time>2021-02-23T12:33:57Z</time>
      </trkpt>
      <trkpt lat="42.83132" lon="-0.17409">
        <ele>1708.88</ele>
        <time>2021-02-23T12:34:06Z</time>
      </trkpt>
      <trkpt lat="42.83133" lon="-0.17408">
        <ele>1707.44</ele>
        <time>2021-02-23T12:34:07Z</time>
      </trkpt>
      <trkpt lat="42.83136" lon="-0.17406">
        <ele>1707.44</ele>
        <time>2021-02-23T12:34:10Z</time>
      </trkpt>
      <trkpt lat="42.83138" lon="-0.17402">
        <ele>1708.4</ele>
        <time>2021-02-23T12:34:15Z</time>
      </trkpt>
      <trkpt lat="42.83138" lon="-0.17397">
        <ele>1706.96</ele>
        <time>2021-02-23T12:34:19Z</time>
      </trkpt>
      <trkpt lat="42.83136" lon="-0.17392">
        <ele>1706.48</ele>
        <time>2021-02-23T12:34:23Z</time>
      </trkpt>
      <trkpt lat="42.83135" lon="-0.17378">
        <ele>1706</ele>
        <time>2021-02-23T12:34:33Z</time>
      </trkpt>
      <trkpt lat="42.83137" lon="-0.17376">
        <ele>1706</ele>
        <time>2021-02-23T12:34:35Z</time>
      </trkpt>
      <trkpt lat="42.83139" lon="-0.17373">
        <ele>1706.96</ele>
        <time>2021-02-23T12:34:37Z</time>
      </trkpt>
      <trkpt lat="42.83145" lon="-0.17357">
        <ele>1707.92</ele>
        <time>2021-02-23T12:34:49Z</time>
      </trkpt>
      <trkpt lat="42.83148" lon="-0.17352">
        <ele>1707.44</ele>
        <time>2021-02-23T12:34:54Z</time>
      </trkpt>
      <trkpt lat="42.83156" lon="-0.17345">
        <ele>1706</ele>
        <time>2021-02-23T12:35:05Z</time>
      </trkpt>
      <trkpt lat="42.83158" lon="-0.17344">
        <ele>1706.96</ele>
        <time>2021-02-23T12:35:07Z</time>
      </trkpt>
      <trkpt lat="42.83165" lon="-0.1734">
        <ele>1707.92</ele>
        <time>2021-02-23T12:35:14Z</time>
      </trkpt>
      <trkpt lat="42.83173" lon="-0.1734">
        <ele>1707.92</ele>
        <time>2021-02-23T12:35:23Z</time>
      </trkpt>
      <trkpt lat="42.83185" lon="-0.17337">
        <ele>1706</ele>
        <time>2021-02-23T12:35:35Z</time>
      </trkpt>
      <trkpt lat="42.83195" lon="-0.17335">
        <ele>1705.04</ele>
        <time>2021-02-23T12:35:45Z</time>
      </trkpt>
      <trkpt lat="42.83208" lon="-0.17328">
        <ele>1705.04</ele>
        <time>2021-02-23T12:35:59Z</time>
      </trkpt>
      <trkpt lat="42.83219" lon="-0.17323">
        <ele>1705.04</ele>
        <time>2021-02-23T12:36:08Z</time>
      </trkpt>
      <trkpt lat="42.8322" lon="-0.17318">
        <ele>1706.48</ele>
        <time>2021-02-23T12:36:22Z</time>
      </trkpt>
      <trkpt lat="42.83227" lon="-0.17315">
        <ele>1704.07</ele>
        <time>2021-02-23T12:36:32Z</time>
      </trkpt>
      <trkpt lat="42.83234" lon="-0.17317">
        <ele>1703.59</ele>
        <time>2021-02-23T12:36:42Z</time>
      </trkpt>
      <trkpt lat="42.83246" lon="-0.17313">
        <ele>1705.04</ele>
        <time>2021-02-23T12:36:54Z</time>
      </trkpt>
      <trkpt lat="42.83253" lon="-0.17306">
        <ele>1705.04</ele>
        <time>2021-02-23T12:37:03Z</time>
      </trkpt>
      <trkpt lat="42.83258" lon="-0.17302">
        <ele>1703.59</ele>
        <time>2021-02-23T12:37:08Z</time>
      </trkpt>
      <trkpt lat="42.83265" lon="-0.17297">
        <ele>1703.59</ele>
        <time>2021-02-23T12:37:17Z</time>
      </trkpt>
      <trkpt lat="42.8327" lon="-0.17294">
        <ele>1705.04</ele>
        <time>2021-02-23T12:37:25Z</time>
      </trkpt>
      <trkpt lat="42.83271" lon="-0.17294">
        <ele>1705.04</ele>
        <time>2021-02-23T12:37:26Z</time>
      </trkpt>
      <trkpt lat="42.8328" lon="-0.17292">
        <ele>1706</ele>
        <time>2021-02-23T12:37:37Z</time>
      </trkpt>
      <trkpt lat="42.83285" lon="-0.17292">
        <ele>1707.92</ele>
        <time>2021-02-23T12:37:46Z</time>
      </trkpt>
      <trkpt lat="42.83286" lon="-0.1729">
        <ele>1707.92</ele>
        <time>2021-02-23T12:37:48Z</time>
      </trkpt>
      <trkpt lat="42.83291" lon="-0.17288">
        <ele>1708.88</ele>
        <time>2021-02-23T12:37:56Z</time>
      </trkpt>
      <trkpt lat="42.83292" lon="-0.17286">
        <ele>1709.36</ele>
        <time>2021-02-23T12:37:58Z</time>
      </trkpt>
      <trkpt lat="42.83297" lon="-0.17282">
        <ele>1711.28</ele>
        <time>2021-02-23T12:38:07Z</time>
      </trkpt>
      <trkpt lat="42.833" lon="-0.17279">
        <ele>1713.69</ele>
        <time>2021-02-23T12:38:14Z</time>
      </trkpt>
      <trkpt lat="42.83304" lon="-0.17275">
        <ele>1715.13</ele>
        <time>2021-02-23T12:38:23Z</time>
      </trkpt>
      <trkpt lat="42.83308" lon="-0.17278">
        <ele>1715.61</ele>
        <time>2021-02-23T12:38:32Z</time>
      </trkpt>
      <trkpt lat="42.83312" lon="-0.17282">
        <ele>1715.13</ele>
        <time>2021-02-23T12:38:41Z</time>
      </trkpt>
      <trkpt lat="42.83314" lon="-0.17283">
        <ele>1715.13</ele>
        <time>2021-02-23T12:38:45Z</time>
      </trkpt>
      <trkpt lat="42.83316" lon="-0.17286">
        <ele>1717.05</ele>
        <time>2021-02-23T12:38:50Z</time>
      </trkpt>
      <trkpt lat="42.83321" lon="-0.17289">
        <ele>1718.49</ele>
        <time>2021-02-23T12:38:59Z</time>
      </trkpt>
      <trkpt lat="42.83331" lon="-0.17288">
        <ele>1718.97</ele>
        <time>2021-02-23T12:39:13Z</time>
      </trkpt>
      <trkpt lat="42.83334" lon="-0.17285">
        <ele>1721.38</ele>
        <time>2021-02-23T12:39:17Z</time>
      </trkpt>
      <trkpt lat="42.83336" lon="-0.17284">
        <ele>1719.46</ele>
        <time>2021-02-23T12:39:20Z</time>
      </trkpt>
      <trkpt lat="42.83336" lon="-0.17285">
        <ele>1719.46</ele>
        <time>2021-02-23T12:39:21Z</time>
      </trkpt>
      <trkpt lat="42.83339" lon="-0.17289">
        <ele>1721.86</ele>
        <time>2021-02-23T12:39:23Z</time>
      </trkpt>
      <trkpt lat="42.8334" lon="-0.17289">
        <ele>1716.57</ele>
        <time>2021-02-23T12:39:24Z</time>
      </trkpt>
      <trkpt lat="42.83339" lon="-0.17289">
        <ele>1719.94</ele>
        <time>2021-02-23T12:39:26Z</time>
      </trkpt>
      <trkpt lat="42.83338" lon="-0.17289">
        <ele>1718.01</ele>
        <time>2021-02-23T12:39:28Z</time>
      </trkpt>
      <trkpt lat="42.83346" lon="-0.17294">
        <ele>1715.13</ele>
        <time>2021-02-23T12:39:39Z</time>
      </trkpt>
      <trkpt lat="42.83348" lon="-0.17294">
        <ele>1716.57</ele>
        <time>2021-02-23T12:39:41Z</time>
      </trkpt>
      <trkpt lat="42.83351" lon="-0.17294">
        <ele>1717.53</ele>
        <time>2021-02-23T12:39:45Z</time>
      </trkpt>
      <trkpt lat="42.83353" lon="-0.17294">
        <ele>1717.05</ele>
        <time>2021-02-23T12:39:47Z</time>
      </trkpt>
      <trkpt lat="42.83359" lon="-0.17294">
        <ele>1716.09</ele>
        <time>2021-02-23T12:39:51Z</time>
      </trkpt>
      <trkpt lat="42.83361" lon="-0.17293">
        <ele>1718.01</ele>
        <time>2021-02-23T12:39:54Z</time>
      </trkpt>
      <trkpt lat="42.83362" lon="-0.17291">
        <ele>1717.05</ele>
        <time>2021-02-23T12:39:56Z</time>
      </trkpt>
      <trkpt lat="42.83373" lon="-0.1729">
        <ele>1717.05</ele>
        <time>2021-02-23T12:40:09Z</time>
      </trkpt>
      <trkpt lat="42.83385" lon="-0.17284">
        <ele>1716.09</ele>
        <time>2021-02-23T12:40:22Z</time>
      </trkpt>
      <trkpt lat="42.83386" lon="-0.17284">
        <ele>1716.09</ele>
        <time>2021-02-23T12:40:23Z</time>
      </trkpt>
      <trkpt lat="42.83401" lon="-0.17277">
        <ele>1717.05</ele>
        <time>2021-02-23T12:40:37Z</time>
      </trkpt>
      <trkpt lat="42.83413" lon="-0.17273">
        <ele>1717.53</ele>
        <time>2021-02-23T12:40:50Z</time>
      </trkpt>
      <trkpt lat="42.83415" lon="-0.17271">
        <ele>1717.53</ele>
        <time>2021-02-23T12:40:52Z</time>
      </trkpt>
      <trkpt lat="42.83427" lon="-0.17262">
        <ele>1716.57</ele>
        <time>2021-02-23T12:41:06Z</time>
      </trkpt>
      <trkpt lat="42.83436" lon="-0.17251">
        <ele>1716.57</ele>
        <time>2021-02-23T12:41:17Z</time>
      </trkpt>
      <trkpt lat="42.83449" lon="-0.17244">
        <ele>1717.53</ele>
        <time>2021-02-23T12:41:30Z</time>
      </trkpt>
      <trkpt lat="42.83456" lon="-0.17239">
        <ele>1718.97</ele>
        <time>2021-02-23T12:41:40Z</time>
      </trkpt>
      <trkpt lat="42.83461" lon="-0.17233">
        <ele>1718.97</ele>
        <time>2021-02-23T12:41:51Z</time>
      </trkpt>
      <trkpt lat="42.83463" lon="-0.17231">
        <ele>1717.53</ele>
        <time>2021-02-23T12:41:58Z</time>
      </trkpt>
      <trkpt lat="42.83477" lon="-0.17225">
        <ele>1716.09</ele>
        <time>2021-02-23T12:42:11Z</time>
      </trkpt>
      <trkpt lat="42.83479" lon="-0.17223">
        <ele>1716.09</ele>
        <time>2021-02-23T12:42:14Z</time>
      </trkpt>
      <trkpt lat="42.83493" lon="-0.17217">
        <ele>1715.61</ele>
        <time>2021-02-23T12:42:27Z</time>
      </trkpt>
      <trkpt lat="42.83503" lon="-0.17214">
        <ele>1716.57</ele>
        <time>2021-02-23T12:42:38Z</time>
      </trkpt>
      <trkpt lat="42.83514" lon="-0.17208">
        <ele>1715.61</ele>
        <time>2021-02-23T12:42:49Z</time>
      </trkpt>
      <trkpt lat="42.83523" lon="-0.17203">
        <ele>1714.65</ele>
        <time>2021-02-23T12:42:59Z</time>
      </trkpt>
      <trkpt lat="42.83525" lon="-0.17202">
        <ele>1714.17</ele>
        <time>2021-02-23T12:43:01Z</time>
      </trkpt>
      <trkpt lat="42.83537" lon="-0.172">
        <ele>1712.73</ele>
        <time>2021-02-23T12:43:10Z</time>
      </trkpt>
      <trkpt lat="42.83549" lon="-0.17199">
        <ele>1713.21</ele>
        <time>2021-02-23T12:43:20Z</time>
      </trkpt>
      <trkpt lat="42.83554" lon="-0.17199">
        <ele>1712.73</ele>
        <time>2021-02-23T12:43:25Z</time>
      </trkpt>
      <trkpt lat="42.83565" lon="-0.17196">
        <ele>1711.76</ele>
        <time>2021-02-23T12:43:35Z</time>
      </trkpt>
      <trkpt lat="42.83573" lon="-0.17189">
        <ele>1710.8</ele>
        <time>2021-02-23T12:43:44Z</time>
      </trkpt>
      <trkpt lat="42.83575" lon="-0.17186">
        <ele>1710.8</ele>
        <time>2021-02-23T12:43:47Z</time>
      </trkpt>
      <trkpt lat="42.83578" lon="-0.17171">
        <ele>1708.88</ele>
        <time>2021-02-23T12:43:58Z</time>
      </trkpt>
      <trkpt lat="42.83579" lon="-0.17151">
        <ele>1708.88</ele>
        <time>2021-02-23T12:44:12Z</time>
      </trkpt>
      <trkpt lat="42.83579" lon="-0.17147">
        <ele>1709.84</ele>
        <time>2021-02-23T12:44:15Z</time>
      </trkpt>
      <trkpt lat="42.83579" lon="-0.17144">
        <ele>1709.84</ele>
        <time>2021-02-23T12:44:17Z</time>
      </trkpt>
      <trkpt lat="42.83577" lon="-0.17127">
        <ele>1708.88</ele>
        <time>2021-02-23T12:44:30Z</time>
      </trkpt>
      <trkpt lat="42.83577" lon="-0.17108">
        <ele>1708.88</ele>
        <time>2021-02-23T12:44:44Z</time>
      </trkpt>
      <trkpt lat="42.83577" lon="-0.17106">
        <ele>1708.88</ele>
        <time>2021-02-23T12:44:46Z</time>
      </trkpt>
      <trkpt lat="42.83575" lon="-0.17094">
        <ele>1708.88</ele>
        <time>2021-02-23T12:44:57Z</time>
      </trkpt>
      <trkpt lat="42.83574" lon="-0.17078">
        <ele>1708.88</ele>
        <time>2021-02-23T12:45:10Z</time>
      </trkpt>
      <trkpt lat="42.83581" lon="-0.17064">
        <ele>1708.88</ele>
        <time>2021-02-23T12:45:23Z</time>
      </trkpt>
      <trkpt lat="42.83586" lon="-0.17057">
        <ele>1710.8</ele>
        <time>2021-02-23T12:45:33Z</time>
      </trkpt>
      <trkpt lat="42.83594" lon="-0.17048">
        <ele>1712.73</ele>
        <time>2021-02-23T12:45:46Z</time>
      </trkpt>
      <trkpt lat="42.836" lon="-0.17039">
        <ele>1713.21</ele>
        <time>2021-02-23T12:45:57Z</time>
      </trkpt>
      <trkpt lat="42.836" lon="-0.17038">
        <ele>1713.21</ele>
        <time>2021-02-23T12:45:58Z</time>
      </trkpt>
      <trkpt lat="42.83608" lon="-0.17028">
        <ele>1713.21</ele>
        <time>2021-02-23T12:46:09Z</time>
      </trkpt>
      <trkpt lat="42.83615" lon="-0.17022">
        <ele>1714.17</ele>
        <time>2021-02-23T12:46:19Z</time>
      </trkpt>
      <trkpt lat="42.83624" lon="-0.1701">
        <ele>1715.13</ele>
        <time>2021-02-23T12:46:33Z</time>
      </trkpt>
      <trkpt lat="42.83634" lon="-0.17002">
        <ele>1715.13</ele>
        <time>2021-02-23T12:46:46Z</time>
      </trkpt>
      <trkpt lat="42.83636" lon="-0.17001">
        <ele>1713.69</ele>
        <time>2021-02-23T12:46:48Z</time>
      </trkpt>
      <trkpt lat="42.8364" lon="-0.16996">
        <ele>1712.25</ele>
        <time>2021-02-23T12:46:54Z</time>
      </trkpt>
      <trkpt lat="42.83643" lon="-0.16978">
        <ele>1710.8</ele>
        <time>2021-02-23T12:47:07Z</time>
      </trkpt>
      <trkpt lat="42.83647" lon="-0.16962">
        <ele>1709.36</ele>
        <time>2021-02-23T12:47:22Z</time>
      </trkpt>
      <trkpt lat="42.83649" lon="-0.16955">
        <ele>1706</ele>
        <time>2021-02-23T12:47:27Z</time>
      </trkpt>
      <trkpt lat="42.83649" lon="-0.16954">
        <ele>1706</ele>
        <time>2021-02-23T12:47:28Z</time>
      </trkpt>
      <trkpt lat="42.83655" lon="-0.16928">
        <ele>1704.55</ele>
        <time>2021-02-23T12:47:46Z</time>
      </trkpt>
      <trkpt lat="42.83661" lon="-0.16919">
        <ele>1706.48</ele>
        <time>2021-02-23T12:47:55Z</time>
      </trkpt>
      <trkpt lat="42.83667" lon="-0.16906">
        <ele>1708.88</ele>
        <time>2021-02-23T12:48:05Z</time>
      </trkpt>
      <trkpt lat="42.83673" lon="-0.16893">
        <ele>1706.48</ele>
        <time>2021-02-23T12:48:17Z</time>
      </trkpt>
      <trkpt lat="42.83677" lon="-0.1688">
        <ele>1706.48</ele>
        <time>2021-02-23T12:48:29Z</time>
      </trkpt>
      <trkpt lat="42.8368" lon="-0.16875">
        <ele>1707.92</ele>
        <time>2021-02-23T12:48:35Z</time>
      </trkpt>
      <trkpt lat="42.83688" lon="-0.16863">
        <ele>1710.32</ele>
        <time>2021-02-23T12:48:47Z</time>
      </trkpt>
      <trkpt lat="42.83691" lon="-0.16857">
        <ele>1710.8</ele>
        <time>2021-02-23T12:48:52Z</time>
      </trkpt>
      <trkpt lat="42.83696" lon="-0.16849">
        <ele>1710.8</ele>
        <time>2021-02-23T12:49:00Z</time>
      </trkpt>
      <trkpt lat="42.837" lon="-0.16842">
        <ele>1709.84</ele>
        <time>2021-02-23T12:49:10Z</time>
      </trkpt>
      <trkpt lat="42.83708" lon="-0.16829">
        <ele>1708.88</ele>
        <time>2021-02-23T12:49:23Z</time>
      </trkpt>
      <trkpt lat="42.83715" lon="-0.1682">
        <ele>1707.44</ele>
        <time>2021-02-23T12:49:36Z</time>
      </trkpt>
      <trkpt lat="42.83724" lon="-0.16817">
        <ele>1706.48</ele>
        <time>2021-02-23T12:49:50Z</time>
      </trkpt>
      <trkpt lat="42.83726" lon="-0.16813">
        <ele>1705.52</ele>
        <time>2021-02-23T12:50:01Z</time>
      </trkpt>
      <trkpt lat="42.83718" lon="-0.16807">
        <ele>1703.11</ele>
        <time>2021-02-23T12:50:14Z</time>
      </trkpt>
      <trkpt lat="42.8372" lon="-0.16803">
        <ele>1701.19</ele>
        <time>2021-02-23T12:50:27Z</time>
      </trkpt>
      <trkpt lat="42.83727" lon="-0.16802">
        <ele>1697.83</ele>
        <time>2021-02-23T12:50:38Z</time>
      </trkpt>
      <trkpt lat="42.83731" lon="-0.16796">
        <ele>1697.34</ele>
        <time>2021-02-23T12:50:49Z</time>
      </trkpt>
      <trkpt lat="42.83735" lon="-0.16797">
        <ele>1695.42</ele>
        <time>2021-02-23T12:51:02Z</time>
      </trkpt>
      <trkpt lat="42.83741" lon="-0.16793">
        <ele>1694.46</ele>
        <time>2021-02-23T12:51:14Z</time>
      </trkpt>
      <trkpt lat="42.83747" lon="-0.16788">
        <ele>1691.58</ele>
        <time>2021-02-23T12:51:26Z</time>
      </trkpt>
      <trkpt lat="42.83749" lon="-0.16789">
        <ele>1690.14</ele>
        <time>2021-02-23T12:51:35Z</time>
      </trkpt>
      <trkpt lat="42.83752" lon="-0.16788">
        <ele>1689.65</ele>
        <time>2021-02-23T12:51:47Z</time>
      </trkpt>
      <trkpt lat="42.83755" lon="-0.16788">
        <ele>1688.21</ele>
        <time>2021-02-23T12:51:57Z</time>
      </trkpt>
      <trkpt lat="42.83757" lon="-0.1679">
        <ele>1686.77</ele>
        <time>2021-02-23T12:52:06Z</time>
      </trkpt>
      <trkpt lat="42.83761" lon="-0.16786">
        <ele>1685.33</ele>
        <time>2021-02-23T12:52:18Z</time>
      </trkpt>
      <trkpt lat="42.83758" lon="-0.16779">
        <ele>1684.37</ele>
        <time>2021-02-23T12:52:29Z</time>
      </trkpt>
      <trkpt lat="42.83756" lon="-0.16771">
        <ele>1682.93</ele>
        <time>2021-02-23T12:52:40Z</time>
      </trkpt>
      <trkpt lat="42.83754" lon="-0.16765">
        <ele>1681.96</ele>
        <time>2021-02-23T12:52:49Z</time>
      </trkpt>
      <trkpt lat="42.83754" lon="-0.16765">
        <ele>1681.48</ele>
        <time>2021-02-23T12:52:58Z</time>
      </trkpt>
      <trkpt lat="42.83756" lon="-0.16764">
        <ele>1681.48</ele>
        <time>2021-02-23T12:53:14Z</time>
      </trkpt>
      <trkpt lat="42.83758" lon="-0.16763">
        <ele>1680.52</ele>
        <time>2021-02-23T12:53:27Z</time>
      </trkpt>
      <trkpt lat="42.8376" lon="-0.16758">
        <ele>1679.56</ele>
        <time>2021-02-23T12:53:53Z</time>
      </trkpt>
      <trkpt lat="42.83756" lon="-0.16757">
        <ele>1681</ele>
        <time>2021-02-23T12:54:19Z</time>
      </trkpt>
      <trkpt lat="42.83755" lon="-0.16757">
        <ele>1679.56</ele>
        <time>2021-02-23T12:54:22Z</time>
      </trkpt>
      <trkpt lat="42.83754" lon="-0.16755">
        <ele>1678.6</ele>
        <time>2021-02-23T12:54:52Z</time>
      </trkpt>
      <trkpt lat="42.8375" lon="-0.16757">
        <ele>1680.52</ele>
        <time>2021-02-23T12:55:18Z</time>
      </trkpt>
      <trkpt lat="42.83754" lon="-0.16762">
        <ele>1680.52</ele>
        <time>2021-02-23T12:55:31Z</time>
      </trkpt>
      <trkpt lat="42.83754" lon="-0.16764">
        <ele>1681</ele>
        <time>2021-02-23T12:55:49Z</time>
      </trkpt>
      <trkpt lat="42.83759" lon="-0.16768">
        <ele>1681</ele>
        <time>2021-02-23T12:56:02Z</time>
      </trkpt>
      <trkpt lat="42.83761" lon="-0.16768">
        <ele>1681.48</ele>
        <time>2021-02-23T12:56:24Z</time>
      </trkpt>
      <trkpt lat="42.8376" lon="-0.16766">
        <ele>1681.96</ele>
        <time>2021-02-23T12:56:50Z</time>
      </trkpt>
      <trkpt lat="42.83757" lon="-0.16762">
        <ele>1681.96</ele>
        <time>2021-02-23T12:57:04Z</time>
      </trkpt>
      <trkpt lat="42.83757" lon="-0.16756">
        <ele>1681.96</ele>
        <time>2021-02-23T12:57:29Z</time>
      </trkpt>
      <trkpt lat="42.83757" lon="-0.16756">
        <ele>1682.44</ele>
        <time>2021-02-23T12:57:45Z</time>
      </trkpt>
      <trkpt lat="42.83758" lon="-0.16753">
        <ele>1681.48</ele>
        <time>2021-02-23T12:58:00Z</time>
      </trkpt>
      <trkpt lat="42.83761" lon="-0.16744">
        <ele>1679.08</ele>
        <time>2021-02-23T12:58:13Z</time>
      </trkpt>
      <trkpt lat="42.83762" lon="-0.16743">
        <ele>1678.12</ele>
        <time>2021-02-23T12:58:22Z</time>
      </trkpt>
      <trkpt lat="42.83767" lon="-0.16734">
        <ele>1675.23</ele>
        <time>2021-02-23T12:58:33Z</time>
      </trkpt>
      <trkpt lat="42.83772" lon="-0.16728">
        <ele>1674.75</ele>
        <time>2021-02-23T12:58:46Z</time>
      </trkpt>
      <trkpt lat="42.83778" lon="-0.16736">
        <ele>1673.79</ele>
        <time>2021-02-23T12:58:57Z</time>
      </trkpt>
      <trkpt lat="42.8378" lon="-0.16741">
        <ele>1672.83</ele>
        <time>2021-02-23T12:59:02Z</time>
      </trkpt>
      <trkpt lat="42.83785" lon="-0.16757">
        <ele>1670.43</ele>
        <time>2021-02-23T12:59:13Z</time>
      </trkpt>
      <trkpt lat="42.83786" lon="-0.16758">
        <ele>1670.43</ele>
        <time>2021-02-23T12:59:14Z</time>
      </trkpt>
      <trkpt lat="42.83793" lon="-0.16767">
        <ele>1668.51</ele>
        <time>2021-02-23T12:59:28Z</time>
      </trkpt>
      <trkpt lat="42.83801" lon="-0.16771">
        <ele>1667.54</ele>
        <time>2021-02-23T12:59:40Z</time>
      </trkpt>
      <trkpt lat="42.83807" lon="-0.16773">
        <ele>1664.66</ele>
        <time>2021-02-23T12:59:51Z</time>
      </trkpt>
      <trkpt lat="42.83816" lon="-0.16771">
        <ele>1662.74</ele>
        <time>2021-02-23T13:00:02Z</time>
      </trkpt>
      <trkpt lat="42.83822" lon="-0.1677">
        <ele>1662.26</ele>
        <time>2021-02-23T13:00:13Z</time>
      </trkpt>
      <trkpt lat="42.83831" lon="-0.16771">
        <ele>1660.33</ele>
        <time>2021-02-23T13:00:23Z</time>
      </trkpt>
      <trkpt lat="42.83839" lon="-0.16765">
        <ele>1657.45</ele>
        <time>2021-02-23T13:00:34Z</time>
      </trkpt>
      <trkpt lat="42.8385" lon="-0.16755">
        <ele>1656.49</ele>
        <time>2021-02-23T13:00:50Z</time>
      </trkpt>
      <trkpt lat="42.8386" lon="-0.16751">
        <ele>1654.09</ele>
        <time>2021-02-23T13:01:03Z</time>
      </trkpt>
      <trkpt lat="42.83867" lon="-0.16746">
        <ele>1651.68</ele>
        <time>2021-02-23T13:01:15Z</time>
      </trkpt>
      <trkpt lat="42.83877" lon="-0.16753">
        <ele>1648.8</ele>
        <time>2021-02-23T13:01:28Z</time>
      </trkpt>
      <trkpt lat="42.83878" lon="-0.16763">
        <ele>1647.36</ele>
        <time>2021-02-23T13:01:40Z</time>
      </trkpt>
      <trkpt lat="42.83876" lon="-0.16769">
        <ele>1646.4</ele>
        <time>2021-02-23T13:01:49Z</time>
      </trkpt>
      <trkpt lat="42.83876" lon="-0.1677">
        <ele>1646.4</ele>
        <time>2021-02-23T13:01:50Z</time>
      </trkpt>
      <trkpt lat="42.83881" lon="-0.1678">
        <ele>1645.91</ele>
        <time>2021-02-23T13:01:59Z</time>
      </trkpt>
      <trkpt lat="42.83889" lon="-0.16787">
        <ele>1644.47</ele>
        <time>2021-02-23T13:02:11Z</time>
      </trkpt>
      <trkpt lat="42.83892" lon="-0.16789">
        <ele>1644.47</ele>
        <time>2021-02-23T13:02:15Z</time>
      </trkpt>
      <trkpt lat="42.839" lon="-0.16797">
        <ele>1642.55</ele>
        <time>2021-02-23T13:02:27Z</time>
      </trkpt>
      <trkpt lat="42.83902" lon="-0.16796">
        <ele>1642.07</ele>
        <time>2021-02-23T13:02:40Z</time>
      </trkpt>
      <trkpt lat="42.83901" lon="-0.16796">
        <ele>1643.51</ele>
        <time>2021-02-23T13:02:45Z</time>
      </trkpt>
      <trkpt lat="42.83901" lon="-0.16793">
        <ele>1642.07</ele>
        <time>2021-02-23T13:02:56Z</time>
      </trkpt>
      <trkpt lat="42.83901" lon="-0.16806">
        <ele>1641.11</ele>
        <time>2021-02-23T13:03:06Z</time>
      </trkpt>
      <trkpt lat="42.83901" lon="-0.16828">
        <ele>1638.7</ele>
        <time>2021-02-23T13:03:19Z</time>
      </trkpt>
      <trkpt lat="42.83907" lon="-0.1684">
        <ele>1636.78</ele>
        <time>2021-02-23T13:03:31Z</time>
      </trkpt>
      <trkpt lat="42.83912" lon="-0.16847">
        <ele>1634.86</ele>
        <time>2021-02-23T13:03:45Z</time>
      </trkpt>
      <trkpt lat="42.83916" lon="-0.16859">
        <ele>1633.9</ele>
        <time>2021-02-23T13:03:54Z</time>
      </trkpt>
      <trkpt lat="42.83916" lon="-0.1686">
        <ele>1633.9</ele>
        <time>2021-02-23T13:03:55Z</time>
      </trkpt>
      <trkpt lat="42.83918" lon="-0.16869">
        <ele>1634.38</ele>
        <time>2021-02-23T13:04:01Z</time>
      </trkpt>
      <trkpt lat="42.83919" lon="-0.16871">
        <ele>1632.94</ele>
        <time>2021-02-23T13:04:03Z</time>
      </trkpt>
      <trkpt lat="42.8393" lon="-0.1689">
        <ele>1630.53</ele>
        <time>2021-02-23T13:04:19Z</time>
      </trkpt>
      <trkpt lat="42.83938" lon="-0.16906">
        <ele>1628.13</ele>
        <time>2021-02-23T13:04:33Z</time>
      </trkpt>
      <trkpt lat="42.83946" lon="-0.16917">
        <ele>1627.17</ele>
        <time>2021-02-23T13:04:44Z</time>
      </trkpt>
      <trkpt lat="42.83951" lon="-0.16924">
        <ele>1630.53</ele>
        <time>2021-02-23T13:04:51Z</time>
      </trkpt>
      <trkpt lat="42.83952" lon="-0.16925">
        <ele>1630.53</ele>
        <time>2021-02-23T13:04:52Z</time>
      </trkpt>
      <trkpt lat="42.83952" lon="-0.16928">
        <ele>1629.09</ele>
        <time>2021-02-23T13:04:55Z</time>
      </trkpt>
      <trkpt lat="42.83959" lon="-0.16939">
        <ele>1630.53</ele>
        <time>2021-02-23T13:05:07Z</time>
      </trkpt>
      <trkpt lat="42.83963" lon="-0.16943">
        <ele>1630.53</ele>
        <time>2021-02-23T13:05:18Z</time>
      </trkpt>
      <trkpt lat="42.83968" lon="-0.16944">
        <ele>1634.38</ele>
        <time>2021-02-23T13:05:25Z</time>
      </trkpt>
      <trkpt lat="42.83976" lon="-0.16954">
        <ele>1631.49</ele>
        <time>2021-02-23T13:05:38Z</time>
      </trkpt>
      <trkpt lat="42.83987" lon="-0.16965">
        <ele>1628.61</ele>
        <time>2021-02-23T13:05:54Z</time>
      </trkpt>
      <trkpt lat="42.83994" lon="-0.16975">
        <ele>1629.57</ele>
        <time>2021-02-23T13:06:06Z</time>
      </trkpt>
      <trkpt lat="42.84002" lon="-0.16984">
        <ele>1631.49</ele>
        <time>2021-02-23T13:06:20Z</time>
      </trkpt>
      <trkpt lat="42.84004" lon="-0.1699">
        <ele>1630.05</ele>
        <time>2021-02-23T13:06:25Z</time>
      </trkpt>
      <trkpt lat="42.84012" lon="-0.16997">
        <ele>1629.57</ele>
        <time>2021-02-23T13:06:37Z</time>
      </trkpt>
      <trkpt lat="42.84022" lon="-0.1699">
        <ele>1630.05</ele>
        <time>2021-02-23T13:06:50Z</time>
      </trkpt>
      <trkpt lat="42.8403" lon="-0.16983">
        <ele>1629.57</ele>
        <time>2021-02-23T13:07:02Z</time>
      </trkpt>
      <trkpt lat="42.84037" lon="-0.16975">
        <ele>1628.61</ele>
        <time>2021-02-23T13:07:13Z</time>
      </trkpt>
      <trkpt lat="42.84039" lon="-0.16972">
        <ele>1628.61</ele>
        <time>2021-02-23T13:07:16Z</time>
      </trkpt>
      <trkpt lat="42.84045" lon="-0.16963">
        <ele>1628.61</ele>
        <time>2021-02-23T13:07:26Z</time>
      </trkpt>
      <trkpt lat="42.84055" lon="-0.16952">
        <ele>1628.13</ele>
        <time>2021-02-23T13:07:40Z</time>
      </trkpt>
      <trkpt lat="42.84068" lon="-0.16935">
        <ele>1627.17</ele>
        <time>2021-02-23T13:07:58Z</time>
      </trkpt>
      <trkpt lat="42.8408" lon="-0.16924">
        <ele>1625.25</ele>
        <time>2021-02-23T13:08:13Z</time>
      </trkpt>
      <trkpt lat="42.8409" lon="-0.1692">
        <ele>1626.69</ele>
        <time>2021-02-23T13:08:22Z</time>
      </trkpt>
      <trkpt lat="42.84092" lon="-0.16919">
        <ele>1626.69</ele>
        <time>2021-02-23T13:08:25Z</time>
      </trkpt>
      <trkpt lat="42.84094" lon="-0.16916">
        <ele>1625.25</ele>
        <time>2021-02-23T13:08:28Z</time>
      </trkpt>
      <trkpt lat="42.84102" lon="-0.16909">
        <ele>1624.77</ele>
        <time>2021-02-23T13:08:39Z</time>
      </trkpt>
      <trkpt lat="42.84111" lon="-0.16903">
        <ele>1624.77</ele>
        <time>2021-02-23T13:08:50Z</time>
      </trkpt>
      <trkpt lat="42.84112" lon="-0.16901">
        <ele>1624.77</ele>
        <time>2021-02-23T13:08:52Z</time>
      </trkpt>
      <trkpt lat="42.84115" lon="-0.16895">
        <ele>1624.77</ele>
        <time>2021-02-23T13:09:03Z</time>
      </trkpt>
      <trkpt lat="42.8412" lon="-0.16892">
        <ele>1625.25</ele>
        <time>2021-02-23T13:09:12Z</time>
      </trkpt>
      <trkpt lat="42.84123" lon="-0.16891">
        <ele>1625.25</ele>
        <time>2021-02-23T13:09:15Z</time>
      </trkpt>
      <trkpt lat="42.84135" lon="-0.16885">
        <ele>1624.77</ele>
        <time>2021-02-23T13:09:28Z</time>
      </trkpt>
      <trkpt lat="42.84138" lon="-0.16884">
        <ele>1624.77</ele>
        <time>2021-02-23T13:09:31Z</time>
      </trkpt>
      <trkpt lat="42.84141" lon="-0.16876">
        <ele>1624.77</ele>
        <time>2021-02-23T13:09:42Z</time>
      </trkpt>
      <trkpt lat="42.8414" lon="-0.16875">
        <ele>1624.77</ele>
        <time>2021-02-23T13:09:44Z</time>
      </trkpt>
      <trkpt lat="42.84142" lon="-0.16865">
        <ele>1623.8</ele>
        <time>2021-02-23T13:09:54Z</time>
      </trkpt>
      <trkpt lat="42.84145" lon="-0.16857">
        <ele>1623.8</ele>
        <time>2021-02-23T13:10:07Z</time>
      </trkpt>
      <trkpt lat="42.84148" lon="-0.16854">
        <ele>1623.8</ele>
        <time>2021-02-23T13:10:19Z</time>
      </trkpt>
      <trkpt lat="42.84159" lon="-0.16842">
        <ele>1623.32</ele>
        <time>2021-02-23T13:10:33Z</time>
      </trkpt>
      <trkpt lat="42.84172" lon="-0.16831">
        <ele>1622.36</ele>
        <time>2021-02-23T13:10:49Z</time>
      </trkpt>
      <trkpt lat="42.84183" lon="-0.16821">
        <ele>1621.88</ele>
        <time>2021-02-23T13:11:02Z</time>
      </trkpt>
      <trkpt lat="42.84196" lon="-0.16812">
        <ele>1621.4</ele>
        <time>2021-02-23T13:11:17Z</time>
      </trkpt>
      <trkpt lat="42.84209" lon="-0.16798">
        <ele>1621.4</ele>
        <time>2021-02-23T13:11:33Z</time>
      </trkpt>
      <trkpt lat="42.84224" lon="-0.16787">
        <ele>1621.4</ele>
        <time>2021-02-23T13:11:49Z</time>
      </trkpt>
      <trkpt lat="42.84241" lon="-0.16783">
        <ele>1621.4</ele>
        <time>2021-02-23T13:12:06Z</time>
      </trkpt>
      <trkpt lat="42.8425" lon="-0.16781">
        <ele>1621.4</ele>
        <time>2021-02-23T13:12:20Z</time>
      </trkpt>
      <trkpt lat="42.84252" lon="-0.16781">
        <ele>1623.32</ele>
        <time>2021-02-23T13:12:30Z</time>
      </trkpt>
      <trkpt lat="42.84253" lon="-0.1678">
        <ele>1621.88</ele>
        <time>2021-02-23T13:12:43Z</time>
      </trkpt>
      <trkpt lat="42.84254" lon="-0.16773">
        <ele>1620.44</ele>
        <time>2021-02-23T13:12:56Z</time>
      </trkpt>
      <trkpt lat="42.84251" lon="-0.16769">
        <ele>1617.56</ele>
        <time>2021-02-23T13:13:02Z</time>
      </trkpt>
      <trkpt lat="42.8425" lon="-0.16767">
        <ele>1620.92</ele>
        <time>2021-02-23T13:13:05Z</time>
      </trkpt>
      <trkpt lat="42.8425" lon="-0.16766">
        <ele>1620.92</ele>
        <time>2021-02-23T13:13:06Z</time>
      </trkpt>
      <trkpt lat="42.8425" lon="-0.16764">
        <ele>1620.44</ele>
        <time>2021-02-23T13:13:10Z</time>
      </trkpt>
      <trkpt lat="42.8425" lon="-0.1676">
        <ele>1621.4</ele>
        <time>2021-02-23T13:13:18Z</time>
      </trkpt>
      <trkpt lat="42.8425" lon="-0.16761">
        <ele>1620.44</ele>
        <time>2021-02-23T13:13:21Z</time>
      </trkpt>
      <trkpt lat="42.8425" lon="-0.1676">
        <ele>1621.88</ele>
        <time>2021-02-23T13:13:29Z</time>
      </trkpt>
      <trkpt lat="42.84249" lon="-0.1676">
        <ele>1618.52</ele>
        <time>2021-02-23T13:13:38Z</time>
      </trkpt>
      <trkpt lat="42.84247" lon="-0.16762">
        <ele>1618.04</ele>
        <time>2021-02-23T13:13:55Z</time>
      </trkpt>
      <trkpt lat="42.84247" lon="-0.16761">
        <ele>1619</ele>
        <time>2021-02-23T13:13:56Z</time>
      </trkpt>
      <trkpt lat="42.84248" lon="-0.1676">
        <ele>1619.96</ele>
        <time>2021-02-23T13:14:13Z</time>
      </trkpt>
      <trkpt lat="42.84248" lon="-0.1676">
        <ele>1616.59</ele>
        <time>2021-02-23T13:14:14Z</time>
      </trkpt>
      <trkpt lat="42.84248" lon="-0.16761">
        <ele>1622.36</ele>
        <time>2021-02-23T13:14:15Z</time>
      </trkpt>
      <trkpt lat="42.84248" lon="-0.16761">
        <ele>1619</ele>
        <time>2021-02-23T13:14:16Z</time>
      </trkpt>
      <trkpt lat="42.84251" lon="-0.1676">
        <ele>1617.56</ele>
        <time>2021-02-23T13:14:27Z</time>
      </trkpt>
      <trkpt lat="42.84251" lon="-0.16759">
        <ele>1618.52</ele>
        <time>2021-02-23T13:14:41Z</time>
      </trkpt>
      <trkpt lat="42.84251" lon="-0.1676">
        <ele>1618.52</ele>
        <time>2021-02-23T13:14:48Z</time>
      </trkpt>
      <trkpt lat="42.84252" lon="-0.1676">
        <ele>1618.52</ele>
        <time>2021-02-23T13:15:18Z</time>
      </trkpt>
      <trkpt lat="42.84251" lon="-0.16761">
        <ele>1619</ele>
        <time>2021-02-23T13:15:43Z</time>
      </trkpt>
      <trkpt lat="42.8425" lon="-0.16762">
        <ele>1620.44</ele>
        <time>2021-02-23T13:15:45Z</time>
      </trkpt>
      <trkpt lat="42.8425" lon="-0.16762">
        <ele>1619</ele>
        <time>2021-02-23T13:15:48Z</time>
      </trkpt>
      <trkpt lat="42.84251" lon="-0.16759">
        <ele>1619</ele>
        <time>2021-02-23T13:16:17Z</time>
      </trkpt>
      <trkpt lat="42.84252" lon="-0.1676">
        <ele>1619</ele>
        <time>2021-02-23T13:16:40Z</time>
      </trkpt>
      <trkpt lat="42.84253" lon="-0.1676">
        <ele>1617.56</ele>
        <time>2021-02-23T13:16:48Z</time>
      </trkpt>
      <trkpt lat="42.84251" lon="-0.16761">
        <ele>1617.07</ele>
        <time>2021-02-23T13:17:17Z</time>
      </trkpt>
      <trkpt lat="42.84252" lon="-0.1676">
        <ele>1618.04</ele>
        <time>2021-02-23T13:17:28Z</time>
      </trkpt>
      <trkpt lat="42.84252" lon="-0.1676">
        <ele>1617.07</ele>
        <time>2021-02-23T13:17:59Z</time>
      </trkpt>
      <trkpt lat="42.84251" lon="-0.16759">
        <ele>1618.04</ele>
        <time>2021-02-23T13:18:05Z</time>
      </trkpt>
      <trkpt lat="42.84252" lon="-0.16759">
        <ele>1617.07</ele>
        <time>2021-02-23T13:18:26Z</time>
      </trkpt>
      <trkpt lat="42.84251" lon="-0.16762">
        <ele>1617.07</ele>
        <time>2021-02-23T13:18:49Z</time>
      </trkpt>
      <trkpt lat="42.84251" lon="-0.16761">
        <ele>1618.04</ele>
        <time>2021-02-23T13:18:52Z</time>
      </trkpt>
      <trkpt lat="42.84251" lon="-0.16761">
        <ele>1616.59</ele>
        <time>2021-02-23T13:18:59Z</time>
      </trkpt>
      <trkpt lat="42.84251" lon="-0.16761">
        <ele>1618.04</ele>
        <time>2021-02-23T13:19:03Z</time>
      </trkpt>
      <trkpt lat="42.84252" lon="-0.16761">
        <ele>1622.36</ele>
        <time>2021-02-23T13:19:14Z</time>
      </trkpt>
      <trkpt lat="42.84251" lon="-0.16761">
        <ele>1622.36</ele>
        <time>2021-02-23T13:19:15Z</time>
      </trkpt>
      <trkpt lat="42.84251" lon="-0.16761">
        <ele>1620.92</ele>
        <time>2021-02-23T13:19:17Z</time>
      </trkpt>
      <trkpt lat="42.8425" lon="-0.16761">
        <ele>1621.4</ele>
        <time>2021-02-23T13:19:27Z</time>
      </trkpt>
      <trkpt lat="42.84251" lon="-0.16761">
        <ele>1619.96</ele>
        <time>2021-02-23T13:19:29Z</time>
      </trkpt>
      <trkpt lat="42.84251" lon="-0.16761">
        <ele>1619.48</ele>
        <time>2021-02-23T13:19:48Z</time>
      </trkpt>
      <trkpt lat="42.8425" lon="-0.1676">
        <ele>1618.04</ele>
        <time>2021-02-23T13:20:06Z</time>
      </trkpt>
      <trkpt lat="42.84251" lon="-0.1676">
        <ele>1616.11</ele>
        <time>2021-02-23T13:20:14Z</time>
      </trkpt>
      <trkpt lat="42.84251" lon="-0.1676">
        <ele>1618.04</ele>
        <time>2021-02-23T13:20:17Z</time>
      </trkpt>
      <trkpt lat="42.84251" lon="-0.16759">
        <ele>1616.59</ele>
        <time>2021-02-23T13:20:24Z</time>
      </trkpt>
      <trkpt lat="42.84251" lon="-0.16757">
        <ele>1619.48</ele>
        <time>2021-02-23T13:20:29Z</time>
      </trkpt>
      <trkpt lat="42.84252" lon="-0.16759">
        <ele>1616.11</ele>
        <time>2021-02-23T13:20:36Z</time>
      </trkpt>
      <trkpt lat="42.84252" lon="-0.16758">
        <ele>1619.48</ele>
        <time>2021-02-23T13:20:48Z</time>
      </trkpt>
      <trkpt lat="42.84252" lon="-0.1676">
        <ele>1616.59</ele>
        <time>2021-02-23T13:20:51Z</time>
      </trkpt>
      <trkpt lat="42.84252" lon="-0.1676">
        <ele>1617.56</ele>
        <time>2021-02-23T13:20:52Z</time>
      </trkpt>
      <trkpt lat="42.84253" lon="-0.1676">
        <ele>1619.48</ele>
        <time>2021-02-23T13:21:14Z</time>
      </trkpt>
      <trkpt lat="42.84252" lon="-0.16758">
        <ele>1619</ele>
        <time>2021-02-23T13:21:29Z</time>
      </trkpt>
      <trkpt lat="42.84252" lon="-0.16758">
        <ele>1615.63</ele>
        <time>2021-02-23T13:21:34Z</time>
      </trkpt>
      <trkpt lat="42.84253" lon="-0.16758">
        <ele>1615.63</ele>
        <time>2021-02-23T13:21:35Z</time>
      </trkpt>
      <trkpt lat="42.84253" lon="-0.16756">
        <ele>1619.48</ele>
        <time>2021-02-23T13:21:37Z</time>
      </trkpt>
      <trkpt lat="42.84253" lon="-0.16758">
        <ele>1619.48</ele>
        <time>2021-02-23T13:21:46Z</time>
      </trkpt>
      <trkpt lat="42.84255" lon="-0.16759">
        <ele>1619.48</ele>
        <time>2021-02-23T13:21:54Z</time>
      </trkpt>
      <trkpt lat="42.8426" lon="-0.16758">
        <ele>1619.48</ele>
        <time>2021-02-23T13:22:03Z</time>
      </trkpt>
      <trkpt lat="42.84268" lon="-0.16763">
        <ele>1619</ele>
        <time>2021-02-23T13:22:14Z</time>
      </trkpt>
      <trkpt lat="42.84274" lon="-0.1676">
        <ele>1619.96</ele>
        <time>2021-02-23T13:22:22Z</time>
      </trkpt>
      <trkpt lat="42.84277" lon="-0.16758">
        <ele>1619.96</ele>
        <time>2021-02-23T13:22:25Z</time>
      </trkpt>
      <trkpt lat="42.84292" lon="-0.16752">
        <ele>1620.44</ele>
        <time>2021-02-23T13:22:42Z</time>
      </trkpt>
      <trkpt lat="42.84308" lon="-0.16763">
        <ele>1619.96</ele>
        <time>2021-02-23T13:22:59Z</time>
      </trkpt>
      <trkpt lat="42.84324" lon="-0.16775">
        <ele>1619.96</ele>
        <time>2021-02-23T13:23:14Z</time>
      </trkpt>
      <trkpt lat="42.84335" lon="-0.16781">
        <ele>1618.52</ele>
        <time>2021-02-23T13:23:26Z</time>
      </trkpt>
      <trkpt lat="42.84354" lon="-0.16792">
        <ele>1618.52</ele>
        <time>2021-02-23T13:23:46Z</time>
      </trkpt>
      <trkpt lat="42.84371" lon="-0.16802">
        <ele>1619</ele>
        <time>2021-02-23T13:24:04Z</time>
      </trkpt>
      <trkpt lat="42.84372" lon="-0.16802">
        <ele>1619</ele>
        <time>2021-02-23T13:24:05Z</time>
      </trkpt>
      <trkpt lat="42.84379" lon="-0.16801">
        <ele>1618.04</ele>
        <time>2021-02-23T13:24:12Z</time>
      </trkpt>
      <trkpt lat="42.84393" lon="-0.16797">
        <ele>1616.59</ele>
        <time>2021-02-23T13:24:26Z</time>
      </trkpt>
      <trkpt lat="42.84408" lon="-0.16788">
        <ele>1618.04</ele>
        <time>2021-02-23T13:24:43Z</time>
      </trkpt>
      <trkpt lat="42.84409" lon="-0.16788">
        <ele>1618.04</ele>
        <time>2021-02-23T13:24:44Z</time>
      </trkpt>
      <trkpt lat="42.8442" lon="-0.16783">
        <ele>1619.48</ele>
        <time>2021-02-23T13:24:55Z</time>
      </trkpt>
      <trkpt lat="42.84422" lon="-0.16781">
        <ele>1617.56</ele>
        <time>2021-02-23T13:24:58Z</time>
      </trkpt>
      <trkpt lat="42.84427" lon="-0.16781">
        <ele>1618.04</ele>
        <time>2021-02-23T13:25:10Z</time>
      </trkpt>
      <trkpt lat="42.84428" lon="-0.1678">
        <ele>1619.96</ele>
        <time>2021-02-23T13:25:29Z</time>
      </trkpt>
      <trkpt lat="42.84441" lon="-0.16772">
        <ele>1617.07</ele>
        <time>2021-02-23T13:25:44Z</time>
      </trkpt>
      <trkpt lat="42.84455" lon="-0.16763">
        <ele>1617.07</ele>
        <time>2021-02-23T13:25:59Z</time>
      </trkpt>
      <trkpt lat="42.84466" lon="-0.16749">
        <ele>1616.59</ele>
        <time>2021-02-23T13:26:14Z</time>
      </trkpt>
      <trkpt lat="42.84481" lon="-0.16736">
        <ele>1616.59</ele>
        <time>2021-02-23T13:26:31Z</time>
      </trkpt>
      <trkpt lat="42.84496" lon="-0.16723">
        <ele>1616.59</ele>
        <time>2021-02-23T13:26:47Z</time>
      </trkpt>
      <trkpt lat="42.84513" lon="-0.16714">
        <ele>1616.59</ele>
        <time>2021-02-23T13:27:03Z</time>
      </trkpt>
      <trkpt lat="42.84529" lon="-0.16705">
        <ele>1616.59</ele>
        <time>2021-02-23T13:27:21Z</time>
      </trkpt>
      <trkpt lat="42.8454" lon="-0.16694">
        <ele>1616.59</ele>
        <time>2021-02-23T13:27:36Z</time>
      </trkpt>
      <trkpt lat="42.8455" lon="-0.16678">
        <ele>1617.56</ele>
        <time>2021-02-23T13:27:53Z</time>
      </trkpt>
      <trkpt lat="42.84556" lon="-0.16661">
        <ele>1616.11</ele>
        <time>2021-02-23T13:28:09Z</time>
      </trkpt>
      <trkpt lat="42.84556" lon="-0.16654">
        <ele>1616.11</ele>
        <time>2021-02-23T13:28:15Z</time>
      </trkpt>
      <trkpt lat="42.84557" lon="-0.16645">
        <ele>1617.07</ele>
        <time>2021-02-23T13:28:23Z</time>
      </trkpt>
      <trkpt lat="42.84563" lon="-0.16639">
        <ele>1616.11</ele>
        <time>2021-02-23T13:28:30Z</time>
      </trkpt>
      <trkpt lat="42.84577" lon="-0.16625">
        <ele>1616.11</ele>
        <time>2021-02-23T13:28:48Z</time>
      </trkpt>
      <trkpt lat="42.84583" lon="-0.16614">
        <ele>1617.56</ele>
        <time>2021-02-23T13:29:00Z</time>
      </trkpt>
      <trkpt lat="42.84592" lon="-0.16608">
        <ele>1618.04</ele>
        <time>2021-02-23T13:29:13Z</time>
      </trkpt>
      <trkpt lat="42.84593" lon="-0.16608">
        <ele>1618.52</ele>
        <time>2021-02-23T13:29:14Z</time>
      </trkpt>
      <trkpt lat="42.846" lon="-0.16609">
        <ele>1616.59</ele>
        <time>2021-02-23T13:29:22Z</time>
      </trkpt>
      <trkpt lat="42.8461" lon="-0.1661">
        <ele>1617.07</ele>
        <time>2021-02-23T13:29:32Z</time>
      </trkpt>
      <trkpt lat="42.84624" lon="-0.16613">
        <ele>1617.07</ele>
        <time>2021-02-23T13:29:46Z</time>
      </trkpt>
      <trkpt lat="42.84625" lon="-0.16614">
        <ele>1617.07</ele>
        <time>2021-02-23T13:29:47Z</time>
      </trkpt>
      <trkpt lat="42.84639" lon="-0.16619">
        <ele>1619</ele>
        <time>2021-02-23T13:30:01Z</time>
      </trkpt>
      <trkpt lat="42.84651" lon="-0.16625">
        <ele>1617.56</ele>
        <time>2021-02-23T13:30:15Z</time>
      </trkpt>
      <trkpt lat="42.84656" lon="-0.16633">
        <ele>1615.15</ele>
        <time>2021-02-23T13:30:22Z</time>
      </trkpt>
      <trkpt lat="42.8466" lon="-0.16633">
        <ele>1613.71</ele>
        <time>2021-02-23T13:30:26Z</time>
      </trkpt>
      <trkpt lat="42.84673" lon="-0.16632">
        <ele>1613.71</ele>
        <time>2021-02-23T13:30:41Z</time>
      </trkpt>
      <trkpt lat="42.84689" lon="-0.1663">
        <ele>1614.67</ele>
        <time>2021-02-23T13:30:58Z</time>
      </trkpt>
      <trkpt lat="42.84702" lon="-0.16623">
        <ele>1613.23</ele>
        <time>2021-02-23T13:31:14Z</time>
      </trkpt>
      <trkpt lat="42.84706" lon="-0.16617">
        <ele>1614.67</ele>
        <time>2021-02-23T13:31:21Z</time>
      </trkpt>
      <trkpt lat="42.84711" lon="-0.16601">
        <ele>1616.59</ele>
        <time>2021-02-23T13:31:37Z</time>
      </trkpt>
      <trkpt lat="42.84711" lon="-0.166">
        <ele>1616.59</ele>
        <time>2021-02-23T13:31:38Z</time>
      </trkpt>
      <trkpt lat="42.84715" lon="-0.16588">
        <ele>1617.56</ele>
        <time>2021-02-23T13:31:50Z</time>
      </trkpt>
      <trkpt lat="42.84722" lon="-0.1659">
        <ele>1617.56</ele>
        <time>2021-02-23T13:31:57Z</time>
      </trkpt>
      <trkpt lat="42.84728" lon="-0.16584">
        <ele>1615.63</ele>
        <time>2021-02-23T13:32:05Z</time>
      </trkpt>
      <trkpt lat="42.84737" lon="-0.16574">
        <ele>1615.15</ele>
        <time>2021-02-23T13:32:17Z</time>
      </trkpt>
      <trkpt lat="42.84741" lon="-0.16555">
        <ele>1613.71</ele>
        <time>2021-02-23T13:32:32Z</time>
      </trkpt>
      <trkpt lat="42.84743" lon="-0.16547">
        <ele>1613.71</ele>
        <time>2021-02-23T13:32:38Z</time>
      </trkpt>
      <trkpt lat="42.84755" lon="-0.16535">
        <ele>1613.71</ele>
        <time>2021-02-23T13:32:52Z</time>
      </trkpt>
      <trkpt lat="42.84758" lon="-0.16533">
        <ele>1613.71</ele>
        <time>2021-02-23T13:32:54Z</time>
      </trkpt>
      <trkpt lat="42.84765" lon="-0.16526">
        <ele>1613.71</ele>
        <time>2021-02-23T13:33:08Z</time>
      </trkpt>
      <trkpt lat="42.84767" lon="-0.16518">
        <ele>1613.71</ele>
        <time>2021-02-23T13:33:19Z</time>
      </trkpt>
      <trkpt lat="42.84776" lon="-0.16509">
        <ele>1613.71</ele>
        <time>2021-02-23T13:33:32Z</time>
      </trkpt>
      <trkpt lat="42.84776" lon="-0.16505">
        <ele>1612.75</ele>
        <time>2021-02-23T13:33:35Z</time>
      </trkpt>
      <trkpt lat="42.84777" lon="-0.16502">
        <ele>1614.19</ele>
        <time>2021-02-23T13:33:37Z</time>
      </trkpt>
      <trkpt lat="42.84781" lon="-0.165">
        <ele>1614.19</ele>
        <time>2021-02-23T13:33:41Z</time>
      </trkpt>
      <trkpt lat="42.84795" lon="-0.16492">
        <ele>1614.19</ele>
        <time>2021-02-23T13:33:54Z</time>
      </trkpt>
      <trkpt lat="42.84806" lon="-0.16485">
        <ele>1614.67</ele>
        <time>2021-02-23T13:34:07Z</time>
      </trkpt>
      <trkpt lat="42.84819" lon="-0.16478">
        <ele>1613.23</ele>
        <time>2021-02-23T13:34:22Z</time>
      </trkpt>
      <trkpt lat="42.84827" lon="-0.16473">
        <ele>1614.67</ele>
        <time>2021-02-23T13:34:32Z</time>
      </trkpt>
      <trkpt lat="42.84843" lon="-0.1646">
        <ele>1614.67</ele>
        <time>2021-02-23T13:34:50Z</time>
      </trkpt>
      <trkpt lat="42.84851" lon="-0.16454">
        <ele>1614.67</ele>
        <time>2021-02-23T13:35:04Z</time>
      </trkpt>
      <trkpt lat="42.84855" lon="-0.16449">
        <ele>1615.15</ele>
        <time>2021-02-23T13:35:10Z</time>
      </trkpt>
      <trkpt lat="42.84866" lon="-0.16439">
        <ele>1615.15</ele>
        <time>2021-02-23T13:35:25Z</time>
      </trkpt>
      <trkpt lat="42.8487" lon="-0.16438">
        <ele>1613.71</ele>
        <time>2021-02-23T13:35:38Z</time>
      </trkpt>
      <trkpt lat="42.84869" lon="-0.1644">
        <ele>1614.67</ele>
        <time>2021-02-23T13:36:04Z</time>
      </trkpt>
      <trkpt lat="42.84869" lon="-0.16438">
        <ele>1616.11</ele>
        <time>2021-02-23T13:36:30Z</time>
      </trkpt>
      <trkpt lat="42.8487" lon="-0.16437">
        <ele>1614.67</ele>
        <time>2021-02-23T13:36:34Z</time>
      </trkpt>
      <trkpt lat="42.8487" lon="-0.16438">
        <ele>1615.63</ele>
        <time>2021-02-23T13:36:39Z</time>
      </trkpt>
      <trkpt lat="42.84869" lon="-0.16437">
        <ele>1613.23</ele>
        <time>2021-02-23T13:37:02Z</time>
      </trkpt>
      <trkpt lat="42.84869" lon="-0.16439">
        <ele>1613.71</ele>
        <time>2021-02-23T13:37:29Z</time>
      </trkpt>
      <trkpt lat="42.84872" lon="-0.16434">
        <ele>1613.71</ele>
        <time>2021-02-23T13:37:40Z</time>
      </trkpt>
      <trkpt lat="42.84882" lon="-0.16423">
        <ele>1612.27</ele>
        <time>2021-02-23T13:37:55Z</time>
      </trkpt>
      <trkpt lat="42.84883" lon="-0.16422">
        <ele>1611.31</ele>
        <time>2021-02-23T13:37:57Z</time>
      </trkpt>
      <trkpt lat="42.84884" lon="-0.16419">
        <ele>1612.75</ele>
        <time>2021-02-23T13:38:01Z</time>
      </trkpt>
      <trkpt lat="42.84884" lon="-0.16419">
        <ele>1610.83</ele>
        <time>2021-02-23T13:38:19Z</time>
      </trkpt>
      <trkpt lat="42.84884" lon="-0.1642">
        <ele>1609.38</ele>
        <time>2021-02-23T13:38:40Z</time>
      </trkpt>
      <trkpt lat="42.84889" lon="-0.16413">
        <ele>1611.31</ele>
        <time>2021-02-23T13:38:52Z</time>
      </trkpt>
      <trkpt lat="42.8489" lon="-0.16409">
        <ele>1612.75</ele>
        <time>2021-02-23T13:38:56Z</time>
      </trkpt>
      <trkpt lat="42.8489" lon="-0.16408">
        <ele>1611.31</ele>
        <time>2021-02-23T13:38:58Z</time>
      </trkpt>
      <trkpt lat="42.84899" lon="-0.16393">
        <ele>1610.35</ele>
        <time>2021-02-23T13:39:12Z</time>
      </trkpt>
      <trkpt lat="42.849" lon="-0.16393">
        <ele>1610.35</ele>
        <time>2021-02-23T13:39:13Z</time>
      </trkpt>
      <trkpt lat="42.84904" lon="-0.16391">
        <ele>1610.35</ele>
        <time>2021-02-23T13:39:17Z</time>
      </trkpt>
      <trkpt lat="42.84917" lon="-0.16378">
        <ele>1609.38</ele>
        <time>2021-02-23T13:39:33Z</time>
      </trkpt>
      <trkpt lat="42.84924" lon="-0.16373">
        <ele>1611.79</ele>
        <time>2021-02-23T13:39:41Z</time>
      </trkpt>
      <trkpt lat="42.84929" lon="-0.16371">
        <ele>1610.35</ele>
        <time>2021-02-23T13:39:47Z</time>
      </trkpt>
      <trkpt lat="42.84941" lon="-0.16366">
        <ele>1609.86</ele>
        <time>2021-02-23T13:40:01Z</time>
      </trkpt>
      <trkpt lat="42.84943" lon="-0.16364">
        <ele>1609.86</ele>
        <time>2021-02-23T13:40:03Z</time>
      </trkpt>
      <trkpt lat="42.84946" lon="-0.16362">
        <ele>1611.31</ele>
        <time>2021-02-23T13:40:06Z</time>
      </trkpt>
      <trkpt lat="42.8495" lon="-0.16361">
        <ele>1611.79</ele>
        <time>2021-02-23T13:40:16Z</time>
      </trkpt>
      <trkpt lat="42.8495" lon="-0.1636">
        <ele>1610.35</ele>
        <time>2021-02-23T13:40:21Z</time>
      </trkpt>
      <trkpt lat="42.84949" lon="-0.1636">
        <ele>1611.79</ele>
        <time>2021-02-23T13:40:30Z</time>
      </trkpt>
      <trkpt lat="42.8495" lon="-0.16359">
        <ele>1611.79</ele>
        <time>2021-02-23T13:40:42Z</time>
      </trkpt>
      <trkpt lat="42.8495" lon="-0.16357">
        <ele>1614.19</ele>
        <time>2021-02-23T13:40:46Z</time>
      </trkpt>
      <trkpt lat="42.8495" lon="-0.16358">
        <ele>1612.75</ele>
        <time>2021-02-23T13:40:50Z</time>
      </trkpt>
      <trkpt lat="42.84949" lon="-0.16357">
        <ele>1611.79</ele>
        <time>2021-02-23T13:41:15Z</time>
      </trkpt>
      <trkpt lat="42.8495" lon="-0.16357">
        <ele>1609.86</ele>
        <time>2021-02-23T13:41:27Z</time>
      </trkpt>
      <trkpt lat="42.84952" lon="-0.16341">
        <ele>1611.31</ele>
        <time>2021-02-23T13:41:43Z</time>
      </trkpt>
      <trkpt lat="42.84953" lon="-0.16332">
        <ele>1611.79</ele>
        <time>2021-02-23T13:41:51Z</time>
      </trkpt>
      <trkpt lat="42.84954" lon="-0.16328">
        <ele>1612.27</ele>
        <time>2021-02-23T13:41:55Z</time>
      </trkpt>
      <trkpt lat="42.84954" lon="-0.16322">
        <ele>1611.31</ele>
        <time>2021-02-23T13:42:01Z</time>
      </trkpt>
      <trkpt lat="42.84955" lon="-0.16316">
        <ele>1613.23</ele>
        <time>2021-02-23T13:42:06Z</time>
      </trkpt>
      <trkpt lat="42.84957" lon="-0.16313">
        <ele>1611.31</ele>
        <time>2021-02-23T13:42:10Z</time>
      </trkpt>
      <trkpt lat="42.84959" lon="-0.16302">
        <ele>1611.31</ele>
        <time>2021-02-23T13:42:24Z</time>
      </trkpt>
      <trkpt lat="42.84959" lon="-0.16302">
        <ele>1613.23</ele>
        <time>2021-02-23T13:42:26Z</time>
      </trkpt>
      <trkpt lat="42.84962" lon="-0.16299">
        <ele>1611.31</ele>
        <time>2021-02-23T13:42:34Z</time>
      </trkpt>
      <trkpt lat="42.84967" lon="-0.16294">
        <ele>1611.31</ele>
        <time>2021-02-23T13:42:42Z</time>
      </trkpt>
      <trkpt lat="42.84976" lon="-0.16284">
        <ele>1611.31</ele>
        <time>2021-02-23T13:42:56Z</time>
      </trkpt>
      <trkpt lat="42.84978" lon="-0.16282">
        <ele>1612.75</ele>
        <time>2021-02-23T13:42:59Z</time>
      </trkpt>
      <trkpt lat="42.84982" lon="-0.16275">
        <ele>1612.75</ele>
        <time>2021-02-23T13:43:08Z</time>
      </trkpt>
      <trkpt lat="42.84985" lon="-0.16273">
        <ele>1613.71</ele>
        <time>2021-02-23T13:43:12Z</time>
      </trkpt>
      <trkpt lat="42.84992" lon="-0.16268">
        <ele>1614.19</ele>
        <time>2021-02-23T13:43:22Z</time>
      </trkpt>
      <trkpt lat="42.84996" lon="-0.16268">
        <ele>1615.63</ele>
        <time>2021-02-23T13:43:32Z</time>
      </trkpt>
      <trkpt lat="42.84998" lon="-0.16268">
        <ele>1614.19</ele>
        <time>2021-02-23T13:43:38Z</time>
      </trkpt>
      <trkpt lat="42.85006" lon="-0.16264">
        <ele>1615.63</ele>
        <time>2021-02-23T13:43:52Z</time>
      </trkpt>
      <trkpt lat="42.85007" lon="-0.16264">
        <ele>1614.19</ele>
        <time>2021-02-23T13:43:54Z</time>
      </trkpt>
      <trkpt lat="42.85011" lon="-0.16263">
        <ele>1613.71</ele>
        <time>2021-02-23T13:44:12Z</time>
      </trkpt>
      <trkpt lat="42.85024" lon="-0.1626">
        <ele>1612.75</ele>
        <time>2021-02-23T13:44:27Z</time>
      </trkpt>
      <trkpt lat="42.85026" lon="-0.16259">
        <ele>1612.75</ele>
        <time>2021-02-23T13:44:40Z</time>
      </trkpt>
      <trkpt lat="42.85027" lon="-0.16258">
        <ele>1612.75</ele>
        <time>2021-02-23T13:45:04Z</time>
      </trkpt>
      <trkpt lat="42.85035" lon="-0.16256">
        <ele>1611.79</ele>
        <time>2021-02-23T13:45:17Z</time>
      </trkpt>
      <trkpt lat="42.85039" lon="-0.16257">
        <ele>1611.31</ele>
        <time>2021-02-23T13:45:28Z</time>
      </trkpt>
      <trkpt lat="42.85038" lon="-0.1626">
        <ele>1610.83</ele>
        <time>2021-02-23T13:45:48Z</time>
      </trkpt>
      <trkpt lat="42.85041" lon="-0.16258">
        <ele>1610.35</ele>
        <time>2021-02-23T13:46:01Z</time>
      </trkpt>
      <trkpt lat="42.85049" lon="-0.16255">
        <ele>1608.42</ele>
        <time>2021-02-23T13:46:12Z</time>
      </trkpt>
      <trkpt lat="42.85059" lon="-0.16241">
        <ele>1606.98</ele>
        <time>2021-02-23T13:46:29Z</time>
      </trkpt>
      <trkpt lat="42.85061" lon="-0.16234">
        <ele>1606.98</ele>
        <time>2021-02-23T13:46:35Z</time>
      </trkpt>
      <trkpt lat="42.85062" lon="-0.16227">
        <ele>1606.98</ele>
        <time>2021-02-23T13:46:41Z</time>
      </trkpt>
      <trkpt lat="42.8507" lon="-0.16205">
        <ele>1603.62</ele>
        <time>2021-02-23T13:46:59Z</time>
      </trkpt>
      <trkpt lat="42.85077" lon="-0.16187">
        <ele>1601.69</ele>
        <time>2021-02-23T13:47:15Z</time>
      </trkpt>
      <trkpt lat="42.85077" lon="-0.16186">
        <ele>1602.66</ele>
        <time>2021-02-23T13:47:27Z</time>
      </trkpt>
      <trkpt lat="42.85078" lon="-0.16181">
        <ele>1601.21</ele>
        <time>2021-02-23T13:47:39Z</time>
      </trkpt>
      <trkpt lat="42.85078" lon="-0.1618">
        <ele>1601.21</ele>
        <time>2021-02-23T13:47:40Z</time>
      </trkpt>
      <trkpt lat="42.85079" lon="-0.16161">
        <ele>1603.14</ele>
        <time>2021-02-23T13:47:54Z</time>
      </trkpt>
      <trkpt lat="42.85081" lon="-0.16154">
        <ele>1601.69</ele>
        <time>2021-02-23T13:48:00Z</time>
      </trkpt>
      <trkpt lat="42.85083" lon="-0.1614">
        <ele>1600.73</ele>
        <time>2021-02-23T13:48:14Z</time>
      </trkpt>
      <trkpt lat="42.85087" lon="-0.16129">
        <ele>1598.81</ele>
        <time>2021-02-23T13:48:26Z</time>
      </trkpt>
      <trkpt lat="42.85091" lon="-0.16116">
        <ele>1597.37</ele>
        <time>2021-02-23T13:48:38Z</time>
      </trkpt>
      <trkpt lat="42.85095" lon="-0.16099">
        <ele>1596.89</ele>
        <time>2021-02-23T13:48:51Z</time>
      </trkpt>
      <trkpt lat="42.85102" lon="-0.16085">
        <ele>1595.93</ele>
        <time>2021-02-23T13:49:03Z</time>
      </trkpt>
      <trkpt lat="42.85105" lon="-0.16078">
        <ele>1595.93</ele>
        <time>2021-02-23T13:49:14Z</time>
      </trkpt>
      <trkpt lat="42.85109" lon="-0.16065">
        <ele>1595.45</ele>
        <time>2021-02-23T13:49:26Z</time>
      </trkpt>
      <trkpt lat="42.85118" lon="-0.16053">
        <ele>1597.37</ele>
        <time>2021-02-23T13:49:39Z</time>
      </trkpt>
      <trkpt lat="42.85118" lon="-0.16049">
        <ele>1597.37</ele>
        <time>2021-02-23T13:49:42Z</time>
      </trkpt>
      <trkpt lat="42.85113" lon="-0.16035">
        <ele>1597.37</ele>
        <time>2021-02-23T13:49:54Z</time>
      </trkpt>
      <trkpt lat="42.85112" lon="-0.16018">
        <ele>1597.85</ele>
        <time>2021-02-23T13:50:08Z</time>
      </trkpt>
      <trkpt lat="42.85106" lon="-0.16002">
        <ele>1597.85</ele>
        <time>2021-02-23T13:50:22Z</time>
      </trkpt>
      <trkpt lat="42.85097" lon="-0.15994">
        <ele>1597.85</ele>
        <time>2021-02-23T13:50:36Z</time>
      </trkpt>
      <trkpt lat="42.8509" lon="-0.16">
        <ele>1598.33</ele>
        <time>2021-02-23T13:50:49Z</time>
      </trkpt>
      <trkpt lat="42.85085" lon="-0.16006">
        <ele>1598.81</ele>
        <time>2021-02-23T13:50:59Z</time>
      </trkpt>
      <trkpt lat="42.85084" lon="-0.16008">
        <ele>1598.81</ele>
        <time>2021-02-23T13:51:01Z</time>
      </trkpt>
      <trkpt lat="42.85081" lon="-0.16015">
        <ele>1597.37</ele>
        <time>2021-02-23T13:51:07Z</time>
      </trkpt>
      <trkpt lat="42.85075" lon="-0.16016">
        <ele>1596.89</ele>
        <time>2021-02-23T13:51:12Z</time>
      </trkpt>
      <trkpt lat="42.85066" lon="-0.16019">
        <ele>1595.93</ele>
        <time>2021-02-23T13:51:27Z</time>
      </trkpt>
      <trkpt lat="42.85062" lon="-0.16016">
        <ele>1595.93</ele>
        <time>2021-02-23T13:51:47Z</time>
      </trkpt>
      <trkpt lat="42.85059" lon="-0.16014">
        <ele>1595.93</ele>
        <time>2021-02-23T13:51:51Z</time>
      </trkpt>
      <trkpt lat="42.85063" lon="-0.15998">
        <ele>1594.48</ele>
        <time>2021-02-23T13:52:04Z</time>
      </trkpt>
      <trkpt lat="42.85068" lon="-0.15987">
        <ele>1595.45</ele>
        <time>2021-02-23T13:52:16Z</time>
      </trkpt>
      <trkpt lat="42.85076" lon="-0.15975">
        <ele>1596.89</ele>
        <time>2021-02-23T13:52:30Z</time>
      </trkpt>
      <trkpt lat="42.85084" lon="-0.15968">
        <ele>1598.81</ele>
        <time>2021-02-23T13:52:42Z</time>
      </trkpt>
      <trkpt lat="42.85085" lon="-0.15967">
        <ele>1598.81</ele>
        <time>2021-02-23T13:52:43Z</time>
      </trkpt>
      <trkpt lat="42.85096" lon="-0.15958">
        <ele>1598.33</ele>
        <time>2021-02-23T13:52:56Z</time>
      </trkpt>
      <trkpt lat="42.85106" lon="-0.15947">
        <ele>1598.81</ele>
        <time>2021-02-23T13:53:10Z</time>
      </trkpt>
      <trkpt lat="42.85112" lon="-0.15934">
        <ele>1596.89</ele>
        <time>2021-02-23T13:53:23Z</time>
      </trkpt>
      <trkpt lat="42.85114" lon="-0.15926">
        <ele>1595.45</ele>
        <time>2021-02-23T13:53:31Z</time>
      </trkpt>
      <trkpt lat="42.85113" lon="-0.15907">
        <ele>1594.96</ele>
        <time>2021-02-23T13:53:45Z</time>
      </trkpt>
      <trkpt lat="42.8511" lon="-0.15891">
        <ele>1594</ele>
        <time>2021-02-23T13:54:00Z</time>
      </trkpt>
      <trkpt lat="42.85099" lon="-0.15892">
        <ele>1592.08</ele>
        <time>2021-02-23T13:54:14Z</time>
      </trkpt>
      <trkpt lat="42.8509" lon="-0.159">
        <ele>1591.12</ele>
        <time>2021-02-23T13:54:26Z</time>
      </trkpt>
      <trkpt lat="42.85082" lon="-0.15905">
        <ele>1591.12</ele>
        <time>2021-02-23T13:54:38Z</time>
      </trkpt>
      <trkpt lat="42.8508" lon="-0.15895">
        <ele>1589.68</ele>
        <time>2021-02-23T13:54:50Z</time>
      </trkpt>
      <trkpt lat="42.85082" lon="-0.15884">
        <ele>1586.31</ele>
        <time>2021-02-23T13:55:02Z</time>
      </trkpt>
      <trkpt lat="42.85083" lon="-0.15883">
        <ele>1586.31</ele>
        <time>2021-02-23T13:55:03Z</time>
      </trkpt>
      <trkpt lat="42.8509" lon="-0.15875">
        <ele>1584.39</ele>
        <time>2021-02-23T13:55:14Z</time>
      </trkpt>
      <trkpt lat="42.85098" lon="-0.15867">
        <ele>1582.95</ele>
        <time>2021-02-23T13:55:26Z</time>
      </trkpt>
      <trkpt lat="42.85102" lon="-0.15865">
        <ele>1581.99</ele>
        <time>2021-02-23T13:55:36Z</time>
      </trkpt>
      <trkpt lat="42.85105" lon="-0.15861">
        <ele>1580.54</ele>
        <time>2021-02-23T13:55:46Z</time>
      </trkpt>
      <trkpt lat="42.85104" lon="-0.15857">
        <ele>1579.1</ele>
        <time>2021-02-23T13:55:56Z</time>
      </trkpt>
      <trkpt lat="42.85105" lon="-0.15849">
        <ele>1576.7</ele>
        <time>2021-02-23T13:56:08Z</time>
      </trkpt>
      <trkpt lat="42.85102" lon="-0.15845">
        <ele>1574.78</ele>
        <time>2021-02-23T13:56:19Z</time>
      </trkpt>
      <trkpt lat="42.85102" lon="-0.15833">
        <ele>1573.82</ele>
        <time>2021-02-23T13:56:31Z</time>
      </trkpt>
      <trkpt lat="42.85102" lon="-0.15826">
        <ele>1573.82</ele>
        <time>2021-02-23T13:56:42Z</time>
      </trkpt>
      <trkpt lat="42.85097" lon="-0.15819">
        <ele>1572.85</ele>
        <time>2021-02-23T13:56:53Z</time>
      </trkpt>
      <trkpt lat="42.85093" lon="-0.15814">
        <ele>1574.3</ele>
        <time>2021-02-23T13:57:02Z</time>
      </trkpt>
      <trkpt lat="42.85091" lon="-0.15804">
        <ele>1575.26</ele>
        <time>2021-02-23T13:57:14Z</time>
      </trkpt>
      <trkpt lat="42.85091" lon="-0.15801">
        <ele>1573.82</ele>
        <time>2021-02-23T13:57:17Z</time>
      </trkpt>
      <trkpt lat="42.85093" lon="-0.15792">
        <ele>1573.33</ele>
        <time>2021-02-23T13:57:28Z</time>
      </trkpt>
      <trkpt lat="42.85092" lon="-0.15784">
        <ele>1573.33</ele>
        <time>2021-02-23T13:57:39Z</time>
      </trkpt>
      <trkpt lat="42.85095" lon="-0.15775">
        <ele>1571.41</ele>
        <time>2021-02-23T13:57:50Z</time>
      </trkpt>
      <trkpt lat="42.85093" lon="-0.15767">
        <ele>1572.85</ele>
        <time>2021-02-23T13:58:00Z</time>
      </trkpt>
      <trkpt lat="42.85101" lon="-0.15755">
        <ele>1571.41</ele>
        <time>2021-02-23T13:58:14Z</time>
      </trkpt>
      <trkpt lat="42.85107" lon="-0.1575">
        <ele>1570.45</ele>
        <time>2021-02-23T13:58:25Z</time>
      </trkpt>
      <trkpt lat="42.8511" lon="-0.15747">
        <ele>1570.45</ele>
        <time>2021-02-23T13:58:37Z</time>
      </trkpt>
      <trkpt lat="42.8511" lon="-0.15747">
        <ele>1570.45</ele>
        <time>2021-02-23T13:58:51Z</time>
      </trkpt>
      <trkpt lat="42.85108" lon="-0.15744">
        <ele>1569.49</ele>
        <time>2021-02-23T13:59:10Z</time>
      </trkpt>
      <trkpt lat="42.85108" lon="-0.15743">
        <ele>1569.49</ele>
        <time>2021-02-23T13:59:25Z</time>
      </trkpt>
      <trkpt lat="42.8511" lon="-0.15746">
        <ele>1569.49</ele>
        <time>2021-02-23T13:59:46Z</time>
      </trkpt>
      <trkpt lat="42.85108" lon="-0.1574">
        <ele>1569.49</ele>
        <time>2021-02-23T14:00:02Z</time>
      </trkpt>
      <trkpt lat="42.85109" lon="-0.15743">
        <ele>1569.49</ele>
        <time>2021-02-23T14:00:30Z</time>
      </trkpt>
      <trkpt lat="42.85108" lon="-0.15741">
        <ele>1569.01</ele>
        <time>2021-02-23T14:00:55Z</time>
      </trkpt>
      <trkpt lat="42.85109" lon="-0.15742">
        <ele>1569.01</ele>
        <time>2021-02-23T14:01:16Z</time>
      </trkpt>
      <trkpt lat="42.85109" lon="-0.15737">
        <ele>1570.93</ele>
        <time>2021-02-23T14:01:34Z</time>
      </trkpt>
      <trkpt lat="42.8511" lon="-0.1574">
        <ele>1569.49</ele>
        <time>2021-02-23T14:01:53Z</time>
      </trkpt>
      <trkpt lat="42.85111" lon="-0.15734">
        <ele>1569.49</ele>
        <time>2021-02-23T14:02:03Z</time>
      </trkpt>
      <trkpt lat="42.85112" lon="-0.15729">
        <ele>1570.93</ele>
        <time>2021-02-23T14:02:13Z</time>
      </trkpt>
      <trkpt lat="42.85112" lon="-0.15725">
        <ele>1569.97</ele>
        <time>2021-02-23T14:02:20Z</time>
      </trkpt>
      <trkpt lat="42.85111" lon="-0.15721">
        <ele>1568.53</ele>
        <time>2021-02-23T14:02:33Z</time>
      </trkpt>
      <trkpt lat="42.85108" lon="-0.15705">
        <ele>1565.16</ele>
        <time>2021-02-23T14:02:49Z</time>
      </trkpt>
      <trkpt lat="42.8511" lon="-0.15688">
        <ele>1564.68</ele>
        <time>2021-02-23T14:03:05Z</time>
      </trkpt>
      <trkpt lat="42.8511" lon="-0.15671">
        <ele>1564.68</ele>
        <time>2021-02-23T14:03:19Z</time>
      </trkpt>
      <trkpt lat="42.85111" lon="-0.15651">
        <ele>1564.2</ele>
        <time>2021-02-23T14:03:35Z</time>
      </trkpt>
      <trkpt lat="42.85108" lon="-0.15633">
        <ele>1566.12</ele>
        <time>2021-02-23T14:03:49Z</time>
      </trkpt>
      <trkpt lat="42.85103" lon="-0.15617">
        <ele>1567.57</ele>
        <time>2021-02-23T14:04:04Z</time>
      </trkpt>
      <trkpt lat="42.85103" lon="-0.15614">
        <ele>1563.24</ele>
        <time>2021-02-23T14:04:06Z</time>
      </trkpt>
      <trkpt lat="42.85102" lon="-0.15612">
        <ele>1564.68</ele>
        <time>2021-02-23T14:04:07Z</time>
      </trkpt>
      <trkpt lat="42.85099" lon="-0.15607">
        <ele>1563.24</ele>
        <time>2021-02-23T14:04:12Z</time>
      </trkpt>
      <trkpt lat="42.85094" lon="-0.15598">
        <ele>1562.28</ele>
        <time>2021-02-23T14:04:21Z</time>
      </trkpt>
      <trkpt lat="42.8509" lon="-0.15576">
        <ele>1561.8</ele>
        <time>2021-02-23T14:04:38Z</time>
      </trkpt>
      <trkpt lat="42.85085" lon="-0.15558">
        <ele>1560.84</ele>
        <time>2021-02-23T14:04:54Z</time>
      </trkpt>
      <trkpt lat="42.85087" lon="-0.15548">
        <ele>1562.76</ele>
        <time>2021-02-23T14:05:01Z</time>
      </trkpt>
      <trkpt lat="42.85092" lon="-0.1554">
        <ele>1561.32</ele>
        <time>2021-02-23T14:05:08Z</time>
      </trkpt>
      <trkpt lat="42.85093" lon="-0.15538">
        <ele>1560.84</ele>
        <time>2021-02-23T14:05:18Z</time>
      </trkpt>
      <trkpt lat="42.85095" lon="-0.15535">
        <ele>1560.84</ele>
        <time>2021-02-23T14:05:33Z</time>
      </trkpt>
      <trkpt lat="42.85096" lon="-0.15535">
        <ele>1562.28</ele>
        <time>2021-02-23T14:05:36Z</time>
      </trkpt>
      <trkpt lat="42.851" lon="-0.15527">
        <ele>1562.76</ele>
        <time>2021-02-23T14:05:46Z</time>
      </trkpt>
      <trkpt lat="42.85101" lon="-0.15526">
        <ele>1564.68</ele>
        <time>2021-02-23T14:05:48Z</time>
      </trkpt>
      <trkpt lat="42.85102" lon="-0.15523">
        <ele>1563.24</ele>
        <time>2021-02-23T14:05:50Z</time>
      </trkpt>
      <trkpt lat="42.85105" lon="-0.15518">
        <ele>1560.84</ele>
        <time>2021-02-23T14:05:55Z</time>
      </trkpt>
      <trkpt lat="42.85108" lon="-0.15517">
        <ele>1562.76</ele>
        <time>2021-02-23T14:05:58Z</time>
      </trkpt>
      <trkpt lat="42.85109" lon="-0.15515">
        <ele>1559.88</ele>
        <time>2021-02-23T14:06:00Z</time>
      </trkpt>
      <trkpt lat="42.85109" lon="-0.15513">
        <ele>1559.88</ele>
        <time>2021-02-23T14:06:01Z</time>
      </trkpt>
      <trkpt lat="42.85115" lon="-0.15503">
        <ele>1559.88</ele>
        <time>2021-02-23T14:06:12Z</time>
      </trkpt>
      <trkpt lat="42.85117" lon="-0.15501">
        <ele>1561.32</ele>
        <time>2021-02-23T14:06:14Z</time>
      </trkpt>
      <trkpt lat="42.8512" lon="-0.15491">
        <ele>1559.4</ele>
        <time>2021-02-23T14:06:24Z</time>
      </trkpt>
      <trkpt lat="42.8512" lon="-0.15475">
        <ele>1558.92</ele>
        <time>2021-02-23T14:06:37Z</time>
      </trkpt>
      <trkpt lat="42.85119" lon="-0.15466">
        <ele>1558.92</ele>
        <time>2021-02-23T14:06:44Z</time>
      </trkpt>
      <trkpt lat="42.85116" lon="-0.15449">
        <ele>1556.99</ele>
        <time>2021-02-23T14:06:59Z</time>
      </trkpt>
      <trkpt lat="42.85117" lon="-0.15435">
        <ele>1558.92</ele>
        <time>2021-02-23T14:07:10Z</time>
      </trkpt>
      <trkpt lat="42.85117" lon="-0.15433">
        <ele>1559.88</ele>
        <time>2021-02-23T14:07:12Z</time>
      </trkpt>
      <trkpt lat="42.85118" lon="-0.15426">
        <ele>1558.43</ele>
        <time>2021-02-23T14:07:17Z</time>
      </trkpt>
      <trkpt lat="42.85119" lon="-0.15413">
        <ele>1559.88</ele>
        <time>2021-02-23T14:07:28Z</time>
      </trkpt>
      <trkpt lat="42.8512" lon="-0.15404">
        <ele>1558.43</ele>
        <time>2021-02-23T14:07:34Z</time>
      </trkpt>
      <trkpt lat="42.85127" lon="-0.15389">
        <ele>1558.92</ele>
        <time>2021-02-23T14:07:46Z</time>
      </trkpt>
      <trkpt lat="42.85131" lon="-0.15376">
        <ele>1557.95</ele>
        <time>2021-02-23T14:07:56Z</time>
      </trkpt>
      <trkpt lat="42.85134" lon="-0.15368">
        <ele>1559.88</ele>
        <time>2021-02-23T14:08:03Z</time>
      </trkpt>
      <trkpt lat="42.85136" lon="-0.15363">
        <ele>1558.43</ele>
        <time>2021-02-23T14:08:06Z</time>
      </trkpt>
      <trkpt lat="42.85139" lon="-0.15355">
        <ele>1559.88</ele>
        <time>2021-02-23T14:08:14Z</time>
      </trkpt>
      <trkpt lat="42.85143" lon="-0.15348">
        <ele>1559.88</ele>
        <time>2021-02-23T14:08:22Z</time>
      </trkpt>
      <trkpt lat="42.85144" lon="-0.15346">
        <ele>1559.88</ele>
        <time>2021-02-23T14:08:24Z</time>
      </trkpt>
      <trkpt lat="42.8515" lon="-0.15336">
        <ele>1559.88</ele>
        <time>2021-02-23T14:08:35Z</time>
      </trkpt>
      <trkpt lat="42.85155" lon="-0.15329">
        <ele>1558.92</ele>
        <time>2021-02-23T14:08:43Z</time>
      </trkpt>
      <trkpt lat="42.85159" lon="-0.15327">
        <ele>1560.36</ele>
        <time>2021-02-23T14:08:48Z</time>
      </trkpt>
      <trkpt lat="42.8516" lon="-0.15326">
        <ele>1561.8</ele>
        <time>2021-02-23T14:08:50Z</time>
      </trkpt>
      <trkpt lat="42.85165" lon="-0.15326">
        <ele>1564.2</ele>
        <time>2021-02-23T14:08:57Z</time>
      </trkpt>
      <trkpt lat="42.85169" lon="-0.15326">
        <ele>1564.2</ele>
        <time>2021-02-23T14:09:02Z</time>
      </trkpt>
      <trkpt lat="42.85171" lon="-0.15326">
        <ele>1564.2</ele>
        <time>2021-02-23T14:09:04Z</time>
      </trkpt>
      <trkpt lat="42.85181" lon="-0.15324">
        <ele>1566.12</ele>
        <time>2021-02-23T14:09:15Z</time>
      </trkpt>
      <trkpt lat="42.8519" lon="-0.15324">
        <ele>1564.68</ele>
        <time>2021-02-23T14:09:25Z</time>
      </trkpt>
      <trkpt lat="42.85197" lon="-0.15326">
        <ele>1565.64</ele>
        <time>2021-02-23T14:09:32Z</time>
      </trkpt>
      <trkpt lat="42.85198" lon="-0.15326">
        <ele>1565.64</ele>
        <time>2021-02-23T14:09:34Z</time>
      </trkpt>
      <trkpt lat="42.85207" lon="-0.15315">
        <ele>1564.2</ele>
        <time>2021-02-23T14:09:47Z</time>
      </trkpt>
      <trkpt lat="42.85211" lon="-0.1531">
        <ele>1565.16</ele>
        <time>2021-02-23T14:09:53Z</time>
      </trkpt>
      <trkpt lat="42.85214" lon="-0.15305">
        <ele>1561.8</ele>
        <time>2021-02-23T14:09:58Z</time>
      </trkpt>
      <trkpt lat="42.85217" lon="-0.15288">
        <ele>1560.84</ele>
        <time>2021-02-23T14:10:11Z</time>
      </trkpt>
      <trkpt lat="42.85218" lon="-0.15279">
        <ele>1560.84</ele>
        <time>2021-02-23T14:10:19Z</time>
      </trkpt>
      <trkpt lat="42.85219" lon="-0.15278">
        <ele>1560.84</ele>
        <time>2021-02-23T14:10:20Z</time>
      </trkpt>
      <trkpt lat="42.8522" lon="-0.15257">
        <ele>1559.88</ele>
        <time>2021-02-23T14:10:35Z</time>
      </trkpt>
      <trkpt lat="42.8522" lon="-0.15256">
        <ele>1559.88</ele>
        <time>2021-02-23T14:10:36Z</time>
      </trkpt>
      <trkpt lat="42.85222" lon="-0.15254">
        <ele>1560.36</ele>
        <time>2021-02-23T14:10:46Z</time>
      </trkpt>
      <trkpt lat="42.85222" lon="-0.1525">
        <ele>1560.36</ele>
        <time>2021-02-23T14:10:49Z</time>
      </trkpt>
      <trkpt lat="42.85224" lon="-0.15245">
        <ele>1558.92</ele>
        <time>2021-02-23T14:10:53Z</time>
      </trkpt>
      <trkpt lat="42.85227" lon="-0.1523">
        <ele>1558.92</ele>
        <time>2021-02-23T14:11:04Z</time>
      </trkpt>
      <trkpt lat="42.85229" lon="-0.15224">
        <ele>1560.36</ele>
        <time>2021-02-23T14:11:09Z</time>
      </trkpt>
      <trkpt lat="42.8523" lon="-0.15219">
        <ele>1560.36</ele>
        <time>2021-02-23T14:11:13Z</time>
      </trkpt>
      <trkpt lat="42.85232" lon="-0.15209">
        <ele>1561.8</ele>
        <time>2021-02-23T14:11:21Z</time>
      </trkpt>
      <trkpt lat="42.85234" lon="-0.15202">
        <ele>1560.84</ele>
        <time>2021-02-23T14:11:28Z</time>
      </trkpt>
      <trkpt lat="42.85234" lon="-0.15197">
        <ele>1559.88</ele>
        <time>2021-02-23T14:11:33Z</time>
      </trkpt>
      <trkpt lat="42.85235" lon="-0.15194">
        <ele>1559.4</ele>
        <time>2021-02-23T14:11:35Z</time>
      </trkpt>
      <trkpt lat="42.8524" lon="-0.1518">
        <ele>1558.43</ele>
        <time>2021-02-23T14:11:47Z</time>
      </trkpt>
      <trkpt lat="42.85241" lon="-0.15176">
        <ele>1558.43</ele>
        <time>2021-02-23T14:11:51Z</time>
      </trkpt>
      <trkpt lat="42.85242" lon="-0.1517">
        <ele>1558.43</ele>
        <time>2021-02-23T14:11:56Z</time>
      </trkpt>
      <trkpt lat="42.85244" lon="-0.1516">
        <ele>1557.47</ele>
        <time>2021-02-23T14:12:08Z</time>
      </trkpt>
      <trkpt lat="42.85246" lon="-0.15151">
        <ele>1556.99</ele>
        <time>2021-02-23T14:12:18Z</time>
      </trkpt>
      <trkpt lat="42.85249" lon="-0.15143">
        <ele>1555.55</ele>
        <time>2021-02-23T14:12:27Z</time>
      </trkpt>
      <trkpt lat="42.8525" lon="-0.15134">
        <ele>1553.63</ele>
        <time>2021-02-23T14:12:40Z</time>
      </trkpt>
      <trkpt lat="42.85248" lon="-0.15125">
        <ele>1552.19</ele>
        <time>2021-02-23T14:12:52Z</time>
      </trkpt>
      <trkpt lat="42.85245" lon="-0.15119">
        <ele>1551.22</ele>
        <time>2021-02-23T14:13:01Z</time>
      </trkpt>
      <trkpt lat="42.85243" lon="-0.15114">
        <ele>1550.26</ele>
        <time>2021-02-23T14:13:11Z</time>
      </trkpt>
      <trkpt lat="42.85239" lon="-0.15106">
        <ele>1549.3</ele>
        <time>2021-02-23T14:13:22Z</time>
      </trkpt>
      <trkpt lat="42.85235" lon="-0.15098">
        <ele>1548.34</ele>
        <time>2021-02-23T14:13:31Z</time>
      </trkpt>
      <trkpt lat="42.85232" lon="-0.15095">
        <ele>1548.34</ele>
        <time>2021-02-23T14:13:35Z</time>
      </trkpt>
      <trkpt lat="42.85229" lon="-0.15082">
        <ele>1548.34</ele>
        <time>2021-02-23T14:13:43Z</time>
      </trkpt>
      <trkpt lat="42.85221" lon="-0.15071">
        <ele>1547.86</ele>
        <time>2021-02-23T14:13:55Z</time>
      </trkpt>
      <trkpt lat="42.85214" lon="-0.15056">
        <ele>1544.5</ele>
        <time>2021-02-23T14:14:09Z</time>
      </trkpt>
      <trkpt lat="42.85212" lon="-0.15055">
        <ele>1545.46</ele>
        <time>2021-02-23T14:14:21Z</time>
      </trkpt>
      <trkpt lat="42.85212" lon="-0.15051">
        <ele>1545.46</ele>
        <time>2021-02-23T14:14:27Z</time>
      </trkpt>
      <trkpt lat="42.85211" lon="-0.15044">
        <ele>1545.94</ele>
        <time>2021-02-23T14:14:33Z</time>
      </trkpt>
      <trkpt lat="42.85212" lon="-0.1504">
        <ele>1545.94</ele>
        <time>2021-02-23T14:14:36Z</time>
      </trkpt>
      <trkpt lat="42.85205" lon="-0.1502">
        <ele>1543.05</ele>
        <time>2021-02-23T14:14:50Z</time>
      </trkpt>
      <trkpt lat="42.85203" lon="-0.15017">
        <ele>1541.61</ele>
        <time>2021-02-23T14:14:53Z</time>
      </trkpt>
      <trkpt lat="42.85203" lon="-0.15012">
        <ele>1541.61</ele>
        <time>2021-02-23T14:14:57Z</time>
      </trkpt>
      <trkpt lat="42.85199" lon="-0.14998">
        <ele>1539.69</ele>
        <time>2021-02-23T14:15:08Z</time>
      </trkpt>
      <trkpt lat="42.85194" lon="-0.14984">
        <ele>1537.29</ele>
        <time>2021-02-23T14:15:21Z</time>
      </trkpt>
      <trkpt lat="42.85192" lon="-0.14977">
        <ele>1536.8</ele>
        <time>2021-02-23T14:15:26Z</time>
      </trkpt>
      <trkpt lat="42.85183" lon="-0.14965">
        <ele>1533.92</ele>
        <time>2021-02-23T14:15:39Z</time>
      </trkpt>
      <trkpt lat="42.85174" lon="-0.14958">
        <ele>1532.48</ele>
        <time>2021-02-23T14:15:48Z</time>
      </trkpt>
      <trkpt lat="42.85172" lon="-0.14951">
        <ele>1531.52</ele>
        <time>2021-02-23T14:15:53Z</time>
      </trkpt>
      <trkpt lat="42.8517" lon="-0.14943">
        <ele>1531.52</ele>
        <time>2021-02-23T14:15:58Z</time>
      </trkpt>
      <trkpt lat="42.85168" lon="-0.14923">
        <ele>1531.04</ele>
        <time>2021-02-23T14:16:10Z</time>
      </trkpt>
      <trkpt lat="42.85166" lon="-0.14906">
        <ele>1527.67</ele>
        <time>2021-02-23T14:16:22Z</time>
      </trkpt>
      <trkpt lat="42.85167" lon="-0.14882">
        <ele>1525.75</ele>
        <time>2021-02-23T14:16:38Z</time>
      </trkpt>
      <trkpt lat="42.85167" lon="-0.14878">
        <ele>1527.67</ele>
        <time>2021-02-23T14:16:40Z</time>
      </trkpt>
      <trkpt lat="42.85167" lon="-0.14872">
        <ele>1525.75</ele>
        <time>2021-02-23T14:16:44Z</time>
      </trkpt>
      <trkpt lat="42.85167" lon="-0.14867">
        <ele>1524.31</ele>
        <time>2021-02-23T14:16:48Z</time>
      </trkpt>
      <trkpt lat="42.85165" lon="-0.1486">
        <ele>1523.83</ele>
        <time>2021-02-23T14:16:53Z</time>
      </trkpt>
      <trkpt lat="42.85167" lon="-0.14837">
        <ele>1520.46</ele>
        <time>2021-02-23T14:17:10Z</time>
      </trkpt>
      <trkpt lat="42.85165" lon="-0.14819">
        <ele>1518.54</ele>
        <time>2021-02-23T14:17:23Z</time>
      </trkpt>
      <trkpt lat="42.85163" lon="-0.148">
        <ele>1517.1</ele>
        <time>2021-02-23T14:17:36Z</time>
      </trkpt>
      <trkpt lat="42.85165" lon="-0.14776">
        <ele>1516.62</ele>
        <time>2021-02-23T14:17:51Z</time>
      </trkpt>
      <trkpt lat="42.8516" lon="-0.1475">
        <ele>1516.14</ele>
        <time>2021-02-23T14:18:07Z</time>
      </trkpt>
      <trkpt lat="42.85159" lon="-0.1473">
        <ele>1517.1</ele>
        <time>2021-02-23T14:18:20Z</time>
      </trkpt>
      <trkpt lat="42.85157" lon="-0.14712">
        <ele>1519.5</ele>
        <time>2021-02-23T14:18:31Z</time>
      </trkpt>
      <trkpt lat="42.85157" lon="-0.14708">
        <ele>1518.06</ele>
        <time>2021-02-23T14:18:34Z</time>
      </trkpt>
      <trkpt lat="42.85156" lon="-0.14685">
        <ele>1519.02</ele>
        <time>2021-02-23T14:18:48Z</time>
      </trkpt>
      <trkpt lat="42.85156" lon="-0.14678">
        <ele>1517.58</ele>
        <time>2021-02-23T14:18:52Z</time>
      </trkpt>
      <trkpt lat="42.85157" lon="-0.14657">
        <ele>1518.54</ele>
        <time>2021-02-23T14:19:04Z</time>
      </trkpt>
      <trkpt lat="42.8516" lon="-0.14647">
        <ele>1517.1</ele>
        <time>2021-02-23T14:19:11Z</time>
      </trkpt>
      <trkpt lat="42.85169" lon="-0.14627">
        <ele>1515.18</ele>
        <time>2021-02-23T14:19:25Z</time>
      </trkpt>
      <trkpt lat="42.8517" lon="-0.14624">
        <ele>1516.14</ele>
        <time>2021-02-23T14:19:27Z</time>
      </trkpt>
      <trkpt lat="42.85181" lon="-0.146">
        <ele>1516.62</ele>
        <time>2021-02-23T14:19:46Z</time>
      </trkpt>
      <trkpt lat="42.85191" lon="-0.14581">
        <ele>1516.62</ele>
        <time>2021-02-23T14:20:01Z</time>
      </trkpt>
      <trkpt lat="42.85199" lon="-0.14572">
        <ele>1516.62</ele>
        <time>2021-02-23T14:20:14Z</time>
      </trkpt>
      <trkpt lat="42.85201" lon="-0.14566">
        <ele>1515.18</ele>
        <time>2021-02-23T14:20:18Z</time>
      </trkpt>
      <trkpt lat="42.8521" lon="-0.14546">
        <ele>1515.18</ele>
        <time>2021-02-23T14:20:34Z</time>
      </trkpt>
      <trkpt lat="42.85214" lon="-0.14536">
        <ele>1516.62</ele>
        <time>2021-02-23T14:20:41Z</time>
      </trkpt>
      <trkpt lat="42.85218" lon="-0.14513">
        <ele>1516.62</ele>
        <time>2021-02-23T14:20:56Z</time>
      </trkpt>
      <trkpt lat="42.85224" lon="-0.14485">
        <ele>1519.02</ele>
        <time>2021-02-23T14:21:13Z</time>
      </trkpt>
      <trkpt lat="42.85231" lon="-0.14464">
        <ele>1517.58</ele>
        <time>2021-02-23T14:21:27Z</time>
      </trkpt>
      <trkpt lat="42.85238" lon="-0.14445">
        <ele>1517.58</ele>
        <time>2021-02-23T14:21:40Z</time>
      </trkpt>
      <trkpt lat="42.85239" lon="-0.14441">
        <ele>1519.5</ele>
        <time>2021-02-23T14:21:43Z</time>
      </trkpt>
      <trkpt lat="42.85241" lon="-0.14439">
        <ele>1517.58</ele>
        <time>2021-02-23T14:21:45Z</time>
      </trkpt>
      <trkpt lat="42.85246" lon="-0.14422">
        <ele>1518.54</ele>
        <time>2021-02-23T14:21:56Z</time>
      </trkpt>
      <trkpt lat="42.85248" lon="-0.14419">
        <ele>1517.58</ele>
        <time>2021-02-23T14:21:58Z</time>
      </trkpt>
      <trkpt lat="42.85249" lon="-0.14416">
        <ele>1518.54</ele>
        <time>2021-02-23T14:22:00Z</time>
      </trkpt>
      <trkpt lat="42.85256" lon="-0.14394">
        <ele>1519.02</ele>
        <time>2021-02-23T14:22:15Z</time>
      </trkpt>
      <trkpt lat="42.8526" lon="-0.14371">
        <ele>1519.02</ele>
        <time>2021-02-23T14:22:30Z</time>
      </trkpt>
      <trkpt lat="42.8526" lon="-0.14348">
        <ele>1519.02</ele>
        <time>2021-02-23T14:22:44Z</time>
      </trkpt>
      <trkpt lat="42.85259" lon="-0.14325">
        <ele>1519.02</ele>
        <time>2021-02-23T14:22:58Z</time>
      </trkpt>
      <trkpt lat="42.85259" lon="-0.14322">
        <ele>1517.58</ele>
        <time>2021-02-23T14:23:00Z</time>
      </trkpt>
      <trkpt lat="42.85258" lon="-0.14299">
        <ele>1517.58</ele>
        <time>2021-02-23T14:23:15Z</time>
      </trkpt>
      <trkpt lat="42.85254" lon="-0.14277">
        <ele>1517.1</ele>
        <time>2021-02-23T14:23:30Z</time>
      </trkpt>
      <trkpt lat="42.8524" lon="-0.14264">
        <ele>1517.58</ele>
        <time>2021-02-23T14:23:45Z</time>
      </trkpt>
      <trkpt lat="42.85237" lon="-0.14261">
        <ele>1519.02</ele>
        <time>2021-02-23T14:23:48Z</time>
      </trkpt>
      <trkpt lat="42.85225" lon="-0.1425">
        <ele>1519.02</ele>
        <time>2021-02-23T14:24:00Z</time>
      </trkpt>
      <trkpt lat="42.85216" lon="-0.14241">
        <ele>1518.06</ele>
        <time>2021-02-23T14:24:11Z</time>
      </trkpt>
      <trkpt lat="42.8521" lon="-0.1423">
        <ele>1516.62</ele>
        <time>2021-02-23T14:24:20Z</time>
      </trkpt>
      <trkpt lat="42.85204" lon="-0.14221">
        <ele>1517.58</ele>
        <time>2021-02-23T14:24:28Z</time>
      </trkpt>
      <trkpt lat="42.85192" lon="-0.14206">
        <ele>1518.06</ele>
        <time>2021-02-23T14:24:43Z</time>
      </trkpt>
      <trkpt lat="42.85182" lon="-0.14185">
        <ele>1516.62</ele>
        <time>2021-02-23T14:24:58Z</time>
      </trkpt>
      <trkpt lat="42.85171" lon="-0.14163">
        <ele>1516.14</ele>
        <time>2021-02-23T14:25:15Z</time>
      </trkpt>
      <trkpt lat="42.85158" lon="-0.14158">
        <ele>1514.21</ele>
        <time>2021-02-23T14:25:28Z</time>
      </trkpt>
      <trkpt lat="42.85143" lon="-0.14152">
        <ele>1511.81</ele>
        <time>2021-02-23T14:25:42Z</time>
      </trkpt>
      <trkpt lat="42.85136" lon="-0.14133">
        <ele>1509.89</ele>
        <time>2021-02-23T14:25:55Z</time>
      </trkpt>
      <trkpt lat="42.85129" lon="-0.14108">
        <ele>1507.48</ele>
        <time>2021-02-23T14:26:12Z</time>
      </trkpt>
      <trkpt lat="42.85124" lon="-0.14084">
        <ele>1505.56</ele>
        <time>2021-02-23T14:26:29Z</time>
      </trkpt>
      <trkpt lat="42.85124" lon="-0.14074">
        <ele>1504.6</ele>
        <time>2021-02-23T14:26:35Z</time>
      </trkpt>
      <trkpt lat="42.85124" lon="-0.14065">
        <ele>1504.6</ele>
        <time>2021-02-23T14:26:40Z</time>
      </trkpt>
      <trkpt lat="42.85126" lon="-0.14042">
        <ele>1503.16</ele>
        <time>2021-02-23T14:26:55Z</time>
      </trkpt>
      <trkpt lat="42.8513" lon="-0.14025">
        <ele>1502.2</ele>
        <time>2021-02-23T14:27:07Z</time>
      </trkpt>
      <trkpt lat="42.85138" lon="-0.14003">
        <ele>1500.76</ele>
        <time>2021-02-23T14:27:23Z</time>
      </trkpt>
      <trkpt lat="42.8514" lon="-0.13995">
        <ele>1499.79</ele>
        <time>2021-02-23T14:27:30Z</time>
      </trkpt>
      <trkpt lat="42.85138" lon="-0.13983">
        <ele>1497.39</ele>
        <time>2021-02-23T14:27:40Z</time>
      </trkpt>
      <trkpt lat="42.85133" lon="-0.13979">
        <ele>1497.87</ele>
        <time>2021-02-23T14:27:46Z</time>
      </trkpt>
      <trkpt lat="42.85116" lon="-0.13986">
        <ele>1496.43</ele>
        <time>2021-02-23T14:28:02Z</time>
      </trkpt>
      <trkpt lat="42.85107" lon="-0.13982">
        <ele>1495.95</ele>
        <time>2021-02-23T14:28:11Z</time>
      </trkpt>
      <trkpt lat="42.8511" lon="-0.13973">
        <ele>1493.55</ele>
        <time>2021-02-23T14:28:22Z</time>
      </trkpt>
      <trkpt lat="42.85113" lon="-0.13965">
        <ele>1492.58</ele>
        <time>2021-02-23T14:28:30Z</time>
      </trkpt>
      <trkpt lat="42.85123" lon="-0.13953">
        <ele>1490.66</ele>
        <time>2021-02-23T14:28:45Z</time>
      </trkpt>
      <trkpt lat="42.8513" lon="-0.13947">
        <ele>1487.78</ele>
        <time>2021-02-23T14:28:54Z</time>
      </trkpt>
      <trkpt lat="42.85132" lon="-0.13945">
        <ele>1487.78</ele>
        <time>2021-02-23T14:28:56Z</time>
      </trkpt>
      <trkpt lat="42.85141" lon="-0.13935">
        <ele>1485.85</ele>
        <time>2021-02-23T14:29:10Z</time>
      </trkpt>
      <trkpt lat="42.85139" lon="-0.13934">
        <ele>1488.26</ele>
        <time>2021-02-23T14:29:14Z</time>
      </trkpt>
      <trkpt lat="42.85139" lon="-0.13933">
        <ele>1488.26</ele>
        <time>2021-02-23T14:29:15Z</time>
      </trkpt>
      <trkpt lat="42.85137" lon="-0.13933">
        <ele>1486.34</ele>
        <time>2021-02-23T14:29:17Z</time>
      </trkpt>
      <trkpt lat="42.8513" lon="-0.13936">
        <ele>1484.41</ele>
        <time>2021-02-23T14:29:24Z</time>
      </trkpt>
      <trkpt lat="42.85119" lon="-0.13941">
        <ele>1483.45</ele>
        <time>2021-02-23T14:29:37Z</time>
      </trkpt>
      <trkpt lat="42.85112" lon="-0.13938">
        <ele>1482.49</ele>
        <time>2021-02-23T14:29:47Z</time>
      </trkpt>
      <trkpt lat="42.85108" lon="-0.1393">
        <ele>1482.01</ele>
        <time>2021-02-23T14:29:58Z</time>
      </trkpt>
      <trkpt lat="42.85103" lon="-0.13925">
        <ele>1482.01</ele>
        <time>2021-02-23T14:30:06Z</time>
      </trkpt>
      <trkpt lat="42.85101" lon="-0.139">
        <ele>1480.09</ele>
        <time>2021-02-23T14:30:19Z</time>
      </trkpt>
      <trkpt lat="42.85101" lon="-0.13898">
        <ele>1479.61</ele>
        <time>2021-02-23T14:30:20Z</time>
      </trkpt>
      <trkpt lat="42.85105" lon="-0.13882">
        <ele>1478.16</ele>
        <time>2021-02-23T14:30:32Z</time>
      </trkpt>
      <trkpt lat="42.85109" lon="-0.13868">
        <ele>1477.2</ele>
        <time>2021-02-23T14:30:43Z</time>
      </trkpt>
      <trkpt lat="42.85115" lon="-0.13857">
        <ele>1475.76</ele>
        <time>2021-02-23T14:30:54Z</time>
      </trkpt>
      <trkpt lat="42.85123" lon="-0.1385">
        <ele>1475.28</ele>
        <time>2021-02-23T14:31:05Z</time>
      </trkpt>
      <trkpt lat="42.85123" lon="-0.13849">
        <ele>1475.28</ele>
        <time>2021-02-23T14:31:06Z</time>
      </trkpt>
      <trkpt lat="42.85129" lon="-0.13842">
        <ele>1474.32</ele>
        <time>2021-02-23T14:31:14Z</time>
      </trkpt>
      <trkpt lat="42.85131" lon="-0.13839">
        <ele>1473.84</ele>
        <time>2021-02-23T14:31:17Z</time>
      </trkpt>
      <trkpt lat="42.85134" lon="-0.13817">
        <ele>1472.4</ele>
        <time>2021-02-23T14:31:32Z</time>
      </trkpt>
      <trkpt lat="42.85133" lon="-0.13794">
        <ele>1469.99</ele>
        <time>2021-02-23T14:31:47Z</time>
      </trkpt>
      <trkpt lat="42.85137" lon="-0.13775">
        <ele>1467.59</ele>
        <time>2021-02-23T14:32:00Z</time>
      </trkpt>
      <trkpt lat="42.8514" lon="-0.13763">
        <ele>1466.63</ele>
        <time>2021-02-23T14:32:08Z</time>
      </trkpt>
      <trkpt lat="42.85147" lon="-0.1374">
        <ele>1466.15</ele>
        <time>2021-02-23T14:32:25Z</time>
      </trkpt>
      <trkpt lat="42.85152" lon="-0.13727">
        <ele>1466.15</ele>
        <time>2021-02-23T14:32:36Z</time>
      </trkpt>
      <trkpt lat="42.8516" lon="-0.13711">
        <ele>1466.15</ele>
        <time>2021-02-23T14:32:49Z</time>
      </trkpt>
      <trkpt lat="42.85166" lon="-0.1369">
        <ele>1463.26</ele>
        <time>2021-02-23T14:33:06Z</time>
      </trkpt>
      <trkpt lat="42.85168" lon="-0.13675">
        <ele>1462.78</ele>
        <time>2021-02-23T14:33:18Z</time>
      </trkpt>
      <trkpt lat="42.85172" lon="-0.13662">
        <ele>1461.82</ele>
        <time>2021-02-23T14:33:31Z</time>
      </trkpt>
      <trkpt lat="42.85173" lon="-0.13651">
        <ele>1461.34</ele>
        <time>2021-02-23T14:33:43Z</time>
      </trkpt>
      <trkpt lat="42.8517" lon="-0.13651">
        <ele>1459.42</ele>
        <time>2021-02-23T14:34:05Z</time>
      </trkpt>
      <trkpt lat="42.85171" lon="-0.13645">
        <ele>1459.42</ele>
        <time>2021-02-23T14:34:15Z</time>
      </trkpt>
      <trkpt lat="42.85171" lon="-0.13646">
        <ele>1461.34</ele>
        <time>2021-02-23T14:34:20Z</time>
      </trkpt>
      <trkpt lat="42.85175" lon="-0.13645">
        <ele>1461.34</ele>
        <time>2021-02-23T14:34:30Z</time>
      </trkpt>
      <trkpt lat="42.85174" lon="-0.13647">
        <ele>1459.9</ele>
        <time>2021-02-23T14:34:36Z</time>
      </trkpt>
      <trkpt lat="42.85174" lon="-0.13647">
        <ele>1461.34</ele>
        <time>2021-02-23T14:34:48Z</time>
      </trkpt>
      <trkpt lat="42.85173" lon="-0.13646">
        <ele>1461.82</ele>
        <time>2021-02-23T14:34:59Z</time>
      </trkpt>
      <trkpt lat="42.85173" lon="-0.13649">
        <ele>1461.34</ele>
        <time>2021-02-23T14:35:07Z</time>
      </trkpt>
      <trkpt lat="42.85174" lon="-0.13645">
        <ele>1461.82</ele>
        <time>2021-02-23T14:35:21Z</time>
      </trkpt>
      <trkpt lat="42.85177" lon="-0.13645">
        <ele>1459.42</ele>
        <time>2021-02-23T14:35:33Z</time>
      </trkpt>
      <trkpt lat="42.8518" lon="-0.13648">
        <ele>1460.86</ele>
        <time>2021-02-23T14:35:42Z</time>
      </trkpt>
      <trkpt lat="42.85178" lon="-0.13648">
        <ele>1459.9</ele>
        <time>2021-02-23T14:35:53Z</time>
      </trkpt>
      <trkpt lat="42.85175" lon="-0.13645">
        <ele>1461.34</ele>
        <time>2021-02-23T14:36:13Z</time>
      </trkpt>
      <trkpt lat="42.85177" lon="-0.13644">
        <ele>1461.82</ele>
        <time>2021-02-23T14:36:29Z</time>
      </trkpt>
      <trkpt lat="42.85178" lon="-0.13643">
        <ele>1460.38</ele>
        <time>2021-02-23T14:36:35Z</time>
      </trkpt>
      <trkpt lat="42.85177" lon="-0.13644">
        <ele>1458.94</ele>
        <time>2021-02-23T14:36:51Z</time>
      </trkpt>
      <trkpt lat="42.8518" lon="-0.13645">
        <ele>1459.9</ele>
        <time>2021-02-23T14:37:02Z</time>
      </trkpt>
      <trkpt lat="42.85177" lon="-0.13645">
        <ele>1461.82</ele>
        <time>2021-02-23T14:37:26Z</time>
      </trkpt>
      <trkpt lat="42.85176" lon="-0.13646">
        <ele>1460.86</ele>
        <time>2021-02-23T14:37:36Z</time>
      </trkpt>
      <trkpt lat="42.85177" lon="-0.13645">
        <ele>1461.34</ele>
        <time>2021-02-23T14:38:00Z</time>
      </trkpt>
      <trkpt lat="42.85179" lon="-0.13644">
        <ele>1459.9</ele>
        <time>2021-02-23T14:38:06Z</time>
      </trkpt>
      <trkpt lat="42.85179" lon="-0.13646">
        <ele>1461.34</ele>
        <time>2021-02-23T14:38:11Z</time>
      </trkpt>
      <trkpt lat="42.85179" lon="-0.13647">
        <ele>1459.9</ele>
        <time>2021-02-23T14:38:13Z</time>
      </trkpt>
      <trkpt lat="42.85179" lon="-0.13647">
        <ele>1461.82</ele>
        <time>2021-02-23T14:38:15Z</time>
      </trkpt>
      <trkpt lat="42.85179" lon="-0.13648">
        <ele>1460.38</ele>
        <time>2021-02-23T14:38:22Z</time>
      </trkpt>
      <trkpt lat="42.85176" lon="-0.13646">
        <ele>1463.26</ele>
        <time>2021-02-23T14:38:36Z</time>
      </trkpt>
      <trkpt lat="42.85176" lon="-0.13645">
        <ele>1463.26</ele>
        <time>2021-02-23T14:38:37Z</time>
      </trkpt>
      <trkpt lat="42.85178" lon="-0.13648">
        <ele>1461.34</ele>
        <time>2021-02-23T14:38:46Z</time>
      </trkpt>
      <trkpt lat="42.85175" lon="-0.13651">
        <ele>1461.82</ele>
        <time>2021-02-23T14:39:06Z</time>
      </trkpt>
      <trkpt lat="42.85172" lon="-0.13647">
        <ele>1461.82</ele>
        <time>2021-02-23T14:39:23Z</time>
      </trkpt>
      <trkpt lat="42.85174" lon="-0.13646">
        <ele>1462.3</ele>
        <time>2021-02-23T14:39:51Z</time>
      </trkpt>
      <trkpt lat="42.85177" lon="-0.13649">
        <ele>1461.34</ele>
        <time>2021-02-23T14:40:04Z</time>
      </trkpt>
      <trkpt lat="42.85175" lon="-0.13652">
        <ele>1462.3</ele>
        <time>2021-02-23T14:40:31Z</time>
      </trkpt>
      <trkpt lat="42.85177" lon="-0.13649">
        <ele>1460.38</ele>
        <time>2021-02-23T14:40:54Z</time>
      </trkpt>
      <trkpt lat="42.85175" lon="-0.13648">
        <ele>1460.86</ele>
        <time>2021-02-23T14:41:12Z</time>
      </trkpt>
    </trkseg>
  </trk>
</gpx>